<?xml version="1.0" encoding="UTF-8" standalone="no" ?>
<gpx xmlns="http://www.topografix.com/GPX/1/1" xmlns:xsi="http://www.w3.org/2001/XMLSchema-instance" xsi:schemaLocation="http://www.topografix.com/GPX/1/1 http://www.topografix.com/GPX/1/1/gpx.xsd" version="1.1" creator="VisuGPX - https://www.visugpx.com">
  <metadata>
    <name>de saint martin en vesubie à menton - ucpa sept 2014</name>
    <desc><![CDATA[...................]]></desc>
  </metadata>
  <trk>
    <name><![CDATA[2014-09-06 10:26:29]]></name>
    <trkseg>
      <trkpt lat="44.06366" lon="7.25186">
        <ele>910.54</ele>
        <time>2014-08-31T12:22:04Z</time>
      </trkpt>
      <trkpt lat="44.06366" lon="7.25185">
        <ele>1076.16</ele>
        <time>2014-08-31T12:22:05Z</time>
      </trkpt>
      <trkpt lat="44.06368" lon="7.25184">
        <ele>1076.88</ele>
        <time>2014-08-31T12:22:07Z</time>
      </trkpt>
      <trkpt lat="44.0637" lon="7.25185">
        <ele>1076.99</ele>
        <time>2014-08-31T12:22:08Z</time>
      </trkpt>
      <trkpt lat="44.06371" lon="7.25185">
        <ele>1076.99</ele>
        <time>2014-08-31T12:22:09Z</time>
      </trkpt>
      <trkpt lat="44.06371" lon="7.25184">
        <ele>1076.96</ele>
        <time>2014-08-31T12:22:10Z</time>
      </trkpt>
      <trkpt lat="44.06371" lon="7.25182">
        <ele>1076.95</ele>
        <time>2014-08-31T12:22:11Z</time>
      </trkpt>
      <trkpt lat="44.06374" lon="7.25179">
        <ele>1076.95</ele>
        <time>2014-08-31T12:22:12Z</time>
      </trkpt>
      <trkpt lat="44.06372" lon="7.25177">
        <ele>1076.92</ele>
        <time>2014-08-31T12:22:13Z</time>
      </trkpt>
      <trkpt lat="44.06372" lon="7.25176">
        <ele>1076.91</ele>
        <time>2014-08-31T12:22:14Z</time>
      </trkpt>
      <trkpt lat="44.06372" lon="7.25175">
        <ele>1076.9</ele>
        <time>2014-08-31T12:22:15Z</time>
      </trkpt>
      <trkpt lat="44.06373" lon="7.25175">
        <ele>1076.82</ele>
        <time>2014-08-31T12:22:16Z</time>
      </trkpt>
      <trkpt lat="44.06378" lon="7.25178">
        <ele>1076.7</ele>
        <time>2014-08-31T12:22:17Z</time>
      </trkpt>
      <trkpt lat="44.06392" lon="7.25182">
        <ele>1076.34</ele>
        <time>2014-08-31T12:22:19Z</time>
      </trkpt>
      <trkpt lat="44.06394" lon="7.25184">
        <ele>1076.19</ele>
        <time>2014-08-31T12:22:20Z</time>
      </trkpt>
      <trkpt lat="44.06394" lon="7.25182">
        <ele>1076.1</ele>
        <time>2014-08-31T12:22:22Z</time>
      </trkpt>
      <trkpt lat="44.06395" lon="7.25177">
        <ele>1076.04</ele>
        <time>2014-08-31T12:22:23Z</time>
      </trkpt>
      <trkpt lat="44.06396" lon="7.25178">
        <ele>1075.99</ele>
        <time>2014-08-31T12:22:24Z</time>
      </trkpt>
      <trkpt lat="44.06397" lon="7.25176">
        <ele>1075.92</ele>
        <time>2014-08-31T12:22:25Z</time>
      </trkpt>
      <trkpt lat="44.064" lon="7.25178">
        <ele>1075.86</ele>
        <time>2014-08-31T12:22:27Z</time>
      </trkpt>
      <trkpt lat="44.06402" lon="7.25177">
        <ele>1075.85</ele>
        <time>2014-08-31T12:22:28Z</time>
      </trkpt>
      <trkpt lat="44.06401" lon="7.25176">
        <ele>1075.78</ele>
        <time>2014-08-31T12:22:29Z</time>
      </trkpt>
      <trkpt lat="44.06401" lon="7.25173">
        <ele>1075.72</ele>
        <time>2014-08-31T12:22:30Z</time>
      </trkpt>
      <trkpt lat="44.06402" lon="7.25173">
        <ele>1075.67</ele>
        <time>2014-08-31T12:22:31Z</time>
      </trkpt>
      <trkpt lat="44.06405" lon="7.25172">
        <ele>1075.63</ele>
        <time>2014-08-31T12:22:32Z</time>
      </trkpt>
      <trkpt lat="44.06405" lon="7.25171">
        <ele>1075.6</ele>
        <time>2014-08-31T12:22:33Z</time>
      </trkpt>
      <trkpt lat="44.06409" lon="7.25173">
        <ele>1075.58</ele>
        <time>2014-08-31T12:22:34Z</time>
      </trkpt>
      <trkpt lat="44.06409" lon="7.25173">
        <ele>1075.56</ele>
        <time>2014-08-31T12:22:35Z</time>
      </trkpt>
      <trkpt lat="44.06409" lon="7.25172">
        <ele>1075.54</ele>
        <time>2014-08-31T12:22:36Z</time>
      </trkpt>
      <trkpt lat="44.0641" lon="7.25172">
        <ele>1075.51</ele>
        <time>2014-08-31T12:22:37Z</time>
      </trkpt>
      <trkpt lat="44.06411" lon="7.25172">
        <ele>1075.44</ele>
        <time>2014-08-31T12:22:38Z</time>
      </trkpt>
      <trkpt lat="44.06411" lon="7.25171">
        <ele>1075.38</ele>
        <time>2014-08-31T12:22:39Z</time>
      </trkpt>
      <trkpt lat="44.06412" lon="7.25171">
        <ele>1075.35</ele>
        <time>2014-08-31T12:22:40Z</time>
      </trkpt>
      <trkpt lat="44.06413" lon="7.2517">
        <ele>1075.32</ele>
        <time>2014-08-31T12:22:41Z</time>
      </trkpt>
      <trkpt lat="44.06414" lon="7.2517">
        <ele>1075.24</ele>
        <time>2014-08-31T12:22:42Z</time>
      </trkpt>
      <trkpt lat="44.06415" lon="7.25169">
        <ele>1075.15</ele>
        <time>2014-08-31T12:22:43Z</time>
      </trkpt>
      <trkpt lat="44.06416" lon="7.25169">
        <ele>1075.07</ele>
        <time>2014-08-31T12:22:44Z</time>
      </trkpt>
      <trkpt lat="44.06417" lon="7.25168">
        <ele>1075.04</ele>
        <time>2014-08-31T12:22:45Z</time>
      </trkpt>
      <trkpt lat="44.06418" lon="7.25168">
        <ele>1075.03</ele>
        <time>2014-08-31T12:22:46Z</time>
      </trkpt>
      <trkpt lat="44.06419" lon="7.25168">
        <ele>1074.95</ele>
        <time>2014-08-31T12:22:47Z</time>
      </trkpt>
      <trkpt lat="44.0642" lon="7.25167">
        <ele>1074.87</ele>
        <time>2014-08-31T12:22:48Z</time>
      </trkpt>
      <trkpt lat="44.06422" lon="7.25167">
        <ele>1074.84</ele>
        <time>2014-08-31T12:22:49Z</time>
      </trkpt>
      <trkpt lat="44.06423" lon="7.25167">
        <ele>1074.83</ele>
        <time>2014-08-31T12:22:50Z</time>
      </trkpt>
      <trkpt lat="44.06424" lon="7.25167">
        <ele>1074.8</ele>
        <time>2014-08-31T12:22:51Z</time>
      </trkpt>
      <trkpt lat="44.06426" lon="7.25166">
        <ele>1074.77</ele>
        <time>2014-08-31T12:22:52Z</time>
      </trkpt>
      <trkpt lat="44.06427" lon="7.25166">
        <ele>1074.74</ele>
        <time>2014-08-31T12:22:53Z</time>
      </trkpt>
      <trkpt lat="44.06427" lon="7.25164">
        <ele>1074.7</ele>
        <time>2014-08-31T12:22:54Z</time>
      </trkpt>
      <trkpt lat="44.06428" lon="7.25164">
        <ele>1074.66</ele>
        <time>2014-08-31T12:22:55Z</time>
      </trkpt>
      <trkpt lat="44.06429" lon="7.25163">
        <ele>1074.63</ele>
        <time>2014-08-31T12:22:56Z</time>
      </trkpt>
      <trkpt lat="44.06431" lon="7.25161">
        <ele>1074.52</ele>
        <time>2014-08-31T12:22:58Z</time>
      </trkpt>
      <trkpt lat="44.06431" lon="7.2516">
        <ele>1074.47</ele>
        <time>2014-08-31T12:22:59Z</time>
      </trkpt>
      <trkpt lat="44.06432" lon="7.25159">
        <ele>1074.4</ele>
        <time>2014-08-31T12:23:00Z</time>
      </trkpt>
      <trkpt lat="44.06432" lon="7.25158">
        <ele>1074.34</ele>
        <time>2014-08-31T12:23:01Z</time>
      </trkpt>
      <trkpt lat="44.06433" lon="7.25158">
        <ele>1074.28</ele>
        <time>2014-08-31T12:23:02Z</time>
      </trkpt>
      <trkpt lat="44.06434" lon="7.25156">
        <ele>1074.27</ele>
        <time>2014-08-31T12:23:03Z</time>
      </trkpt>
      <trkpt lat="44.06434" lon="7.25155">
        <ele>1074.23</ele>
        <time>2014-08-31T12:23:04Z</time>
      </trkpt>
      <trkpt lat="44.06435" lon="7.25152">
        <ele>1074.36</ele>
        <time>2014-08-31T12:23:06Z</time>
      </trkpt>
      <trkpt lat="44.06436" lon="7.2515">
        <ele>1074.46</ele>
        <time>2014-08-31T12:23:07Z</time>
      </trkpt>
      <trkpt lat="44.06437" lon="7.25149">
        <ele>1074.46</ele>
        <time>2014-08-31T12:23:08Z</time>
      </trkpt>
      <trkpt lat="44.06439" lon="7.25146">
        <ele>1074.42</ele>
        <time>2014-08-31T12:23:10Z</time>
      </trkpt>
      <trkpt lat="44.0644" lon="7.25145">
        <ele>1074.38</ele>
        <time>2014-08-31T12:23:11Z</time>
      </trkpt>
      <trkpt lat="44.06442" lon="7.25145">
        <ele>1074.36</ele>
        <time>2014-08-31T12:23:12Z</time>
      </trkpt>
      <trkpt lat="44.06444" lon="7.25144">
        <ele>1074.29</ele>
        <time>2014-08-31T12:23:13Z</time>
      </trkpt>
      <trkpt lat="44.06445" lon="7.25143">
        <ele>1074.2</ele>
        <time>2014-08-31T12:23:14Z</time>
      </trkpt>
      <trkpt lat="44.06447" lon="7.25143">
        <ele>1074.14</ele>
        <time>2014-08-31T12:23:15Z</time>
      </trkpt>
      <trkpt lat="44.06449" lon="7.25142">
        <ele>1074.07</ele>
        <time>2014-08-31T12:23:16Z</time>
      </trkpt>
      <trkpt lat="44.0645" lon="7.25141">
        <ele>1074.04</ele>
        <time>2014-08-31T12:23:17Z</time>
      </trkpt>
      <trkpt lat="44.06451" lon="7.2514">
        <ele>1074.04</ele>
        <time>2014-08-31T12:23:18Z</time>
      </trkpt>
      <trkpt lat="44.06451" lon="7.25139">
        <ele>1074.02</ele>
        <time>2014-08-31T12:23:19Z</time>
      </trkpt>
      <trkpt lat="44.06452" lon="7.25138">
        <ele>1073.95</ele>
        <time>2014-08-31T12:23:20Z</time>
      </trkpt>
      <trkpt lat="44.06453" lon="7.25137">
        <ele>1073.92</ele>
        <time>2014-08-31T12:23:21Z</time>
      </trkpt>
      <trkpt lat="44.06454" lon="7.25137">
        <ele>1073.87</ele>
        <time>2014-08-31T12:23:22Z</time>
      </trkpt>
      <trkpt lat="44.06455" lon="7.25136">
        <ele>1073.81</ele>
        <time>2014-08-31T12:23:23Z</time>
      </trkpt>
      <trkpt lat="44.06457" lon="7.25136">
        <ele>1073.76</ele>
        <time>2014-08-31T12:23:24Z</time>
      </trkpt>
      <trkpt lat="44.06458" lon="7.25136">
        <ele>1073.71</ele>
        <time>2014-08-31T12:23:25Z</time>
      </trkpt>
      <trkpt lat="44.06459" lon="7.25135">
        <ele>1073.67</ele>
        <time>2014-08-31T12:23:26Z</time>
      </trkpt>
      <trkpt lat="44.0646" lon="7.25134">
        <ele>1073.63</ele>
        <time>2014-08-31T12:23:27Z</time>
      </trkpt>
      <trkpt lat="44.0646" lon="7.25134">
        <ele>1073.56</ele>
        <time>2014-08-31T12:23:28Z</time>
      </trkpt>
      <trkpt lat="44.0646" lon="7.25133">
        <ele>1073.48</ele>
        <time>2014-08-31T12:23:29Z</time>
      </trkpt>
      <trkpt lat="44.06461" lon="7.25133">
        <ele>1073.4</ele>
        <time>2014-08-31T12:23:30Z</time>
      </trkpt>
      <trkpt lat="44.06462" lon="7.25133">
        <ele>1073.38</ele>
        <time>2014-08-31T12:23:31Z</time>
      </trkpt>
      <trkpt lat="44.06463" lon="7.25132">
        <ele>1073.36</ele>
        <time>2014-08-31T12:23:32Z</time>
      </trkpt>
      <trkpt lat="44.06464" lon="7.25132">
        <ele>1073.31</ele>
        <time>2014-08-31T12:23:33Z</time>
      </trkpt>
      <trkpt lat="44.06465" lon="7.25131">
        <ele>1073.26</ele>
        <time>2014-08-31T12:23:34Z</time>
      </trkpt>
      <trkpt lat="44.06466" lon="7.25131">
        <ele>1073.25</ele>
        <time>2014-08-31T12:23:35Z</time>
      </trkpt>
      <trkpt lat="44.06469" lon="7.25132">
        <ele>1073.11</ele>
        <time>2014-08-31T12:23:37Z</time>
      </trkpt>
      <trkpt lat="44.0647" lon="7.25131">
        <ele>1073.05</ele>
        <time>2014-08-31T12:23:38Z</time>
      </trkpt>
      <trkpt lat="44.06471" lon="7.25131">
        <ele>1073</ele>
        <time>2014-08-31T12:23:39Z</time>
      </trkpt>
      <trkpt lat="44.06472" lon="7.2513">
        <ele>1072.97</ele>
        <time>2014-08-31T12:23:40Z</time>
      </trkpt>
      <trkpt lat="44.06473" lon="7.2513">
        <ele>1072.97</ele>
        <time>2014-08-31T12:23:41Z</time>
      </trkpt>
      <trkpt lat="44.06474" lon="7.2513">
        <ele>1072.93</ele>
        <time>2014-08-31T12:23:42Z</time>
      </trkpt>
      <trkpt lat="44.06474" lon="7.25129">
        <ele>1072.8</ele>
        <time>2014-08-31T12:23:43Z</time>
      </trkpt>
      <trkpt lat="44.06475" lon="7.25128">
        <ele>1072.66</ele>
        <time>2014-08-31T12:23:44Z</time>
      </trkpt>
      <trkpt lat="44.06476" lon="7.25129">
        <ele>1072.56</ele>
        <time>2014-08-31T12:23:45Z</time>
      </trkpt>
      <trkpt lat="44.06476" lon="7.25128">
        <ele>1072.49</ele>
        <time>2014-08-31T12:23:46Z</time>
      </trkpt>
      <trkpt lat="44.06476" lon="7.25128">
        <ele>1072.41</ele>
        <time>2014-08-31T12:23:47Z</time>
      </trkpt>
      <trkpt lat="44.06477" lon="7.25127">
        <ele>1072.36</ele>
        <time>2014-08-31T12:23:48Z</time>
      </trkpt>
      <trkpt lat="44.06477" lon="7.25127">
        <ele>1072.34</ele>
        <time>2014-08-31T12:23:49Z</time>
      </trkpt>
      <trkpt lat="44.06478" lon="7.25126">
        <ele>1072.35</ele>
        <time>2014-08-31T12:23:50Z</time>
      </trkpt>
      <trkpt lat="44.06479" lon="7.25126">
        <ele>1072.35</ele>
        <time>2014-08-31T12:23:51Z</time>
      </trkpt>
      <trkpt lat="44.0648" lon="7.25125">
        <ele>1072.33</ele>
        <time>2014-08-31T12:23:52Z</time>
      </trkpt>
      <trkpt lat="44.06483" lon="7.25125">
        <ele>1072.3</ele>
        <time>2014-08-31T12:23:53Z</time>
      </trkpt>
      <trkpt lat="44.06483" lon="7.25124">
        <ele>1072.28</ele>
        <time>2014-08-31T12:23:54Z</time>
      </trkpt>
      <trkpt lat="44.06484" lon="7.25123">
        <ele>1072.21</ele>
        <time>2014-08-31T12:23:55Z</time>
      </trkpt>
      <trkpt lat="44.06485" lon="7.25123">
        <ele>1072.16</ele>
        <time>2014-08-31T12:23:56Z</time>
      </trkpt>
      <trkpt lat="44.06488" lon="7.25123">
        <ele>1072.12</ele>
        <time>2014-08-31T12:23:57Z</time>
      </trkpt>
      <trkpt lat="44.0649" lon="7.25123">
        <ele>1072.11</ele>
        <time>2014-08-31T12:23:58Z</time>
      </trkpt>
      <trkpt lat="44.06491" lon="7.25123">
        <ele>1072.08</ele>
        <time>2014-08-31T12:23:59Z</time>
      </trkpt>
      <trkpt lat="44.06493" lon="7.25123">
        <ele>1071.97</ele>
        <time>2014-08-31T12:24:00Z</time>
      </trkpt>
      <trkpt lat="44.06495" lon="7.25124">
        <ele>1071.93</ele>
        <time>2014-08-31T12:24:01Z</time>
      </trkpt>
      <trkpt lat="44.06495" lon="7.25124">
        <ele>1071.91</ele>
        <time>2014-08-31T12:24:02Z</time>
      </trkpt>
      <trkpt lat="44.06495" lon="7.25123">
        <ele>1071.84</ele>
        <time>2014-08-31T12:24:03Z</time>
      </trkpt>
      <trkpt lat="44.06494" lon="7.25122">
        <ele>1071.71</ele>
        <time>2014-08-31T12:24:04Z</time>
      </trkpt>
      <trkpt lat="44.06494" lon="7.25121">
        <ele>1071.7</ele>
        <time>2014-08-31T12:24:05Z</time>
      </trkpt>
      <trkpt lat="44.06497" lon="7.2512">
        <ele>1071.56</ele>
        <time>2014-08-31T12:24:08Z</time>
      </trkpt>
      <trkpt lat="44.065" lon="7.2512">
        <ele>1071.4</ele>
        <time>2014-08-31T12:24:10Z</time>
      </trkpt>
      <trkpt lat="44.06501" lon="7.2512">
        <ele>1071.34</ele>
        <time>2014-08-31T12:24:12Z</time>
      </trkpt>
      <trkpt lat="44.06502" lon="7.2512">
        <ele>1071.28</ele>
        <time>2014-08-31T12:24:13Z</time>
      </trkpt>
      <trkpt lat="44.06503" lon="7.25121">
        <ele>1071.25</ele>
        <time>2014-08-31T12:24:14Z</time>
      </trkpt>
      <trkpt lat="44.06504" lon="7.2512">
        <ele>1071.21</ele>
        <time>2014-08-31T12:24:15Z</time>
      </trkpt>
      <trkpt lat="44.06509" lon="7.25119">
        <ele>1071.15</ele>
        <time>2014-08-31T12:24:16Z</time>
      </trkpt>
      <trkpt lat="44.06511" lon="7.25119">
        <ele>1071.12</ele>
        <time>2014-08-31T12:24:17Z</time>
      </trkpt>
      <trkpt lat="44.06516" lon="7.25118">
        <ele>1070.93</ele>
        <time>2014-08-31T12:24:19Z</time>
      </trkpt>
      <trkpt lat="44.0652" lon="7.25118">
        <ele>1070.96</ele>
        <time>2014-08-31T12:24:20Z</time>
      </trkpt>
      <trkpt lat="44.06521" lon="7.25118">
        <ele>1071.01</ele>
        <time>2014-08-31T12:24:21Z</time>
      </trkpt>
      <trkpt lat="44.06524" lon="7.25118">
        <ele>1071</ele>
        <time>2014-08-31T12:24:22Z</time>
      </trkpt>
      <trkpt lat="44.06526" lon="7.25118">
        <ele>1070.97</ele>
        <time>2014-08-31T12:24:23Z</time>
      </trkpt>
      <trkpt lat="44.06528" lon="7.25118">
        <ele>1070.96</ele>
        <time>2014-08-31T12:24:24Z</time>
      </trkpt>
      <trkpt lat="44.06529" lon="7.25118">
        <ele>1070.94</ele>
        <time>2014-08-31T12:24:25Z</time>
      </trkpt>
      <trkpt lat="44.0653" lon="7.25118">
        <ele>1070.85</ele>
        <time>2014-08-31T12:24:26Z</time>
      </trkpt>
      <trkpt lat="44.06531" lon="7.25117">
        <ele>1070.72</ele>
        <time>2014-08-31T12:24:28Z</time>
      </trkpt>
      <trkpt lat="44.06533" lon="7.25116">
        <ele>1070.68</ele>
        <time>2014-08-31T12:24:29Z</time>
      </trkpt>
      <trkpt lat="44.06537" lon="7.25115">
        <ele>1070.61</ele>
        <time>2014-08-31T12:24:31Z</time>
      </trkpt>
      <trkpt lat="44.06538" lon="7.25115">
        <ele>1070.6</ele>
        <time>2014-08-31T12:24:32Z</time>
      </trkpt>
      <trkpt lat="44.0654" lon="7.25114">
        <ele>1070.55</ele>
        <time>2014-08-31T12:24:33Z</time>
      </trkpt>
      <trkpt lat="44.06541" lon="7.25113">
        <ele>1070.47</ele>
        <time>2014-08-31T12:24:34Z</time>
      </trkpt>
      <trkpt lat="44.06542" lon="7.25111">
        <ele>1070.39</ele>
        <time>2014-08-31T12:24:35Z</time>
      </trkpt>
      <trkpt lat="44.06545" lon="7.25111">
        <ele>1070.22</ele>
        <time>2014-08-31T12:24:37Z</time>
      </trkpt>
      <trkpt lat="44.06547" lon="7.2511">
        <ele>1070.17</ele>
        <time>2014-08-31T12:24:38Z</time>
      </trkpt>
      <trkpt lat="44.06548" lon="7.2511">
        <ele>1070.14</ele>
        <time>2014-08-31T12:24:39Z</time>
      </trkpt>
      <trkpt lat="44.06549" lon="7.2511">
        <ele>1070</ele>
        <time>2014-08-31T12:24:40Z</time>
      </trkpt>
      <trkpt lat="44.06549" lon="7.25109">
        <ele>1070.01</ele>
        <time>2014-08-31T12:24:42Z</time>
      </trkpt>
      <trkpt lat="44.06549" lon="7.25108">
        <ele>1070.15</ele>
        <time>2014-08-31T12:24:43Z</time>
      </trkpt>
      <trkpt lat="44.06549" lon="7.25107">
        <ele>1070.19</ele>
        <time>2014-08-31T12:24:44Z</time>
      </trkpt>
      <trkpt lat="44.06549" lon="7.25106">
        <ele>1070.24</ele>
        <time>2014-08-31T12:24:45Z</time>
      </trkpt>
      <trkpt lat="44.06549" lon="7.25104">
        <ele>1070.24</ele>
        <time>2014-08-31T12:24:47Z</time>
      </trkpt>
      <trkpt lat="44.06549" lon="7.25103">
        <ele>1070.17</ele>
        <time>2014-08-31T12:24:48Z</time>
      </trkpt>
      <trkpt lat="44.0655" lon="7.25103">
        <ele>1070.13</ele>
        <time>2014-08-31T12:24:49Z</time>
      </trkpt>
      <trkpt lat="44.06549" lon="7.25102">
        <ele>1070.09</ele>
        <time>2014-08-31T12:24:51Z</time>
      </trkpt>
      <trkpt lat="44.06549" lon="7.25101">
        <ele>1070.06</ele>
        <time>2014-08-31T12:24:52Z</time>
      </trkpt>
      <trkpt lat="44.06549" lon="7.251">
        <ele>1070.04</ele>
        <time>2014-08-31T12:24:53Z</time>
      </trkpt>
      <trkpt lat="44.06549" lon="7.25099">
        <ele>1070.07</ele>
        <time>2014-08-31T12:24:54Z</time>
      </trkpt>
      <trkpt lat="44.0655" lon="7.25099">
        <ele>1070.09</ele>
        <time>2014-08-31T12:24:55Z</time>
      </trkpt>
      <trkpt lat="44.06551" lon="7.25098">
        <ele>1070.11</ele>
        <time>2014-08-31T12:24:56Z</time>
      </trkpt>
      <trkpt lat="44.06551" lon="7.25097">
        <ele>1070.16</ele>
        <time>2014-08-31T12:24:57Z</time>
      </trkpt>
      <trkpt lat="44.06551" lon="7.25096">
        <ele>1070.22</ele>
        <time>2014-08-31T12:24:58Z</time>
      </trkpt>
      <trkpt lat="44.06552" lon="7.25096">
        <ele>1070.31</ele>
        <time>2014-08-31T12:24:59Z</time>
      </trkpt>
      <trkpt lat="44.06553" lon="7.25096">
        <ele>1070.35</ele>
        <time>2014-08-31T12:25:00Z</time>
      </trkpt>
      <trkpt lat="44.06554" lon="7.25096">
        <ele>1070.41</ele>
        <time>2014-08-31T12:25:01Z</time>
      </trkpt>
      <trkpt lat="44.06555" lon="7.25095">
        <ele>1070.56</ele>
        <time>2014-08-31T12:25:02Z</time>
      </trkpt>
      <trkpt lat="44.06556" lon="7.25095">
        <ele>1070.78</ele>
        <time>2014-08-31T12:25:03Z</time>
      </trkpt>
      <trkpt lat="44.06557" lon="7.25094">
        <ele>1070.98</ele>
        <time>2014-08-31T12:25:04Z</time>
      </trkpt>
      <trkpt lat="44.06558" lon="7.25094">
        <ele>1071.18</ele>
        <time>2014-08-31T12:25:05Z</time>
      </trkpt>
      <trkpt lat="44.06559" lon="7.25094">
        <ele>1071.41</ele>
        <time>2014-08-31T12:25:06Z</time>
      </trkpt>
      <trkpt lat="44.0656" lon="7.25093">
        <ele>1071.56</ele>
        <time>2014-08-31T12:25:07Z</time>
      </trkpt>
      <trkpt lat="44.06561" lon="7.25093">
        <ele>1071.73</ele>
        <time>2014-08-31T12:25:08Z</time>
      </trkpt>
      <trkpt lat="44.06562" lon="7.25092">
        <ele>1071.95</ele>
        <time>2014-08-31T12:25:09Z</time>
      </trkpt>
      <trkpt lat="44.06562" lon="7.25092">
        <ele>1072.1</ele>
        <time>2014-08-31T12:25:10Z</time>
      </trkpt>
      <trkpt lat="44.06563" lon="7.25091">
        <ele>1072.23</ele>
        <time>2014-08-31T12:25:11Z</time>
      </trkpt>
      <trkpt lat="44.06563" lon="7.25091">
        <ele>1072.4</ele>
        <time>2014-08-31T12:25:12Z</time>
      </trkpt>
      <trkpt lat="44.06563" lon="7.2509">
        <ele>1072.57</ele>
        <time>2014-08-31T12:25:13Z</time>
      </trkpt>
      <trkpt lat="44.06563" lon="7.25089">
        <ele>1072.76</ele>
        <time>2014-08-31T12:25:14Z</time>
      </trkpt>
      <trkpt lat="44.06563" lon="7.25089">
        <ele>1072.94</ele>
        <time>2014-08-31T12:25:15Z</time>
      </trkpt>
      <trkpt lat="44.06564" lon="7.25089">
        <ele>1073.13</ele>
        <time>2014-08-31T12:25:16Z</time>
      </trkpt>
      <trkpt lat="44.06565" lon="7.25089">
        <ele>1073.3</ele>
        <time>2014-08-31T12:25:17Z</time>
      </trkpt>
      <trkpt lat="44.06565" lon="7.25089">
        <ele>1073.68</ele>
        <time>2014-08-31T12:25:19Z</time>
      </trkpt>
      <trkpt lat="44.06565" lon="7.25089">
        <ele>1073.99</ele>
        <time>2014-08-31T12:25:20Z</time>
      </trkpt>
      <trkpt lat="44.06566" lon="7.25089">
        <ele>1074.19</ele>
        <time>2014-08-31T12:25:21Z</time>
      </trkpt>
      <trkpt lat="44.06566" lon="7.25088">
        <ele>1074.37</ele>
        <time>2014-08-31T12:25:22Z</time>
      </trkpt>
      <trkpt lat="44.06566" lon="7.25088">
        <ele>1074.78</ele>
        <time>2014-08-31T12:25:24Z</time>
      </trkpt>
      <trkpt lat="44.06566" lon="7.25088">
        <ele>1074.96</ele>
        <time>2014-08-31T12:25:25Z</time>
      </trkpt>
      <trkpt lat="44.06567" lon="7.25088">
        <ele>1075.16</ele>
        <time>2014-08-31T12:25:26Z</time>
      </trkpt>
      <trkpt lat="44.06568" lon="7.25088">
        <ele>1075.33</ele>
        <time>2014-08-31T12:25:27Z</time>
      </trkpt>
      <trkpt lat="44.06568" lon="7.25088">
        <ele>1075.51</ele>
        <time>2014-08-31T12:25:28Z</time>
      </trkpt>
      <trkpt lat="44.06569" lon="7.25089">
        <ele>1075.66</ele>
        <time>2014-08-31T12:25:29Z</time>
      </trkpt>
      <trkpt lat="44.06569" lon="7.25089">
        <ele>1076.04</ele>
        <time>2014-08-31T12:25:31Z</time>
      </trkpt>
      <trkpt lat="44.06569" lon="7.25091">
        <ele>1076.3</ele>
        <time>2014-08-31T12:25:32Z</time>
      </trkpt>
      <trkpt lat="44.06569" lon="7.25091">
        <ele>1076.59</ele>
        <time>2014-08-31T12:25:33Z</time>
      </trkpt>
      <trkpt lat="44.06568" lon="7.25092">
        <ele>1076.96</ele>
        <time>2014-08-31T12:25:35Z</time>
      </trkpt>
      <trkpt lat="44.06567" lon="7.25092">
        <ele>1077.15</ele>
        <time>2014-08-31T12:25:36Z</time>
      </trkpt>
      <trkpt lat="44.06566" lon="7.25092">
        <ele>1077.36</ele>
        <time>2014-08-31T12:25:37Z</time>
      </trkpt>
      <trkpt lat="44.06565" lon="7.25092">
        <ele>1077.52</ele>
        <time>2014-08-31T12:25:38Z</time>
      </trkpt>
      <trkpt lat="44.06564" lon="7.25092">
        <ele>1077.63</ele>
        <time>2014-08-31T12:25:39Z</time>
      </trkpt>
      <trkpt lat="44.06563" lon="7.25091">
        <ele>1077.8</ele>
        <time>2014-08-31T12:25:40Z</time>
      </trkpt>
      <trkpt lat="44.06563" lon="7.25091">
        <ele>1078.11</ele>
        <time>2014-08-31T12:25:42Z</time>
      </trkpt>
      <trkpt lat="44.06563" lon="7.2509">
        <ele>1078.25</ele>
        <time>2014-08-31T12:25:43Z</time>
      </trkpt>
      <trkpt lat="44.06563" lon="7.25089">
        <ele>1078.36</ele>
        <time>2014-08-31T12:25:44Z</time>
      </trkpt>
      <trkpt lat="44.06564" lon="7.25089">
        <ele>1078.56</ele>
        <time>2014-08-31T12:25:45Z</time>
      </trkpt>
      <trkpt lat="44.06564" lon="7.25089">
        <ele>1078.82</ele>
        <time>2014-08-31T12:25:46Z</time>
      </trkpt>
      <trkpt lat="44.06565" lon="7.25088">
        <ele>1079.09</ele>
        <time>2014-08-31T12:25:47Z</time>
      </trkpt>
      <trkpt lat="44.06565" lon="7.25088">
        <ele>1079.23</ele>
        <time>2014-08-31T12:25:48Z</time>
      </trkpt>
      <trkpt lat="44.06565" lon="7.25087">
        <ele>1079.5</ele>
        <time>2014-08-31T12:25:50Z</time>
      </trkpt>
      <trkpt lat="44.06566" lon="7.25087">
        <ele>1079.59</ele>
        <time>2014-08-31T12:25:51Z</time>
      </trkpt>
      <trkpt lat="44.06566" lon="7.25086">
        <ele>1079.72</ele>
        <time>2014-08-31T12:25:52Z</time>
      </trkpt>
      <trkpt lat="44.06567" lon="7.25085">
        <ele>1079.88</ele>
        <time>2014-08-31T12:25:53Z</time>
      </trkpt>
      <trkpt lat="44.06567" lon="7.25084">
        <ele>1080.07</ele>
        <time>2014-08-31T12:25:54Z</time>
      </trkpt>
      <trkpt lat="44.06567" lon="7.25083">
        <ele>1080.31</ele>
        <time>2014-08-31T12:25:55Z</time>
      </trkpt>
      <trkpt lat="44.06567" lon="7.25082">
        <ele>1080.51</ele>
        <time>2014-08-31T12:25:56Z</time>
      </trkpt>
      <trkpt lat="44.06567" lon="7.25081">
        <ele>1080.93</ele>
        <time>2014-08-31T12:25:58Z</time>
      </trkpt>
      <trkpt lat="44.06567" lon="7.25081">
        <ele>1081.11</ele>
        <time>2014-08-31T12:25:59Z</time>
      </trkpt>
      <trkpt lat="44.06567" lon="7.2508">
        <ele>1081.32</ele>
        <time>2014-08-31T12:26:00Z</time>
      </trkpt>
      <trkpt lat="44.06567" lon="7.25079">
        <ele>1081.5</ele>
        <time>2014-08-31T12:26:01Z</time>
      </trkpt>
      <trkpt lat="44.06567" lon="7.25078">
        <ele>1081.73</ele>
        <time>2014-08-31T12:26:02Z</time>
      </trkpt>
      <trkpt lat="44.06567" lon="7.25077">
        <ele>1081.9</ele>
        <time>2014-08-31T12:26:03Z</time>
      </trkpt>
      <trkpt lat="44.06567" lon="7.25077">
        <ele>1082.07</ele>
        <time>2014-08-31T12:26:04Z</time>
      </trkpt>
      <trkpt lat="44.06565" lon="7.25076">
        <ele>1082.44</ele>
        <time>2014-08-31T12:26:06Z</time>
      </trkpt>
      <trkpt lat="44.06564" lon="7.25074">
        <ele>1082.67</ele>
        <time>2014-08-31T12:26:07Z</time>
      </trkpt>
      <trkpt lat="44.06563" lon="7.25073">
        <ele>1082.88</ele>
        <time>2014-08-31T12:26:08Z</time>
      </trkpt>
      <trkpt lat="44.06563" lon="7.25072">
        <ele>1083.16</ele>
        <time>2014-08-31T12:26:09Z</time>
      </trkpt>
      <trkpt lat="44.06562" lon="7.25072">
        <ele>1083.35</ele>
        <time>2014-08-31T12:26:10Z</time>
      </trkpt>
      <trkpt lat="44.06561" lon="7.25071">
        <ele>1083.53</ele>
        <time>2014-08-31T12:26:11Z</time>
      </trkpt>
      <trkpt lat="44.0656" lon="7.2507">
        <ele>1083.69</ele>
        <time>2014-08-31T12:26:12Z</time>
      </trkpt>
      <trkpt lat="44.06559" lon="7.25069">
        <ele>1083.84</ele>
        <time>2014-08-31T12:26:13Z</time>
      </trkpt>
      <trkpt lat="44.06557" lon="7.25068">
        <ele>1084.02</ele>
        <time>2014-08-31T12:26:14Z</time>
      </trkpt>
      <trkpt lat="44.06556" lon="7.25067">
        <ele>1084.25</ele>
        <time>2014-08-31T12:26:15Z</time>
      </trkpt>
      <trkpt lat="44.06553" lon="7.25065">
        <ele>1084.63</ele>
        <time>2014-08-31T12:26:17Z</time>
      </trkpt>
      <trkpt lat="44.06552" lon="7.25064">
        <ele>1084.94</ele>
        <time>2014-08-31T12:26:19Z</time>
      </trkpt>
      <trkpt lat="44.06552" lon="7.25064">
        <ele>1085.08</ele>
        <time>2014-08-31T12:26:20Z</time>
      </trkpt>
      <trkpt lat="44.06552" lon="7.25063">
        <ele>1085.23</ele>
        <time>2014-08-31T12:26:21Z</time>
      </trkpt>
      <trkpt lat="44.06551" lon="7.25063">
        <ele>1085.41</ele>
        <time>2014-08-31T12:26:22Z</time>
      </trkpt>
      <trkpt lat="44.06551" lon="7.25062">
        <ele>1085.6</ele>
        <time>2014-08-31T12:26:23Z</time>
      </trkpt>
      <trkpt lat="44.06552" lon="7.25062">
        <ele>1085.83</ele>
        <time>2014-08-31T12:26:24Z</time>
      </trkpt>
      <trkpt lat="44.06553" lon="7.25062">
        <ele>1086.01</ele>
        <time>2014-08-31T12:26:25Z</time>
      </trkpt>
      <trkpt lat="44.06553" lon="7.25062">
        <ele>1086.18</ele>
        <time>2014-08-31T12:26:26Z</time>
      </trkpt>
      <trkpt lat="44.06554" lon="7.25061">
        <ele>1086.34</ele>
        <time>2014-08-31T12:26:27Z</time>
      </trkpt>
      <trkpt lat="44.06554" lon="7.2506">
        <ele>1086.52</ele>
        <time>2014-08-31T12:26:28Z</time>
      </trkpt>
      <trkpt lat="44.06554" lon="7.2506">
        <ele>1086.68</ele>
        <time>2014-08-31T12:26:29Z</time>
      </trkpt>
      <trkpt lat="44.06554" lon="7.2506">
        <ele>1087.13</ele>
        <time>2014-08-31T12:26:32Z</time>
      </trkpt>
      <trkpt lat="44.06554" lon="7.25059">
        <ele>1087.36</ele>
        <time>2014-08-31T12:26:34Z</time>
      </trkpt>
      <trkpt lat="44.06554" lon="7.25059">
        <ele>1087.48</ele>
        <time>2014-08-31T12:26:35Z</time>
      </trkpt>
      <trkpt lat="44.06555" lon="7.25059">
        <ele>1087.61</ele>
        <time>2014-08-31T12:26:37Z</time>
      </trkpt>
      <trkpt lat="44.06556" lon="7.25059">
        <ele>1087.7</ele>
        <time>2014-08-31T12:26:38Z</time>
      </trkpt>
      <trkpt lat="44.06556" lon="7.25059">
        <ele>1087.87</ele>
        <time>2014-08-31T12:26:39Z</time>
      </trkpt>
      <trkpt lat="44.06556" lon="7.25061">
        <ele>1088.03</ele>
        <time>2014-08-31T12:26:40Z</time>
      </trkpt>
      <trkpt lat="44.06556" lon="7.25062">
        <ele>1088.19</ele>
        <time>2014-08-31T12:26:41Z</time>
      </trkpt>
      <trkpt lat="44.06557" lon="7.25062">
        <ele>1088.38</ele>
        <time>2014-08-31T12:26:42Z</time>
      </trkpt>
      <trkpt lat="44.06557" lon="7.25062">
        <ele>1088.57</ele>
        <time>2014-08-31T12:26:43Z</time>
      </trkpt>
      <trkpt lat="44.06557" lon="7.25066">
        <ele>1089</ele>
        <time>2014-08-31T12:26:46Z</time>
      </trkpt>
      <trkpt lat="44.06558" lon="7.25066">
        <ele>1089.14</ele>
        <time>2014-08-31T12:26:47Z</time>
      </trkpt>
      <trkpt lat="44.06558" lon="7.25066">
        <ele>1089.31</ele>
        <time>2014-08-31T12:26:48Z</time>
      </trkpt>
      <trkpt lat="44.06558" lon="7.25066">
        <ele>1089.5</ele>
        <time>2014-08-31T12:26:49Z</time>
      </trkpt>
      <trkpt lat="44.06558" lon="7.25067">
        <ele>1089.68</ele>
        <time>2014-08-31T12:26:50Z</time>
      </trkpt>
      <trkpt lat="44.06561" lon="7.25067">
        <ele>1089.88</ele>
        <time>2014-08-31T12:26:51Z</time>
      </trkpt>
      <trkpt lat="44.06561" lon="7.25066">
        <ele>1090.08</ele>
        <time>2014-08-31T12:26:52Z</time>
      </trkpt>
      <trkpt lat="44.0656" lon="7.25065">
        <ele>1090.8</ele>
        <time>2014-08-31T12:26:55Z</time>
      </trkpt>
      <trkpt lat="44.0656" lon="7.25064">
        <ele>1091</ele>
        <time>2014-08-31T12:26:56Z</time>
      </trkpt>
      <trkpt lat="44.0656" lon="7.25064">
        <ele>1091.25</ele>
        <time>2014-08-31T12:26:57Z</time>
      </trkpt>
      <trkpt lat="44.0656" lon="7.25064">
        <ele>1091.53</ele>
        <time>2014-08-31T12:26:58Z</time>
      </trkpt>
      <trkpt lat="44.0656" lon="7.25063">
        <ele>1091.75</ele>
        <time>2014-08-31T12:26:59Z</time>
      </trkpt>
      <trkpt lat="44.06559" lon="7.25062">
        <ele>1091.91</ele>
        <time>2014-08-31T12:27:00Z</time>
      </trkpt>
      <trkpt lat="44.06558" lon="7.25062">
        <ele>1092.04</ele>
        <time>2014-08-31T12:27:01Z</time>
      </trkpt>
      <trkpt lat="44.06557" lon="7.25061">
        <ele>1092.18</ele>
        <time>2014-08-31T12:27:02Z</time>
      </trkpt>
      <trkpt lat="44.06557" lon="7.25061">
        <ele>1092.38</ele>
        <time>2014-08-31T12:27:03Z</time>
      </trkpt>
      <trkpt lat="44.06557" lon="7.25061">
        <ele>1092.74</ele>
        <time>2014-08-31T12:27:05Z</time>
      </trkpt>
      <trkpt lat="44.06557" lon="7.25061">
        <ele>1092.92</ele>
        <time>2014-08-31T12:27:06Z</time>
      </trkpt>
      <trkpt lat="44.06554" lon="7.25061">
        <ele>1093.29</ele>
        <time>2014-08-31T12:27:08Z</time>
      </trkpt>
      <trkpt lat="44.06553" lon="7.2506">
        <ele>1093.41</ele>
        <time>2014-08-31T12:27:09Z</time>
      </trkpt>
      <trkpt lat="44.06552" lon="7.25059">
        <ele>1093.55</ele>
        <time>2014-08-31T12:27:10Z</time>
      </trkpt>
      <trkpt lat="44.06551" lon="7.25058">
        <ele>1093.69</ele>
        <time>2014-08-31T12:27:11Z</time>
      </trkpt>
      <trkpt lat="44.0655" lon="7.25058">
        <ele>1093.82</ele>
        <time>2014-08-31T12:27:12Z</time>
      </trkpt>
      <trkpt lat="44.06549" lon="7.25057">
        <ele>1093.97</ele>
        <time>2014-08-31T12:27:13Z</time>
      </trkpt>
      <trkpt lat="44.06549" lon="7.25057">
        <ele>1094.07</ele>
        <time>2014-08-31T12:27:14Z</time>
      </trkpt>
      <trkpt lat="44.06548" lon="7.25056">
        <ele>1094.17</ele>
        <time>2014-08-31T12:27:15Z</time>
      </trkpt>
      <trkpt lat="44.06548" lon="7.25056">
        <ele>1094.21</ele>
        <time>2014-08-31T12:27:16Z</time>
      </trkpt>
      <trkpt lat="44.06548" lon="7.25055">
        <ele>1094.37</ele>
        <time>2014-08-31T12:27:17Z</time>
      </trkpt>
      <trkpt lat="44.06548" lon="7.25054">
        <ele>1094.58</ele>
        <time>2014-08-31T12:27:18Z</time>
      </trkpt>
      <trkpt lat="44.06547" lon="7.25052">
        <ele>1094.72</ele>
        <time>2014-08-31T12:27:19Z</time>
      </trkpt>
      <trkpt lat="44.06545" lon="7.25051">
        <ele>1094.77</ele>
        <time>2014-08-31T12:27:20Z</time>
      </trkpt>
      <trkpt lat="44.06543" lon="7.25049">
        <ele>1094.79</ele>
        <time>2014-08-31T12:27:21Z</time>
      </trkpt>
      <trkpt lat="44.06541" lon="7.25048">
        <ele>1094.82</ele>
        <time>2014-08-31T12:27:22Z</time>
      </trkpt>
      <trkpt lat="44.0654" lon="7.25047">
        <ele>1094.86</ele>
        <time>2014-08-31T12:27:23Z</time>
      </trkpt>
      <trkpt lat="44.06539" lon="7.25046">
        <ele>1094.92</ele>
        <time>2014-08-31T12:27:24Z</time>
      </trkpt>
      <trkpt lat="44.06538" lon="7.25046">
        <ele>1095.03</ele>
        <time>2014-08-31T12:27:25Z</time>
      </trkpt>
      <trkpt lat="44.06538" lon="7.25045">
        <ele>1095.2</ele>
        <time>2014-08-31T12:27:26Z</time>
      </trkpt>
      <trkpt lat="44.06541" lon="7.25044">
        <ele>1095.55</ele>
        <time>2014-08-31T12:27:28Z</time>
      </trkpt>
      <trkpt lat="44.06541" lon="7.25043">
        <ele>1095.78</ele>
        <time>2014-08-31T12:27:29Z</time>
      </trkpt>
      <trkpt lat="44.06541" lon="7.25042">
        <ele>1095.93</ele>
        <time>2014-08-31T12:27:30Z</time>
      </trkpt>
      <trkpt lat="44.0654" lon="7.25041">
        <ele>1096.09</ele>
        <time>2014-08-31T12:27:31Z</time>
      </trkpt>
      <trkpt lat="44.0654" lon="7.2504">
        <ele>1096.46</ele>
        <time>2014-08-31T12:27:32Z</time>
      </trkpt>
      <trkpt lat="44.06539" lon="7.25039">
        <ele>1096.83</ele>
        <time>2014-08-31T12:27:33Z</time>
      </trkpt>
      <trkpt lat="44.06539" lon="7.25038">
        <ele>1097.09</ele>
        <time>2014-08-31T12:27:34Z</time>
      </trkpt>
      <trkpt lat="44.06538" lon="7.25038">
        <ele>1097.34</ele>
        <time>2014-08-31T12:27:35Z</time>
      </trkpt>
      <trkpt lat="44.06538" lon="7.25037">
        <ele>1097.67</ele>
        <time>2014-08-31T12:27:36Z</time>
      </trkpt>
      <trkpt lat="44.06543" lon="7.25037">
        <ele>1097.92</ele>
        <time>2014-08-31T12:27:37Z</time>
      </trkpt>
      <trkpt lat="44.06542" lon="7.25036">
        <ele>1098.16</ele>
        <time>2014-08-31T12:27:38Z</time>
      </trkpt>
      <trkpt lat="44.06546" lon="7.25037">
        <ele>1098.35</ele>
        <time>2014-08-31T12:27:39Z</time>
      </trkpt>
      <trkpt lat="44.06546" lon="7.25036">
        <ele>1098.6</ele>
        <time>2014-08-31T12:27:40Z</time>
      </trkpt>
      <trkpt lat="44.06547" lon="7.25036">
        <ele>1098.8</ele>
        <time>2014-08-31T12:27:41Z</time>
      </trkpt>
      <trkpt lat="44.06547" lon="7.25035">
        <ele>1099.02</ele>
        <time>2014-08-31T12:27:42Z</time>
      </trkpt>
      <trkpt lat="44.06547" lon="7.25035">
        <ele>1099.24</ele>
        <time>2014-08-31T12:27:43Z</time>
      </trkpt>
      <trkpt lat="44.06547" lon="7.25035">
        <ele>1099.52</ele>
        <time>2014-08-31T12:27:44Z</time>
      </trkpt>
      <trkpt lat="44.0655" lon="7.25036">
        <ele>1099.75</ele>
        <time>2014-08-31T12:27:45Z</time>
      </trkpt>
      <trkpt lat="44.06552" lon="7.25035">
        <ele>1100.2</ele>
        <time>2014-08-31T12:27:47Z</time>
      </trkpt>
      <trkpt lat="44.06553" lon="7.25035">
        <ele>1100.39</ele>
        <time>2014-08-31T12:27:48Z</time>
      </trkpt>
      <trkpt lat="44.06554" lon="7.25034">
        <ele>1100.53</ele>
        <time>2014-08-31T12:27:49Z</time>
      </trkpt>
      <trkpt lat="44.06557" lon="7.25033">
        <ele>1100.56</ele>
        <time>2014-08-31T12:27:50Z</time>
      </trkpt>
      <trkpt lat="44.0656" lon="7.25033">
        <ele>1100.7</ele>
        <time>2014-08-31T12:27:51Z</time>
      </trkpt>
      <trkpt lat="44.0656" lon="7.25033">
        <ele>1101.02</ele>
        <time>2014-08-31T12:27:52Z</time>
      </trkpt>
      <trkpt lat="44.06561" lon="7.25032">
        <ele>1101.32</ele>
        <time>2014-08-31T12:27:53Z</time>
      </trkpt>
      <trkpt lat="44.06561" lon="7.25031">
        <ele>1101.54</ele>
        <time>2014-08-31T12:27:54Z</time>
      </trkpt>
      <trkpt lat="44.06562" lon="7.25031">
        <ele>1101.77</ele>
        <time>2014-08-31T12:27:55Z</time>
      </trkpt>
      <trkpt lat="44.06564" lon="7.2503">
        <ele>1101.97</ele>
        <time>2014-08-31T12:27:56Z</time>
      </trkpt>
      <trkpt lat="44.06565" lon="7.2503">
        <ele>1102.17</ele>
        <time>2014-08-31T12:27:57Z</time>
      </trkpt>
      <trkpt lat="44.06566" lon="7.2503">
        <ele>1102.38</ele>
        <time>2014-08-31T12:27:58Z</time>
      </trkpt>
      <trkpt lat="44.06566" lon="7.2503">
        <ele>1102.55</ele>
        <time>2014-08-31T12:27:59Z</time>
      </trkpt>
      <trkpt lat="44.06567" lon="7.2503">
        <ele>1102.77</ele>
        <time>2014-08-31T12:28:00Z</time>
      </trkpt>
      <trkpt lat="44.06568" lon="7.2503">
        <ele>1102.93</ele>
        <time>2014-08-31T12:28:01Z</time>
      </trkpt>
      <trkpt lat="44.06569" lon="7.2503">
        <ele>1103.15</ele>
        <time>2014-08-31T12:28:02Z</time>
      </trkpt>
      <trkpt lat="44.0657" lon="7.2503">
        <ele>1103.37</ele>
        <time>2014-08-31T12:28:03Z</time>
      </trkpt>
      <trkpt lat="44.06571" lon="7.2503">
        <ele>1103.57</ele>
        <time>2014-08-31T12:28:04Z</time>
      </trkpt>
      <trkpt lat="44.06571" lon="7.2503">
        <ele>1103.77</ele>
        <time>2014-08-31T12:28:05Z</time>
      </trkpt>
      <trkpt lat="44.06571" lon="7.25029">
        <ele>1103.94</ele>
        <time>2014-08-31T12:28:06Z</time>
      </trkpt>
      <trkpt lat="44.06572" lon="7.25028">
        <ele>1104.16</ele>
        <time>2014-08-31T12:28:07Z</time>
      </trkpt>
      <trkpt lat="44.06572" lon="7.25029">
        <ele>1104.36</ele>
        <time>2014-08-31T12:28:08Z</time>
      </trkpt>
      <trkpt lat="44.06573" lon="7.25028">
        <ele>1104.53</ele>
        <time>2014-08-31T12:28:09Z</time>
      </trkpt>
      <trkpt lat="44.06574" lon="7.25029">
        <ele>1104.75</ele>
        <time>2014-08-31T12:28:10Z</time>
      </trkpt>
      <trkpt lat="44.06575" lon="7.25028">
        <ele>1105.03</ele>
        <time>2014-08-31T12:28:11Z</time>
      </trkpt>
      <trkpt lat="44.06576" lon="7.25029">
        <ele>1105.26</ele>
        <time>2014-08-31T12:28:12Z</time>
      </trkpt>
      <trkpt lat="44.06576" lon="7.25029">
        <ele>1105.53</ele>
        <time>2014-08-31T12:28:13Z</time>
      </trkpt>
      <trkpt lat="44.06577" lon="7.25029">
        <ele>1105.69</ele>
        <time>2014-08-31T12:28:14Z</time>
      </trkpt>
      <trkpt lat="44.06578" lon="7.25029">
        <ele>1105.85</ele>
        <time>2014-08-31T12:28:15Z</time>
      </trkpt>
      <trkpt lat="44.06579" lon="7.25029">
        <ele>1105.99</ele>
        <time>2014-08-31T12:28:16Z</time>
      </trkpt>
      <trkpt lat="44.0658" lon="7.25029">
        <ele>1106.14</ele>
        <time>2014-08-31T12:28:17Z</time>
      </trkpt>
      <trkpt lat="44.06581" lon="7.25029">
        <ele>1106.35</ele>
        <time>2014-08-31T12:28:18Z</time>
      </trkpt>
      <trkpt lat="44.06582" lon="7.25029">
        <ele>1106.49</ele>
        <time>2014-08-31T12:28:19Z</time>
      </trkpt>
      <trkpt lat="44.06581" lon="7.25029">
        <ele>1106.69</ele>
        <time>2014-08-31T12:28:20Z</time>
      </trkpt>
      <trkpt lat="44.06582" lon="7.25029">
        <ele>1106.86</ele>
        <time>2014-08-31T12:28:21Z</time>
      </trkpt>
      <trkpt lat="44.06582" lon="7.25029">
        <ele>1106.98</ele>
        <time>2014-08-31T12:28:22Z</time>
      </trkpt>
      <trkpt lat="44.06582" lon="7.2503">
        <ele>1107.05</ele>
        <time>2014-08-31T12:28:23Z</time>
      </trkpt>
      <trkpt lat="44.06583" lon="7.2503">
        <ele>1107.08</ele>
        <time>2014-08-31T12:28:24Z</time>
      </trkpt>
      <trkpt lat="44.06583" lon="7.2503">
        <ele>1107.09</ele>
        <time>2014-08-31T12:28:25Z</time>
      </trkpt>
      <trkpt lat="44.06584" lon="7.25031">
        <ele>1107.11</ele>
        <time>2014-08-31T12:28:27Z</time>
      </trkpt>
      <trkpt lat="44.06585" lon="7.25032">
        <ele>1107.09</ele>
        <time>2014-08-31T12:28:28Z</time>
      </trkpt>
      <trkpt lat="44.06584" lon="7.25031">
        <ele>1106.93</ele>
        <time>2014-08-31T12:28:30Z</time>
      </trkpt>
      <trkpt lat="44.06584" lon="7.25031">
        <ele>1106.85</ele>
        <time>2014-08-31T12:28:31Z</time>
      </trkpt>
      <trkpt lat="44.06584" lon="7.25032">
        <ele>1106.77</ele>
        <time>2014-08-31T12:28:32Z</time>
      </trkpt>
      <trkpt lat="44.06583" lon="7.25032">
        <ele>1106.62</ele>
        <time>2014-08-31T12:28:33Z</time>
      </trkpt>
      <trkpt lat="44.06583" lon="7.25032">
        <ele>1106.52</ele>
        <time>2014-08-31T12:28:34Z</time>
      </trkpt>
      <trkpt lat="44.06582" lon="7.25032">
        <ele>1106.43</ele>
        <time>2014-08-31T12:28:35Z</time>
      </trkpt>
      <trkpt lat="44.06582" lon="7.25032">
        <ele>1106.41</ele>
        <time>2014-08-31T12:28:36Z</time>
      </trkpt>
      <trkpt lat="44.06582" lon="7.25033">
        <ele>1106.48</ele>
        <time>2014-08-31T12:28:37Z</time>
      </trkpt>
      <trkpt lat="44.06582" lon="7.25033">
        <ele>1106.53</ele>
        <time>2014-08-31T12:28:38Z</time>
      </trkpt>
      <trkpt lat="44.06582" lon="7.25033">
        <ele>1106.57</ele>
        <time>2014-08-31T12:28:39Z</time>
      </trkpt>
      <trkpt lat="44.06582" lon="7.25034">
        <ele>1106.66</ele>
        <time>2014-08-31T12:28:40Z</time>
      </trkpt>
      <trkpt lat="44.06583" lon="7.25034">
        <ele>1106.69</ele>
        <time>2014-08-31T12:28:41Z</time>
      </trkpt>
      <trkpt lat="44.06583" lon="7.25034">
        <ele>1106.7</ele>
        <time>2014-08-31T12:28:43Z</time>
      </trkpt>
      <trkpt lat="44.06583" lon="7.25035">
        <ele>1106.74</ele>
        <time>2014-08-31T12:28:44Z</time>
      </trkpt>
      <trkpt lat="44.06584" lon="7.25035">
        <ele>1106.71</ele>
        <time>2014-08-31T12:28:45Z</time>
      </trkpt>
      <trkpt lat="44.06584" lon="7.25035">
        <ele>1106.73</ele>
        <time>2014-08-31T12:28:46Z</time>
      </trkpt>
      <trkpt lat="44.06584" lon="7.25036">
        <ele>1106.83</ele>
        <time>2014-08-31T12:28:47Z</time>
      </trkpt>
      <trkpt lat="44.06584" lon="7.25036">
        <ele>1106.84</ele>
        <time>2014-08-31T12:28:48Z</time>
      </trkpt>
      <trkpt lat="44.06583" lon="7.25035">
        <ele>1106.87</ele>
        <time>2014-08-31T12:28:50Z</time>
      </trkpt>
      <trkpt lat="44.06583" lon="7.25036">
        <ele>1106.92</ele>
        <time>2014-08-31T12:28:51Z</time>
      </trkpt>
      <trkpt lat="44.06583" lon="7.25036">
        <ele>1106.95</ele>
        <time>2014-08-31T12:28:53Z</time>
      </trkpt>
      <trkpt lat="44.06583" lon="7.25036">
        <ele>1106.94</ele>
        <time>2014-08-31T12:28:55Z</time>
      </trkpt>
      <trkpt lat="44.06584" lon="7.25037">
        <ele>1106.94</ele>
        <time>2014-08-31T12:28:56Z</time>
      </trkpt>
      <trkpt lat="44.06584" lon="7.25037">
        <ele>1106.94</ele>
        <time>2014-08-31T12:28:57Z</time>
      </trkpt>
      <trkpt lat="44.06584" lon="7.25037">
        <ele>1106.91</ele>
        <time>2014-08-31T12:28:58Z</time>
      </trkpt>
      <trkpt lat="44.06584" lon="7.25038">
        <ele>1106.89</ele>
        <time>2014-08-31T12:28:59Z</time>
      </trkpt>
      <trkpt lat="44.06584" lon="7.25038">
        <ele>1106.94</ele>
        <time>2014-08-31T12:29:01Z</time>
      </trkpt>
      <trkpt lat="44.06584" lon="7.25038">
        <ele>1106.97</ele>
        <time>2014-08-31T12:29:02Z</time>
      </trkpt>
      <trkpt lat="44.06584" lon="7.25038">
        <ele>1106.99</ele>
        <time>2014-08-31T12:29:04Z</time>
      </trkpt>
      <trkpt lat="44.06584" lon="7.25038">
        <ele>1107.02</ele>
        <time>2014-08-31T12:29:05Z</time>
      </trkpt>
      <trkpt lat="44.06584" lon="7.25038">
        <ele>1107.06</ele>
        <time>2014-08-31T12:29:06Z</time>
      </trkpt>
      <trkpt lat="44.06584" lon="7.25039">
        <ele>1107.07</ele>
        <time>2014-08-31T12:29:07Z</time>
      </trkpt>
      <trkpt lat="44.06584" lon="7.25038">
        <ele>1107.06</ele>
        <time>2014-08-31T12:29:08Z</time>
      </trkpt>
      <trkpt lat="44.06584" lon="7.25038">
        <ele>1107.09</ele>
        <time>2014-08-31T12:29:09Z</time>
      </trkpt>
      <trkpt lat="44.06584" lon="7.25037">
        <ele>1107.11</ele>
        <time>2014-08-31T12:29:10Z</time>
      </trkpt>
      <trkpt lat="44.06584" lon="7.25036">
        <ele>1107.1</ele>
        <time>2014-08-31T12:29:11Z</time>
      </trkpt>
      <trkpt lat="44.06583" lon="7.25035">
        <ele>1107.11</ele>
        <time>2014-08-31T12:29:12Z</time>
      </trkpt>
      <trkpt lat="44.06581" lon="7.25035">
        <ele>1107.15</ele>
        <time>2014-08-31T12:29:14Z</time>
      </trkpt>
      <trkpt lat="44.0658" lon="7.25033">
        <ele>1107.11</ele>
        <time>2014-08-31T12:29:15Z</time>
      </trkpt>
      <trkpt lat="44.06578" lon="7.2503">
        <ele>1107.12</ele>
        <time>2014-08-31T12:29:17Z</time>
      </trkpt>
      <trkpt lat="44.06578" lon="7.25029">
        <ele>1107.11</ele>
        <time>2014-08-31T12:29:18Z</time>
      </trkpt>
      <trkpt lat="44.06578" lon="7.25028">
        <ele>1107.11</ele>
        <time>2014-08-31T12:29:19Z</time>
      </trkpt>
      <trkpt lat="44.06578" lon="7.25027">
        <ele>1107.11</ele>
        <time>2014-08-31T12:29:20Z</time>
      </trkpt>
      <trkpt lat="44.06578" lon="7.25027">
        <ele>1107.11</ele>
        <time>2014-08-31T12:29:21Z</time>
      </trkpt>
      <trkpt lat="44.06579" lon="7.25026">
        <ele>1107.17</ele>
        <time>2014-08-31T12:29:23Z</time>
      </trkpt>
      <trkpt lat="44.06579" lon="7.25025">
        <ele>1107.17</ele>
        <time>2014-08-31T12:29:24Z</time>
      </trkpt>
      <trkpt lat="44.06579" lon="7.25024">
        <ele>1107.14</ele>
        <time>2014-08-31T12:29:25Z</time>
      </trkpt>
      <trkpt lat="44.06579" lon="7.25024">
        <ele>1107.13</ele>
        <time>2014-08-31T12:29:26Z</time>
      </trkpt>
      <trkpt lat="44.06579" lon="7.25025">
        <ele>1107.11</ele>
        <time>2014-08-31T12:29:27Z</time>
      </trkpt>
      <trkpt lat="44.06579" lon="7.25025">
        <ele>1107.12</ele>
        <time>2014-08-31T12:29:29Z</time>
      </trkpt>
      <trkpt lat="44.06579" lon="7.25025">
        <ele>1107.13</ele>
        <time>2014-08-31T12:29:30Z</time>
      </trkpt>
      <trkpt lat="44.06579" lon="7.25024">
        <ele>1107.15</ele>
        <time>2014-08-31T12:29:31Z</time>
      </trkpt>
      <trkpt lat="44.0658" lon="7.25024">
        <ele>1107.16</ele>
        <time>2014-08-31T12:29:32Z</time>
      </trkpt>
      <trkpt lat="44.06577" lon="7.25024">
        <ele>1107.19</ele>
        <time>2014-08-31T12:29:33Z</time>
      </trkpt>
      <trkpt lat="44.06573" lon="7.25024">
        <ele>1107.2</ele>
        <time>2014-08-31T12:29:34Z</time>
      </trkpt>
      <trkpt lat="44.06571" lon="7.25024">
        <ele>1107.16</ele>
        <time>2014-08-31T12:29:35Z</time>
      </trkpt>
      <trkpt lat="44.06569" lon="7.25024">
        <ele>1107.14</ele>
        <time>2014-08-31T12:29:36Z</time>
      </trkpt>
      <trkpt lat="44.06567" lon="7.25024">
        <ele>1107.17</ele>
        <time>2014-08-31T12:29:38Z</time>
      </trkpt>
      <trkpt lat="44.06566" lon="7.25024">
        <ele>1107.16</ele>
        <time>2014-08-31T12:29:39Z</time>
      </trkpt>
      <trkpt lat="44.06565" lon="7.25024">
        <ele>1107.16</ele>
        <time>2014-08-31T12:29:40Z</time>
      </trkpt>
      <trkpt lat="44.06565" lon="7.25024">
        <ele>1107.13</ele>
        <time>2014-08-31T12:29:42Z</time>
      </trkpt>
      <trkpt lat="44.06565" lon="7.25024">
        <ele>1107.13</ele>
        <time>2014-08-31T12:29:43Z</time>
      </trkpt>
      <trkpt lat="44.06565" lon="7.25024">
        <ele>1107.12</ele>
        <time>2014-08-31T12:29:44Z</time>
      </trkpt>
      <trkpt lat="44.06565" lon="7.25024">
        <ele>1107.11</ele>
        <time>2014-08-31T12:29:45Z</time>
      </trkpt>
      <trkpt lat="44.06566" lon="7.25024">
        <ele>1107.11</ele>
        <time>2014-08-31T12:29:46Z</time>
      </trkpt>
      <trkpt lat="44.06566" lon="7.25024">
        <ele>1107.07</ele>
        <time>2014-08-31T12:29:48Z</time>
      </trkpt>
      <trkpt lat="44.06566" lon="7.25024">
        <ele>1107.02</ele>
        <time>2014-08-31T12:29:49Z</time>
      </trkpt>
      <trkpt lat="44.06566" lon="7.25024">
        <ele>1107</ele>
        <time>2014-08-31T12:29:50Z</time>
      </trkpt>
      <trkpt lat="44.06565" lon="7.25024">
        <ele>1106.99</ele>
        <time>2014-08-31T12:29:51Z</time>
      </trkpt>
      <trkpt lat="44.06565" lon="7.25025">
        <ele>1106.99</ele>
        <time>2014-08-31T12:29:52Z</time>
      </trkpt>
      <trkpt lat="44.06565" lon="7.25025">
        <ele>1106.99</ele>
        <time>2014-08-31T12:29:53Z</time>
      </trkpt>
      <trkpt lat="44.06565" lon="7.25025">
        <ele>1107</ele>
        <time>2014-08-31T12:29:54Z</time>
      </trkpt>
      <trkpt lat="44.06565" lon="7.25026">
        <ele>1106.98</ele>
        <time>2014-08-31T12:29:55Z</time>
      </trkpt>
      <trkpt lat="44.06565" lon="7.25027">
        <ele>1106.95</ele>
        <time>2014-08-31T12:29:56Z</time>
      </trkpt>
      <trkpt lat="44.06565" lon="7.25028">
        <ele>1106.94</ele>
        <time>2014-08-31T12:29:57Z</time>
      </trkpt>
      <trkpt lat="44.06565" lon="7.25029">
        <ele>1106.93</ele>
        <time>2014-08-31T12:29:58Z</time>
      </trkpt>
      <trkpt lat="44.06565" lon="7.25029">
        <ele>1106.9</ele>
        <time>2014-08-31T12:29:59Z</time>
      </trkpt>
      <trkpt lat="44.06565" lon="7.2503">
        <ele>1106.86</ele>
        <time>2014-08-31T12:30:00Z</time>
      </trkpt>
      <trkpt lat="44.06564" lon="7.25031">
        <ele>1106.83</ele>
        <time>2014-08-31T12:30:01Z</time>
      </trkpt>
      <trkpt lat="44.06564" lon="7.25032">
        <ele>1106.83</ele>
        <time>2014-08-31T12:30:02Z</time>
      </trkpt>
      <trkpt lat="44.06563" lon="7.25033">
        <ele>1106.82</ele>
        <time>2014-08-31T12:30:03Z</time>
      </trkpt>
      <trkpt lat="44.06563" lon="7.25034">
        <ele>1106.79</ele>
        <time>2014-08-31T12:30:04Z</time>
      </trkpt>
      <trkpt lat="44.06562" lon="7.25035">
        <ele>1106.74</ele>
        <time>2014-08-31T12:30:05Z</time>
      </trkpt>
      <trkpt lat="44.06562" lon="7.25036">
        <ele>1106.7</ele>
        <time>2014-08-31T12:30:06Z</time>
      </trkpt>
      <trkpt lat="44.06562" lon="7.25036">
        <ele>1106.68</ele>
        <time>2014-08-31T12:30:07Z</time>
      </trkpt>
      <trkpt lat="44.06561" lon="7.25036">
        <ele>1106.68</ele>
        <time>2014-08-31T12:30:08Z</time>
      </trkpt>
      <trkpt lat="44.0656" lon="7.25036">
        <ele>1106.71</ele>
        <time>2014-08-31T12:30:09Z</time>
      </trkpt>
      <trkpt lat="44.0656" lon="7.25036">
        <ele>1106.77</ele>
        <time>2014-08-31T12:30:10Z</time>
      </trkpt>
      <trkpt lat="44.0656" lon="7.25036">
        <ele>1106.83</ele>
        <time>2014-08-31T12:30:11Z</time>
      </trkpt>
      <trkpt lat="44.0656" lon="7.25036">
        <ele>1106.89</ele>
        <time>2014-08-31T12:30:12Z</time>
      </trkpt>
      <trkpt lat="44.0656" lon="7.25036">
        <ele>1106.96</ele>
        <time>2014-08-31T12:30:14Z</time>
      </trkpt>
      <trkpt lat="44.06559" lon="7.25036">
        <ele>1107</ele>
        <time>2014-08-31T12:30:15Z</time>
      </trkpt>
      <trkpt lat="44.06559" lon="7.25036">
        <ele>1107.01</ele>
        <time>2014-08-31T12:30:16Z</time>
      </trkpt>
      <trkpt lat="44.06559" lon="7.25036">
        <ele>1106.99</ele>
        <time>2014-08-31T12:30:17Z</time>
      </trkpt>
      <trkpt lat="44.06559" lon="7.25037">
        <ele>1106.99</ele>
        <time>2014-08-31T12:30:18Z</time>
      </trkpt>
      <trkpt lat="44.06559" lon="7.25038">
        <ele>1106.97</ele>
        <time>2014-08-31T12:30:21Z</time>
      </trkpt>
      <trkpt lat="44.06559" lon="7.25037">
        <ele>1106.96</ele>
        <time>2014-08-31T12:30:23Z</time>
      </trkpt>
      <trkpt lat="44.0656" lon="7.25037">
        <ele>1107.02</ele>
        <time>2014-08-31T12:30:25Z</time>
      </trkpt>
      <trkpt lat="44.0656" lon="7.25036">
        <ele>1106.98</ele>
        <time>2014-08-31T12:30:27Z</time>
      </trkpt>
      <trkpt lat="44.06561" lon="7.25037">
        <ele>1106.97</ele>
        <time>2014-08-31T12:30:28Z</time>
      </trkpt>
      <trkpt lat="44.06561" lon="7.25037">
        <ele>1106.97</ele>
        <time>2014-08-31T12:30:29Z</time>
      </trkpt>
      <trkpt lat="44.06561" lon="7.25037">
        <ele>1106.94</ele>
        <time>2014-08-31T12:30:31Z</time>
      </trkpt>
      <trkpt lat="44.0656" lon="7.25037">
        <ele>1106.93</ele>
        <time>2014-08-31T12:30:32Z</time>
      </trkpt>
      <trkpt lat="44.06561" lon="7.25036">
        <ele>1106.91</ele>
        <time>2014-08-31T12:30:33Z</time>
      </trkpt>
      <trkpt lat="44.06561" lon="7.25036">
        <ele>1106.9</ele>
        <time>2014-08-31T12:30:34Z</time>
      </trkpt>
      <trkpt lat="44.06562" lon="7.25035">
        <ele>1106.9</ele>
        <time>2014-08-31T12:30:35Z</time>
      </trkpt>
      <trkpt lat="44.06562" lon="7.25035">
        <ele>1106.97</ele>
        <time>2014-08-31T12:30:37Z</time>
      </trkpt>
      <trkpt lat="44.06562" lon="7.25035">
        <ele>1106.98</ele>
        <time>2014-08-31T12:30:38Z</time>
      </trkpt>
      <trkpt lat="44.06561" lon="7.25034">
        <ele>1106.98</ele>
        <time>2014-08-31T12:30:39Z</time>
      </trkpt>
      <trkpt lat="44.06561" lon="7.25033">
        <ele>1106.98</ele>
        <time>2014-08-31T12:30:40Z</time>
      </trkpt>
      <trkpt lat="44.06561" lon="7.25033">
        <ele>1106.97</ele>
        <time>2014-08-31T12:30:41Z</time>
      </trkpt>
      <trkpt lat="44.0656" lon="7.25033">
        <ele>1106.97</ele>
        <time>2014-08-31T12:30:42Z</time>
      </trkpt>
      <trkpt lat="44.0656" lon="7.25033">
        <ele>1106.97</ele>
        <time>2014-08-31T12:30:43Z</time>
      </trkpt>
      <trkpt lat="44.06559" lon="7.25032">
        <ele>1106.97</ele>
        <time>2014-08-31T12:30:44Z</time>
      </trkpt>
      <trkpt lat="44.06559" lon="7.25032">
        <ele>1106.98</ele>
        <time>2014-08-31T12:30:45Z</time>
      </trkpt>
      <trkpt lat="44.06558" lon="7.25032">
        <ele>1107.01</ele>
        <time>2014-08-31T12:30:46Z</time>
      </trkpt>
      <trkpt lat="44.06559" lon="7.25033">
        <ele>1107.01</ele>
        <time>2014-08-31T12:30:47Z</time>
      </trkpt>
      <trkpt lat="44.06559" lon="7.25034">
        <ele>1107.02</ele>
        <time>2014-08-31T12:30:48Z</time>
      </trkpt>
      <trkpt lat="44.06558" lon="7.25034">
        <ele>1107.03</ele>
        <time>2014-08-31T12:30:49Z</time>
      </trkpt>
      <trkpt lat="44.06558" lon="7.25034">
        <ele>1107.05</ele>
        <time>2014-08-31T12:30:50Z</time>
      </trkpt>
      <trkpt lat="44.06557" lon="7.25034">
        <ele>1107.05</ele>
        <time>2014-08-31T12:30:51Z</time>
      </trkpt>
      <trkpt lat="44.06557" lon="7.25034">
        <ele>1107.05</ele>
        <time>2014-08-31T12:30:52Z</time>
      </trkpt>
      <trkpt lat="44.06557" lon="7.25034">
        <ele>1107.05</ele>
        <time>2014-08-31T12:30:53Z</time>
      </trkpt>
      <trkpt lat="44.06556" lon="7.25034">
        <ele>1107.07</ele>
        <time>2014-08-31T12:30:54Z</time>
      </trkpt>
      <trkpt lat="44.06557" lon="7.25032">
        <ele>1107.03</ele>
        <time>2014-08-31T12:30:58Z</time>
      </trkpt>
      <trkpt lat="44.06558" lon="7.25035">
        <ele>1107.09</ele>
        <time>2014-08-31T12:31:00Z</time>
      </trkpt>
      <trkpt lat="44.06559" lon="7.25036">
        <ele>1107.11</ele>
        <time>2014-08-31T12:31:01Z</time>
      </trkpt>
      <trkpt lat="44.06559" lon="7.25038">
        <ele>1107.11</ele>
        <time>2014-08-31T12:31:02Z</time>
      </trkpt>
      <trkpt lat="44.06558" lon="7.25038">
        <ele>1107.11</ele>
        <time>2014-08-31T12:31:03Z</time>
      </trkpt>
      <trkpt lat="44.06559" lon="7.25038">
        <ele>1107.13</ele>
        <time>2014-08-31T12:31:04Z</time>
      </trkpt>
      <trkpt lat="44.06558" lon="7.25039">
        <ele>1107.14</ele>
        <time>2014-08-31T12:31:05Z</time>
      </trkpt>
      <trkpt lat="44.06558" lon="7.2504">
        <ele>1107.12</ele>
        <time>2014-08-31T12:31:06Z</time>
      </trkpt>
      <trkpt lat="44.06557" lon="7.2504">
        <ele>1107.19</ele>
        <time>2014-08-31T12:31:09Z</time>
      </trkpt>
      <trkpt lat="44.06557" lon="7.25039">
        <ele>1107.17</ele>
        <time>2014-08-31T12:31:10Z</time>
      </trkpt>
      <trkpt lat="44.06557" lon="7.25038">
        <ele>1107.13</ele>
        <time>2014-08-31T12:31:11Z</time>
      </trkpt>
      <trkpt lat="44.06557" lon="7.25037">
        <ele>1107.1</ele>
        <time>2014-08-31T12:31:12Z</time>
      </trkpt>
      <trkpt lat="44.06558" lon="7.25036">
        <ele>1107.1</ele>
        <time>2014-08-31T12:31:13Z</time>
      </trkpt>
      <trkpt lat="44.06558" lon="7.25035">
        <ele>1107.1</ele>
        <time>2014-08-31T12:31:14Z</time>
      </trkpt>
      <trkpt lat="44.0656" lon="7.25042">
        <ele>1107.1</ele>
        <time>2014-08-31T12:31:15Z</time>
      </trkpt>
      <trkpt lat="44.0656" lon="7.25042">
        <ele>1107.14</ele>
        <time>2014-08-31T12:31:16Z</time>
      </trkpt>
      <trkpt lat="44.0656" lon="7.25042">
        <ele>1107.11</ele>
        <time>2014-08-31T12:31:17Z</time>
      </trkpt>
      <trkpt lat="44.0656" lon="7.25041">
        <ele>1106.97</ele>
        <time>2014-08-31T12:31:18Z</time>
      </trkpt>
      <trkpt lat="44.06559" lon="7.25041">
        <ele>1107.06</ele>
        <time>2014-08-31T12:31:19Z</time>
      </trkpt>
      <trkpt lat="44.06557" lon="7.25039">
        <ele>1107.43</ele>
        <time>2014-08-31T12:31:21Z</time>
      </trkpt>
      <trkpt lat="44.06557" lon="7.25037">
        <ele>1107.55</ele>
        <time>2014-08-31T12:31:22Z</time>
      </trkpt>
      <trkpt lat="44.06557" lon="7.25035">
        <ele>1107.72</ele>
        <time>2014-08-31T12:31:23Z</time>
      </trkpt>
      <trkpt lat="44.06558" lon="7.25033">
        <ele>1107.85</ele>
        <time>2014-08-31T12:31:24Z</time>
      </trkpt>
      <trkpt lat="44.0656" lon="7.25031">
        <ele>1108.21</ele>
        <time>2014-08-31T12:31:26Z</time>
      </trkpt>
      <trkpt lat="44.06561" lon="7.2503">
        <ele>1108.38</ele>
        <time>2014-08-31T12:31:27Z</time>
      </trkpt>
      <trkpt lat="44.06561" lon="7.25029">
        <ele>1108.54</ele>
        <time>2014-08-31T12:31:28Z</time>
      </trkpt>
      <trkpt lat="44.06563" lon="7.25028">
        <ele>1108.63</ele>
        <time>2014-08-31T12:31:29Z</time>
      </trkpt>
      <trkpt lat="44.06563" lon="7.25027">
        <ele>1108.72</ele>
        <time>2014-08-31T12:31:30Z</time>
      </trkpt>
      <trkpt lat="44.06564" lon="7.25027">
        <ele>1108.81</ele>
        <time>2014-08-31T12:31:31Z</time>
      </trkpt>
      <trkpt lat="44.06565" lon="7.25027">
        <ele>1108.92</ele>
        <time>2014-08-31T12:31:32Z</time>
      </trkpt>
      <trkpt lat="44.06565" lon="7.25027">
        <ele>1109.04</ele>
        <time>2014-08-31T12:31:33Z</time>
      </trkpt>
      <trkpt lat="44.06566" lon="7.25027">
        <ele>1109.12</ele>
        <time>2014-08-31T12:31:34Z</time>
      </trkpt>
      <trkpt lat="44.06566" lon="7.25026">
        <ele>1109.2</ele>
        <time>2014-08-31T12:31:35Z</time>
      </trkpt>
      <trkpt lat="44.06566" lon="7.25025">
        <ele>1109.34</ele>
        <time>2014-08-31T12:31:36Z</time>
      </trkpt>
      <trkpt lat="44.06566" lon="7.25024">
        <ele>1109.43</ele>
        <time>2014-08-31T12:31:37Z</time>
      </trkpt>
      <trkpt lat="44.06566" lon="7.25023">
        <ele>1109.51</ele>
        <time>2014-08-31T12:31:38Z</time>
      </trkpt>
      <trkpt lat="44.06567" lon="7.25023">
        <ele>1109.62</ele>
        <time>2014-08-31T12:31:39Z</time>
      </trkpt>
      <trkpt lat="44.06567" lon="7.25022">
        <ele>1109.68</ele>
        <time>2014-08-31T12:31:40Z</time>
      </trkpt>
      <trkpt lat="44.06566" lon="7.2502">
        <ele>1109.75</ele>
        <time>2014-08-31T12:31:41Z</time>
      </trkpt>
      <trkpt lat="44.06566" lon="7.2502">
        <ele>1109.82</ele>
        <time>2014-08-31T12:31:42Z</time>
      </trkpt>
      <trkpt lat="44.06566" lon="7.25019">
        <ele>1109.92</ele>
        <time>2014-08-31T12:31:43Z</time>
      </trkpt>
      <trkpt lat="44.06567" lon="7.25019">
        <ele>1110.02</ele>
        <time>2014-08-31T12:31:44Z</time>
      </trkpt>
      <trkpt lat="44.06569" lon="7.25019">
        <ele>1110.11</ele>
        <time>2014-08-31T12:31:45Z</time>
      </trkpt>
      <trkpt lat="44.06569" lon="7.25018">
        <ele>1110.3</ele>
        <time>2014-08-31T12:31:46Z</time>
      </trkpt>
      <trkpt lat="44.0657" lon="7.25018">
        <ele>1110.4</ele>
        <time>2014-08-31T12:31:47Z</time>
      </trkpt>
      <trkpt lat="44.06571" lon="7.25017">
        <ele>1110.47</ele>
        <time>2014-08-31T12:31:48Z</time>
      </trkpt>
      <trkpt lat="44.0657" lon="7.25016">
        <ele>1110.59</ele>
        <time>2014-08-31T12:31:49Z</time>
      </trkpt>
      <trkpt lat="44.0657" lon="7.25014">
        <ele>1110.76</ele>
        <time>2014-08-31T12:31:50Z</time>
      </trkpt>
      <trkpt lat="44.0657" lon="7.25013">
        <ele>1110.96</ele>
        <time>2014-08-31T12:31:51Z</time>
      </trkpt>
      <trkpt lat="44.0657" lon="7.25012">
        <ele>1111.33</ele>
        <time>2014-08-31T12:31:52Z</time>
      </trkpt>
      <trkpt lat="44.0657" lon="7.25011">
        <ele>1111.53</ele>
        <time>2014-08-31T12:31:53Z</time>
      </trkpt>
      <trkpt lat="44.0657" lon="7.25012">
        <ele>1111.7</ele>
        <time>2014-08-31T12:31:54Z</time>
      </trkpt>
      <trkpt lat="44.0657" lon="7.25011">
        <ele>1111.85</ele>
        <time>2014-08-31T12:31:55Z</time>
      </trkpt>
      <trkpt lat="44.0657" lon="7.25011">
        <ele>1112.37</ele>
        <time>2014-08-31T12:31:57Z</time>
      </trkpt>
      <trkpt lat="44.0657" lon="7.25011">
        <ele>1112.59</ele>
        <time>2014-08-31T12:31:58Z</time>
      </trkpt>
      <trkpt lat="44.06571" lon="7.2501">
        <ele>1112.78</ele>
        <time>2014-08-31T12:31:59Z</time>
      </trkpt>
      <trkpt lat="44.06572" lon="7.2501">
        <ele>1112.96</ele>
        <time>2014-08-31T12:32:00Z</time>
      </trkpt>
      <trkpt lat="44.06572" lon="7.25009">
        <ele>1113.09</ele>
        <time>2014-08-31T12:32:01Z</time>
      </trkpt>
      <trkpt lat="44.06573" lon="7.25005">
        <ele>1113.39</ele>
        <time>2014-08-31T12:32:03Z</time>
      </trkpt>
      <trkpt lat="44.06573" lon="7.25004">
        <ele>1113.54</ele>
        <time>2014-08-31T12:32:04Z</time>
      </trkpt>
      <trkpt lat="44.06572" lon="7.25003">
        <ele>1113.7</ele>
        <time>2014-08-31T12:32:05Z</time>
      </trkpt>
      <trkpt lat="44.06572" lon="7.25002">
        <ele>1113.93</ele>
        <time>2014-08-31T12:32:06Z</time>
      </trkpt>
      <trkpt lat="44.06573" lon="7.25002">
        <ele>1114.08</ele>
        <time>2014-08-31T12:32:07Z</time>
      </trkpt>
      <trkpt lat="44.06574" lon="7.25001">
        <ele>1114.16</ele>
        <time>2014-08-31T12:32:08Z</time>
      </trkpt>
      <trkpt lat="44.06575" lon="7.25">
        <ele>1114.36</ele>
        <time>2014-08-31T12:32:09Z</time>
      </trkpt>
      <trkpt lat="44.06575" lon="7.25">
        <ele>1114.59</ele>
        <time>2014-08-31T12:32:10Z</time>
      </trkpt>
      <trkpt lat="44.06575" lon="7.24999">
        <ele>1114.78</ele>
        <time>2014-08-31T12:32:11Z</time>
      </trkpt>
      <trkpt lat="44.06575" lon="7.24998">
        <ele>1114.93</ele>
        <time>2014-08-31T12:32:12Z</time>
      </trkpt>
      <trkpt lat="44.06575" lon="7.24997">
        <ele>1115.13</ele>
        <time>2014-08-31T12:32:13Z</time>
      </trkpt>
      <trkpt lat="44.06576" lon="7.24996">
        <ele>1115.31</ele>
        <time>2014-08-31T12:32:14Z</time>
      </trkpt>
      <trkpt lat="44.06576" lon="7.24995">
        <ele>1115.59</ele>
        <time>2014-08-31T12:32:15Z</time>
      </trkpt>
      <trkpt lat="44.06576" lon="7.24994">
        <ele>1115.8</ele>
        <time>2014-08-31T12:32:16Z</time>
      </trkpt>
      <trkpt lat="44.06577" lon="7.24994">
        <ele>1115.99</ele>
        <time>2014-08-31T12:32:17Z</time>
      </trkpt>
      <trkpt lat="44.06577" lon="7.24993">
        <ele>1116.19</ele>
        <time>2014-08-31T12:32:18Z</time>
      </trkpt>
      <trkpt lat="44.06579" lon="7.24992">
        <ele>1116.43</ele>
        <time>2014-08-31T12:32:19Z</time>
      </trkpt>
      <trkpt lat="44.0658" lon="7.24992">
        <ele>1116.6</ele>
        <time>2014-08-31T12:32:20Z</time>
      </trkpt>
      <trkpt lat="44.06583" lon="7.24992">
        <ele>1116.75</ele>
        <time>2014-08-31T12:32:21Z</time>
      </trkpt>
      <trkpt lat="44.06584" lon="7.24992">
        <ele>1116.95</ele>
        <time>2014-08-31T12:32:22Z</time>
      </trkpt>
      <trkpt lat="44.06587" lon="7.24991">
        <ele>1117.28</ele>
        <time>2014-08-31T12:32:24Z</time>
      </trkpt>
      <trkpt lat="44.06588" lon="7.2499">
        <ele>1117.39</ele>
        <time>2014-08-31T12:32:25Z</time>
      </trkpt>
      <trkpt lat="44.06589" lon="7.2499">
        <ele>1117.57</ele>
        <time>2014-08-31T12:32:26Z</time>
      </trkpt>
      <trkpt lat="44.06589" lon="7.2499">
        <ele>1117.77</ele>
        <time>2014-08-31T12:32:27Z</time>
      </trkpt>
      <trkpt lat="44.0659" lon="7.24989">
        <ele>1117.92</ele>
        <time>2014-08-31T12:32:28Z</time>
      </trkpt>
      <trkpt lat="44.0659" lon="7.24989">
        <ele>1118.06</ele>
        <time>2014-08-31T12:32:29Z</time>
      </trkpt>
      <trkpt lat="44.0659" lon="7.24989">
        <ele>1118.2</ele>
        <time>2014-08-31T12:32:30Z</time>
      </trkpt>
      <trkpt lat="44.0659" lon="7.24988">
        <ele>1118.28</ele>
        <time>2014-08-31T12:32:31Z</time>
      </trkpt>
      <trkpt lat="44.0659" lon="7.24987">
        <ele>1118.4</ele>
        <time>2014-08-31T12:32:32Z</time>
      </trkpt>
      <trkpt lat="44.06591" lon="7.24987">
        <ele>1118.53</ele>
        <time>2014-08-31T12:32:33Z</time>
      </trkpt>
      <trkpt lat="44.06592" lon="7.24987">
        <ele>1118.74</ele>
        <time>2014-08-31T12:32:34Z</time>
      </trkpt>
      <trkpt lat="44.06593" lon="7.24987">
        <ele>1118.97</ele>
        <time>2014-08-31T12:32:35Z</time>
      </trkpt>
      <trkpt lat="44.06594" lon="7.24986">
        <ele>1119.2</ele>
        <time>2014-08-31T12:32:36Z</time>
      </trkpt>
      <trkpt lat="44.06594" lon="7.24985">
        <ele>1119.37</ele>
        <time>2014-08-31T12:32:37Z</time>
      </trkpt>
      <trkpt lat="44.06595" lon="7.24984">
        <ele>1119.55</ele>
        <time>2014-08-31T12:32:38Z</time>
      </trkpt>
      <trkpt lat="44.06595" lon="7.24983">
        <ele>1119.67</ele>
        <time>2014-08-31T12:32:39Z</time>
      </trkpt>
      <trkpt lat="44.06596" lon="7.24983">
        <ele>1119.89</ele>
        <time>2014-08-31T12:32:40Z</time>
      </trkpt>
      <trkpt lat="44.06597" lon="7.24981">
        <ele>1120.03</ele>
        <time>2014-08-31T12:32:41Z</time>
      </trkpt>
      <trkpt lat="44.06597" lon="7.24979">
        <ele>1120.2</ele>
        <time>2014-08-31T12:32:42Z</time>
      </trkpt>
      <trkpt lat="44.06597" lon="7.24978">
        <ele>1120.39</ele>
        <time>2014-08-31T12:32:43Z</time>
      </trkpt>
      <trkpt lat="44.06598" lon="7.24977">
        <ele>1120.56</ele>
        <time>2014-08-31T12:32:44Z</time>
      </trkpt>
      <trkpt lat="44.06598" lon="7.24976">
        <ele>1120.68</ele>
        <time>2014-08-31T12:32:45Z</time>
      </trkpt>
      <trkpt lat="44.06599" lon="7.24975">
        <ele>1120.87</ele>
        <time>2014-08-31T12:32:46Z</time>
      </trkpt>
      <trkpt lat="44.066" lon="7.24974">
        <ele>1121.05</ele>
        <time>2014-08-31T12:32:47Z</time>
      </trkpt>
      <trkpt lat="44.066" lon="7.24973">
        <ele>1121.21</ele>
        <time>2014-08-31T12:32:48Z</time>
      </trkpt>
      <trkpt lat="44.066" lon="7.24973">
        <ele>1121.36</ele>
        <time>2014-08-31T12:32:49Z</time>
      </trkpt>
      <trkpt lat="44.066" lon="7.24972">
        <ele>1121.54</ele>
        <time>2014-08-31T12:32:50Z</time>
      </trkpt>
      <trkpt lat="44.066" lon="7.24971">
        <ele>1121.71</ele>
        <time>2014-08-31T12:32:51Z</time>
      </trkpt>
      <trkpt lat="44.06602" lon="7.2497">
        <ele>1122.04</ele>
        <time>2014-08-31T12:32:53Z</time>
      </trkpt>
      <trkpt lat="44.06601" lon="7.24968">
        <ele>1122.19</ele>
        <time>2014-08-31T12:32:54Z</time>
      </trkpt>
      <trkpt lat="44.06602" lon="7.24967">
        <ele>1122.36</ele>
        <time>2014-08-31T12:32:55Z</time>
      </trkpt>
      <trkpt lat="44.06602" lon="7.24965">
        <ele>1122.53</ele>
        <time>2014-08-31T12:32:56Z</time>
      </trkpt>
      <trkpt lat="44.06603" lon="7.24965">
        <ele>1122.7</ele>
        <time>2014-08-31T12:32:57Z</time>
      </trkpt>
      <trkpt lat="44.06604" lon="7.24964">
        <ele>1122.89</ele>
        <time>2014-08-31T12:32:58Z</time>
      </trkpt>
      <trkpt lat="44.06605" lon="7.24964">
        <ele>1123.07</ele>
        <time>2014-08-31T12:32:59Z</time>
      </trkpt>
      <trkpt lat="44.06606" lon="7.24963">
        <ele>1123.26</ele>
        <time>2014-08-31T12:33:00Z</time>
      </trkpt>
      <trkpt lat="44.06607" lon="7.24962">
        <ele>1123.35</ele>
        <time>2014-08-31T12:33:01Z</time>
      </trkpt>
      <trkpt lat="44.06607" lon="7.24961">
        <ele>1123.42</ele>
        <time>2014-08-31T12:33:02Z</time>
      </trkpt>
      <trkpt lat="44.06608" lon="7.24961">
        <ele>1123.51</ele>
        <time>2014-08-31T12:33:03Z</time>
      </trkpt>
      <trkpt lat="44.06608" lon="7.2496">
        <ele>1123.7</ele>
        <time>2014-08-31T12:33:04Z</time>
      </trkpt>
      <trkpt lat="44.06609" lon="7.2496">
        <ele>1123.87</ele>
        <time>2014-08-31T12:33:05Z</time>
      </trkpt>
      <trkpt lat="44.06609" lon="7.24959">
        <ele>1124.04</ele>
        <time>2014-08-31T12:33:06Z</time>
      </trkpt>
      <trkpt lat="44.0661" lon="7.24958">
        <ele>1124.23</ele>
        <time>2014-08-31T12:33:07Z</time>
      </trkpt>
      <trkpt lat="44.06609" lon="7.24956">
        <ele>1124.34</ele>
        <time>2014-08-31T12:33:08Z</time>
      </trkpt>
      <trkpt lat="44.06608" lon="7.24955">
        <ele>1124.42</ele>
        <time>2014-08-31T12:33:09Z</time>
      </trkpt>
      <trkpt lat="44.06609" lon="7.24955">
        <ele>1124.57</ele>
        <time>2014-08-31T12:33:10Z</time>
      </trkpt>
      <trkpt lat="44.06609" lon="7.24955">
        <ele>1124.86</ele>
        <time>2014-08-31T12:33:12Z</time>
      </trkpt>
      <trkpt lat="44.06609" lon="7.24954">
        <ele>1124.98</ele>
        <time>2014-08-31T12:33:13Z</time>
      </trkpt>
      <trkpt lat="44.06609" lon="7.24955">
        <ele>1125.14</ele>
        <time>2014-08-31T12:33:14Z</time>
      </trkpt>
      <trkpt lat="44.06609" lon="7.24954">
        <ele>1125.35</ele>
        <time>2014-08-31T12:33:15Z</time>
      </trkpt>
      <trkpt lat="44.06608" lon="7.24954">
        <ele>1125.54</ele>
        <time>2014-08-31T12:33:16Z</time>
      </trkpt>
      <trkpt lat="44.06608" lon="7.24954">
        <ele>1125.8</ele>
        <time>2014-08-31T12:33:17Z</time>
      </trkpt>
      <trkpt lat="44.06609" lon="7.24954">
        <ele>1126.19</ele>
        <time>2014-08-31T12:33:18Z</time>
      </trkpt>
      <trkpt lat="44.06608" lon="7.24952">
        <ele>1126.42</ele>
        <time>2014-08-31T12:33:19Z</time>
      </trkpt>
      <trkpt lat="44.06609" lon="7.24951">
        <ele>1126.62</ele>
        <time>2014-08-31T12:33:20Z</time>
      </trkpt>
      <trkpt lat="44.06611" lon="7.24951">
        <ele>1126.78</ele>
        <time>2014-08-31T12:33:21Z</time>
      </trkpt>
      <trkpt lat="44.06611" lon="7.2495">
        <ele>1127.01</ele>
        <time>2014-08-31T12:33:22Z</time>
      </trkpt>
      <trkpt lat="44.06611" lon="7.24949">
        <ele>1127.22</ele>
        <time>2014-08-31T12:33:23Z</time>
      </trkpt>
      <trkpt lat="44.06611" lon="7.24948">
        <ele>1127.43</ele>
        <time>2014-08-31T12:33:24Z</time>
      </trkpt>
      <trkpt lat="44.06612" lon="7.24947">
        <ele>1127.6</ele>
        <time>2014-08-31T12:33:25Z</time>
      </trkpt>
      <trkpt lat="44.06612" lon="7.24946">
        <ele>1127.81</ele>
        <time>2014-08-31T12:33:26Z</time>
      </trkpt>
      <trkpt lat="44.06613" lon="7.24945">
        <ele>1127.93</ele>
        <time>2014-08-31T12:33:27Z</time>
      </trkpt>
      <trkpt lat="44.06614" lon="7.24943">
        <ele>1128.11</ele>
        <time>2014-08-31T12:33:28Z</time>
      </trkpt>
      <trkpt lat="44.06613" lon="7.24941">
        <ele>1128.33</ele>
        <time>2014-08-31T12:33:29Z</time>
      </trkpt>
      <trkpt lat="44.06615" lon="7.2494">
        <ele>1128.54</ele>
        <time>2014-08-31T12:33:30Z</time>
      </trkpt>
      <trkpt lat="44.06615" lon="7.24939">
        <ele>1128.68</ele>
        <time>2014-08-31T12:33:31Z</time>
      </trkpt>
      <trkpt lat="44.06616" lon="7.24938">
        <ele>1128.85</ele>
        <time>2014-08-31T12:33:32Z</time>
      </trkpt>
      <trkpt lat="44.06617" lon="7.24938">
        <ele>1128.97</ele>
        <time>2014-08-31T12:33:33Z</time>
      </trkpt>
      <trkpt lat="44.06618" lon="7.24937">
        <ele>1129.1</ele>
        <time>2014-08-31T12:33:34Z</time>
      </trkpt>
      <trkpt lat="44.06619" lon="7.24936">
        <ele>1129.29</ele>
        <time>2014-08-31T12:33:35Z</time>
      </trkpt>
      <trkpt lat="44.06619" lon="7.24934">
        <ele>1129.44</ele>
        <time>2014-08-31T12:33:36Z</time>
      </trkpt>
      <trkpt lat="44.0662" lon="7.24934">
        <ele>1129.63</ele>
        <time>2014-08-31T12:33:37Z</time>
      </trkpt>
      <trkpt lat="44.0662" lon="7.24933">
        <ele>1129.77</ele>
        <time>2014-08-31T12:33:38Z</time>
      </trkpt>
      <trkpt lat="44.0662" lon="7.24933">
        <ele>1129.94</ele>
        <time>2014-08-31T12:33:39Z</time>
      </trkpt>
      <trkpt lat="44.0662" lon="7.24932">
        <ele>1130.11</ele>
        <time>2014-08-31T12:33:40Z</time>
      </trkpt>
      <trkpt lat="44.06621" lon="7.24932">
        <ele>1130.26</ele>
        <time>2014-08-31T12:33:41Z</time>
      </trkpt>
      <trkpt lat="44.06621" lon="7.24932">
        <ele>1130.4</ele>
        <time>2014-08-31T12:33:42Z</time>
      </trkpt>
      <trkpt lat="44.06621" lon="7.24931">
        <ele>1130.56</ele>
        <time>2014-08-31T12:33:43Z</time>
      </trkpt>
      <trkpt lat="44.06622" lon="7.24931">
        <ele>1130.69</ele>
        <time>2014-08-31T12:33:44Z</time>
      </trkpt>
      <trkpt lat="44.06623" lon="7.2493">
        <ele>1130.83</ele>
        <time>2014-08-31T12:33:45Z</time>
      </trkpt>
      <trkpt lat="44.06623" lon="7.2493">
        <ele>1130.98</ele>
        <time>2014-08-31T12:33:46Z</time>
      </trkpt>
      <trkpt lat="44.06624" lon="7.24929">
        <ele>1131.13</ele>
        <time>2014-08-31T12:33:47Z</time>
      </trkpt>
      <trkpt lat="44.06624" lon="7.24928">
        <ele>1131.36</ele>
        <time>2014-08-31T12:33:48Z</time>
      </trkpt>
      <trkpt lat="44.06626" lon="7.24927">
        <ele>1131.64</ele>
        <time>2014-08-31T12:33:49Z</time>
      </trkpt>
      <trkpt lat="44.06626" lon="7.24927">
        <ele>1131.8</ele>
        <time>2014-08-31T12:33:50Z</time>
      </trkpt>
      <trkpt lat="44.06627" lon="7.24926">
        <ele>1132.06</ele>
        <time>2014-08-31T12:33:51Z</time>
      </trkpt>
      <trkpt lat="44.06627" lon="7.24925">
        <ele>1132.32</ele>
        <time>2014-08-31T12:33:52Z</time>
      </trkpt>
      <trkpt lat="44.06628" lon="7.24924">
        <ele>1132.57</ele>
        <time>2014-08-31T12:33:53Z</time>
      </trkpt>
      <trkpt lat="44.06629" lon="7.24924">
        <ele>1132.82</ele>
        <time>2014-08-31T12:33:54Z</time>
      </trkpt>
      <trkpt lat="44.06629" lon="7.24924">
        <ele>1132.99</ele>
        <time>2014-08-31T12:33:55Z</time>
      </trkpt>
      <trkpt lat="44.06629" lon="7.24923">
        <ele>1133.15</ele>
        <time>2014-08-31T12:33:56Z</time>
      </trkpt>
      <trkpt lat="44.0663" lon="7.24922">
        <ele>1133.36</ele>
        <time>2014-08-31T12:33:57Z</time>
      </trkpt>
      <trkpt lat="44.0663" lon="7.24921">
        <ele>1133.6</ele>
        <time>2014-08-31T12:33:58Z</time>
      </trkpt>
      <trkpt lat="44.06631" lon="7.2492">
        <ele>1133.79</ele>
        <time>2014-08-31T12:33:59Z</time>
      </trkpt>
      <trkpt lat="44.06632" lon="7.2492">
        <ele>1134.02</ele>
        <time>2014-08-31T12:34:00Z</time>
      </trkpt>
      <trkpt lat="44.06632" lon="7.2492">
        <ele>1134.23</ele>
        <time>2014-08-31T12:34:01Z</time>
      </trkpt>
      <trkpt lat="44.06633" lon="7.2492">
        <ele>1134.36</ele>
        <time>2014-08-31T12:34:02Z</time>
      </trkpt>
      <trkpt lat="44.06634" lon="7.24919">
        <ele>1134.52</ele>
        <time>2014-08-31T12:34:03Z</time>
      </trkpt>
      <trkpt lat="44.06637" lon="7.24918">
        <ele>1134.81</ele>
        <time>2014-08-31T12:34:05Z</time>
      </trkpt>
      <trkpt lat="44.06639" lon="7.24918">
        <ele>1134.95</ele>
        <time>2014-08-31T12:34:06Z</time>
      </trkpt>
      <trkpt lat="44.0664" lon="7.24917">
        <ele>1135.11</ele>
        <time>2014-08-31T12:34:07Z</time>
      </trkpt>
      <trkpt lat="44.06641" lon="7.24917">
        <ele>1135.28</ele>
        <time>2014-08-31T12:34:08Z</time>
      </trkpt>
      <trkpt lat="44.06641" lon="7.24916">
        <ele>1135.41</ele>
        <time>2014-08-31T12:34:09Z</time>
      </trkpt>
      <trkpt lat="44.06641" lon="7.24915">
        <ele>1135.51</ele>
        <time>2014-08-31T12:34:10Z</time>
      </trkpt>
      <trkpt lat="44.06641" lon="7.24914">
        <ele>1135.69</ele>
        <time>2014-08-31T12:34:11Z</time>
      </trkpt>
      <trkpt lat="44.06642" lon="7.24914">
        <ele>1135.9</ele>
        <time>2014-08-31T12:34:12Z</time>
      </trkpt>
      <trkpt lat="44.06643" lon="7.24913">
        <ele>1136.07</ele>
        <time>2014-08-31T12:34:13Z</time>
      </trkpt>
      <trkpt lat="44.06644" lon="7.24913">
        <ele>1136.28</ele>
        <time>2014-08-31T12:34:14Z</time>
      </trkpt>
      <trkpt lat="44.06644" lon="7.24912">
        <ele>1136.5</ele>
        <time>2014-08-31T12:34:15Z</time>
      </trkpt>
      <trkpt lat="44.06644" lon="7.24912">
        <ele>1136.65</ele>
        <time>2014-08-31T12:34:16Z</time>
      </trkpt>
      <trkpt lat="44.06644" lon="7.24911">
        <ele>1136.79</ele>
        <time>2014-08-31T12:34:17Z</time>
      </trkpt>
      <trkpt lat="44.06643" lon="7.24909">
        <ele>1136.95</ele>
        <time>2014-08-31T12:34:18Z</time>
      </trkpt>
      <trkpt lat="44.06642" lon="7.24908">
        <ele>1137.19</ele>
        <time>2014-08-31T12:34:19Z</time>
      </trkpt>
      <trkpt lat="44.06642" lon="7.24907">
        <ele>1137.4</ele>
        <time>2014-08-31T12:34:20Z</time>
      </trkpt>
      <trkpt lat="44.06642" lon="7.24907">
        <ele>1137.63</ele>
        <time>2014-08-31T12:34:21Z</time>
      </trkpt>
      <trkpt lat="44.06642" lon="7.24906">
        <ele>1137.8</ele>
        <time>2014-08-31T12:34:22Z</time>
      </trkpt>
      <trkpt lat="44.06642" lon="7.24905">
        <ele>1138.02</ele>
        <time>2014-08-31T12:34:23Z</time>
      </trkpt>
      <trkpt lat="44.06642" lon="7.24904">
        <ele>1138.23</ele>
        <time>2014-08-31T12:34:24Z</time>
      </trkpt>
      <trkpt lat="44.06642" lon="7.24903">
        <ele>1138.5</ele>
        <time>2014-08-31T12:34:25Z</time>
      </trkpt>
      <trkpt lat="44.06643" lon="7.24903">
        <ele>1138.74</ele>
        <time>2014-08-31T12:34:26Z</time>
      </trkpt>
      <trkpt lat="44.06643" lon="7.24903">
        <ele>1138.94</ele>
        <time>2014-08-31T12:34:27Z</time>
      </trkpt>
      <trkpt lat="44.06644" lon="7.24903">
        <ele>1139.17</ele>
        <time>2014-08-31T12:34:28Z</time>
      </trkpt>
      <trkpt lat="44.06643" lon="7.24902">
        <ele>1139.37</ele>
        <time>2014-08-31T12:34:29Z</time>
      </trkpt>
      <trkpt lat="44.06643" lon="7.24901">
        <ele>1139.6</ele>
        <time>2014-08-31T12:34:30Z</time>
      </trkpt>
      <trkpt lat="44.06642" lon="7.249">
        <ele>1139.9</ele>
        <time>2014-08-31T12:34:31Z</time>
      </trkpt>
      <trkpt lat="44.06642" lon="7.249">
        <ele>1140.09</ele>
        <time>2014-08-31T12:34:32Z</time>
      </trkpt>
      <trkpt lat="44.06643" lon="7.24901">
        <ele>1140.3</ele>
        <time>2014-08-31T12:34:33Z</time>
      </trkpt>
      <trkpt lat="44.06645" lon="7.24901">
        <ele>1140.73</ele>
        <time>2014-08-31T12:34:35Z</time>
      </trkpt>
      <trkpt lat="44.06646" lon="7.24902">
        <ele>1140.96</ele>
        <time>2014-08-31T12:34:36Z</time>
      </trkpt>
      <trkpt lat="44.06648" lon="7.24901">
        <ele>1141.26</ele>
        <time>2014-08-31T12:34:37Z</time>
      </trkpt>
      <trkpt lat="44.06648" lon="7.24901">
        <ele>1141.48</ele>
        <time>2014-08-31T12:34:38Z</time>
      </trkpt>
      <trkpt lat="44.06648" lon="7.249">
        <ele>1141.61</ele>
        <time>2014-08-31T12:34:39Z</time>
      </trkpt>
      <trkpt lat="44.06649" lon="7.249">
        <ele>1142.03</ele>
        <time>2014-08-31T12:34:41Z</time>
      </trkpt>
      <trkpt lat="44.06649" lon="7.24901">
        <ele>1142.24</ele>
        <time>2014-08-31T12:34:42Z</time>
      </trkpt>
      <trkpt lat="44.06649" lon="7.24901">
        <ele>1142.44</ele>
        <time>2014-08-31T12:34:43Z</time>
      </trkpt>
      <trkpt lat="44.0665" lon="7.24901">
        <ele>1142.82</ele>
        <time>2014-08-31T12:34:45Z</time>
      </trkpt>
      <trkpt lat="44.06652" lon="7.24902">
        <ele>1143</ele>
        <time>2014-08-31T12:34:46Z</time>
      </trkpt>
      <trkpt lat="44.06653" lon="7.24902">
        <ele>1143.23</ele>
        <time>2014-08-31T12:34:47Z</time>
      </trkpt>
      <trkpt lat="44.06654" lon="7.24901">
        <ele>1143.5</ele>
        <time>2014-08-31T12:34:48Z</time>
      </trkpt>
      <trkpt lat="44.06654" lon="7.24901">
        <ele>1143.72</ele>
        <time>2014-08-31T12:34:49Z</time>
      </trkpt>
      <trkpt lat="44.06654" lon="7.24901">
        <ele>1143.9</ele>
        <time>2014-08-31T12:34:50Z</time>
      </trkpt>
      <trkpt lat="44.06655" lon="7.249">
        <ele>1144.16</ele>
        <time>2014-08-31T12:34:52Z</time>
      </trkpt>
      <trkpt lat="44.06654" lon="7.24901">
        <ele>1144.32</ele>
        <time>2014-08-31T12:34:53Z</time>
      </trkpt>
      <trkpt lat="44.06655" lon="7.24901">
        <ele>1144.57</ele>
        <time>2014-08-31T12:34:54Z</time>
      </trkpt>
      <trkpt lat="44.06655" lon="7.249">
        <ele>1144.82</ele>
        <time>2014-08-31T12:34:55Z</time>
      </trkpt>
      <trkpt lat="44.06654" lon="7.24899">
        <ele>1145.04</ele>
        <time>2014-08-31T12:34:56Z</time>
      </trkpt>
      <trkpt lat="44.06653" lon="7.24899">
        <ele>1145.29</ele>
        <time>2014-08-31T12:34:57Z</time>
      </trkpt>
      <trkpt lat="44.06653" lon="7.24899">
        <ele>1145.49</ele>
        <time>2014-08-31T12:34:58Z</time>
      </trkpt>
      <trkpt lat="44.06652" lon="7.24899">
        <ele>1145.72</ele>
        <time>2014-08-31T12:34:59Z</time>
      </trkpt>
      <trkpt lat="44.06652" lon="7.24899">
        <ele>1145.9</ele>
        <time>2014-08-31T12:35:00Z</time>
      </trkpt>
      <trkpt lat="44.06651" lon="7.24899">
        <ele>1146.21</ele>
        <time>2014-08-31T12:35:01Z</time>
      </trkpt>
      <trkpt lat="44.06651" lon="7.24899">
        <ele>1146.42</ele>
        <time>2014-08-31T12:35:02Z</time>
      </trkpt>
      <trkpt lat="44.06651" lon="7.24899">
        <ele>1146.59</ele>
        <time>2014-08-31T12:35:03Z</time>
      </trkpt>
      <trkpt lat="44.06652" lon="7.249">
        <ele>1146.78</ele>
        <time>2014-08-31T12:35:04Z</time>
      </trkpt>
      <trkpt lat="44.06652" lon="7.24901">
        <ele>1147</ele>
        <time>2014-08-31T12:35:05Z</time>
      </trkpt>
      <trkpt lat="44.06653" lon="7.24902">
        <ele>1147.24</ele>
        <time>2014-08-31T12:35:06Z</time>
      </trkpt>
      <trkpt lat="44.06653" lon="7.24903">
        <ele>1147.46</ele>
        <time>2014-08-31T12:35:07Z</time>
      </trkpt>
      <trkpt lat="44.06653" lon="7.24903">
        <ele>1147.68</ele>
        <time>2014-08-31T12:35:08Z</time>
      </trkpt>
      <trkpt lat="44.06653" lon="7.24903">
        <ele>1147.85</ele>
        <time>2014-08-31T12:35:09Z</time>
      </trkpt>
      <trkpt lat="44.06653" lon="7.24904">
        <ele>1148.06</ele>
        <time>2014-08-31T12:35:10Z</time>
      </trkpt>
      <trkpt lat="44.06653" lon="7.24903">
        <ele>1148.26</ele>
        <time>2014-08-31T12:35:11Z</time>
      </trkpt>
      <trkpt lat="44.06653" lon="7.24903">
        <ele>1148.5</ele>
        <time>2014-08-31T12:35:12Z</time>
      </trkpt>
      <trkpt lat="44.06653" lon="7.24903">
        <ele>1148.67</ele>
        <time>2014-08-31T12:35:13Z</time>
      </trkpt>
      <trkpt lat="44.06654" lon="7.24903">
        <ele>1148.82</ele>
        <time>2014-08-31T12:35:14Z</time>
      </trkpt>
      <trkpt lat="44.06654" lon="7.24903">
        <ele>1148.96</ele>
        <time>2014-08-31T12:35:15Z</time>
      </trkpt>
      <trkpt lat="44.06654" lon="7.24903">
        <ele>1149.32</ele>
        <time>2014-08-31T12:35:17Z</time>
      </trkpt>
      <trkpt lat="44.06654" lon="7.24902">
        <ele>1149.51</ele>
        <time>2014-08-31T12:35:18Z</time>
      </trkpt>
      <trkpt lat="44.06655" lon="7.24901">
        <ele>1149.76</ele>
        <time>2014-08-31T12:35:19Z</time>
      </trkpt>
      <trkpt lat="44.06655" lon="7.24901">
        <ele>1149.96</ele>
        <time>2014-08-31T12:35:20Z</time>
      </trkpt>
      <trkpt lat="44.06656" lon="7.24901">
        <ele>1150.11</ele>
        <time>2014-08-31T12:35:21Z</time>
      </trkpt>
      <trkpt lat="44.06657" lon="7.24901">
        <ele>1150.34</ele>
        <time>2014-08-31T12:35:22Z</time>
      </trkpt>
      <trkpt lat="44.06658" lon="7.24901">
        <ele>1150.62</ele>
        <time>2014-08-31T12:35:23Z</time>
      </trkpt>
      <trkpt lat="44.0666" lon="7.24902">
        <ele>1150.88</ele>
        <time>2014-08-31T12:35:24Z</time>
      </trkpt>
      <trkpt lat="44.06661" lon="7.24902">
        <ele>1151.05</ele>
        <time>2014-08-31T12:35:25Z</time>
      </trkpt>
      <trkpt lat="44.06662" lon="7.24902">
        <ele>1151.25</ele>
        <time>2014-08-31T12:35:26Z</time>
      </trkpt>
      <trkpt lat="44.06665" lon="7.24902">
        <ele>1151.44</ele>
        <time>2014-08-31T12:35:27Z</time>
      </trkpt>
      <trkpt lat="44.06666" lon="7.24902">
        <ele>1151.63</ele>
        <time>2014-08-31T12:35:28Z</time>
      </trkpt>
      <trkpt lat="44.06667" lon="7.24902">
        <ele>1151.82</ele>
        <time>2014-08-31T12:35:29Z</time>
      </trkpt>
      <trkpt lat="44.06667" lon="7.249">
        <ele>1152.17</ele>
        <time>2014-08-31T12:35:31Z</time>
      </trkpt>
      <trkpt lat="44.06666" lon="7.24899">
        <ele>1152.53</ele>
        <time>2014-08-31T12:35:33Z</time>
      </trkpt>
      <trkpt lat="44.06666" lon="7.24898">
        <ele>1152.73</ele>
        <time>2014-08-31T12:35:34Z</time>
      </trkpt>
      <trkpt lat="44.06666" lon="7.24898">
        <ele>1152.92</ele>
        <time>2014-08-31T12:35:35Z</time>
      </trkpt>
      <trkpt lat="44.06665" lon="7.24898">
        <ele>1153.16</ele>
        <time>2014-08-31T12:35:36Z</time>
      </trkpt>
      <trkpt lat="44.06665" lon="7.24897">
        <ele>1153.37</ele>
        <time>2014-08-31T12:35:37Z</time>
      </trkpt>
      <trkpt lat="44.06665" lon="7.24896">
        <ele>1153.49</ele>
        <time>2014-08-31T12:35:38Z</time>
      </trkpt>
      <trkpt lat="44.06665" lon="7.24895">
        <ele>1153.67</ele>
        <time>2014-08-31T12:35:39Z</time>
      </trkpt>
      <trkpt lat="44.06665" lon="7.24895">
        <ele>1153.93</ele>
        <time>2014-08-31T12:35:40Z</time>
      </trkpt>
      <trkpt lat="44.06665" lon="7.24894">
        <ele>1154.17</ele>
        <time>2014-08-31T12:35:41Z</time>
      </trkpt>
      <trkpt lat="44.06666" lon="7.24894">
        <ele>1154.36</ele>
        <time>2014-08-31T12:35:42Z</time>
      </trkpt>
      <trkpt lat="44.06665" lon="7.24893">
        <ele>1154.56</ele>
        <time>2014-08-31T12:35:43Z</time>
      </trkpt>
      <trkpt lat="44.06666" lon="7.24892">
        <ele>1154.77</ele>
        <time>2014-08-31T12:35:44Z</time>
      </trkpt>
      <trkpt lat="44.06666" lon="7.24891">
        <ele>1154.95</ele>
        <time>2014-08-31T12:35:45Z</time>
      </trkpt>
      <trkpt lat="44.06666" lon="7.24891">
        <ele>1155.14</ele>
        <time>2014-08-31T12:35:46Z</time>
      </trkpt>
      <trkpt lat="44.06667" lon="7.24891">
        <ele>1155.34</ele>
        <time>2014-08-31T12:35:47Z</time>
      </trkpt>
      <trkpt lat="44.06667" lon="7.24891">
        <ele>1155.45</ele>
        <time>2014-08-31T12:35:48Z</time>
      </trkpt>
      <trkpt lat="44.06666" lon="7.2489">
        <ele>1155.56</ele>
        <time>2014-08-31T12:35:49Z</time>
      </trkpt>
      <trkpt lat="44.06667" lon="7.24889">
        <ele>1155.7</ele>
        <time>2014-08-31T12:35:50Z</time>
      </trkpt>
      <trkpt lat="44.06667" lon="7.24889">
        <ele>1155.85</ele>
        <time>2014-08-31T12:35:51Z</time>
      </trkpt>
      <trkpt lat="44.06667" lon="7.24888">
        <ele>1156.02</ele>
        <time>2014-08-31T12:35:52Z</time>
      </trkpt>
      <trkpt lat="44.06666" lon="7.24887">
        <ele>1156.21</ele>
        <time>2014-08-31T12:35:53Z</time>
      </trkpt>
      <trkpt lat="44.06666" lon="7.24886">
        <ele>1156.36</ele>
        <time>2014-08-31T12:35:54Z</time>
      </trkpt>
      <trkpt lat="44.06667" lon="7.24886">
        <ele>1156.58</ele>
        <time>2014-08-31T12:35:55Z</time>
      </trkpt>
      <trkpt lat="44.06665" lon="7.24883">
        <ele>1156.92</ele>
        <time>2014-08-31T12:35:57Z</time>
      </trkpt>
      <trkpt lat="44.06667" lon="7.24882">
        <ele>1157.16</ele>
        <time>2014-08-31T12:35:58Z</time>
      </trkpt>
      <trkpt lat="44.06668" lon="7.24882">
        <ele>1157.37</ele>
        <time>2014-08-31T12:35:59Z</time>
      </trkpt>
      <trkpt lat="44.06668" lon="7.24882">
        <ele>1157.72</ele>
        <time>2014-08-31T12:36:01Z</time>
      </trkpt>
      <trkpt lat="44.06669" lon="7.24882">
        <ele>1157.85</ele>
        <time>2014-08-31T12:36:02Z</time>
      </trkpt>
      <trkpt lat="44.06668" lon="7.24882">
        <ele>1158.06</ele>
        <time>2014-08-31T12:36:03Z</time>
      </trkpt>
      <trkpt lat="44.06668" lon="7.24882">
        <ele>1158.27</ele>
        <time>2014-08-31T12:36:04Z</time>
      </trkpt>
      <trkpt lat="44.06669" lon="7.24881">
        <ele>1158.47</ele>
        <time>2014-08-31T12:36:05Z</time>
      </trkpt>
      <trkpt lat="44.06669" lon="7.2488">
        <ele>1158.71</ele>
        <time>2014-08-31T12:36:06Z</time>
      </trkpt>
      <trkpt lat="44.0667" lon="7.2488">
        <ele>1158.94</ele>
        <time>2014-08-31T12:36:07Z</time>
      </trkpt>
      <trkpt lat="44.06669" lon="7.24879">
        <ele>1159.3</ele>
        <time>2014-08-31T12:36:09Z</time>
      </trkpt>
      <trkpt lat="44.06669" lon="7.24879">
        <ele>1159.5</ele>
        <time>2014-08-31T12:36:10Z</time>
      </trkpt>
      <trkpt lat="44.06668" lon="7.24879">
        <ele>1159.71</ele>
        <time>2014-08-31T12:36:11Z</time>
      </trkpt>
      <trkpt lat="44.06668" lon="7.24879">
        <ele>1159.91</ele>
        <time>2014-08-31T12:36:12Z</time>
      </trkpt>
      <trkpt lat="44.06668" lon="7.24877">
        <ele>1160.11</ele>
        <time>2014-08-31T12:36:13Z</time>
      </trkpt>
      <trkpt lat="44.06666" lon="7.24876">
        <ele>1160.29</ele>
        <time>2014-08-31T12:36:14Z</time>
      </trkpt>
      <trkpt lat="44.06665" lon="7.24875">
        <ele>1160.55</ele>
        <time>2014-08-31T12:36:15Z</time>
      </trkpt>
      <trkpt lat="44.06664" lon="7.24874">
        <ele>1160.8</ele>
        <time>2014-08-31T12:36:16Z</time>
      </trkpt>
      <trkpt lat="44.06664" lon="7.24873">
        <ele>1160.99</ele>
        <time>2014-08-31T12:36:17Z</time>
      </trkpt>
      <trkpt lat="44.06663" lon="7.24872">
        <ele>1161.14</ele>
        <time>2014-08-31T12:36:18Z</time>
      </trkpt>
      <trkpt lat="44.06662" lon="7.24871">
        <ele>1161.28</ele>
        <time>2014-08-31T12:36:19Z</time>
      </trkpt>
      <trkpt lat="44.06662" lon="7.24871">
        <ele>1161.46</ele>
        <time>2014-08-31T12:36:20Z</time>
      </trkpt>
      <trkpt lat="44.06663" lon="7.24871">
        <ele>1161.66</ele>
        <time>2014-08-31T12:36:21Z</time>
      </trkpt>
      <trkpt lat="44.06663" lon="7.2487">
        <ele>1161.83</ele>
        <time>2014-08-31T12:36:22Z</time>
      </trkpt>
      <trkpt lat="44.06663" lon="7.24869">
        <ele>1162.05</ele>
        <time>2014-08-31T12:36:23Z</time>
      </trkpt>
      <trkpt lat="44.06663" lon="7.24869">
        <ele>1162.25</ele>
        <time>2014-08-31T12:36:24Z</time>
      </trkpt>
      <trkpt lat="44.06662" lon="7.24868">
        <ele>1162.51</ele>
        <time>2014-08-31T12:36:25Z</time>
      </trkpt>
      <trkpt lat="44.06662" lon="7.24868">
        <ele>1162.75</ele>
        <time>2014-08-31T12:36:26Z</time>
      </trkpt>
      <trkpt lat="44.06662" lon="7.24868">
        <ele>1163.14</ele>
        <time>2014-08-31T12:36:28Z</time>
      </trkpt>
      <trkpt lat="44.06662" lon="7.24868">
        <ele>1163.34</ele>
        <time>2014-08-31T12:36:29Z</time>
      </trkpt>
      <trkpt lat="44.06662" lon="7.24868">
        <ele>1163.7</ele>
        <time>2014-08-31T12:36:31Z</time>
      </trkpt>
      <trkpt lat="44.06662" lon="7.24868">
        <ele>1163.89</ele>
        <time>2014-08-31T12:36:32Z</time>
      </trkpt>
      <trkpt lat="44.06663" lon="7.24868">
        <ele>1164.19</ele>
        <time>2014-08-31T12:36:33Z</time>
      </trkpt>
      <trkpt lat="44.06663" lon="7.24868">
        <ele>1164.44</ele>
        <time>2014-08-31T12:36:34Z</time>
      </trkpt>
      <trkpt lat="44.06663" lon="7.24867">
        <ele>1164.66</ele>
        <time>2014-08-31T12:36:35Z</time>
      </trkpt>
      <trkpt lat="44.06664" lon="7.24867">
        <ele>1164.83</ele>
        <time>2014-08-31T12:36:36Z</time>
      </trkpt>
      <trkpt lat="44.06664" lon="7.24867">
        <ele>1165.03</ele>
        <time>2014-08-31T12:36:37Z</time>
      </trkpt>
      <trkpt lat="44.06665" lon="7.24866">
        <ele>1165.26</ele>
        <time>2014-08-31T12:36:38Z</time>
      </trkpt>
      <trkpt lat="44.06666" lon="7.24866">
        <ele>1165.41</ele>
        <time>2014-08-31T12:36:39Z</time>
      </trkpt>
      <trkpt lat="44.06666" lon="7.24865">
        <ele>1165.55</ele>
        <time>2014-08-31T12:36:40Z</time>
      </trkpt>
      <trkpt lat="44.06667" lon="7.24865">
        <ele>1165.72</ele>
        <time>2014-08-31T12:36:41Z</time>
      </trkpt>
      <trkpt lat="44.06668" lon="7.24866">
        <ele>1165.86</ele>
        <time>2014-08-31T12:36:42Z</time>
      </trkpt>
      <trkpt lat="44.06669" lon="7.24867">
        <ele>1166.01</ele>
        <time>2014-08-31T12:36:43Z</time>
      </trkpt>
      <trkpt lat="44.0667" lon="7.24867">
        <ele>1166.18</ele>
        <time>2014-08-31T12:36:44Z</time>
      </trkpt>
      <trkpt lat="44.06672" lon="7.24868">
        <ele>1166.35</ele>
        <time>2014-08-31T12:36:45Z</time>
      </trkpt>
      <trkpt lat="44.06674" lon="7.24868">
        <ele>1166.66</ele>
        <time>2014-08-31T12:36:47Z</time>
      </trkpt>
      <trkpt lat="44.06674" lon="7.24868">
        <ele>1166.78</ele>
        <time>2014-08-31T12:36:48Z</time>
      </trkpt>
      <trkpt lat="44.06674" lon="7.24867">
        <ele>1167</ele>
        <time>2014-08-31T12:36:49Z</time>
      </trkpt>
      <trkpt lat="44.06675" lon="7.24866">
        <ele>1167.18</ele>
        <time>2014-08-31T12:36:50Z</time>
      </trkpt>
      <trkpt lat="44.06674" lon="7.24866">
        <ele>1167.44</ele>
        <time>2014-08-31T12:36:51Z</time>
      </trkpt>
      <trkpt lat="44.06674" lon="7.24865">
        <ele>1167.64</ele>
        <time>2014-08-31T12:36:52Z</time>
      </trkpt>
      <trkpt lat="44.06674" lon="7.24865">
        <ele>1167.79</ele>
        <time>2014-08-31T12:36:53Z</time>
      </trkpt>
      <trkpt lat="44.06674" lon="7.24864">
        <ele>1167.91</ele>
        <time>2014-08-31T12:36:54Z</time>
      </trkpt>
      <trkpt lat="44.06673" lon="7.24864">
        <ele>1167.95</ele>
        <time>2014-08-31T12:36:55Z</time>
      </trkpt>
      <trkpt lat="44.06673" lon="7.24863">
        <ele>1167.91</ele>
        <time>2014-08-31T12:36:56Z</time>
      </trkpt>
      <trkpt lat="44.06673" lon="7.24862">
        <ele>1168.01</ele>
        <time>2014-08-31T12:36:57Z</time>
      </trkpt>
      <trkpt lat="44.06672" lon="7.24862">
        <ele>1168.46</ele>
        <time>2014-08-31T12:36:58Z</time>
      </trkpt>
      <trkpt lat="44.06672" lon="7.24861">
        <ele>1168.85</ele>
        <time>2014-08-31T12:36:59Z</time>
      </trkpt>
      <trkpt lat="44.06672" lon="7.2486">
        <ele>1169.16</ele>
        <time>2014-08-31T12:37:00Z</time>
      </trkpt>
      <trkpt lat="44.06672" lon="7.24859">
        <ele>1169.48</ele>
        <time>2014-08-31T12:37:01Z</time>
      </trkpt>
      <trkpt lat="44.0667" lon="7.24857">
        <ele>1169.66</ele>
        <time>2014-08-31T12:37:02Z</time>
      </trkpt>
      <trkpt lat="44.06671" lon="7.24856">
        <ele>1169.72</ele>
        <time>2014-08-31T12:37:03Z</time>
      </trkpt>
      <trkpt lat="44.06671" lon="7.24855">
        <ele>1169.74</ele>
        <time>2014-08-31T12:37:04Z</time>
      </trkpt>
      <trkpt lat="44.0667" lon="7.24853">
        <ele>1169.84</ele>
        <time>2014-08-31T12:37:05Z</time>
      </trkpt>
      <trkpt lat="44.06669" lon="7.24852">
        <ele>1170.02</ele>
        <time>2014-08-31T12:37:06Z</time>
      </trkpt>
      <trkpt lat="44.06668" lon="7.24849">
        <ele>1170.53</ele>
        <time>2014-08-31T12:37:07Z</time>
      </trkpt>
      <trkpt lat="44.06665" lon="7.24846">
        <ele>1170.94</ele>
        <time>2014-08-31T12:37:08Z</time>
      </trkpt>
      <trkpt lat="44.06664" lon="7.24846">
        <ele>1171.18</ele>
        <time>2014-08-31T12:37:09Z</time>
      </trkpt>
      <trkpt lat="44.06664" lon="7.24846">
        <ele>1171.42</ele>
        <time>2014-08-31T12:37:10Z</time>
      </trkpt>
      <trkpt lat="44.06663" lon="7.24845">
        <ele>1171.6</ele>
        <time>2014-08-31T12:37:11Z</time>
      </trkpt>
      <trkpt lat="44.06662" lon="7.24844">
        <ele>1171.78</ele>
        <time>2014-08-31T12:37:12Z</time>
      </trkpt>
      <trkpt lat="44.06662" lon="7.24843">
        <ele>1171.98</ele>
        <time>2014-08-31T12:37:13Z</time>
      </trkpt>
      <trkpt lat="44.06662" lon="7.24843">
        <ele>1172.15</ele>
        <time>2014-08-31T12:37:14Z</time>
      </trkpt>
      <trkpt lat="44.06663" lon="7.24843">
        <ele>1172.28</ele>
        <time>2014-08-31T12:37:15Z</time>
      </trkpt>
      <trkpt lat="44.06663" lon="7.24843">
        <ele>1172.46</ele>
        <time>2014-08-31T12:37:16Z</time>
      </trkpt>
      <trkpt lat="44.06663" lon="7.24842">
        <ele>1172.67</ele>
        <time>2014-08-31T12:37:17Z</time>
      </trkpt>
      <trkpt lat="44.06662" lon="7.24841">
        <ele>1173.18</ele>
        <time>2014-08-31T12:37:19Z</time>
      </trkpt>
      <trkpt lat="44.06662" lon="7.2484">
        <ele>1173.41</ele>
        <time>2014-08-31T12:37:20Z</time>
      </trkpt>
      <trkpt lat="44.06661" lon="7.24839">
        <ele>1173.65</ele>
        <time>2014-08-31T12:37:21Z</time>
      </trkpt>
      <trkpt lat="44.06657" lon="7.24836">
        <ele>1174.05</ele>
        <time>2014-08-31T12:37:23Z</time>
      </trkpt>
      <trkpt lat="44.06657" lon="7.24835">
        <ele>1174.24</ele>
        <time>2014-08-31T12:37:24Z</time>
      </trkpt>
      <trkpt lat="44.06657" lon="7.24835">
        <ele>1174.41</ele>
        <time>2014-08-31T12:37:25Z</time>
      </trkpt>
      <trkpt lat="44.06657" lon="7.24835">
        <ele>1174.62</ele>
        <time>2014-08-31T12:37:26Z</time>
      </trkpt>
      <trkpt lat="44.06658" lon="7.24834">
        <ele>1174.79</ele>
        <time>2014-08-31T12:37:27Z</time>
      </trkpt>
      <trkpt lat="44.06659" lon="7.24834">
        <ele>1174.97</ele>
        <time>2014-08-31T12:37:28Z</time>
      </trkpt>
      <trkpt lat="44.06659" lon="7.24834">
        <ele>1175.1</ele>
        <time>2014-08-31T12:37:29Z</time>
      </trkpt>
      <trkpt lat="44.06659" lon="7.24833">
        <ele>1175.28</ele>
        <time>2014-08-31T12:37:30Z</time>
      </trkpt>
      <trkpt lat="44.06659" lon="7.24833">
        <ele>1175.47</ele>
        <time>2014-08-31T12:37:31Z</time>
      </trkpt>
      <trkpt lat="44.0666" lon="7.24833">
        <ele>1175.71</ele>
        <time>2014-08-31T12:37:32Z</time>
      </trkpt>
      <trkpt lat="44.06661" lon="7.24833">
        <ele>1175.87</ele>
        <time>2014-08-31T12:37:33Z</time>
      </trkpt>
      <trkpt lat="44.0666" lon="7.24832">
        <ele>1175.98</ele>
        <time>2014-08-31T12:37:34Z</time>
      </trkpt>
      <trkpt lat="44.06661" lon="7.24833">
        <ele>1176.14</ele>
        <time>2014-08-31T12:37:35Z</time>
      </trkpt>
      <trkpt lat="44.06661" lon="7.24833">
        <ele>1176.44</ele>
        <time>2014-08-31T12:37:37Z</time>
      </trkpt>
      <trkpt lat="44.06661" lon="7.24833">
        <ele>1176.53</ele>
        <time>2014-08-31T12:37:38Z</time>
      </trkpt>
      <trkpt lat="44.06661" lon="7.24833">
        <ele>1176.63</ele>
        <time>2014-08-31T12:37:39Z</time>
      </trkpt>
      <trkpt lat="44.06662" lon="7.24833">
        <ele>1176.78</ele>
        <time>2014-08-31T12:37:40Z</time>
      </trkpt>
      <trkpt lat="44.06662" lon="7.24833">
        <ele>1176.89</ele>
        <time>2014-08-31T12:37:41Z</time>
      </trkpt>
      <trkpt lat="44.06663" lon="7.24833">
        <ele>1176.88</ele>
        <time>2014-08-31T12:37:42Z</time>
      </trkpt>
      <trkpt lat="44.06663" lon="7.24832">
        <ele>1177</ele>
        <time>2014-08-31T12:37:43Z</time>
      </trkpt>
      <trkpt lat="44.06663" lon="7.24833">
        <ele>1177.38</ele>
        <time>2014-08-31T12:37:44Z</time>
      </trkpt>
      <trkpt lat="44.06664" lon="7.24833">
        <ele>1177.58</ele>
        <time>2014-08-31T12:37:45Z</time>
      </trkpt>
      <trkpt lat="44.06665" lon="7.24833">
        <ele>1177.87</ele>
        <time>2014-08-31T12:37:47Z</time>
      </trkpt>
      <trkpt lat="44.06665" lon="7.24833">
        <ele>1178.09</ele>
        <time>2014-08-31T12:37:48Z</time>
      </trkpt>
      <trkpt lat="44.06666" lon="7.24832">
        <ele>1178.34</ele>
        <time>2014-08-31T12:37:49Z</time>
      </trkpt>
      <trkpt lat="44.06666" lon="7.24831">
        <ele>1178.55</ele>
        <time>2014-08-31T12:37:50Z</time>
      </trkpt>
      <trkpt lat="44.06666" lon="7.2483">
        <ele>1178.72</ele>
        <time>2014-08-31T12:37:51Z</time>
      </trkpt>
      <trkpt lat="44.06665" lon="7.2483">
        <ele>1178.83</ele>
        <time>2014-08-31T12:37:52Z</time>
      </trkpt>
      <trkpt lat="44.06665" lon="7.24829">
        <ele>1179.01</ele>
        <time>2014-08-31T12:37:53Z</time>
      </trkpt>
      <trkpt lat="44.06665" lon="7.24829">
        <ele>1179.24</ele>
        <time>2014-08-31T12:37:54Z</time>
      </trkpt>
      <trkpt lat="44.06665" lon="7.24828">
        <ele>1179.49</ele>
        <time>2014-08-31T12:37:55Z</time>
      </trkpt>
      <trkpt lat="44.06666" lon="7.24828">
        <ele>1179.73</ele>
        <time>2014-08-31T12:37:56Z</time>
      </trkpt>
      <trkpt lat="44.06666" lon="7.24828">
        <ele>1179.88</ele>
        <time>2014-08-31T12:37:57Z</time>
      </trkpt>
      <trkpt lat="44.06668" lon="7.24828">
        <ele>1180.3</ele>
        <time>2014-08-31T12:37:59Z</time>
      </trkpt>
      <trkpt lat="44.06668" lon="7.24828">
        <ele>1180.47</ele>
        <time>2014-08-31T12:38:00Z</time>
      </trkpt>
      <trkpt lat="44.06668" lon="7.24827">
        <ele>1180.66</ele>
        <time>2014-08-31T12:38:01Z</time>
      </trkpt>
      <trkpt lat="44.06668" lon="7.24826">
        <ele>1180.86</ele>
        <time>2014-08-31T12:38:02Z</time>
      </trkpt>
      <trkpt lat="44.06669" lon="7.24826">
        <ele>1180.99</ele>
        <time>2014-08-31T12:38:03Z</time>
      </trkpt>
      <trkpt lat="44.06669" lon="7.24825">
        <ele>1181.14</ele>
        <time>2014-08-31T12:38:04Z</time>
      </trkpt>
      <trkpt lat="44.06669" lon="7.24825">
        <ele>1181.33</ele>
        <time>2014-08-31T12:38:05Z</time>
      </trkpt>
      <trkpt lat="44.06668" lon="7.24823">
        <ele>1181.52</ele>
        <time>2014-08-31T12:38:06Z</time>
      </trkpt>
      <trkpt lat="44.06668" lon="7.24822">
        <ele>1181.68</ele>
        <time>2014-08-31T12:38:07Z</time>
      </trkpt>
      <trkpt lat="44.06667" lon="7.24822">
        <ele>1181.95</ele>
        <time>2014-08-31T12:38:08Z</time>
      </trkpt>
      <trkpt lat="44.06667" lon="7.24821">
        <ele>1182.18</ele>
        <time>2014-08-31T12:38:09Z</time>
      </trkpt>
      <trkpt lat="44.06667" lon="7.2482">
        <ele>1182.32</ele>
        <time>2014-08-31T12:38:10Z</time>
      </trkpt>
      <trkpt lat="44.06666" lon="7.24819">
        <ele>1182.42</ele>
        <time>2014-08-31T12:38:11Z</time>
      </trkpt>
      <trkpt lat="44.06665" lon="7.24818">
        <ele>1182.58</ele>
        <time>2014-08-31T12:38:12Z</time>
      </trkpt>
      <trkpt lat="44.06665" lon="7.24818">
        <ele>1182.73</ele>
        <time>2014-08-31T12:38:13Z</time>
      </trkpt>
      <trkpt lat="44.06665" lon="7.24818">
        <ele>1182.88</ele>
        <time>2014-08-31T12:38:14Z</time>
      </trkpt>
      <trkpt lat="44.06665" lon="7.24817">
        <ele>1183.02</ele>
        <time>2014-08-31T12:38:15Z</time>
      </trkpt>
      <trkpt lat="44.06665" lon="7.24816">
        <ele>1183.19</ele>
        <time>2014-08-31T12:38:16Z</time>
      </trkpt>
      <trkpt lat="44.06666" lon="7.24817">
        <ele>1183.37</ele>
        <time>2014-08-31T12:38:17Z</time>
      </trkpt>
      <trkpt lat="44.06666" lon="7.24816">
        <ele>1183.54</ele>
        <time>2014-08-31T12:38:18Z</time>
      </trkpt>
      <trkpt lat="44.06666" lon="7.24816">
        <ele>1183.74</ele>
        <time>2014-08-31T12:38:19Z</time>
      </trkpt>
      <trkpt lat="44.06666" lon="7.24816">
        <ele>1183.95</ele>
        <time>2014-08-31T12:38:20Z</time>
      </trkpt>
      <trkpt lat="44.06667" lon="7.24815">
        <ele>1184.19</ele>
        <time>2014-08-31T12:38:21Z</time>
      </trkpt>
      <trkpt lat="44.06667" lon="7.24814">
        <ele>1184.38</ele>
        <time>2014-08-31T12:38:22Z</time>
      </trkpt>
      <trkpt lat="44.06668" lon="7.24814">
        <ele>1184.57</ele>
        <time>2014-08-31T12:38:23Z</time>
      </trkpt>
      <trkpt lat="44.06668" lon="7.24813">
        <ele>1184.71</ele>
        <time>2014-08-31T12:38:24Z</time>
      </trkpt>
      <trkpt lat="44.06668" lon="7.24813">
        <ele>1184.8</ele>
        <time>2014-08-31T12:38:25Z</time>
      </trkpt>
      <trkpt lat="44.06669" lon="7.24812">
        <ele>1184.91</ele>
        <time>2014-08-31T12:38:26Z</time>
      </trkpt>
      <trkpt lat="44.06669" lon="7.24811">
        <ele>1185.06</ele>
        <time>2014-08-31T12:38:27Z</time>
      </trkpt>
      <trkpt lat="44.06668" lon="7.24811">
        <ele>1185.28</ele>
        <time>2014-08-31T12:38:28Z</time>
      </trkpt>
      <trkpt lat="44.06668" lon="7.24811">
        <ele>1185.57</ele>
        <time>2014-08-31T12:38:29Z</time>
      </trkpt>
      <trkpt lat="44.06669" lon="7.24811">
        <ele>1185.96</ele>
        <time>2014-08-31T12:38:30Z</time>
      </trkpt>
      <trkpt lat="44.06669" lon="7.24811">
        <ele>1186.15</ele>
        <time>2014-08-31T12:38:31Z</time>
      </trkpt>
      <trkpt lat="44.06669" lon="7.24811">
        <ele>1186.33</ele>
        <time>2014-08-31T12:38:32Z</time>
      </trkpt>
      <trkpt lat="44.0667" lon="7.24811">
        <ele>1186.49</ele>
        <time>2014-08-31T12:38:33Z</time>
      </trkpt>
      <trkpt lat="44.0667" lon="7.24811">
        <ele>1186.81</ele>
        <time>2014-08-31T12:38:35Z</time>
      </trkpt>
      <trkpt lat="44.06669" lon="7.24809">
        <ele>1186.92</ele>
        <time>2014-08-31T12:38:36Z</time>
      </trkpt>
      <trkpt lat="44.06669" lon="7.24808">
        <ele>1187.05</ele>
        <time>2014-08-31T12:38:37Z</time>
      </trkpt>
      <trkpt lat="44.06669" lon="7.24807">
        <ele>1187.28</ele>
        <time>2014-08-31T12:38:38Z</time>
      </trkpt>
      <trkpt lat="44.0667" lon="7.24807">
        <ele>1187.51</ele>
        <time>2014-08-31T12:38:39Z</time>
      </trkpt>
      <trkpt lat="44.0667" lon="7.24806">
        <ele>1187.69</ele>
        <time>2014-08-31T12:38:40Z</time>
      </trkpt>
      <trkpt lat="44.0667" lon="7.24806">
        <ele>1187.88</ele>
        <time>2014-08-31T12:38:41Z</time>
      </trkpt>
      <trkpt lat="44.0667" lon="7.24806">
        <ele>1188.03</ele>
        <time>2014-08-31T12:38:42Z</time>
      </trkpt>
      <trkpt lat="44.06669" lon="7.24805">
        <ele>1188.21</ele>
        <time>2014-08-31T12:38:43Z</time>
      </trkpt>
      <trkpt lat="44.06669" lon="7.24804">
        <ele>1188.42</ele>
        <time>2014-08-31T12:38:44Z</time>
      </trkpt>
      <trkpt lat="44.0667" lon="7.24804">
        <ele>1188.58</ele>
        <time>2014-08-31T12:38:45Z</time>
      </trkpt>
      <trkpt lat="44.0667" lon="7.24805">
        <ele>1188.84</ele>
        <time>2014-08-31T12:38:47Z</time>
      </trkpt>
      <trkpt lat="44.06671" lon="7.24805">
        <ele>1189.01</ele>
        <time>2014-08-31T12:38:48Z</time>
      </trkpt>
      <trkpt lat="44.06672" lon="7.24804">
        <ele>1189.15</ele>
        <time>2014-08-31T12:38:49Z</time>
      </trkpt>
      <trkpt lat="44.06673" lon="7.24804">
        <ele>1189.31</ele>
        <time>2014-08-31T12:38:50Z</time>
      </trkpt>
      <trkpt lat="44.06674" lon="7.24805">
        <ele>1189.54</ele>
        <time>2014-08-31T12:38:51Z</time>
      </trkpt>
      <trkpt lat="44.06675" lon="7.24805">
        <ele>1189.77</ele>
        <time>2014-08-31T12:38:52Z</time>
      </trkpt>
      <trkpt lat="44.06676" lon="7.24806">
        <ele>1189.98</ele>
        <time>2014-08-31T12:38:53Z</time>
      </trkpt>
      <trkpt lat="44.06676" lon="7.24806">
        <ele>1190.16</ele>
        <time>2014-08-31T12:38:54Z</time>
      </trkpt>
      <trkpt lat="44.06676" lon="7.24807">
        <ele>1190.36</ele>
        <time>2014-08-31T12:38:55Z</time>
      </trkpt>
      <trkpt lat="44.06677" lon="7.24806">
        <ele>1190.61</ele>
        <time>2014-08-31T12:38:57Z</time>
      </trkpt>
      <trkpt lat="44.06678" lon="7.24805">
        <ele>1190.71</ele>
        <time>2014-08-31T12:38:58Z</time>
      </trkpt>
      <trkpt lat="44.06678" lon="7.24805">
        <ele>1190.86</ele>
        <time>2014-08-31T12:38:59Z</time>
      </trkpt>
      <trkpt lat="44.06678" lon="7.24804">
        <ele>1191.11</ele>
        <time>2014-08-31T12:39:00Z</time>
      </trkpt>
      <trkpt lat="44.06679" lon="7.24803">
        <ele>1191.36</ele>
        <time>2014-08-31T12:39:01Z</time>
      </trkpt>
      <trkpt lat="44.06679" lon="7.24802">
        <ele>1191.61</ele>
        <time>2014-08-31T12:39:02Z</time>
      </trkpt>
      <trkpt lat="44.06679" lon="7.24801">
        <ele>1191.87</ele>
        <time>2014-08-31T12:39:03Z</time>
      </trkpt>
      <trkpt lat="44.0668" lon="7.248">
        <ele>1192.08</ele>
        <time>2014-08-31T12:39:04Z</time>
      </trkpt>
      <trkpt lat="44.0668" lon="7.248">
        <ele>1192.23</ele>
        <time>2014-08-31T12:39:05Z</time>
      </trkpt>
      <trkpt lat="44.06681" lon="7.24798">
        <ele>1192.61</ele>
        <time>2014-08-31T12:39:07Z</time>
      </trkpt>
      <trkpt lat="44.06682" lon="7.24797">
        <ele>1192.78</ele>
        <time>2014-08-31T12:39:08Z</time>
      </trkpt>
      <trkpt lat="44.06681" lon="7.24795">
        <ele>1192.98</ele>
        <time>2014-08-31T12:39:09Z</time>
      </trkpt>
      <trkpt lat="44.06681" lon="7.24794">
        <ele>1193.23</ele>
        <time>2014-08-31T12:39:10Z</time>
      </trkpt>
      <trkpt lat="44.06681" lon="7.24793">
        <ele>1193.44</ele>
        <time>2014-08-31T12:39:11Z</time>
      </trkpt>
      <trkpt lat="44.06681" lon="7.24792">
        <ele>1193.64</ele>
        <time>2014-08-31T12:39:12Z</time>
      </trkpt>
      <trkpt lat="44.06681" lon="7.24792">
        <ele>1193.81</ele>
        <time>2014-08-31T12:39:13Z</time>
      </trkpt>
      <trkpt lat="44.06681" lon="7.24791">
        <ele>1193.96</ele>
        <time>2014-08-31T12:39:14Z</time>
      </trkpt>
      <trkpt lat="44.06681" lon="7.24791">
        <ele>1194.12</ele>
        <time>2014-08-31T12:39:15Z</time>
      </trkpt>
      <trkpt lat="44.0668" lon="7.24791">
        <ele>1194.29</ele>
        <time>2014-08-31T12:39:16Z</time>
      </trkpt>
      <trkpt lat="44.0668" lon="7.2479">
        <ele>1194.49</ele>
        <time>2014-08-31T12:39:17Z</time>
      </trkpt>
      <trkpt lat="44.0668" lon="7.2479">
        <ele>1194.67</ele>
        <time>2014-08-31T12:39:18Z</time>
      </trkpt>
      <trkpt lat="44.0668" lon="7.2479">
        <ele>1194.9</ele>
        <time>2014-08-31T12:39:19Z</time>
      </trkpt>
      <trkpt lat="44.0668" lon="7.24789">
        <ele>1195.08</ele>
        <time>2014-08-31T12:39:20Z</time>
      </trkpt>
      <trkpt lat="44.0668" lon="7.24789">
        <ele>1195.27</ele>
        <time>2014-08-31T12:39:21Z</time>
      </trkpt>
      <trkpt lat="44.06679" lon="7.24788">
        <ele>1195.47</ele>
        <time>2014-08-31T12:39:22Z</time>
      </trkpt>
      <trkpt lat="44.06679" lon="7.24788">
        <ele>1195.77</ele>
        <time>2014-08-31T12:39:23Z</time>
      </trkpt>
      <trkpt lat="44.06679" lon="7.24786">
        <ele>1196.02</ele>
        <time>2014-08-31T12:39:24Z</time>
      </trkpt>
      <trkpt lat="44.06678" lon="7.24785">
        <ele>1196.2</ele>
        <time>2014-08-31T12:39:25Z</time>
      </trkpt>
      <trkpt lat="44.06679" lon="7.24784">
        <ele>1196.32</ele>
        <time>2014-08-31T12:39:26Z</time>
      </trkpt>
      <trkpt lat="44.06678" lon="7.24782">
        <ele>1196.47</ele>
        <time>2014-08-31T12:39:27Z</time>
      </trkpt>
      <trkpt lat="44.06679" lon="7.24782">
        <ele>1196.65</ele>
        <time>2014-08-31T12:39:28Z</time>
      </trkpt>
      <trkpt lat="44.06679" lon="7.24781">
        <ele>1196.99</ele>
        <time>2014-08-31T12:39:29Z</time>
      </trkpt>
      <trkpt lat="44.06679" lon="7.2478">
        <ele>1197.48</ele>
        <time>2014-08-31T12:39:31Z</time>
      </trkpt>
      <trkpt lat="44.0668" lon="7.24779">
        <ele>1197.65</ele>
        <time>2014-08-31T12:39:32Z</time>
      </trkpt>
      <trkpt lat="44.0668" lon="7.24779">
        <ele>1197.84</ele>
        <time>2014-08-31T12:39:33Z</time>
      </trkpt>
      <trkpt lat="44.0668" lon="7.2478">
        <ele>1198.04</ele>
        <time>2014-08-31T12:39:34Z</time>
      </trkpt>
      <trkpt lat="44.06681" lon="7.24779">
        <ele>1198.48</ele>
        <time>2014-08-31T12:39:36Z</time>
      </trkpt>
      <trkpt lat="44.06681" lon="7.24779">
        <ele>1198.77</ele>
        <time>2014-08-31T12:39:38Z</time>
      </trkpt>
      <trkpt lat="44.06681" lon="7.2478">
        <ele>1199.02</ele>
        <time>2014-08-31T12:39:40Z</time>
      </trkpt>
      <trkpt lat="44.0668" lon="7.2478">
        <ele>1199.5</ele>
        <time>2014-08-31T12:39:42Z</time>
      </trkpt>
      <trkpt lat="44.06681" lon="7.2478">
        <ele>1199.76</ele>
        <time>2014-08-31T12:39:44Z</time>
      </trkpt>
      <trkpt lat="44.06681" lon="7.2478">
        <ele>1199.94</ele>
        <time>2014-08-31T12:39:45Z</time>
      </trkpt>
      <trkpt lat="44.06681" lon="7.2478">
        <ele>1200.12</ele>
        <time>2014-08-31T12:39:46Z</time>
      </trkpt>
      <trkpt lat="44.06681" lon="7.2478">
        <ele>1200.31</ele>
        <time>2014-08-31T12:39:47Z</time>
      </trkpt>
      <trkpt lat="44.06681" lon="7.2478">
        <ele>1200.52</ele>
        <time>2014-08-31T12:39:48Z</time>
      </trkpt>
      <trkpt lat="44.06681" lon="7.2478">
        <ele>1200.77</ele>
        <time>2014-08-31T12:39:49Z</time>
      </trkpt>
      <trkpt lat="44.06682" lon="7.2478">
        <ele>1200.99</ele>
        <time>2014-08-31T12:39:50Z</time>
      </trkpt>
      <trkpt lat="44.06681" lon="7.24779">
        <ele>1201.27</ele>
        <time>2014-08-31T12:39:51Z</time>
      </trkpt>
      <trkpt lat="44.06681" lon="7.24779">
        <ele>1201.49</ele>
        <time>2014-08-31T12:39:52Z</time>
      </trkpt>
      <trkpt lat="44.06681" lon="7.24778">
        <ele>1201.7</ele>
        <time>2014-08-31T12:39:53Z</time>
      </trkpt>
      <trkpt lat="44.0668" lon="7.24778">
        <ele>1201.88</ele>
        <time>2014-08-31T12:39:54Z</time>
      </trkpt>
      <trkpt lat="44.0668" lon="7.24778">
        <ele>1202.09</ele>
        <time>2014-08-31T12:39:55Z</time>
      </trkpt>
      <trkpt lat="44.0668" lon="7.24777">
        <ele>1202.29</ele>
        <time>2014-08-31T12:39:56Z</time>
      </trkpt>
      <trkpt lat="44.0668" lon="7.24777">
        <ele>1202.46</ele>
        <time>2014-08-31T12:39:57Z</time>
      </trkpt>
      <trkpt lat="44.0668" lon="7.24778">
        <ele>1202.65</ele>
        <time>2014-08-31T12:39:58Z</time>
      </trkpt>
      <trkpt lat="44.0668" lon="7.24777">
        <ele>1202.82</ele>
        <time>2014-08-31T12:39:59Z</time>
      </trkpt>
      <trkpt lat="44.0668" lon="7.24777">
        <ele>1202.98</ele>
        <time>2014-08-31T12:40:00Z</time>
      </trkpt>
      <trkpt lat="44.0668" lon="7.24778">
        <ele>1203.16</ele>
        <time>2014-08-31T12:40:01Z</time>
      </trkpt>
      <trkpt lat="44.06679" lon="7.24777">
        <ele>1203.3</ele>
        <time>2014-08-31T12:40:02Z</time>
      </trkpt>
      <trkpt lat="44.06679" lon="7.24776">
        <ele>1203.46</ele>
        <time>2014-08-31T12:40:03Z</time>
      </trkpt>
      <trkpt lat="44.06679" lon="7.24776">
        <ele>1203.63</ele>
        <time>2014-08-31T12:40:04Z</time>
      </trkpt>
      <trkpt lat="44.06679" lon="7.24775">
        <ele>1203.75</ele>
        <time>2014-08-31T12:40:05Z</time>
      </trkpt>
      <trkpt lat="44.06679" lon="7.24775">
        <ele>1203.86</ele>
        <time>2014-08-31T12:40:06Z</time>
      </trkpt>
      <trkpt lat="44.06679" lon="7.24775">
        <ele>1204.12</ele>
        <time>2014-08-31T12:40:07Z</time>
      </trkpt>
      <trkpt lat="44.06679" lon="7.24775">
        <ele>1204.31</ele>
        <time>2014-08-31T12:40:08Z</time>
      </trkpt>
      <trkpt lat="44.06679" lon="7.24774">
        <ele>1204.53</ele>
        <time>2014-08-31T12:40:09Z</time>
      </trkpt>
      <trkpt lat="44.06682" lon="7.24775">
        <ele>1204.78</ele>
        <time>2014-08-31T12:40:10Z</time>
      </trkpt>
      <trkpt lat="44.06681" lon="7.24775">
        <ele>1204.99</ele>
        <time>2014-08-31T12:40:11Z</time>
      </trkpt>
      <trkpt lat="44.0668" lon="7.24774">
        <ele>1205.27</ele>
        <time>2014-08-31T12:40:12Z</time>
      </trkpt>
      <trkpt lat="44.0668" lon="7.24774">
        <ele>1205.5</ele>
        <time>2014-08-31T12:40:13Z</time>
      </trkpt>
      <trkpt lat="44.06679" lon="7.24773">
        <ele>1205.65</ele>
        <time>2014-08-31T12:40:14Z</time>
      </trkpt>
      <trkpt lat="44.06679" lon="7.24772">
        <ele>1205.81</ele>
        <time>2014-08-31T12:40:15Z</time>
      </trkpt>
      <trkpt lat="44.06679" lon="7.24773">
        <ele>1205.92</ele>
        <time>2014-08-31T12:40:16Z</time>
      </trkpt>
      <trkpt lat="44.0668" lon="7.24773">
        <ele>1206.12</ele>
        <time>2014-08-31T12:40:18Z</time>
      </trkpt>
      <trkpt lat="44.0668" lon="7.24772">
        <ele>1206.26</ele>
        <time>2014-08-31T12:40:19Z</time>
      </trkpt>
      <trkpt lat="44.0668" lon="7.24772">
        <ele>1206.38</ele>
        <time>2014-08-31T12:40:20Z</time>
      </trkpt>
      <trkpt lat="44.06679" lon="7.24771">
        <ele>1206.48</ele>
        <time>2014-08-31T12:40:21Z</time>
      </trkpt>
      <trkpt lat="44.06679" lon="7.24771">
        <ele>1206.67</ele>
        <time>2014-08-31T12:40:22Z</time>
      </trkpt>
      <trkpt lat="44.06679" lon="7.2477">
        <ele>1206.96</ele>
        <time>2014-08-31T12:40:24Z</time>
      </trkpt>
      <trkpt lat="44.06679" lon="7.2477">
        <ele>1207.12</ele>
        <time>2014-08-31T12:40:25Z</time>
      </trkpt>
      <trkpt lat="44.0668" lon="7.24771">
        <ele>1207.26</ele>
        <time>2014-08-31T12:40:26Z</time>
      </trkpt>
      <trkpt lat="44.0668" lon="7.2477">
        <ele>1207.66</ele>
        <time>2014-08-31T12:40:28Z</time>
      </trkpt>
      <trkpt lat="44.06679" lon="7.2477">
        <ele>1207.82</ele>
        <time>2014-08-31T12:40:29Z</time>
      </trkpt>
      <trkpt lat="44.0668" lon="7.2477">
        <ele>1208.04</ele>
        <time>2014-08-31T12:40:30Z</time>
      </trkpt>
      <trkpt lat="44.0668" lon="7.24769">
        <ele>1208.2</ele>
        <time>2014-08-31T12:40:31Z</time>
      </trkpt>
      <trkpt lat="44.06679" lon="7.24769">
        <ele>1208.41</ele>
        <time>2014-08-31T12:40:32Z</time>
      </trkpt>
      <trkpt lat="44.06678" lon="7.24768">
        <ele>1208.94</ele>
        <time>2014-08-31T12:40:34Z</time>
      </trkpt>
      <trkpt lat="44.06678" lon="7.24768">
        <ele>1209.26</ele>
        <time>2014-08-31T12:40:35Z</time>
      </trkpt>
      <trkpt lat="44.06678" lon="7.24769">
        <ele>1209.54</ele>
        <time>2014-08-31T12:40:36Z</time>
      </trkpt>
      <trkpt lat="44.06678" lon="7.2477">
        <ele>1209.76</ele>
        <time>2014-08-31T12:40:37Z</time>
      </trkpt>
      <trkpt lat="44.06677" lon="7.24771">
        <ele>1209.92</ele>
        <time>2014-08-31T12:40:38Z</time>
      </trkpt>
      <trkpt lat="44.06677" lon="7.2477">
        <ele>1210.22</ele>
        <time>2014-08-31T12:40:39Z</time>
      </trkpt>
      <trkpt lat="44.06676" lon="7.2477">
        <ele>1210.44</ele>
        <time>2014-08-31T12:40:40Z</time>
      </trkpt>
      <trkpt lat="44.06676" lon="7.2477">
        <ele>1210.6</ele>
        <time>2014-08-31T12:40:41Z</time>
      </trkpt>
      <trkpt lat="44.06675" lon="7.24769">
        <ele>1210.73</ele>
        <time>2014-08-31T12:40:42Z</time>
      </trkpt>
      <trkpt lat="44.06675" lon="7.24769">
        <ele>1210.83</ele>
        <time>2014-08-31T12:40:43Z</time>
      </trkpt>
      <trkpt lat="44.06674" lon="7.24769">
        <ele>1210.85</ele>
        <time>2014-08-31T12:40:44Z</time>
      </trkpt>
      <trkpt lat="44.06675" lon="7.24768">
        <ele>1210.84</ele>
        <time>2014-08-31T12:40:45Z</time>
      </trkpt>
      <trkpt lat="44.06674" lon="7.24769">
        <ele>1210.83</ele>
        <time>2014-08-31T12:40:46Z</time>
      </trkpt>
      <trkpt lat="44.06674" lon="7.24768">
        <ele>1210.83</ele>
        <time>2014-08-31T12:40:47Z</time>
      </trkpt>
      <trkpt lat="44.06675" lon="7.24768">
        <ele>1210.85</ele>
        <time>2014-08-31T12:40:48Z</time>
      </trkpt>
      <trkpt lat="44.06675" lon="7.24767">
        <ele>1210.92</ele>
        <time>2014-08-31T12:40:49Z</time>
      </trkpt>
      <trkpt lat="44.06675" lon="7.24767">
        <ele>1210.94</ele>
        <time>2014-08-31T12:40:50Z</time>
      </trkpt>
      <trkpt lat="44.06675" lon="7.24766">
        <ele>1210.96</ele>
        <time>2014-08-31T12:40:51Z</time>
      </trkpt>
      <trkpt lat="44.06675" lon="7.24766">
        <ele>1211.03</ele>
        <time>2014-08-31T12:40:52Z</time>
      </trkpt>
      <trkpt lat="44.06676" lon="7.24767">
        <ele>1211.07</ele>
        <time>2014-08-31T12:40:53Z</time>
      </trkpt>
      <trkpt lat="44.06677" lon="7.24766">
        <ele>1211.14</ele>
        <time>2014-08-31T12:40:55Z</time>
      </trkpt>
      <trkpt lat="44.06677" lon="7.24765">
        <ele>1211.16</ele>
        <time>2014-08-31T12:40:56Z</time>
      </trkpt>
      <trkpt lat="44.06678" lon="7.24765">
        <ele>1211.13</ele>
        <time>2014-08-31T12:40:57Z</time>
      </trkpt>
      <trkpt lat="44.06678" lon="7.24765">
        <ele>1211.13</ele>
        <time>2014-08-31T12:40:58Z</time>
      </trkpt>
      <trkpt lat="44.06679" lon="7.24765">
        <ele>1211.18</ele>
        <time>2014-08-31T12:40:59Z</time>
      </trkpt>
      <trkpt lat="44.06679" lon="7.24765">
        <ele>1211.21</ele>
        <time>2014-08-31T12:41:00Z</time>
      </trkpt>
      <trkpt lat="44.06679" lon="7.24764">
        <ele>1211.23</ele>
        <time>2014-08-31T12:41:01Z</time>
      </trkpt>
      <trkpt lat="44.0668" lon="7.24765">
        <ele>1211.25</ele>
        <time>2014-08-31T12:41:02Z</time>
      </trkpt>
      <trkpt lat="44.0668" lon="7.24765">
        <ele>1211.23</ele>
        <time>2014-08-31T12:41:03Z</time>
      </trkpt>
      <trkpt lat="44.06681" lon="7.24765">
        <ele>1211.23</ele>
        <time>2014-08-31T12:41:04Z</time>
      </trkpt>
      <trkpt lat="44.06681" lon="7.24764">
        <ele>1211.2</ele>
        <time>2014-08-31T12:41:05Z</time>
      </trkpt>
      <trkpt lat="44.06681" lon="7.24764">
        <ele>1211.17</ele>
        <time>2014-08-31T12:41:06Z</time>
      </trkpt>
      <trkpt lat="44.06681" lon="7.24763">
        <ele>1211.18</ele>
        <time>2014-08-31T12:41:07Z</time>
      </trkpt>
      <trkpt lat="44.0668" lon="7.24762">
        <ele>1211.2</ele>
        <time>2014-08-31T12:41:08Z</time>
      </trkpt>
      <trkpt lat="44.06679" lon="7.2476">
        <ele>1211.2</ele>
        <time>2014-08-31T12:41:09Z</time>
      </trkpt>
      <trkpt lat="44.06678" lon="7.24759">
        <ele>1211.22</ele>
        <time>2014-08-31T12:41:11Z</time>
      </trkpt>
      <trkpt lat="44.06677" lon="7.2476">
        <ele>1211.23</ele>
        <time>2014-08-31T12:41:12Z</time>
      </trkpt>
      <trkpt lat="44.06678" lon="7.24759">
        <ele>1211.25</ele>
        <time>2014-08-31T12:41:14Z</time>
      </trkpt>
      <trkpt lat="44.06678" lon="7.24759">
        <ele>1211.26</ele>
        <time>2014-08-31T12:41:15Z</time>
      </trkpt>
      <trkpt lat="44.06679" lon="7.24759">
        <ele>1211.3</ele>
        <time>2014-08-31T12:41:16Z</time>
      </trkpt>
      <trkpt lat="44.06679" lon="7.24759">
        <ele>1211.33</ele>
        <time>2014-08-31T12:41:17Z</time>
      </trkpt>
      <trkpt lat="44.0668" lon="7.24759">
        <ele>1211.33</ele>
        <time>2014-08-31T12:41:19Z</time>
      </trkpt>
      <trkpt lat="44.0668" lon="7.24759">
        <ele>1211.33</ele>
        <time>2014-08-31T12:41:20Z</time>
      </trkpt>
      <trkpt lat="44.0668" lon="7.2476">
        <ele>1211.31</ele>
        <time>2014-08-31T12:41:22Z</time>
      </trkpt>
      <trkpt lat="44.0668" lon="7.2476">
        <ele>1211.33</ele>
        <time>2014-08-31T12:41:23Z</time>
      </trkpt>
      <trkpt lat="44.0668" lon="7.2476">
        <ele>1211.39</ele>
        <time>2014-08-31T12:41:25Z</time>
      </trkpt>
      <trkpt lat="44.0668" lon="7.2476">
        <ele>1211.37</ele>
        <time>2014-08-31T12:41:26Z</time>
      </trkpt>
      <trkpt lat="44.0668" lon="7.2476">
        <ele>1211.28</ele>
        <time>2014-08-31T12:41:27Z</time>
      </trkpt>
      <trkpt lat="44.0668" lon="7.2476">
        <ele>1211.24</ele>
        <time>2014-08-31T12:41:28Z</time>
      </trkpt>
      <trkpt lat="44.0668" lon="7.2476">
        <ele>1211.23</ele>
        <time>2014-08-31T12:41:29Z</time>
      </trkpt>
      <trkpt lat="44.06679" lon="7.24761">
        <ele>1211.23</ele>
        <time>2014-08-31T12:41:30Z</time>
      </trkpt>
      <trkpt lat="44.06679" lon="7.2476">
        <ele>1211.25</ele>
        <time>2014-08-31T12:41:31Z</time>
      </trkpt>
      <trkpt lat="44.06679" lon="7.24761">
        <ele>1211.33</ele>
        <time>2014-08-31T12:41:32Z</time>
      </trkpt>
      <trkpt lat="44.06679" lon="7.24763">
        <ele>1211.56</ele>
        <time>2014-08-31T12:41:33Z</time>
      </trkpt>
      <trkpt lat="44.06679" lon="7.24765">
        <ele>1211.8</ele>
        <time>2014-08-31T12:41:34Z</time>
      </trkpt>
      <trkpt lat="44.06679" lon="7.24765">
        <ele>1212.01</ele>
        <time>2014-08-31T12:41:35Z</time>
      </trkpt>
      <trkpt lat="44.06679" lon="7.24764">
        <ele>1212.33</ele>
        <time>2014-08-31T12:41:36Z</time>
      </trkpt>
      <trkpt lat="44.06678" lon="7.24761">
        <ele>1212.43</ele>
        <time>2014-08-31T12:41:37Z</time>
      </trkpt>
      <trkpt lat="44.06678" lon="7.24761">
        <ele>1212.43</ele>
        <time>2014-08-31T12:41:38Z</time>
      </trkpt>
      <trkpt lat="44.06678" lon="7.2476">
        <ele>1213.05</ele>
        <time>2014-08-31T12:41:40Z</time>
      </trkpt>
      <trkpt lat="44.06678" lon="7.2476">
        <ele>1213.4</ele>
        <time>2014-08-31T12:41:41Z</time>
      </trkpt>
      <trkpt lat="44.06678" lon="7.2476">
        <ele>1213.52</ele>
        <time>2014-08-31T12:41:42Z</time>
      </trkpt>
      <trkpt lat="44.06678" lon="7.24759">
        <ele>1213.76</ele>
        <time>2014-08-31T12:41:43Z</time>
      </trkpt>
      <trkpt lat="44.06678" lon="7.24759">
        <ele>1213.98</ele>
        <time>2014-08-31T12:41:44Z</time>
      </trkpt>
      <trkpt lat="44.06678" lon="7.24759">
        <ele>1214.15</ele>
        <time>2014-08-31T12:41:45Z</time>
      </trkpt>
      <trkpt lat="44.06677" lon="7.24759">
        <ele>1214.33</ele>
        <time>2014-08-31T12:41:46Z</time>
      </trkpt>
      <trkpt lat="44.06677" lon="7.24758">
        <ele>1214.51</ele>
        <time>2014-08-31T12:41:47Z</time>
      </trkpt>
      <trkpt lat="44.06676" lon="7.24758">
        <ele>1214.71</ele>
        <time>2014-08-31T12:41:48Z</time>
      </trkpt>
      <trkpt lat="44.06676" lon="7.24758">
        <ele>1214.97</ele>
        <time>2014-08-31T12:41:49Z</time>
      </trkpt>
      <trkpt lat="44.06675" lon="7.24758">
        <ele>1215.18</ele>
        <time>2014-08-31T12:41:50Z</time>
      </trkpt>
      <trkpt lat="44.06675" lon="7.24758">
        <ele>1215.34</ele>
        <time>2014-08-31T12:41:51Z</time>
      </trkpt>
      <trkpt lat="44.06676" lon="7.24759">
        <ele>1215.45</ele>
        <time>2014-08-31T12:41:52Z</time>
      </trkpt>
      <trkpt lat="44.06676" lon="7.24759">
        <ele>1215.61</ele>
        <time>2014-08-31T12:41:53Z</time>
      </trkpt>
      <trkpt lat="44.06677" lon="7.2476">
        <ele>1215.77</ele>
        <time>2014-08-31T12:41:54Z</time>
      </trkpt>
      <trkpt lat="44.06677" lon="7.2476">
        <ele>1215.88</ele>
        <time>2014-08-31T12:41:55Z</time>
      </trkpt>
      <trkpt lat="44.06677" lon="7.24759">
        <ele>1215.99</ele>
        <time>2014-08-31T12:41:56Z</time>
      </trkpt>
      <trkpt lat="44.06677" lon="7.24759">
        <ele>1216.22</ele>
        <time>2014-08-31T12:41:57Z</time>
      </trkpt>
      <trkpt lat="44.06678" lon="7.24759">
        <ele>1216.48</ele>
        <time>2014-08-31T12:41:58Z</time>
      </trkpt>
      <trkpt lat="44.06679" lon="7.24758">
        <ele>1216.68</ele>
        <time>2014-08-31T12:41:59Z</time>
      </trkpt>
      <trkpt lat="44.06679" lon="7.24758">
        <ele>1216.84</ele>
        <time>2014-08-31T12:42:00Z</time>
      </trkpt>
      <trkpt lat="44.0668" lon="7.24758">
        <ele>1217</ele>
        <time>2014-08-31T12:42:01Z</time>
      </trkpt>
      <trkpt lat="44.0668" lon="7.24758">
        <ele>1217.19</ele>
        <time>2014-08-31T12:42:02Z</time>
      </trkpt>
      <trkpt lat="44.0668" lon="7.24757">
        <ele>1217.39</ele>
        <time>2014-08-31T12:42:03Z</time>
      </trkpt>
      <trkpt lat="44.0668" lon="7.24757">
        <ele>1217.61</ele>
        <time>2014-08-31T12:42:04Z</time>
      </trkpt>
      <trkpt lat="44.06679" lon="7.24756">
        <ele>1217.83</ele>
        <time>2014-08-31T12:42:05Z</time>
      </trkpt>
      <trkpt lat="44.06678" lon="7.24755">
        <ele>1218.08</ele>
        <time>2014-08-31T12:42:06Z</time>
      </trkpt>
      <trkpt lat="44.06678" lon="7.24755">
        <ele>1218.29</ele>
        <time>2014-08-31T12:42:07Z</time>
      </trkpt>
      <trkpt lat="44.06677" lon="7.24755">
        <ele>1218.41</ele>
        <time>2014-08-31T12:42:08Z</time>
      </trkpt>
      <trkpt lat="44.06676" lon="7.24755">
        <ele>1218.55</ele>
        <time>2014-08-31T12:42:09Z</time>
      </trkpt>
      <trkpt lat="44.06676" lon="7.24755">
        <ele>1218.72</ele>
        <time>2014-08-31T12:42:10Z</time>
      </trkpt>
      <trkpt lat="44.06675" lon="7.24755">
        <ele>1218.93</ele>
        <time>2014-08-31T12:42:11Z</time>
      </trkpt>
      <trkpt lat="44.06675" lon="7.24754">
        <ele>1219.16</ele>
        <time>2014-08-31T12:42:12Z</time>
      </trkpt>
      <trkpt lat="44.06674" lon="7.24752">
        <ele>1219.4</ele>
        <time>2014-08-31T12:42:13Z</time>
      </trkpt>
      <trkpt lat="44.06674" lon="7.24751">
        <ele>1219.63</ele>
        <time>2014-08-31T12:42:14Z</time>
      </trkpt>
      <trkpt lat="44.06673" lon="7.24749">
        <ele>1219.82</ele>
        <time>2014-08-31T12:42:15Z</time>
      </trkpt>
      <trkpt lat="44.06672" lon="7.24748">
        <ele>1220.02</ele>
        <time>2014-08-31T12:42:16Z</time>
      </trkpt>
      <trkpt lat="44.06672" lon="7.24747">
        <ele>1220.26</ele>
        <time>2014-08-31T12:42:17Z</time>
      </trkpt>
      <trkpt lat="44.06672" lon="7.24746">
        <ele>1220.52</ele>
        <time>2014-08-31T12:42:18Z</time>
      </trkpt>
      <trkpt lat="44.06672" lon="7.24745">
        <ele>1220.69</ele>
        <time>2014-08-31T12:42:19Z</time>
      </trkpt>
      <trkpt lat="44.06671" lon="7.24744">
        <ele>1220.86</ele>
        <time>2014-08-31T12:42:20Z</time>
      </trkpt>
      <trkpt lat="44.06671" lon="7.24744">
        <ele>1220.98</ele>
        <time>2014-08-31T12:42:21Z</time>
      </trkpt>
      <trkpt lat="44.06671" lon="7.24743">
        <ele>1221.15</ele>
        <time>2014-08-31T12:42:22Z</time>
      </trkpt>
      <trkpt lat="44.0667" lon="7.24743">
        <ele>1221.39</ele>
        <time>2014-08-31T12:42:23Z</time>
      </trkpt>
      <trkpt lat="44.06671" lon="7.24742">
        <ele>1221.64</ele>
        <time>2014-08-31T12:42:24Z</time>
      </trkpt>
      <trkpt lat="44.06671" lon="7.24742">
        <ele>1221.84</ele>
        <time>2014-08-31T12:42:25Z</time>
      </trkpt>
      <trkpt lat="44.06671" lon="7.24743">
        <ele>1221.96</ele>
        <time>2014-08-31T12:42:26Z</time>
      </trkpt>
      <trkpt lat="44.06672" lon="7.24742">
        <ele>1222.21</ele>
        <time>2014-08-31T12:42:27Z</time>
      </trkpt>
      <trkpt lat="44.06673" lon="7.24742">
        <ele>1222.41</ele>
        <time>2014-08-31T12:42:28Z</time>
      </trkpt>
      <trkpt lat="44.06674" lon="7.24741">
        <ele>1222.6</ele>
        <time>2014-08-31T12:42:29Z</time>
      </trkpt>
      <trkpt lat="44.06674" lon="7.2474">
        <ele>1222.75</ele>
        <time>2014-08-31T12:42:30Z</time>
      </trkpt>
      <trkpt lat="44.06674" lon="7.24739">
        <ele>1222.84</ele>
        <time>2014-08-31T12:42:31Z</time>
      </trkpt>
      <trkpt lat="44.06675" lon="7.24738">
        <ele>1222.81</ele>
        <time>2014-08-31T12:42:32Z</time>
      </trkpt>
      <trkpt lat="44.06675" lon="7.24738">
        <ele>1222.88</ele>
        <time>2014-08-31T12:42:33Z</time>
      </trkpt>
      <trkpt lat="44.06675" lon="7.24737">
        <ele>1223.31</ele>
        <time>2014-08-31T12:42:34Z</time>
      </trkpt>
      <trkpt lat="44.06676" lon="7.24737">
        <ele>1223.61</ele>
        <time>2014-08-31T12:42:35Z</time>
      </trkpt>
      <trkpt lat="44.06676" lon="7.24736">
        <ele>1223.79</ele>
        <time>2014-08-31T12:42:36Z</time>
      </trkpt>
      <trkpt lat="44.06675" lon="7.24734">
        <ele>1224.08</ele>
        <time>2014-08-31T12:42:37Z</time>
      </trkpt>
      <trkpt lat="44.06674" lon="7.24732">
        <ele>1224.38</ele>
        <time>2014-08-31T12:42:38Z</time>
      </trkpt>
      <trkpt lat="44.06673" lon="7.24731">
        <ele>1224.63</ele>
        <time>2014-08-31T12:42:39Z</time>
      </trkpt>
      <trkpt lat="44.06673" lon="7.2473">
        <ele>1224.84</ele>
        <time>2014-08-31T12:42:40Z</time>
      </trkpt>
      <trkpt lat="44.06672" lon="7.24729">
        <ele>1225.04</ele>
        <time>2014-08-31T12:42:41Z</time>
      </trkpt>
      <trkpt lat="44.06673" lon="7.24729">
        <ele>1225.24</ele>
        <time>2014-08-31T12:42:42Z</time>
      </trkpt>
      <trkpt lat="44.06673" lon="7.2473">
        <ele>1225.43</ele>
        <time>2014-08-31T12:42:43Z</time>
      </trkpt>
      <trkpt lat="44.06674" lon="7.2473">
        <ele>1225.65</ele>
        <time>2014-08-31T12:42:44Z</time>
      </trkpt>
      <trkpt lat="44.06674" lon="7.2473">
        <ele>1225.89</ele>
        <time>2014-08-31T12:42:45Z</time>
      </trkpt>
      <trkpt lat="44.06674" lon="7.2473">
        <ele>1226.08</ele>
        <time>2014-08-31T12:42:46Z</time>
      </trkpt>
      <trkpt lat="44.06674" lon="7.24731">
        <ele>1226.34</ele>
        <time>2014-08-31T12:42:47Z</time>
      </trkpt>
      <trkpt lat="44.06674" lon="7.24731">
        <ele>1226.71</ele>
        <time>2014-08-31T12:42:49Z</time>
      </trkpt>
      <trkpt lat="44.06674" lon="7.24731">
        <ele>1227</ele>
        <time>2014-08-31T12:42:50Z</time>
      </trkpt>
      <trkpt lat="44.06674" lon="7.24731">
        <ele>1227.19</ele>
        <time>2014-08-31T12:42:51Z</time>
      </trkpt>
      <trkpt lat="44.06674" lon="7.24731">
        <ele>1227.28</ele>
        <time>2014-08-31T12:42:52Z</time>
      </trkpt>
      <trkpt lat="44.06673" lon="7.24732">
        <ele>1227.42</ele>
        <time>2014-08-31T12:42:53Z</time>
      </trkpt>
      <trkpt lat="44.06673" lon="7.24732">
        <ele>1227.56</ele>
        <time>2014-08-31T12:42:54Z</time>
      </trkpt>
      <trkpt lat="44.06672" lon="7.24733">
        <ele>1227.78</ele>
        <time>2014-08-31T12:42:55Z</time>
      </trkpt>
      <trkpt lat="44.06672" lon="7.24732">
        <ele>1227.95</ele>
        <time>2014-08-31T12:42:56Z</time>
      </trkpt>
      <trkpt lat="44.06673" lon="7.24732">
        <ele>1228.11</ele>
        <time>2014-08-31T12:42:57Z</time>
      </trkpt>
      <trkpt lat="44.06673" lon="7.24732">
        <ele>1228.29</ele>
        <time>2014-08-31T12:42:58Z</time>
      </trkpt>
      <trkpt lat="44.06674" lon="7.24732">
        <ele>1228.38</ele>
        <time>2014-08-31T12:42:59Z</time>
      </trkpt>
      <trkpt lat="44.06673" lon="7.2473">
        <ele>1228.53</ele>
        <time>2014-08-31T12:43:00Z</time>
      </trkpt>
      <trkpt lat="44.06673" lon="7.2473">
        <ele>1228.79</ele>
        <time>2014-08-31T12:43:01Z</time>
      </trkpt>
      <trkpt lat="44.06673" lon="7.2473">
        <ele>1228.98</ele>
        <time>2014-08-31T12:43:02Z</time>
      </trkpt>
      <trkpt lat="44.06672" lon="7.2473">
        <ele>1229.12</ele>
        <time>2014-08-31T12:43:03Z</time>
      </trkpt>
      <trkpt lat="44.06672" lon="7.24729">
        <ele>1229.31</ele>
        <time>2014-08-31T12:43:04Z</time>
      </trkpt>
      <trkpt lat="44.06671" lon="7.24729">
        <ele>1229.56</ele>
        <time>2014-08-31T12:43:05Z</time>
      </trkpt>
      <trkpt lat="44.06671" lon="7.24729">
        <ele>1229.85</ele>
        <time>2014-08-31T12:43:06Z</time>
      </trkpt>
      <trkpt lat="44.06671" lon="7.24729">
        <ele>1230.12</ele>
        <time>2014-08-31T12:43:07Z</time>
      </trkpt>
      <trkpt lat="44.06672" lon="7.24728">
        <ele>1230.35</ele>
        <time>2014-08-31T12:43:08Z</time>
      </trkpt>
      <trkpt lat="44.06672" lon="7.24728">
        <ele>1230.59</ele>
        <time>2014-08-31T12:43:09Z</time>
      </trkpt>
      <trkpt lat="44.06673" lon="7.24728">
        <ele>1230.76</ele>
        <time>2014-08-31T12:43:10Z</time>
      </trkpt>
      <trkpt lat="44.06673" lon="7.24728">
        <ele>1230.92</ele>
        <time>2014-08-31T12:43:11Z</time>
      </trkpt>
      <trkpt lat="44.06674" lon="7.24728">
        <ele>1231.16</ele>
        <time>2014-08-31T12:43:12Z</time>
      </trkpt>
      <trkpt lat="44.06674" lon="7.24728">
        <ele>1231.32</ele>
        <time>2014-08-31T12:43:13Z</time>
      </trkpt>
      <trkpt lat="44.06675" lon="7.24728">
        <ele>1231.44</ele>
        <time>2014-08-31T12:43:14Z</time>
      </trkpt>
      <trkpt lat="44.06676" lon="7.24729">
        <ele>1231.71</ele>
        <time>2014-08-31T12:43:15Z</time>
      </trkpt>
      <trkpt lat="44.06676" lon="7.2473">
        <ele>1231.94</ele>
        <time>2014-08-31T12:43:16Z</time>
      </trkpt>
      <trkpt lat="44.06677" lon="7.2473">
        <ele>1232.13</ele>
        <time>2014-08-31T12:43:17Z</time>
      </trkpt>
      <trkpt lat="44.06677" lon="7.2473">
        <ele>1232.34</ele>
        <time>2014-08-31T12:43:18Z</time>
      </trkpt>
      <trkpt lat="44.06678" lon="7.24731">
        <ele>1232.6</ele>
        <time>2014-08-31T12:43:19Z</time>
      </trkpt>
      <trkpt lat="44.06679" lon="7.2473">
        <ele>1232.72</ele>
        <time>2014-08-31T12:43:20Z</time>
      </trkpt>
      <trkpt lat="44.06678" lon="7.2473">
        <ele>1233.13</ele>
        <time>2014-08-31T12:43:22Z</time>
      </trkpt>
      <trkpt lat="44.06678" lon="7.2473">
        <ele>1233.36</ele>
        <time>2014-08-31T12:43:23Z</time>
      </trkpt>
      <trkpt lat="44.06678" lon="7.2473">
        <ele>1233.58</ele>
        <time>2014-08-31T12:43:24Z</time>
      </trkpt>
      <trkpt lat="44.06677" lon="7.24729">
        <ele>1233.93</ele>
        <time>2014-08-31T12:43:26Z</time>
      </trkpt>
      <trkpt lat="44.06677" lon="7.24729">
        <ele>1234.11</ele>
        <time>2014-08-31T12:43:27Z</time>
      </trkpt>
      <trkpt lat="44.06678" lon="7.24728">
        <ele>1234.27</ele>
        <time>2014-08-31T12:43:28Z</time>
      </trkpt>
      <trkpt lat="44.06677" lon="7.24728">
        <ele>1234.49</ele>
        <time>2014-08-31T12:43:29Z</time>
      </trkpt>
      <trkpt lat="44.06677" lon="7.24727">
        <ele>1234.67</ele>
        <time>2014-08-31T12:43:30Z</time>
      </trkpt>
      <trkpt lat="44.06677" lon="7.24727">
        <ele>1234.83</ele>
        <time>2014-08-31T12:43:32Z</time>
      </trkpt>
      <trkpt lat="44.06678" lon="7.24726">
        <ele>1235.09</ele>
        <time>2014-08-31T12:43:33Z</time>
      </trkpt>
      <trkpt lat="44.06679" lon="7.24726">
        <ele>1235.34</ele>
        <time>2014-08-31T12:43:34Z</time>
      </trkpt>
      <trkpt lat="44.06679" lon="7.24727">
        <ele>1235.54</ele>
        <time>2014-08-31T12:43:35Z</time>
      </trkpt>
      <trkpt lat="44.0668" lon="7.24728">
        <ele>1235.67</ele>
        <time>2014-08-31T12:43:36Z</time>
      </trkpt>
      <trkpt lat="44.06681" lon="7.24729">
        <ele>1235.84</ele>
        <time>2014-08-31T12:43:37Z</time>
      </trkpt>
      <trkpt lat="44.06681" lon="7.24729">
        <ele>1236.08</ele>
        <time>2014-08-31T12:43:38Z</time>
      </trkpt>
      <trkpt lat="44.06682" lon="7.24729">
        <ele>1236.29</ele>
        <time>2014-08-31T12:43:39Z</time>
      </trkpt>
      <trkpt lat="44.06682" lon="7.24729">
        <ele>1236.47</ele>
        <time>2014-08-31T12:43:40Z</time>
      </trkpt>
      <trkpt lat="44.06682" lon="7.24728">
        <ele>1236.65</ele>
        <time>2014-08-31T12:43:41Z</time>
      </trkpt>
      <trkpt lat="44.06683" lon="7.24728">
        <ele>1236.83</ele>
        <time>2014-08-31T12:43:42Z</time>
      </trkpt>
      <trkpt lat="44.06683" lon="7.24727">
        <ele>1237.13</ele>
        <time>2014-08-31T12:43:43Z</time>
      </trkpt>
      <trkpt lat="44.06683" lon="7.24727">
        <ele>1237.32</ele>
        <time>2014-08-31T12:43:44Z</time>
      </trkpt>
      <trkpt lat="44.06683" lon="7.24726">
        <ele>1237.53</ele>
        <time>2014-08-31T12:43:45Z</time>
      </trkpt>
      <trkpt lat="44.06682" lon="7.24724">
        <ele>1237.72</ele>
        <time>2014-08-31T12:43:46Z</time>
      </trkpt>
      <trkpt lat="44.06682" lon="7.24724">
        <ele>1237.95</ele>
        <time>2014-08-31T12:43:47Z</time>
      </trkpt>
      <trkpt lat="44.06682" lon="7.24723">
        <ele>1238.15</ele>
        <time>2014-08-31T12:43:48Z</time>
      </trkpt>
      <trkpt lat="44.06681" lon="7.24722">
        <ele>1238.41</ele>
        <time>2014-08-31T12:43:49Z</time>
      </trkpt>
      <trkpt lat="44.06681" lon="7.24721">
        <ele>1238.58</ele>
        <time>2014-08-31T12:43:50Z</time>
      </trkpt>
      <trkpt lat="44.06681" lon="7.24721">
        <ele>1238.73</ele>
        <time>2014-08-31T12:43:51Z</time>
      </trkpt>
      <trkpt lat="44.06681" lon="7.2472">
        <ele>1238.93</ele>
        <time>2014-08-31T12:43:52Z</time>
      </trkpt>
      <trkpt lat="44.06681" lon="7.2472">
        <ele>1239.08</ele>
        <time>2014-08-31T12:43:53Z</time>
      </trkpt>
      <trkpt lat="44.0668" lon="7.24719">
        <ele>1239.3</ele>
        <time>2014-08-31T12:43:54Z</time>
      </trkpt>
      <trkpt lat="44.06679" lon="7.24719">
        <ele>1239.56</ele>
        <time>2014-08-31T12:43:55Z</time>
      </trkpt>
      <trkpt lat="44.06679" lon="7.24719">
        <ele>1239.83</ele>
        <time>2014-08-31T12:43:56Z</time>
      </trkpt>
      <trkpt lat="44.06679" lon="7.24718">
        <ele>1240.02</ele>
        <time>2014-08-31T12:43:57Z</time>
      </trkpt>
      <trkpt lat="44.0668" lon="7.24718">
        <ele>1240.27</ele>
        <time>2014-08-31T12:43:58Z</time>
      </trkpt>
      <trkpt lat="44.0668" lon="7.24718">
        <ele>1240.52</ele>
        <time>2014-08-31T12:43:59Z</time>
      </trkpt>
      <trkpt lat="44.06679" lon="7.24716">
        <ele>1240.69</ele>
        <time>2014-08-31T12:44:00Z</time>
      </trkpt>
      <trkpt lat="44.06679" lon="7.24715">
        <ele>1240.91</ele>
        <time>2014-08-31T12:44:01Z</time>
      </trkpt>
      <trkpt lat="44.06679" lon="7.24715">
        <ele>1241.09</ele>
        <time>2014-08-31T12:44:02Z</time>
      </trkpt>
      <trkpt lat="44.06679" lon="7.24714">
        <ele>1241.35</ele>
        <time>2014-08-31T12:44:03Z</time>
      </trkpt>
      <trkpt lat="44.0668" lon="7.24714">
        <ele>1241.56</ele>
        <time>2014-08-31T12:44:04Z</time>
      </trkpt>
      <trkpt lat="44.06681" lon="7.24714">
        <ele>1241.74</ele>
        <time>2014-08-31T12:44:05Z</time>
      </trkpt>
      <trkpt lat="44.0668" lon="7.24712">
        <ele>1242.06</ele>
        <time>2014-08-31T12:44:06Z</time>
      </trkpt>
      <trkpt lat="44.0668" lon="7.24711">
        <ele>1242.3</ele>
        <time>2014-08-31T12:44:07Z</time>
      </trkpt>
      <trkpt lat="44.06681" lon="7.2471">
        <ele>1242.53</ele>
        <time>2014-08-31T12:44:08Z</time>
      </trkpt>
      <trkpt lat="44.06681" lon="7.2471">
        <ele>1242.7</ele>
        <time>2014-08-31T12:44:09Z</time>
      </trkpt>
      <trkpt lat="44.06682" lon="7.2471">
        <ele>1242.88</ele>
        <time>2014-08-31T12:44:10Z</time>
      </trkpt>
      <trkpt lat="44.06681" lon="7.24707">
        <ele>1243.08</ele>
        <time>2014-08-31T12:44:11Z</time>
      </trkpt>
      <trkpt lat="44.06682" lon="7.24707">
        <ele>1243.21</ele>
        <time>2014-08-31T12:44:12Z</time>
      </trkpt>
      <trkpt lat="44.06682" lon="7.24707">
        <ele>1243.37</ele>
        <time>2014-08-31T12:44:13Z</time>
      </trkpt>
      <trkpt lat="44.06682" lon="7.24707">
        <ele>1243.56</ele>
        <time>2014-08-31T12:44:14Z</time>
      </trkpt>
      <trkpt lat="44.06683" lon="7.24707">
        <ele>1243.7</ele>
        <time>2014-08-31T12:44:15Z</time>
      </trkpt>
      <trkpt lat="44.06684" lon="7.24707">
        <ele>1243.86</ele>
        <time>2014-08-31T12:44:16Z</time>
      </trkpt>
      <trkpt lat="44.06684" lon="7.24708">
        <ele>1244.01</ele>
        <time>2014-08-31T12:44:17Z</time>
      </trkpt>
      <trkpt lat="44.06685" lon="7.24708">
        <ele>1244.15</ele>
        <time>2014-08-31T12:44:18Z</time>
      </trkpt>
      <trkpt lat="44.06685" lon="7.24708">
        <ele>1244.32</ele>
        <time>2014-08-31T12:44:19Z</time>
      </trkpt>
      <trkpt lat="44.06685" lon="7.24708">
        <ele>1244.49</ele>
        <time>2014-08-31T12:44:20Z</time>
      </trkpt>
      <trkpt lat="44.06685" lon="7.24707">
        <ele>1244.69</ele>
        <time>2014-08-31T12:44:21Z</time>
      </trkpt>
      <trkpt lat="44.06685" lon="7.24707">
        <ele>1244.9</ele>
        <time>2014-08-31T12:44:22Z</time>
      </trkpt>
      <trkpt lat="44.06685" lon="7.24706">
        <ele>1245.08</ele>
        <time>2014-08-31T12:44:23Z</time>
      </trkpt>
      <trkpt lat="44.06685" lon="7.24705">
        <ele>1245.25</ele>
        <time>2014-08-31T12:44:24Z</time>
      </trkpt>
      <trkpt lat="44.06685" lon="7.24705">
        <ele>1245.41</ele>
        <time>2014-08-31T12:44:25Z</time>
      </trkpt>
      <trkpt lat="44.06685" lon="7.24704">
        <ele>1245.55</ele>
        <time>2014-08-31T12:44:26Z</time>
      </trkpt>
      <trkpt lat="44.06685" lon="7.24703">
        <ele>1245.77</ele>
        <time>2014-08-31T12:44:27Z</time>
      </trkpt>
      <trkpt lat="44.06686" lon="7.24703">
        <ele>1246.08</ele>
        <time>2014-08-31T12:44:28Z</time>
      </trkpt>
      <trkpt lat="44.06686" lon="7.24703">
        <ele>1246.32</ele>
        <time>2014-08-31T12:44:29Z</time>
      </trkpt>
      <trkpt lat="44.06687" lon="7.24703">
        <ele>1246.51</ele>
        <time>2014-08-31T12:44:30Z</time>
      </trkpt>
      <trkpt lat="44.06687" lon="7.24702">
        <ele>1246.65</ele>
        <time>2014-08-31T12:44:31Z</time>
      </trkpt>
      <trkpt lat="44.06687" lon="7.24702">
        <ele>1246.81</ele>
        <time>2014-08-31T12:44:32Z</time>
      </trkpt>
      <trkpt lat="44.06687" lon="7.24701">
        <ele>1247.14</ele>
        <time>2014-08-31T12:44:33Z</time>
      </trkpt>
      <trkpt lat="44.06688" lon="7.24701">
        <ele>1247.37</ele>
        <time>2014-08-31T12:44:34Z</time>
      </trkpt>
      <trkpt lat="44.06688" lon="7.247">
        <ele>1247.56</ele>
        <time>2014-08-31T12:44:35Z</time>
      </trkpt>
      <trkpt lat="44.06687" lon="7.24696">
        <ele>1247.77</ele>
        <time>2014-08-31T12:44:36Z</time>
      </trkpt>
      <trkpt lat="44.06687" lon="7.24695">
        <ele>1248.08</ele>
        <time>2014-08-31T12:44:37Z</time>
      </trkpt>
      <trkpt lat="44.06688" lon="7.24693">
        <ele>1248.29</ele>
        <time>2014-08-31T12:44:38Z</time>
      </trkpt>
      <trkpt lat="44.06688" lon="7.24692">
        <ele>1248.45</ele>
        <time>2014-08-31T12:44:39Z</time>
      </trkpt>
      <trkpt lat="44.06689" lon="7.24691">
        <ele>1248.69</ele>
        <time>2014-08-31T12:44:40Z</time>
      </trkpt>
      <trkpt lat="44.06689" lon="7.2469">
        <ele>1248.91</ele>
        <time>2014-08-31T12:44:41Z</time>
      </trkpt>
      <trkpt lat="44.06689" lon="7.24689">
        <ele>1249.17</ele>
        <time>2014-08-31T12:44:42Z</time>
      </trkpt>
      <trkpt lat="44.06689" lon="7.24688">
        <ele>1249.41</ele>
        <time>2014-08-31T12:44:43Z</time>
      </trkpt>
      <trkpt lat="44.0669" lon="7.24687">
        <ele>1249.67</ele>
        <time>2014-08-31T12:44:44Z</time>
      </trkpt>
      <trkpt lat="44.0669" lon="7.24686">
        <ele>1249.87</ele>
        <time>2014-08-31T12:44:45Z</time>
      </trkpt>
      <trkpt lat="44.0669" lon="7.24685">
        <ele>1250.11</ele>
        <time>2014-08-31T12:44:46Z</time>
      </trkpt>
      <trkpt lat="44.0669" lon="7.24685">
        <ele>1250.29</ele>
        <time>2014-08-31T12:44:47Z</time>
      </trkpt>
      <trkpt lat="44.06691" lon="7.24684">
        <ele>1250.46</ele>
        <time>2014-08-31T12:44:48Z</time>
      </trkpt>
      <trkpt lat="44.06691" lon="7.24684">
        <ele>1250.7</ele>
        <time>2014-08-31T12:44:49Z</time>
      </trkpt>
      <trkpt lat="44.06692" lon="7.24684">
        <ele>1250.85</ele>
        <time>2014-08-31T12:44:50Z</time>
      </trkpt>
      <trkpt lat="44.06692" lon="7.24683">
        <ele>1251.02</ele>
        <time>2014-08-31T12:44:51Z</time>
      </trkpt>
      <trkpt lat="44.06693" lon="7.24683">
        <ele>1251.26</ele>
        <time>2014-08-31T12:44:52Z</time>
      </trkpt>
      <trkpt lat="44.06693" lon="7.24683">
        <ele>1251.56</ele>
        <time>2014-08-31T12:44:53Z</time>
      </trkpt>
      <trkpt lat="44.06694" lon="7.24683">
        <ele>1251.76</ele>
        <time>2014-08-31T12:44:54Z</time>
      </trkpt>
      <trkpt lat="44.06695" lon="7.24682">
        <ele>1251.99</ele>
        <time>2014-08-31T12:44:55Z</time>
      </trkpt>
      <trkpt lat="44.06696" lon="7.24682">
        <ele>1252.33</ele>
        <time>2014-08-31T12:44:56Z</time>
      </trkpt>
      <trkpt lat="44.06697" lon="7.24683">
        <ele>1252.61</ele>
        <time>2014-08-31T12:44:57Z</time>
      </trkpt>
      <trkpt lat="44.06699" lon="7.24683">
        <ele>1252.92</ele>
        <time>2014-08-31T12:44:58Z</time>
      </trkpt>
      <trkpt lat="44.06699" lon="7.24683">
        <ele>1253.18</ele>
        <time>2014-08-31T12:44:59Z</time>
      </trkpt>
      <trkpt lat="44.06699" lon="7.24683">
        <ele>1253.39</ele>
        <time>2014-08-31T12:45:00Z</time>
      </trkpt>
      <trkpt lat="44.06699" lon="7.24683">
        <ele>1253.67</ele>
        <time>2014-08-31T12:45:01Z</time>
      </trkpt>
      <trkpt lat="44.067" lon="7.24682">
        <ele>1253.91</ele>
        <time>2014-08-31T12:45:02Z</time>
      </trkpt>
      <trkpt lat="44.06699" lon="7.24681">
        <ele>1254.38</ele>
        <time>2014-08-31T12:45:04Z</time>
      </trkpt>
      <trkpt lat="44.06699" lon="7.2468">
        <ele>1254.74</ele>
        <time>2014-08-31T12:45:06Z</time>
      </trkpt>
      <trkpt lat="44.06699" lon="7.2468">
        <ele>1255</ele>
        <time>2014-08-31T12:45:07Z</time>
      </trkpt>
      <trkpt lat="44.067" lon="7.2468">
        <ele>1255.3</ele>
        <time>2014-08-31T12:45:08Z</time>
      </trkpt>
      <trkpt lat="44.067" lon="7.2468">
        <ele>1255.53</ele>
        <time>2014-08-31T12:45:09Z</time>
      </trkpt>
      <trkpt lat="44.067" lon="7.24679">
        <ele>1255.69</ele>
        <time>2014-08-31T12:45:10Z</time>
      </trkpt>
      <trkpt lat="44.06701" lon="7.24678">
        <ele>1255.88</ele>
        <time>2014-08-31T12:45:11Z</time>
      </trkpt>
      <trkpt lat="44.06701" lon="7.24678">
        <ele>1256.09</ele>
        <time>2014-08-31T12:45:12Z</time>
      </trkpt>
      <trkpt lat="44.06701" lon="7.24677">
        <ele>1256.3</ele>
        <time>2014-08-31T12:45:13Z</time>
      </trkpt>
      <trkpt lat="44.06702" lon="7.24677">
        <ele>1256.51</ele>
        <time>2014-08-31T12:45:14Z</time>
      </trkpt>
      <trkpt lat="44.06702" lon="7.24676">
        <ele>1256.81</ele>
        <time>2014-08-31T12:45:15Z</time>
      </trkpt>
      <trkpt lat="44.06701" lon="7.24676">
        <ele>1256.99</ele>
        <time>2014-08-31T12:45:16Z</time>
      </trkpt>
      <trkpt lat="44.06702" lon="7.24675">
        <ele>1257.27</ele>
        <time>2014-08-31T12:45:17Z</time>
      </trkpt>
      <trkpt lat="44.06703" lon="7.24675">
        <ele>1257.48</ele>
        <time>2014-08-31T12:45:18Z</time>
      </trkpt>
      <trkpt lat="44.06704" lon="7.24675">
        <ele>1257.67</ele>
        <time>2014-08-31T12:45:19Z</time>
      </trkpt>
      <trkpt lat="44.06703" lon="7.24674">
        <ele>1257.81</ele>
        <time>2014-08-31T12:45:20Z</time>
      </trkpt>
      <trkpt lat="44.06703" lon="7.24673">
        <ele>1257.96</ele>
        <time>2014-08-31T12:45:21Z</time>
      </trkpt>
      <trkpt lat="44.06703" lon="7.24672">
        <ele>1258.16</ele>
        <time>2014-08-31T12:45:22Z</time>
      </trkpt>
      <trkpt lat="44.06702" lon="7.24671">
        <ele>1258.3</ele>
        <time>2014-08-31T12:45:23Z</time>
      </trkpt>
      <trkpt lat="44.06702" lon="7.2467">
        <ele>1258.5</ele>
        <time>2014-08-31T12:45:24Z</time>
      </trkpt>
      <trkpt lat="44.06703" lon="7.2467">
        <ele>1258.67</ele>
        <time>2014-08-31T12:45:25Z</time>
      </trkpt>
      <trkpt lat="44.06703" lon="7.2467">
        <ele>1258.84</ele>
        <time>2014-08-31T12:45:26Z</time>
      </trkpt>
      <trkpt lat="44.06704" lon="7.24671">
        <ele>1259.03</ele>
        <time>2014-08-31T12:45:27Z</time>
      </trkpt>
      <trkpt lat="44.06705" lon="7.24671">
        <ele>1259.29</ele>
        <time>2014-08-31T12:45:28Z</time>
      </trkpt>
      <trkpt lat="44.06706" lon="7.24671">
        <ele>1259.53</ele>
        <time>2014-08-31T12:45:29Z</time>
      </trkpt>
      <trkpt lat="44.06706" lon="7.2467">
        <ele>1259.75</ele>
        <time>2014-08-31T12:45:30Z</time>
      </trkpt>
      <trkpt lat="44.06707" lon="7.2467">
        <ele>1259.93</ele>
        <time>2014-08-31T12:45:31Z</time>
      </trkpt>
      <trkpt lat="44.06707" lon="7.24669">
        <ele>1260.1</ele>
        <time>2014-08-31T12:45:32Z</time>
      </trkpt>
      <trkpt lat="44.06708" lon="7.24668">
        <ele>1260.23</ele>
        <time>2014-08-31T12:45:33Z</time>
      </trkpt>
      <trkpt lat="44.06708" lon="7.24668">
        <ele>1260.4</ele>
        <time>2014-08-31T12:45:34Z</time>
      </trkpt>
      <trkpt lat="44.06708" lon="7.24668">
        <ele>1260.53</ele>
        <time>2014-08-31T12:45:35Z</time>
      </trkpt>
      <trkpt lat="44.06708" lon="7.24668">
        <ele>1260.74</ele>
        <time>2014-08-31T12:45:36Z</time>
      </trkpt>
      <trkpt lat="44.06709" lon="7.24668">
        <ele>1260.9</ele>
        <time>2014-08-31T12:45:37Z</time>
      </trkpt>
      <trkpt lat="44.06709" lon="7.24667">
        <ele>1260.87</ele>
        <time>2014-08-31T12:45:38Z</time>
      </trkpt>
      <trkpt lat="44.0671" lon="7.24667">
        <ele>1260.86</ele>
        <time>2014-08-31T12:45:39Z</time>
      </trkpt>
      <trkpt lat="44.0671" lon="7.24666">
        <ele>1261.25</ele>
        <time>2014-08-31T12:45:40Z</time>
      </trkpt>
      <trkpt lat="44.0671" lon="7.24665">
        <ele>1261.39</ele>
        <time>2014-08-31T12:45:41Z</time>
      </trkpt>
      <trkpt lat="44.0671" lon="7.24665">
        <ele>1261.31</ele>
        <time>2014-08-31T12:45:42Z</time>
      </trkpt>
      <trkpt lat="44.0671" lon="7.24664">
        <ele>1261.47</ele>
        <time>2014-08-31T12:45:43Z</time>
      </trkpt>
      <trkpt lat="44.0671" lon="7.24665">
        <ele>1261.72</ele>
        <time>2014-08-31T12:45:44Z</time>
      </trkpt>
      <trkpt lat="44.06711" lon="7.24664">
        <ele>1261.92</ele>
        <time>2014-08-31T12:45:45Z</time>
      </trkpt>
      <trkpt lat="44.06711" lon="7.24664">
        <ele>1262.08</ele>
        <time>2014-08-31T12:45:46Z</time>
      </trkpt>
      <trkpt lat="44.06712" lon="7.24663">
        <ele>1262.22</ele>
        <time>2014-08-31T12:45:47Z</time>
      </trkpt>
      <trkpt lat="44.06711" lon="7.24663">
        <ele>1262.64</ele>
        <time>2014-08-31T12:45:49Z</time>
      </trkpt>
      <trkpt lat="44.06711" lon="7.24662">
        <ele>1262.82</ele>
        <time>2014-08-31T12:45:50Z</time>
      </trkpt>
      <trkpt lat="44.06711" lon="7.24662">
        <ele>1262.97</ele>
        <time>2014-08-31T12:45:51Z</time>
      </trkpt>
      <trkpt lat="44.06711" lon="7.24662">
        <ele>1263.18</ele>
        <time>2014-08-31T12:45:52Z</time>
      </trkpt>
      <trkpt lat="44.06712" lon="7.24662">
        <ele>1263.39</ele>
        <time>2014-08-31T12:45:53Z</time>
      </trkpt>
      <trkpt lat="44.06713" lon="7.24663">
        <ele>1263.6</ele>
        <time>2014-08-31T12:45:54Z</time>
      </trkpt>
      <trkpt lat="44.06714" lon="7.24662">
        <ele>1263.76</ele>
        <time>2014-08-31T12:45:55Z</time>
      </trkpt>
      <trkpt lat="44.06716" lon="7.24661">
        <ele>1264.35</ele>
        <time>2014-08-31T12:45:58Z</time>
      </trkpt>
      <trkpt lat="44.06715" lon="7.24659">
        <ele>1264.57</ele>
        <time>2014-08-31T12:45:59Z</time>
      </trkpt>
      <trkpt lat="44.06715" lon="7.24658">
        <ele>1264.78</ele>
        <time>2014-08-31T12:46:00Z</time>
      </trkpt>
      <trkpt lat="44.06715" lon="7.24657">
        <ele>1264.75</ele>
        <time>2014-08-31T12:46:01Z</time>
      </trkpt>
      <trkpt lat="44.06715" lon="7.24656">
        <ele>1264.67</ele>
        <time>2014-08-31T12:46:02Z</time>
      </trkpt>
      <trkpt lat="44.06717" lon="7.24655">
        <ele>1264.94</ele>
        <time>2014-08-31T12:46:03Z</time>
      </trkpt>
      <trkpt lat="44.06717" lon="7.24654">
        <ele>1265.2</ele>
        <time>2014-08-31T12:46:04Z</time>
      </trkpt>
      <trkpt lat="44.06718" lon="7.24652">
        <ele>1265.46</ele>
        <time>2014-08-31T12:46:06Z</time>
      </trkpt>
      <trkpt lat="44.06718" lon="7.24651">
        <ele>1265.72</ele>
        <time>2014-08-31T12:46:07Z</time>
      </trkpt>
      <trkpt lat="44.06718" lon="7.2465">
        <ele>1265.96</ele>
        <time>2014-08-31T12:46:08Z</time>
      </trkpt>
      <trkpt lat="44.06718" lon="7.24649">
        <ele>1266.22</ele>
        <time>2014-08-31T12:46:09Z</time>
      </trkpt>
      <trkpt lat="44.06718" lon="7.24649">
        <ele>1266.49</ele>
        <time>2014-08-31T12:46:10Z</time>
      </trkpt>
      <trkpt lat="44.06718" lon="7.24648">
        <ele>1266.94</ele>
        <time>2014-08-31T12:46:12Z</time>
      </trkpt>
      <trkpt lat="44.06719" lon="7.24649">
        <ele>1267.14</ele>
        <time>2014-08-31T12:46:13Z</time>
      </trkpt>
      <trkpt lat="44.06719" lon="7.24648">
        <ele>1267.36</ele>
        <time>2014-08-31T12:46:14Z</time>
      </trkpt>
      <trkpt lat="44.06719" lon="7.24647">
        <ele>1267.56</ele>
        <time>2014-08-31T12:46:15Z</time>
      </trkpt>
      <trkpt lat="44.06719" lon="7.24647">
        <ele>1267.69</ele>
        <time>2014-08-31T12:46:16Z</time>
      </trkpt>
      <trkpt lat="44.06719" lon="7.24647">
        <ele>1267.78</ele>
        <time>2014-08-31T12:46:17Z</time>
      </trkpt>
      <trkpt lat="44.06719" lon="7.24646">
        <ele>1267.92</ele>
        <time>2014-08-31T12:46:18Z</time>
      </trkpt>
      <trkpt lat="44.06719" lon="7.24646">
        <ele>1268.28</ele>
        <time>2014-08-31T12:46:20Z</time>
      </trkpt>
      <trkpt lat="44.06719" lon="7.24646">
        <ele>1268.48</ele>
        <time>2014-08-31T12:46:21Z</time>
      </trkpt>
      <trkpt lat="44.06719" lon="7.24645">
        <ele>1268.63</ele>
        <time>2014-08-31T12:46:22Z</time>
      </trkpt>
      <trkpt lat="44.06718" lon="7.24644">
        <ele>1268.76</ele>
        <time>2014-08-31T12:46:23Z</time>
      </trkpt>
      <trkpt lat="44.06717" lon="7.24644">
        <ele>1268.93</ele>
        <time>2014-08-31T12:46:24Z</time>
      </trkpt>
      <trkpt lat="44.06716" lon="7.24642">
        <ele>1269.12</ele>
        <time>2014-08-31T12:46:25Z</time>
      </trkpt>
      <trkpt lat="44.06717" lon="7.24641">
        <ele>1269.23</ele>
        <time>2014-08-31T12:46:26Z</time>
      </trkpt>
      <trkpt lat="44.06717" lon="7.24641">
        <ele>1269.27</ele>
        <time>2014-08-31T12:46:27Z</time>
      </trkpt>
      <trkpt lat="44.06716" lon="7.2464">
        <ele>1269.48</ele>
        <time>2014-08-31T12:46:28Z</time>
      </trkpt>
      <trkpt lat="44.06716" lon="7.2464">
        <ele>1269.78</ele>
        <time>2014-08-31T12:46:29Z</time>
      </trkpt>
      <trkpt lat="44.06715" lon="7.24639">
        <ele>1270.03</ele>
        <time>2014-08-31T12:46:30Z</time>
      </trkpt>
      <trkpt lat="44.06715" lon="7.24639">
        <ele>1270.25</ele>
        <time>2014-08-31T12:46:31Z</time>
      </trkpt>
      <trkpt lat="44.06714" lon="7.24639">
        <ele>1270.48</ele>
        <time>2014-08-31T12:46:32Z</time>
      </trkpt>
      <trkpt lat="44.06713" lon="7.2464">
        <ele>1270.64</ele>
        <time>2014-08-31T12:46:33Z</time>
      </trkpt>
      <trkpt lat="44.06714" lon="7.2464">
        <ele>1271.08</ele>
        <time>2014-08-31T12:46:35Z</time>
      </trkpt>
      <trkpt lat="44.06713" lon="7.24639">
        <ele>1271.29</ele>
        <time>2014-08-31T12:46:36Z</time>
      </trkpt>
      <trkpt lat="44.06708" lon="7.24633">
        <ele>1271.59</ele>
        <time>2014-08-31T12:46:38Z</time>
      </trkpt>
      <trkpt lat="44.06708" lon="7.24632">
        <ele>1271.83</ele>
        <time>2014-08-31T12:46:39Z</time>
      </trkpt>
      <trkpt lat="44.06707" lon="7.24635">
        <ele>1272.37</ele>
        <time>2014-08-31T12:46:41Z</time>
      </trkpt>
      <trkpt lat="44.06706" lon="7.24635">
        <ele>1272.39</ele>
        <time>2014-08-31T12:46:42Z</time>
      </trkpt>
      <trkpt lat="44.06705" lon="7.24635">
        <ele>1272.46</ele>
        <time>2014-08-31T12:46:43Z</time>
      </trkpt>
      <trkpt lat="44.06704" lon="7.24635">
        <ele>1272.6</ele>
        <time>2014-08-31T12:46:44Z</time>
      </trkpt>
      <trkpt lat="44.06703" lon="7.24635">
        <ele>1272.74</ele>
        <time>2014-08-31T12:46:45Z</time>
      </trkpt>
      <trkpt lat="44.06703" lon="7.24635">
        <ele>1273.09</ele>
        <time>2014-08-31T12:46:46Z</time>
      </trkpt>
      <trkpt lat="44.06702" lon="7.24635">
        <ele>1273.42</ele>
        <time>2014-08-31T12:46:47Z</time>
      </trkpt>
      <trkpt lat="44.06702" lon="7.24635">
        <ele>1273.69</ele>
        <time>2014-08-31T12:46:48Z</time>
      </trkpt>
      <trkpt lat="44.06701" lon="7.24635">
        <ele>1273.97</ele>
        <time>2014-08-31T12:46:49Z</time>
      </trkpt>
      <trkpt lat="44.06701" lon="7.24635">
        <ele>1274.13</ele>
        <time>2014-08-31T12:46:50Z</time>
      </trkpt>
      <trkpt lat="44.067" lon="7.24634">
        <ele>1274.32</ele>
        <time>2014-08-31T12:46:51Z</time>
      </trkpt>
      <trkpt lat="44.067" lon="7.24634">
        <ele>1274.43</ele>
        <time>2014-08-31T12:46:52Z</time>
      </trkpt>
      <trkpt lat="44.067" lon="7.24634">
        <ele>1274.51</ele>
        <time>2014-08-31T12:46:53Z</time>
      </trkpt>
      <trkpt lat="44.067" lon="7.24633">
        <ele>1274.59</ele>
        <time>2014-08-31T12:46:54Z</time>
      </trkpt>
      <trkpt lat="44.06699" lon="7.24633">
        <ele>1274.74</ele>
        <time>2014-08-31T12:46:55Z</time>
      </trkpt>
      <trkpt lat="44.06699" lon="7.24633">
        <ele>1274.93</ele>
        <time>2014-08-31T12:46:56Z</time>
      </trkpt>
      <trkpt lat="44.067" lon="7.24633">
        <ele>1275.08</ele>
        <time>2014-08-31T12:46:57Z</time>
      </trkpt>
      <trkpt lat="44.06699" lon="7.24632">
        <ele>1275.23</ele>
        <time>2014-08-31T12:46:58Z</time>
      </trkpt>
      <trkpt lat="44.067" lon="7.24631">
        <ele>1275.33</ele>
        <time>2014-08-31T12:46:59Z</time>
      </trkpt>
      <trkpt lat="44.067" lon="7.24631">
        <ele>1275.42</ele>
        <time>2014-08-31T12:47:00Z</time>
      </trkpt>
      <trkpt lat="44.067" lon="7.2463">
        <ele>1275.62</ele>
        <time>2014-08-31T12:47:01Z</time>
      </trkpt>
      <trkpt lat="44.067" lon="7.24629">
        <ele>1275.76</ele>
        <time>2014-08-31T12:47:02Z</time>
      </trkpt>
      <trkpt lat="44.06738" lon="7.24622">
        <ele>1285.95</ele>
        <time>2014-08-31T12:48:02Z</time>
      </trkpt>
      <trkpt lat="44.06735" lon="7.24588">
        <ele>1297.14</ele>
        <time>2014-08-31T12:49:02Z</time>
      </trkpt>
      <trkpt lat="44.06767" lon="7.24611">
        <ele>1307.05</ele>
        <time>2014-08-31T12:50:04Z</time>
      </trkpt>
      <trkpt lat="44.06773" lon="7.24555">
        <ele>1314.45</ele>
        <time>2014-08-31T12:51:04Z</time>
      </trkpt>
      <trkpt lat="44.06794" lon="7.24565">
        <ele>1314.92</ele>
        <time>2014-08-31T12:52:04Z</time>
      </trkpt>
      <trkpt lat="44.06773" lon="7.24577">
        <ele>1314.92</ele>
        <time>2014-08-31T12:53:11Z</time>
      </trkpt>
      <trkpt lat="44.06754" lon="7.24571">
        <ele>1315.47</ele>
        <time>2014-08-31T12:54:25Z</time>
      </trkpt>
      <trkpt lat="44.06775" lon="7.24574">
        <ele>1314.47</ele>
        <time>2014-08-31T12:55:36Z</time>
      </trkpt>
      <trkpt lat="44.06756" lon="7.24566">
        <ele>1315.09</ele>
        <time>2014-08-31T12:57:02Z</time>
      </trkpt>
      <trkpt lat="44.06762" lon="7.24554">
        <ele>1315.65</ele>
        <time>2014-08-31T12:58:09Z</time>
      </trkpt>
      <trkpt lat="44.06776" lon="7.24498">
        <ele>1317.89</ele>
        <time>2014-08-31T12:59:18Z</time>
      </trkpt>
      <trkpt lat="44.06785" lon="7.24417">
        <ele>1323.19</ele>
        <time>2014-08-31T13:00:26Z</time>
      </trkpt>
      <trkpt lat="44.06831" lon="7.24361">
        <ele>1330.8</ele>
        <time>2014-08-31T13:01:36Z</time>
      </trkpt>
      <trkpt lat="44.06876" lon="7.24327">
        <ele>1337.77</ele>
        <time>2014-08-31T13:02:42Z</time>
      </trkpt>
      <trkpt lat="44.06931" lon="7.24284">
        <ele>1344.87</ele>
        <time>2014-08-31T13:03:47Z</time>
      </trkpt>
      <trkpt lat="44.06972" lon="7.24248">
        <ele>1356.18</ele>
        <time>2014-08-31T13:04:53Z</time>
      </trkpt>
      <trkpt lat="44.07016" lon="7.24287">
        <ele>1368.83</ele>
        <time>2014-08-31T13:05:58Z</time>
      </trkpt>
      <trkpt lat="44.07041" lon="7.24327">
        <ele>1379.11</ele>
        <time>2014-08-31T13:07:04Z</time>
      </trkpt>
      <trkpt lat="44.07027" lon="7.24409">
        <ele>1387.66</ele>
        <time>2014-08-31T13:08:16Z</time>
      </trkpt>
      <trkpt lat="44.07064" lon="7.24381">
        <ele>1399.04</ele>
        <time>2014-08-31T13:09:16Z</time>
      </trkpt>
      <trkpt lat="44.07096" lon="7.24311">
        <ele>1411.85</ele>
        <time>2014-08-31T13:10:22Z</time>
      </trkpt>
      <trkpt lat="44.07085" lon="7.24263">
        <ele>1422</ele>
        <time>2014-08-31T13:11:28Z</time>
      </trkpt>
      <trkpt lat="44.07067" lon="7.24216">
        <ele>1430.59</ele>
        <time>2014-08-31T13:12:37Z</time>
      </trkpt>
      <trkpt lat="44.07022" lon="7.24116">
        <ele>1436.13</ele>
        <time>2014-08-31T13:13:48Z</time>
      </trkpt>
      <trkpt lat="44.07081" lon="7.24144">
        <ele>1443.54</ele>
        <time>2014-08-31T13:15:03Z</time>
      </trkpt>
      <trkpt lat="44.07073" lon="7.24135">
        <ele>1442.72</ele>
        <time>2014-08-31T13:16:25Z</time>
      </trkpt>
      <trkpt lat="44.07064" lon="7.2414">
        <ele>1442.87</ele>
        <time>2014-08-31T13:17:34Z</time>
      </trkpt>
      <trkpt lat="44.07095" lon="7.2418">
        <ele>1443.06</ele>
        <time>2014-08-31T13:18:43Z</time>
      </trkpt>
      <trkpt lat="44.07089" lon="7.24143">
        <ele>1442.53</ele>
        <time>2014-08-31T13:20:05Z</time>
      </trkpt>
      <trkpt lat="44.07069" lon="7.24151">
        <ele>1442.72</ele>
        <time>2014-08-31T13:21:15Z</time>
      </trkpt>
      <trkpt lat="44.07004" lon="7.2409">
        <ele>1440.43</ele>
        <time>2014-08-31T13:22:21Z</time>
      </trkpt>
      <trkpt lat="44.07011" lon="7.24075">
        <ele>1430.99</ele>
        <time>2014-08-31T13:23:27Z</time>
      </trkpt>
      <trkpt lat="44.07042" lon="7.24032">
        <ele>1416.73</ele>
        <time>2014-08-31T13:24:35Z</time>
      </trkpt>
      <trkpt lat="44.07116" lon="7.23993">
        <ele>1408.62</ele>
        <time>2014-08-31T13:25:53Z</time>
      </trkpt>
      <trkpt lat="44.07118" lon="7.23997">
        <ele>1410.08</ele>
        <time>2014-08-31T13:26:59Z</time>
      </trkpt>
      <trkpt lat="44.07151" lon="7.24006">
        <ele>1410.27</ele>
        <time>2014-08-31T13:28:06Z</time>
      </trkpt>
      <trkpt lat="44.07127" lon="7.24007">
        <ele>1409.74</ele>
        <time>2014-08-31T13:29:09Z</time>
      </trkpt>
      <trkpt lat="44.0712" lon="7.23992">
        <ele>1410.15</ele>
        <time>2014-08-31T13:30:17Z</time>
      </trkpt>
      <trkpt lat="44.07123" lon="7.23986">
        <ele>1408.82</ele>
        <time>2014-08-31T13:31:24Z</time>
      </trkpt>
      <trkpt lat="44.07145" lon="7.23953">
        <ele>1396.84</ele>
        <time>2014-08-31T13:32:28Z</time>
      </trkpt>
      <trkpt lat="44.07152" lon="7.23883">
        <ele>1384.91</ele>
        <time>2014-08-31T13:33:35Z</time>
      </trkpt>
      <trkpt lat="44.07174" lon="7.2384">
        <ele>1372.37</ele>
        <time>2014-08-31T13:34:40Z</time>
      </trkpt>
      <trkpt lat="44.07239" lon="7.23771">
        <ele>1364.36</ele>
        <time>2014-08-31T13:35:48Z</time>
      </trkpt>
      <trkpt lat="44.07227" lon="7.23854">
        <ele>1346.92</ele>
        <time>2014-08-31T13:36:54Z</time>
      </trkpt>
      <trkpt lat="44.0723" lon="7.23947">
        <ele>1331.98</ele>
        <time>2014-08-31T13:38:03Z</time>
      </trkpt>
      <trkpt lat="44.07268" lon="7.23934">
        <ele>1324.57</ele>
        <time>2014-08-31T13:39:08Z</time>
      </trkpt>
      <trkpt lat="44.07246" lon="7.24005">
        <ele>1306.57</ele>
        <time>2014-08-31T13:40:15Z</time>
      </trkpt>
      <trkpt lat="44.07242" lon="7.24001">
        <ele>1304.94</ele>
        <time>2014-08-31T13:41:19Z</time>
      </trkpt>
      <trkpt lat="44.07252" lon="7.24006">
        <ele>1304.17</ele>
        <time>2014-08-31T13:42:23Z</time>
      </trkpt>
      <trkpt lat="44.07241" lon="7.24">
        <ele>1305.34</ele>
        <time>2014-08-31T13:43:28Z</time>
      </trkpt>
      <trkpt lat="44.07245" lon="7.24021">
        <ele>1304.77</ele>
        <time>2014-08-31T13:44:41Z</time>
      </trkpt>
      <trkpt lat="44.07223" lon="7.2401">
        <ele>1305.24</ele>
        <time>2014-08-31T13:45:51Z</time>
      </trkpt>
      <trkpt lat="44.07228" lon="7.24006">
        <ele>1305.17</ele>
        <time>2014-08-31T13:47:01Z</time>
      </trkpt>
      <trkpt lat="44.07277" lon="7.24042">
        <ele>1301.6</ele>
        <time>2014-08-31T13:48:04Z</time>
      </trkpt>
      <trkpt lat="44.07323" lon="7.24019">
        <ele>1300.32</ele>
        <time>2014-08-31T13:49:10Z</time>
      </trkpt>
      <trkpt lat="44.07319" lon="7.24066">
        <ele>1300.09</ele>
        <time>2014-08-31T13:50:15Z</time>
      </trkpt>
      <trkpt lat="44.07247" lon="7.24034">
        <ele>1300.86</ele>
        <time>2014-08-31T13:51:21Z</time>
      </trkpt>
      <trkpt lat="44.0723" lon="7.24042">
        <ele>1298.34</ele>
        <time>2014-08-31T13:52:24Z</time>
      </trkpt>
      <trkpt lat="44.07235" lon="7.24037">
        <ele>1298.6</ele>
        <time>2014-08-31T13:53:31Z</time>
      </trkpt>
      <trkpt lat="44.07257" lon="7.2406">
        <ele>1291.32</ele>
        <time>2014-08-31T13:54:35Z</time>
      </trkpt>
      <trkpt lat="44.07277" lon="7.24056">
        <ele>1274.78</ele>
        <time>2014-08-31T13:55:41Z</time>
      </trkpt>
      <trkpt lat="44.07308" lon="7.2411">
        <ele>1265.22</ele>
        <time>2014-08-31T13:56:48Z</time>
      </trkpt>
      <trkpt lat="44.07295" lon="7.2421">
        <ele>1246.38</ele>
        <time>2014-08-31T13:57:54Z</time>
      </trkpt>
      <trkpt lat="44.07325" lon="7.24242">
        <ele>1227.79</ele>
        <time>2014-08-31T13:59:00Z</time>
      </trkpt>
      <trkpt lat="44.0736" lon="7.24328">
        <ele>1210.27</ele>
        <time>2014-08-31T14:00:08Z</time>
      </trkpt>
      <trkpt lat="44.07386" lon="7.24394">
        <ele>1194.18</ele>
        <time>2014-08-31T14:01:13Z</time>
      </trkpt>
      <trkpt lat="44.07397" lon="7.24497">
        <ele>1184.98</ele>
        <time>2014-08-31T14:02:21Z</time>
      </trkpt>
      <trkpt lat="44.07424" lon="7.2453">
        <ele>1172.97</ele>
        <time>2014-08-31T14:03:28Z</time>
      </trkpt>
      <trkpt lat="44.07381" lon="7.24604">
        <ele>1158.79</ele>
        <time>2014-08-31T14:04:39Z</time>
      </trkpt>
      <trkpt lat="44.07386" lon="7.24653">
        <ele>1142.8</ele>
        <time>2014-08-31T14:05:46Z</time>
      </trkpt>
      <trkpt lat="44.07362" lon="7.24739">
        <ele>1128.49</ele>
        <time>2014-08-31T14:06:53Z</time>
      </trkpt>
      <trkpt lat="44.07409" lon="7.24731">
        <ele>1113.4</ele>
        <time>2014-08-31T14:08:05Z</time>
      </trkpt>
      <trkpt lat="44.07359" lon="7.24784">
        <ele>1102.65</ele>
        <time>2014-08-31T14:09:10Z</time>
      </trkpt>
      <trkpt lat="44.07349" lon="7.24781">
        <ele>1101.49</ele>
        <time>2014-08-31T14:10:22Z</time>
      </trkpt>
      <trkpt lat="44.07364" lon="7.24808">
        <ele>1094.31</ele>
        <time>2014-08-31T14:11:27Z</time>
      </trkpt>
      <trkpt lat="44.0736" lon="7.24851">
        <ele>1090.31</ele>
        <time>2014-08-31T14:12:32Z</time>
      </trkpt>
      <trkpt lat="44.0731" lon="7.24934">
        <ele>1083.98</ele>
        <time>2014-08-31T14:13:40Z</time>
      </trkpt>
      <trkpt lat="44.07298" lon="7.24964">
        <ele>1070.58</ele>
        <time>2014-08-31T14:14:44Z</time>
      </trkpt>
      <trkpt lat="44.07196" lon="7.25043">
        <ele>1062.31</ele>
        <time>2014-08-31T14:15:51Z</time>
      </trkpt>
      <trkpt lat="44.07174" lon="7.25214">
        <ele>1053.85</ele>
        <time>2014-08-31T14:16:55Z</time>
      </trkpt>
      <trkpt lat="44.07121" lon="7.25166">
        <ele>1048.54</ele>
        <time>2014-08-31T14:18:03Z</time>
      </trkpt>
      <trkpt lat="44.07052" lon="7.25165">
        <ele>1047.32</ele>
        <time>2014-08-31T14:19:06Z</time>
      </trkpt>
      <trkpt lat="44.06984" lon="7.25337">
        <ele>1040.14</ele>
        <time>2014-08-31T14:20:13Z</time>
      </trkpt>
      <trkpt lat="44.06911" lon="7.25309">
        <ele>1028.55</ele>
        <time>2014-08-31T14:21:16Z</time>
      </trkpt>
      <trkpt lat="44.06831" lon="7.25385">
        <ele>1014.92</ele>
        <time>2014-08-31T14:22:24Z</time>
      </trkpt>
      <trkpt lat="44.06827" lon="7.25386">
        <ele>1012.73</ele>
        <time>2014-08-31T14:23:16Z</time>
      </trkpt>
      <trkpt lat="44.10982" lon="7.3078">
        <ele>1698.2</ele>
        <time>2014-09-01T06:56:11Z</time>
      </trkpt>
      <trkpt lat="44.10949" lon="7.30827">
        <ele>1704.73</ele>
        <time>2014-09-01T06:57:11Z</time>
      </trkpt>
      <trkpt lat="44.10899" lon="7.3085">
        <ele>1713.16</ele>
        <time>2014-09-01T06:58:11Z</time>
      </trkpt>
      <trkpt lat="44.10866" lon="7.30901">
        <ele>1721.33</ele>
        <time>2014-09-01T06:59:11Z</time>
      </trkpt>
      <trkpt lat="44.10817" lon="7.30912">
        <ele>1730.3</ele>
        <time>2014-09-01T07:00:11Z</time>
      </trkpt>
      <trkpt lat="44.10813" lon="7.30972">
        <ele>1740.97</ele>
        <time>2014-09-01T07:01:16Z</time>
      </trkpt>
      <trkpt lat="44.10808" lon="7.31056">
        <ele>1750.48</ele>
        <time>2014-09-01T07:02:16Z</time>
      </trkpt>
      <trkpt lat="44.1082" lon="7.31128">
        <ele>1756.97</ele>
        <time>2014-09-01T07:03:16Z</time>
      </trkpt>
      <trkpt lat="44.10818" lon="7.31157">
        <ele>1759.07</ele>
        <time>2014-09-01T07:04:16Z</time>
      </trkpt>
      <trkpt lat="44.10796" lon="7.3116">
        <ele>1758.98</ele>
        <time>2014-09-01T07:05:21Z</time>
      </trkpt>
      <trkpt lat="44.1077" lon="7.31174">
        <ele>1759.14</ele>
        <time>2014-09-01T07:06:27Z</time>
      </trkpt>
      <trkpt lat="44.10836" lon="7.31179">
        <ele>1758.73</ele>
        <time>2014-09-01T07:07:29Z</time>
      </trkpt>
      <trkpt lat="44.10775" lon="7.31175">
        <ele>1763.33</ele>
        <time>2014-09-01T07:08:33Z</time>
      </trkpt>
      <trkpt lat="44.10821" lon="7.31273">
        <ele>1769.79</ele>
        <time>2014-09-01T07:09:33Z</time>
      </trkpt>
      <trkpt lat="44.10826" lon="7.31354">
        <ele>1774.38</ele>
        <time>2014-09-01T07:10:33Z</time>
      </trkpt>
      <trkpt lat="44.10825" lon="7.31464">
        <ele>1779.14</ele>
        <time>2014-09-01T07:11:36Z</time>
      </trkpt>
      <trkpt lat="44.1084" lon="7.31559">
        <ele>1784.46</ele>
        <time>2014-09-01T07:12:42Z</time>
      </trkpt>
      <trkpt lat="44.10853" lon="7.31634">
        <ele>1793.28</ele>
        <time>2014-09-01T07:13:46Z</time>
      </trkpt>
      <trkpt lat="44.10869" lon="7.31714">
        <ele>1795.35</ele>
        <time>2014-09-01T07:14:50Z</time>
      </trkpt>
      <trkpt lat="44.10876" lon="7.31775">
        <ele>1803.97</ele>
        <time>2014-09-01T07:15:58Z</time>
      </trkpt>
      <trkpt lat="44.1088" lon="7.31857">
        <ele>1812.92</ele>
        <time>2014-09-01T07:17:00Z</time>
      </trkpt>
      <trkpt lat="44.10882" lon="7.3192">
        <ele>1823.81</ele>
        <time>2014-09-01T07:18:06Z</time>
      </trkpt>
      <trkpt lat="44.10935" lon="7.31924">
        <ele>1828.5</ele>
        <time>2014-09-01T07:19:10Z</time>
      </trkpt>
      <trkpt lat="44.10917" lon="7.31901">
        <ele>1838.37</ele>
        <time>2014-09-01T07:20:41Z</time>
      </trkpt>
      <trkpt lat="44.11036" lon="7.32015">
        <ele>1839.88</ele>
        <time>2014-09-01T07:21:44Z</time>
      </trkpt>
      <trkpt lat="44.11087" lon="7.32049">
        <ele>1839.1</ele>
        <time>2014-09-01T07:22:48Z</time>
      </trkpt>
      <trkpt lat="44.11139" lon="7.32056">
        <ele>1842.99</ele>
        <time>2014-09-01T07:23:51Z</time>
      </trkpt>
      <trkpt lat="44.11187" lon="7.32126">
        <ele>1843.66</ele>
        <time>2014-09-01T07:24:58Z</time>
      </trkpt>
      <trkpt lat="44.11226" lon="7.32127">
        <ele>1848.75</ele>
        <time>2014-09-01T07:26:02Z</time>
      </trkpt>
      <trkpt lat="44.11245" lon="7.32163">
        <ele>1859.95</ele>
        <time>2014-09-01T07:27:05Z</time>
      </trkpt>
      <trkpt lat="44.11252" lon="7.32198">
        <ele>1871.61</ele>
        <time>2014-09-01T07:28:11Z</time>
      </trkpt>
      <trkpt lat="44.1126" lon="7.32233">
        <ele>1881.84</ele>
        <time>2014-09-01T07:29:15Z</time>
      </trkpt>
      <trkpt lat="44.11271" lon="7.3217">
        <ele>1892.27</ele>
        <time>2014-09-01T07:30:18Z</time>
      </trkpt>
      <trkpt lat="44.1131" lon="7.32132">
        <ele>1903.69</ele>
        <time>2014-09-01T07:31:22Z</time>
      </trkpt>
      <trkpt lat="44.11323" lon="7.32168">
        <ele>1910.69</ele>
        <time>2014-09-01T07:32:25Z</time>
      </trkpt>
      <trkpt lat="44.11373" lon="7.32222">
        <ele>1913.87</ele>
        <time>2014-09-01T07:33:28Z</time>
      </trkpt>
      <trkpt lat="44.11403" lon="7.3231">
        <ele>1913.76</ele>
        <time>2014-09-01T07:34:32Z</time>
      </trkpt>
      <trkpt lat="44.11425" lon="7.32315">
        <ele>1913.04</ele>
        <time>2014-09-01T07:35:36Z</time>
      </trkpt>
      <trkpt lat="44.11406" lon="7.32279">
        <ele>1914.63</ele>
        <time>2014-09-01T07:36:39Z</time>
      </trkpt>
      <trkpt lat="44.11456" lon="7.3231">
        <ele>1914.57</ele>
        <time>2014-09-01T07:37:41Z</time>
      </trkpt>
      <trkpt lat="44.11413" lon="7.32311">
        <ele>1914.32</ele>
        <time>2014-09-01T07:38:44Z</time>
      </trkpt>
      <trkpt lat="44.11462" lon="7.32375">
        <ele>1921.8</ele>
        <time>2014-09-01T07:39:46Z</time>
      </trkpt>
      <trkpt lat="44.11505" lon="7.32438">
        <ele>1924.58</ele>
        <time>2014-09-01T07:40:50Z</time>
      </trkpt>
      <trkpt lat="44.11562" lon="7.32478">
        <ele>1928.56</ele>
        <time>2014-09-01T07:41:54Z</time>
      </trkpt>
      <trkpt lat="44.11578" lon="7.32499">
        <ele>1929.16</ele>
        <time>2014-09-01T07:42:59Z</time>
      </trkpt>
      <trkpt lat="44.11616" lon="7.32577">
        <ele>1930.61</ele>
        <time>2014-09-01T07:44:02Z</time>
      </trkpt>
      <trkpt lat="44.11614" lon="7.32632">
        <ele>1936.36</ele>
        <time>2014-09-01T07:45:08Z</time>
      </trkpt>
      <trkpt lat="44.11643" lon="7.32707">
        <ele>1939.96</ele>
        <time>2014-09-01T07:46:11Z</time>
      </trkpt>
      <trkpt lat="44.11693" lon="7.32756">
        <ele>1945.69</ele>
        <time>2014-09-01T07:47:15Z</time>
      </trkpt>
      <trkpt lat="44.11748" lon="7.32823">
        <ele>1951.67</ele>
        <time>2014-09-01T07:48:19Z</time>
      </trkpt>
      <trkpt lat="44.11801" lon="7.32833">
        <ele>1961.05</ele>
        <time>2014-09-01T07:49:24Z</time>
      </trkpt>
      <trkpt lat="44.1184" lon="7.32861">
        <ele>1970.24</ele>
        <time>2014-09-01T07:50:32Z</time>
      </trkpt>
      <trkpt lat="44.11875" lon="7.32889">
        <ele>1978.78</ele>
        <time>2014-09-01T07:51:37Z</time>
      </trkpt>
      <trkpt lat="44.11935" lon="7.32977">
        <ele>1986.05</ele>
        <time>2014-09-01T07:52:48Z</time>
      </trkpt>
      <trkpt lat="44.11989" lon="7.32942">
        <ele>1988.78</ele>
        <time>2014-09-01T07:53:55Z</time>
      </trkpt>
      <trkpt lat="44.12031" lon="7.3301">
        <ele>1995.99</ele>
        <time>2014-09-01T07:55:00Z</time>
      </trkpt>
      <trkpt lat="44.12056" lon="7.33044">
        <ele>1999.58</ele>
        <time>2014-09-01T07:56:03Z</time>
      </trkpt>
      <trkpt lat="44.12049" lon="7.33064">
        <ele>1998.31</ele>
        <time>2014-09-01T07:57:07Z</time>
      </trkpt>
      <trkpt lat="44.12025" lon="7.33035">
        <ele>1998.71</ele>
        <time>2014-09-01T07:58:10Z</time>
      </trkpt>
      <trkpt lat="44.1202" lon="7.33043">
        <ele>1998.58</ele>
        <time>2014-09-01T07:59:13Z</time>
      </trkpt>
      <trkpt lat="44.12029" lon="7.33057">
        <ele>1997.74</ele>
        <time>2014-09-01T08:00:16Z</time>
      </trkpt>
      <trkpt lat="44.12024" lon="7.33043">
        <ele>1998.46</ele>
        <time>2014-09-01T08:01:20Z</time>
      </trkpt>
      <trkpt lat="44.12016" lon="7.33042">
        <ele>1998.26</ele>
        <time>2014-09-01T08:02:24Z</time>
      </trkpt>
      <trkpt lat="44.12022" lon="7.3305">
        <ele>1998.16</ele>
        <time>2014-09-01T08:03:27Z</time>
      </trkpt>
      <trkpt lat="44.12022" lon="7.33043">
        <ele>1998.38</ele>
        <time>2014-09-01T08:04:30Z</time>
      </trkpt>
      <trkpt lat="44.12007" lon="7.33049">
        <ele>1998.32</ele>
        <time>2014-09-01T08:05:33Z</time>
      </trkpt>
      <trkpt lat="44.12062" lon="7.33067">
        <ele>2006.31</ele>
        <time>2014-09-01T08:06:35Z</time>
      </trkpt>
      <trkpt lat="44.1209" lon="7.33072">
        <ele>2017.25</ele>
        <time>2014-09-01T08:07:39Z</time>
      </trkpt>
      <trkpt lat="44.12094" lon="7.33106">
        <ele>2027.45</ele>
        <time>2014-09-01T08:08:41Z</time>
      </trkpt>
      <trkpt lat="44.1214" lon="7.33099">
        <ele>2033.3</ele>
        <time>2014-09-01T08:09:45Z</time>
      </trkpt>
      <trkpt lat="44.12191" lon="7.33055">
        <ele>2042.3</ele>
        <time>2014-09-01T08:10:50Z</time>
      </trkpt>
      <trkpt lat="44.12239" lon="7.33027">
        <ele>2050.59</ele>
        <time>2014-09-01T08:11:54Z</time>
      </trkpt>
      <trkpt lat="44.1227" lon="7.3299">
        <ele>2059.93</ele>
        <time>2014-09-01T08:12:58Z</time>
      </trkpt>
      <trkpt lat="44.12315" lon="7.33019">
        <ele>2066.26</ele>
        <time>2014-09-01T08:14:02Z</time>
      </trkpt>
      <trkpt lat="44.12365" lon="7.32991">
        <ele>2074</ele>
        <time>2014-09-01T08:15:02Z</time>
      </trkpt>
      <trkpt lat="44.12401" lon="7.32973">
        <ele>2084.08</ele>
        <time>2014-09-01T08:16:02Z</time>
      </trkpt>
      <trkpt lat="44.12369" lon="7.32919">
        <ele>2092.64</ele>
        <time>2014-09-01T08:17:04Z</time>
      </trkpt>
      <trkpt lat="44.1242" lon="7.32907">
        <ele>2100.8</ele>
        <time>2014-09-01T08:18:08Z</time>
      </trkpt>
      <trkpt lat="44.12443" lon="7.32905">
        <ele>2110.13</ele>
        <time>2014-09-01T08:19:12Z</time>
      </trkpt>
      <trkpt lat="44.12465" lon="7.32952">
        <ele>2115.31</ele>
        <time>2014-09-01T08:20:16Z</time>
      </trkpt>
      <trkpt lat="44.12498" lon="7.32989">
        <ele>2126.12</ele>
        <time>2014-09-01T08:21:20Z</time>
      </trkpt>
      <trkpt lat="44.12542" lon="7.33027">
        <ele>2131.54</ele>
        <time>2014-09-01T08:22:25Z</time>
      </trkpt>
      <trkpt lat="44.12518" lon="7.33095">
        <ele>2135.6</ele>
        <time>2014-09-01T08:23:29Z</time>
      </trkpt>
      <trkpt lat="44.12505" lon="7.33149">
        <ele>2139.67</ele>
        <time>2014-09-01T08:24:33Z</time>
      </trkpt>
      <trkpt lat="44.12533" lon="7.33164">
        <ele>2148.63</ele>
        <time>2014-09-01T08:25:38Z</time>
      </trkpt>
      <trkpt lat="44.12555" lon="7.33152">
        <ele>2158.05</ele>
        <time>2014-09-01T08:26:42Z</time>
      </trkpt>
      <trkpt lat="44.12596" lon="7.33138">
        <ele>2166.32</ele>
        <time>2014-09-01T08:27:47Z</time>
      </trkpt>
      <trkpt lat="44.12632" lon="7.33135">
        <ele>2174.45</ele>
        <time>2014-09-01T08:28:52Z</time>
      </trkpt>
      <trkpt lat="44.12628" lon="7.33099">
        <ele>2180.46</ele>
        <time>2014-09-01T08:29:56Z</time>
      </trkpt>
      <trkpt lat="44.12628" lon="7.33101">
        <ele>2180.41</ele>
        <time>2014-09-01T08:31:00Z</time>
      </trkpt>
      <trkpt lat="44.12633" lon="7.33095">
        <ele>2180.69</ele>
        <time>2014-09-01T08:32:04Z</time>
      </trkpt>
      <trkpt lat="44.1263" lon="7.33093">
        <ele>2180.43</ele>
        <time>2014-09-01T08:33:07Z</time>
      </trkpt>
      <trkpt lat="44.12622" lon="7.33095">
        <ele>2180.6</ele>
        <time>2014-09-01T08:34:10Z</time>
      </trkpt>
      <trkpt lat="44.12625" lon="7.33094">
        <ele>2180.17</ele>
        <time>2014-09-01T08:35:13Z</time>
      </trkpt>
      <trkpt lat="44.12629" lon="7.33091">
        <ele>2179.41</ele>
        <time>2014-09-01T08:36:17Z</time>
      </trkpt>
      <trkpt lat="44.12625" lon="7.33094">
        <ele>2179.58</ele>
        <time>2014-09-01T08:37:21Z</time>
      </trkpt>
      <trkpt lat="44.12633" lon="7.33095">
        <ele>2179.19</ele>
        <time>2014-09-01T08:38:24Z</time>
      </trkpt>
      <trkpt lat="44.12624" lon="7.3309">
        <ele>2179.06</ele>
        <time>2014-09-01T08:39:28Z</time>
      </trkpt>
      <trkpt lat="44.12626" lon="7.33105">
        <ele>2179.1</ele>
        <time>2014-09-01T08:40:31Z</time>
      </trkpt>
      <trkpt lat="44.12625" lon="7.33097">
        <ele>2179.24</ele>
        <time>2014-09-01T08:41:35Z</time>
      </trkpt>
      <trkpt lat="44.12624" lon="7.331">
        <ele>2180</ele>
        <time>2014-09-01T08:42:39Z</time>
      </trkpt>
      <trkpt lat="44.12628" lon="7.33093">
        <ele>2179.76</ele>
        <time>2014-09-01T08:43:43Z</time>
      </trkpt>
      <trkpt lat="44.12635" lon="7.33088">
        <ele>2179.3</ele>
        <time>2014-09-01T08:44:46Z</time>
      </trkpt>
      <trkpt lat="44.12626" lon="7.33099">
        <ele>2178.25</ele>
        <time>2014-09-01T08:45:50Z</time>
      </trkpt>
      <trkpt lat="44.12624" lon="7.33102">
        <ele>2179.59</ele>
        <time>2014-09-01T08:46:55Z</time>
      </trkpt>
      <trkpt lat="44.12636" lon="7.33089">
        <ele>2179.66</ele>
        <time>2014-09-01T08:48:02Z</time>
      </trkpt>
      <trkpt lat="44.12627" lon="7.33091">
        <ele>2179.4</ele>
        <time>2014-09-01T08:49:03Z</time>
      </trkpt>
      <trkpt lat="44.12623" lon="7.33104">
        <ele>2180.3</ele>
        <time>2014-09-01T08:50:07Z</time>
      </trkpt>
      <trkpt lat="44.12628" lon="7.33117">
        <ele>2178.82</ele>
        <time>2014-09-01T08:51:11Z</time>
      </trkpt>
      <trkpt lat="44.12618" lon="7.33199">
        <ele>2174.05</ele>
        <time>2014-09-01T08:52:18Z</time>
      </trkpt>
      <trkpt lat="44.12603" lon="7.33226">
        <ele>2170.15</ele>
        <time>2014-09-01T08:53:21Z</time>
      </trkpt>
      <trkpt lat="44.12579" lon="7.33286">
        <ele>2168.14</ele>
        <time>2014-09-01T08:54:26Z</time>
      </trkpt>
      <trkpt lat="44.12573" lon="7.33376">
        <ele>2171.49</ele>
        <time>2014-09-01T08:55:29Z</time>
      </trkpt>
      <trkpt lat="44.12555" lon="7.33428">
        <ele>2167.54</ele>
        <time>2014-09-01T08:56:32Z</time>
      </trkpt>
      <trkpt lat="44.12503" lon="7.33467">
        <ele>2161.65</ele>
        <time>2014-09-01T08:57:35Z</time>
      </trkpt>
      <trkpt lat="44.12436" lon="7.33499">
        <ele>2156.15</ele>
        <time>2014-09-01T08:58:39Z</time>
      </trkpt>
      <trkpt lat="44.12403" lon="7.33509">
        <ele>2150.32</ele>
        <time>2014-09-01T08:59:42Z</time>
      </trkpt>
      <trkpt lat="44.12315" lon="7.33548">
        <ele>2142.9</ele>
        <time>2014-09-01T09:00:44Z</time>
      </trkpt>
      <trkpt lat="44.12288" lon="7.33483">
        <ele>2136.07</ele>
        <time>2014-09-01T09:01:47Z</time>
      </trkpt>
      <trkpt lat="44.12268" lon="7.33463">
        <ele>2132.2</ele>
        <time>2014-09-01T09:02:49Z</time>
      </trkpt>
      <trkpt lat="44.12202" lon="7.33505">
        <ele>2137.19</ele>
        <time>2014-09-01T09:03:52Z</time>
      </trkpt>
      <trkpt lat="44.12157" lon="7.33496">
        <ele>2141.32</ele>
        <time>2014-09-01T09:04:55Z</time>
      </trkpt>
      <trkpt lat="44.12127" lon="7.33489">
        <ele>2146.2</ele>
        <time>2014-09-01T09:05:58Z</time>
      </trkpt>
      <trkpt lat="44.12056" lon="7.33495">
        <ele>2151.42</ele>
        <time>2014-09-01T09:07:01Z</time>
      </trkpt>
      <trkpt lat="44.11987" lon="7.33503">
        <ele>2153.84</ele>
        <time>2014-09-01T09:08:05Z</time>
      </trkpt>
      <trkpt lat="44.1194" lon="7.33516">
        <ele>2153.33</ele>
        <time>2014-09-01T09:09:08Z</time>
      </trkpt>
      <trkpt lat="44.11906" lon="7.33562">
        <ele>2156.71</ele>
        <time>2014-09-01T09:10:10Z</time>
      </trkpt>
      <trkpt lat="44.11884" lon="7.3363">
        <ele>2165.76</ele>
        <time>2014-09-01T09:11:14Z</time>
      </trkpt>
      <trkpt lat="44.11862" lon="7.33664">
        <ele>2171.32</ele>
        <time>2014-09-01T09:12:16Z</time>
      </trkpt>
      <trkpt lat="44.11878" lon="7.33662">
        <ele>2170.22</ele>
        <time>2014-09-01T09:13:19Z</time>
      </trkpt>
      <trkpt lat="44.11864" lon="7.33682">
        <ele>2172.4</ele>
        <time>2014-09-01T09:14:21Z</time>
      </trkpt>
      <trkpt lat="44.11827" lon="7.33726">
        <ele>2174</ele>
        <time>2014-09-01T09:15:24Z</time>
      </trkpt>
      <trkpt lat="44.11831" lon="7.33765">
        <ele>2176.26</ele>
        <time>2014-09-01T09:16:26Z</time>
      </trkpt>
      <trkpt lat="44.11782" lon="7.33811">
        <ele>2179.17</ele>
        <time>2014-09-01T09:17:29Z</time>
      </trkpt>
      <trkpt lat="44.11752" lon="7.33847">
        <ele>2189.24</ele>
        <time>2014-09-01T09:18:33Z</time>
      </trkpt>
      <trkpt lat="44.11744" lon="7.33864">
        <ele>2200.76</ele>
        <time>2014-09-01T09:19:36Z</time>
      </trkpt>
      <trkpt lat="44.11674" lon="7.3389">
        <ele>2211.22</ele>
        <time>2014-09-01T09:20:39Z</time>
      </trkpt>
      <trkpt lat="44.1165" lon="7.33972">
        <ele>2217.35</ele>
        <time>2014-09-01T09:21:41Z</time>
      </trkpt>
      <trkpt lat="44.11639" lon="7.34063">
        <ele>2212.89</ele>
        <time>2014-09-01T09:22:44Z</time>
      </trkpt>
      <trkpt lat="44.11661" lon="7.34107">
        <ele>2213.98</ele>
        <time>2014-09-01T09:23:47Z</time>
      </trkpt>
      <trkpt lat="44.11558" lon="7.34065">
        <ele>2215.12</ele>
        <time>2014-09-01T09:24:52Z</time>
      </trkpt>
      <trkpt lat="44.11582" lon="7.34079">
        <ele>2214.43</ele>
        <time>2014-09-01T09:25:55Z</time>
      </trkpt>
      <trkpt lat="44.11626" lon="7.34117">
        <ele>2213.6</ele>
        <time>2014-09-01T09:26:59Z</time>
      </trkpt>
      <trkpt lat="44.11513" lon="7.34156">
        <ele>2210.12</ele>
        <time>2014-09-01T09:28:04Z</time>
      </trkpt>
      <trkpt lat="44.11528" lon="7.34145">
        <ele>2210.24</ele>
        <time>2014-09-01T09:29:08Z</time>
      </trkpt>
      <trkpt lat="44.11492" lon="7.34132">
        <ele>2210.73</ele>
        <time>2014-09-01T09:30:22Z</time>
      </trkpt>
      <trkpt lat="44.11538" lon="7.34146">
        <ele>2210.37</ele>
        <time>2014-09-01T09:31:26Z</time>
      </trkpt>
      <trkpt lat="44.1153" lon="7.34142">
        <ele>2209.47</ele>
        <time>2014-09-01T09:32:30Z</time>
      </trkpt>
      <trkpt lat="44.11474" lon="7.34125">
        <ele>2210.62</ele>
        <time>2014-09-01T09:33:34Z</time>
      </trkpt>
      <trkpt lat="44.11488" lon="7.34129">
        <ele>2210.76</ele>
        <time>2014-09-01T09:34:42Z</time>
      </trkpt>
      <trkpt lat="44.11464" lon="7.34127">
        <ele>2211.21</ele>
        <time>2014-09-01T09:35:52Z</time>
      </trkpt>
      <trkpt lat="44.11515" lon="7.34133">
        <ele>2210.72</ele>
        <time>2014-09-01T09:36:57Z</time>
      </trkpt>
      <trkpt lat="44.11509" lon="7.34137">
        <ele>2211.7</ele>
        <time>2014-09-01T09:39:15Z</time>
      </trkpt>
      <trkpt lat="44.11236" lon="7.3406">
        <ele>2209.86</ele>
        <time>2014-09-01T09:40:45Z</time>
      </trkpt>
      <trkpt lat="44.11246" lon="7.34065">
        <ele>2210.28</ele>
        <time>2014-09-01T09:41:58Z</time>
      </trkpt>
      <trkpt lat="44.11188" lon="7.34049">
        <ele>2209.91</ele>
        <time>2014-09-01T09:43:09Z</time>
      </trkpt>
      <trkpt lat="44.11194" lon="7.34045">
        <ele>2210.38</ele>
        <time>2014-09-01T09:44:34Z</time>
      </trkpt>
      <trkpt lat="44.1171" lon="7.34184">
        <ele>2210</ele>
        <time>2014-09-01T09:47:38Z</time>
      </trkpt>
      <trkpt lat="44.11535" lon="7.34191">
        <ele>2214.66</ele>
        <time>2014-09-01T11:17:14Z</time>
      </trkpt>
      <trkpt lat="44.11547" lon="7.34251">
        <ele>2221.59</ele>
        <time>2014-09-01T11:18:14Z</time>
      </trkpt>
      <trkpt lat="44.11553" lon="7.34287">
        <ele>2229.72</ele>
        <time>2014-09-01T11:19:14Z</time>
      </trkpt>
      <trkpt lat="44.11525" lon="7.34325">
        <ele>2237.74</ele>
        <time>2014-09-01T11:20:18Z</time>
      </trkpt>
      <trkpt lat="44.11487" lon="7.3437">
        <ele>2247.32</ele>
        <time>2014-09-01T11:21:21Z</time>
      </trkpt>
      <trkpt lat="44.1147" lon="7.34437">
        <ele>2256.81</ele>
        <time>2014-09-01T11:22:25Z</time>
      </trkpt>
      <trkpt lat="44.11459" lon="7.34475">
        <ele>2265.7</ele>
        <time>2014-09-01T11:23:28Z</time>
      </trkpt>
      <trkpt lat="44.11416" lon="7.34512">
        <ele>2278.6</ele>
        <time>2014-09-01T11:24:31Z</time>
      </trkpt>
      <trkpt lat="44.11387" lon="7.3459">
        <ele>2283.83</ele>
        <time>2014-09-01T11:25:35Z</time>
      </trkpt>
      <trkpt lat="44.11386" lon="7.34649">
        <ele>2282.21</ele>
        <time>2014-09-01T11:26:38Z</time>
      </trkpt>
      <trkpt lat="44.11353" lon="7.34717">
        <ele>2294.16</ele>
        <time>2014-09-01T11:27:41Z</time>
      </trkpt>
      <trkpt lat="44.11358" lon="7.34796">
        <ele>2303.6</ele>
        <time>2014-09-01T11:28:44Z</time>
      </trkpt>
      <trkpt lat="44.11339" lon="7.34883">
        <ele>2318.38</ele>
        <time>2014-09-01T11:29:47Z</time>
      </trkpt>
      <trkpt lat="44.1131" lon="7.34956">
        <ele>2328.51</ele>
        <time>2014-09-01T11:30:53Z</time>
      </trkpt>
      <trkpt lat="44.11291" lon="7.34979">
        <ele>2343.03</ele>
        <time>2014-09-01T11:31:56Z</time>
      </trkpt>
      <trkpt lat="44.11264" lon="7.35043">
        <ele>2358.96</ele>
        <time>2014-09-01T11:33:00Z</time>
      </trkpt>
      <trkpt lat="44.11255" lon="7.35054">
        <ele>2373.34</ele>
        <time>2014-09-01T11:34:04Z</time>
      </trkpt>
      <trkpt lat="44.11267" lon="7.35084">
        <ele>2381.85</ele>
        <time>2014-09-01T11:35:07Z</time>
      </trkpt>
      <trkpt lat="44.11276" lon="7.35125">
        <ele>2397.79</ele>
        <time>2014-09-01T11:36:13Z</time>
      </trkpt>
      <trkpt lat="44.11276" lon="7.35156">
        <ele>2414.77</ele>
        <time>2014-09-01T11:37:20Z</time>
      </trkpt>
      <trkpt lat="44.11236" lon="7.35251">
        <ele>2430.57</ele>
        <time>2014-09-01T11:38:24Z</time>
      </trkpt>
      <trkpt lat="44.11291" lon="7.3534">
        <ele>2448.73</ele>
        <time>2014-09-01T11:39:27Z</time>
      </trkpt>
      <trkpt lat="44.11208" lon="7.35304">
        <ele>2468.46</ele>
        <time>2014-09-01T11:40:34Z</time>
      </trkpt>
      <trkpt lat="44.11185" lon="7.35349">
        <ele>2485.69</ele>
        <time>2014-09-01T11:41:39Z</time>
      </trkpt>
      <trkpt lat="44.11254" lon="7.35331">
        <ele>2500.79</ele>
        <time>2014-09-01T11:42:44Z</time>
      </trkpt>
      <trkpt lat="44.1125" lon="7.3531">
        <ele>2447.58</ele>
        <time>2014-09-01T11:44:15Z</time>
      </trkpt>
      <trkpt lat="44.1126" lon="7.35316">
        <ele>2447.78</ele>
        <time>2014-09-01T11:45:15Z</time>
      </trkpt>
      <trkpt lat="44.1126" lon="7.35315">
        <ele>2446.17</ele>
        <time>2014-09-01T11:46:15Z</time>
      </trkpt>
      <trkpt lat="44.1127" lon="7.35315">
        <ele>2445.72</ele>
        <time>2014-09-01T11:47:19Z</time>
      </trkpt>
      <trkpt lat="44.11254" lon="7.35314">
        <ele>2444.71</ele>
        <time>2014-09-01T11:48:23Z</time>
      </trkpt>
      <trkpt lat="44.11252" lon="7.3531">
        <ele>2445.49</ele>
        <time>2014-09-01T11:49:27Z</time>
      </trkpt>
      <trkpt lat="44.11258" lon="7.35321">
        <ele>2446.96</ele>
        <time>2014-09-01T11:50:30Z</time>
      </trkpt>
      <trkpt lat="44.11257" lon="7.35322">
        <ele>2445.46</ele>
        <time>2014-09-01T11:51:34Z</time>
      </trkpt>
      <trkpt lat="44.11247" lon="7.35317">
        <ele>2445.62</ele>
        <time>2014-09-01T11:52:39Z</time>
      </trkpt>
      <trkpt lat="44.11249" lon="7.35315">
        <ele>2444.55</ele>
        <time>2014-09-01T11:53:43Z</time>
      </trkpt>
      <trkpt lat="44.11257" lon="7.35324">
        <ele>2445.18</ele>
        <time>2014-09-01T11:54:47Z</time>
      </trkpt>
      <trkpt lat="44.11248" lon="7.35316">
        <ele>2444.94</ele>
        <time>2014-09-01T11:55:51Z</time>
      </trkpt>
      <trkpt lat="44.11253" lon="7.35321">
        <ele>2445.11</ele>
        <time>2014-09-01T11:56:55Z</time>
      </trkpt>
      <trkpt lat="44.11255" lon="7.35327">
        <ele>2441.63</ele>
        <time>2014-09-01T11:57:59Z</time>
      </trkpt>
      <trkpt lat="44.11258" lon="7.35332">
        <ele>2440.9</ele>
        <time>2014-09-01T11:59:04Z</time>
      </trkpt>
      <trkpt lat="44.11257" lon="7.35334">
        <ele>2440.87</ele>
        <time>2014-09-01T12:00:08Z</time>
      </trkpt>
      <trkpt lat="44.11249" lon="7.3533">
        <ele>2442.18</ele>
        <time>2014-09-01T12:01:11Z</time>
      </trkpt>
      <trkpt lat="44.11251" lon="7.35343">
        <ele>2441.94</ele>
        <time>2014-09-01T12:02:14Z</time>
      </trkpt>
      <trkpt lat="44.11251" lon="7.35323">
        <ele>2441.83</ele>
        <time>2014-09-01T12:03:16Z</time>
      </trkpt>
      <trkpt lat="44.11272" lon="7.35316">
        <ele>2441.81</ele>
        <time>2014-09-01T12:04:19Z</time>
      </trkpt>
      <trkpt lat="44.11251" lon="7.3533">
        <ele>2442.25</ele>
        <time>2014-09-01T12:05:22Z</time>
      </trkpt>
      <trkpt lat="44.11257" lon="7.35332">
        <ele>2441.74</ele>
        <time>2014-09-01T12:06:24Z</time>
      </trkpt>
      <trkpt lat="44.1126" lon="7.35329">
        <ele>2442.1</ele>
        <time>2014-09-01T12:07:32Z</time>
      </trkpt>
      <trkpt lat="44.1126" lon="7.35334">
        <ele>2443.53</ele>
        <time>2014-09-01T12:08:35Z</time>
      </trkpt>
      <trkpt lat="44.11264" lon="7.35345">
        <ele>2444.32</ele>
        <time>2014-09-01T12:09:37Z</time>
      </trkpt>
      <trkpt lat="44.11268" lon="7.35373">
        <ele>2445.86</ele>
        <time>2014-09-01T12:10:41Z</time>
      </trkpt>
      <trkpt lat="44.11266" lon="7.35437">
        <ele>2449.19</ele>
        <time>2014-09-01T12:11:45Z</time>
      </trkpt>
      <trkpt lat="44.11261" lon="7.35492">
        <ele>2451.68</ele>
        <time>2014-09-01T12:12:48Z</time>
      </trkpt>
      <trkpt lat="44.11248" lon="7.35574">
        <ele>2452.25</ele>
        <time>2014-09-01T12:13:53Z</time>
      </trkpt>
      <trkpt lat="44.1125" lon="7.35601">
        <ele>2459.35</ele>
        <time>2014-09-01T12:14:58Z</time>
      </trkpt>
      <trkpt lat="44.11256" lon="7.35621">
        <ele>2468.83</ele>
        <time>2014-09-01T12:16:02Z</time>
      </trkpt>
      <trkpt lat="44.11284" lon="7.35661">
        <ele>2477.07</ele>
        <time>2014-09-01T12:17:06Z</time>
      </trkpt>
      <trkpt lat="44.11287" lon="7.35757">
        <ele>2480.91</ele>
        <time>2014-09-01T12:18:12Z</time>
      </trkpt>
      <trkpt lat="44.11339" lon="7.35745">
        <ele>2478.54</ele>
        <time>2014-09-01T12:19:14Z</time>
      </trkpt>
      <trkpt lat="44.11339" lon="7.35773">
        <ele>2462.63</ele>
        <time>2014-09-01T12:20:17Z</time>
      </trkpt>
      <trkpt lat="44.1132" lon="7.35797">
        <ele>2447.73</ele>
        <time>2014-09-01T12:21:20Z</time>
      </trkpt>
      <trkpt lat="44.11344" lon="7.35854">
        <ele>2438.47</ele>
        <time>2014-09-01T12:22:25Z</time>
      </trkpt>
      <trkpt lat="44.11359" lon="7.3584">
        <ele>2437.36</ele>
        <time>2014-09-01T12:23:25Z</time>
      </trkpt>
      <trkpt lat="44.11362" lon="7.35875">
        <ele>2440.18</ele>
        <time>2014-09-01T12:24:28Z</time>
      </trkpt>
      <trkpt lat="44.1139" lon="7.35849">
        <ele>2432.08</ele>
        <time>2014-09-01T12:25:32Z</time>
      </trkpt>
      <trkpt lat="44.11391" lon="7.3588">
        <ele>2429.7</ele>
        <time>2014-09-01T12:26:35Z</time>
      </trkpt>
      <trkpt lat="44.11396" lon="7.35939">
        <ele>2425.95</ele>
        <time>2014-09-01T12:27:37Z</time>
      </trkpt>
      <trkpt lat="44.11456" lon="7.35986">
        <ele>2431.06</ele>
        <time>2014-09-01T12:28:40Z</time>
      </trkpt>
      <trkpt lat="44.11455" lon="7.35998">
        <ele>2430.32</ele>
        <time>2014-09-01T12:29:42Z</time>
      </trkpt>
      <trkpt lat="44.11487" lon="7.3601">
        <ele>2437.29</ele>
        <time>2014-09-01T12:30:45Z</time>
      </trkpt>
      <trkpt lat="44.11542" lon="7.36018">
        <ele>2445.16</ele>
        <time>2014-09-01T12:31:47Z</time>
      </trkpt>
      <trkpt lat="44.1161" lon="7.36059">
        <ele>2455.24</ele>
        <time>2014-09-01T12:32:50Z</time>
      </trkpt>
      <trkpt lat="44.11618" lon="7.36148">
        <ele>2462.04</ele>
        <time>2014-09-01T12:33:53Z</time>
      </trkpt>
      <trkpt lat="44.11655" lon="7.36115">
        <ele>2471.95</ele>
        <time>2014-09-01T12:34:55Z</time>
      </trkpt>
      <trkpt lat="44.11647" lon="7.36108">
        <ele>2474.99</ele>
        <time>2014-09-01T12:35:58Z</time>
      </trkpt>
      <trkpt lat="44.11643" lon="7.36106">
        <ele>2474.13</ele>
        <time>2014-09-01T12:37:00Z</time>
      </trkpt>
      <trkpt lat="44.11626" lon="7.36088">
        <ele>2473.23</ele>
        <time>2014-09-01T12:38:03Z</time>
      </trkpt>
      <trkpt lat="44.1163" lon="7.36097">
        <ele>2473.43</ele>
        <time>2014-09-01T12:39:06Z</time>
      </trkpt>
      <trkpt lat="44.11629" lon="7.36101">
        <ele>2474.35</ele>
        <time>2014-09-01T12:40:08Z</time>
      </trkpt>
      <trkpt lat="44.11638" lon="7.36097">
        <ele>2474.22</ele>
        <time>2014-09-01T12:41:11Z</time>
      </trkpt>
      <trkpt lat="44.11634" lon="7.36101">
        <ele>2473.41</ele>
        <time>2014-09-01T12:42:13Z</time>
      </trkpt>
      <trkpt lat="44.11633" lon="7.36089">
        <ele>2473.22</ele>
        <time>2014-09-01T12:43:16Z</time>
      </trkpt>
      <trkpt lat="44.11636" lon="7.361">
        <ele>2473.84</ele>
        <time>2014-09-01T12:44:19Z</time>
      </trkpt>
      <trkpt lat="44.11632" lon="7.36098">
        <ele>2472.67</ele>
        <time>2014-09-01T12:45:21Z</time>
      </trkpt>
      <trkpt lat="44.11629" lon="7.36097">
        <ele>2474.32</ele>
        <time>2014-09-01T12:46:24Z</time>
      </trkpt>
      <trkpt lat="44.1163" lon="7.36098">
        <ele>2472.69</ele>
        <time>2014-09-01T12:47:26Z</time>
      </trkpt>
      <trkpt lat="44.11624" lon="7.36094">
        <ele>2473.43</ele>
        <time>2014-09-01T12:48:29Z</time>
      </trkpt>
      <trkpt lat="44.11628" lon="7.36074">
        <ele>2480.21</ele>
        <time>2014-09-01T12:49:32Z</time>
      </trkpt>
      <trkpt lat="44.11632" lon="7.36099">
        <ele>2479.43</ele>
        <time>2014-09-01T12:50:34Z</time>
      </trkpt>
      <trkpt lat="44.11626" lon="7.36094">
        <ele>2475.89</ele>
        <time>2014-09-01T12:51:37Z</time>
      </trkpt>
      <trkpt lat="44.11625" lon="7.36093">
        <ele>2475.89</ele>
        <time>2014-09-01T12:52:39Z</time>
      </trkpt>
      <trkpt lat="44.11633" lon="7.36094">
        <ele>2475.59</ele>
        <time>2014-09-01T12:53:42Z</time>
      </trkpt>
      <trkpt lat="44.11655" lon="7.36088">
        <ele>2474.12</ele>
        <time>2014-09-01T12:54:45Z</time>
      </trkpt>
      <trkpt lat="44.11645" lon="7.36097">
        <ele>2474.47</ele>
        <time>2014-09-01T12:55:47Z</time>
      </trkpt>
      <trkpt lat="44.11644" lon="7.36105">
        <ele>2473.93</ele>
        <time>2014-09-01T12:56:50Z</time>
      </trkpt>
      <trkpt lat="44.11649" lon="7.36115">
        <ele>2472.51</ele>
        <time>2014-09-01T12:57:52Z</time>
      </trkpt>
      <trkpt lat="44.11648" lon="7.36098">
        <ele>2473.95</ele>
        <time>2014-09-01T12:58:55Z</time>
      </trkpt>
      <trkpt lat="44.11634" lon="7.36102">
        <ele>2474.19</ele>
        <time>2014-09-01T12:59:58Z</time>
      </trkpt>
      <trkpt lat="44.11626" lon="7.36087">
        <ele>2473.55</ele>
        <time>2014-09-01T13:01:00Z</time>
      </trkpt>
      <trkpt lat="44.11636" lon="7.3611">
        <ele>2473.58</ele>
        <time>2014-09-01T13:02:03Z</time>
      </trkpt>
      <trkpt lat="44.11633" lon="7.36102">
        <ele>2474.09</ele>
        <time>2014-09-01T13:03:05Z</time>
      </trkpt>
      <trkpt lat="44.11627" lon="7.36098">
        <ele>2473.41</ele>
        <time>2014-09-01T13:04:08Z</time>
      </trkpt>
      <trkpt lat="44.11624" lon="7.36087">
        <ele>2468.88</ele>
        <time>2014-09-01T13:05:11Z</time>
      </trkpt>
      <trkpt lat="44.11583" lon="7.36132">
        <ele>2456.82</ele>
        <time>2014-09-01T13:06:13Z</time>
      </trkpt>
      <trkpt lat="44.11575" lon="7.3608">
        <ele>2445.92</ele>
        <time>2014-09-01T13:07:16Z</time>
      </trkpt>
      <trkpt lat="44.11512" lon="7.36117">
        <ele>2434.61</ele>
        <time>2014-09-01T13:08:19Z</time>
      </trkpt>
      <trkpt lat="44.11469" lon="7.36143">
        <ele>2421.25</ele>
        <time>2014-09-01T13:09:21Z</time>
      </trkpt>
      <trkpt lat="44.11432" lon="7.36139">
        <ele>2407.49</ele>
        <time>2014-09-01T13:10:24Z</time>
      </trkpt>
      <trkpt lat="44.11392" lon="7.36146">
        <ele>2395.96</ele>
        <time>2014-09-01T13:11:26Z</time>
      </trkpt>
      <trkpt lat="44.11361" lon="7.36102">
        <ele>2386.04</ele>
        <time>2014-09-01T13:12:29Z</time>
      </trkpt>
      <trkpt lat="44.11355" lon="7.36135">
        <ele>2371.38</ele>
        <time>2014-09-01T13:13:32Z</time>
      </trkpt>
      <trkpt lat="44.11294" lon="7.36158">
        <ele>2359.89</ele>
        <time>2014-09-01T13:14:34Z</time>
      </trkpt>
      <trkpt lat="44.11268" lon="7.36188">
        <ele>2346.96</ele>
        <time>2014-09-01T13:15:37Z</time>
      </trkpt>
      <trkpt lat="44.11224" lon="7.36186">
        <ele>2332.78</ele>
        <time>2014-09-01T13:16:40Z</time>
      </trkpt>
      <trkpt lat="44.11195" lon="7.36095">
        <ele>2320.57</ele>
        <time>2014-09-01T13:17:42Z</time>
      </trkpt>
      <trkpt lat="44.11197" lon="7.36139">
        <ele>2311.56</ele>
        <time>2014-09-01T13:18:47Z</time>
      </trkpt>
      <trkpt lat="44.11154" lon="7.36152">
        <ele>2300.27</ele>
        <time>2014-09-01T13:19:50Z</time>
      </trkpt>
      <trkpt lat="44.1119" lon="7.3619">
        <ele>2290.37</ele>
        <time>2014-09-01T13:20:52Z</time>
      </trkpt>
      <trkpt lat="44.11087" lon="7.36222">
        <ele>2280.09</ele>
        <time>2014-09-01T13:21:55Z</time>
      </trkpt>
      <trkpt lat="44.11055" lon="7.3623">
        <ele>2271.86</ele>
        <time>2014-09-01T13:22:57Z</time>
      </trkpt>
      <trkpt lat="44.11051" lon="7.36239">
        <ele>2267.91</ele>
        <time>2014-09-01T13:24:00Z</time>
      </trkpt>
      <trkpt lat="44.11129" lon="7.3626">
        <ele>2268.16</ele>
        <time>2014-09-01T13:25:05Z</time>
      </trkpt>
      <trkpt lat="44.11125" lon="7.3626">
        <ele>2268.76</ele>
        <time>2014-09-01T13:26:09Z</time>
      </trkpt>
      <trkpt lat="44.11134" lon="7.36257">
        <ele>2269.71</ele>
        <time>2014-09-01T13:27:13Z</time>
      </trkpt>
      <trkpt lat="44.11156" lon="7.36243">
        <ele>2268.9</ele>
        <time>2014-09-01T13:28:18Z</time>
      </trkpt>
      <trkpt lat="44.11119" lon="7.3626">
        <ele>2269.81</ele>
        <time>2014-09-01T13:29:21Z</time>
      </trkpt>
      <trkpt lat="44.11117" lon="7.36241">
        <ele>2269.21</ele>
        <time>2014-09-01T13:30:24Z</time>
      </trkpt>
      <trkpt lat="44.11123" lon="7.36255">
        <ele>2269.57</ele>
        <time>2014-09-01T13:31:28Z</time>
      </trkpt>
      <trkpt lat="44.11123" lon="7.36258">
        <ele>2269.37</ele>
        <time>2014-09-01T13:32:33Z</time>
      </trkpt>
      <trkpt lat="44.11098" lon="7.3625">
        <ele>2269.43</ele>
        <time>2014-09-01T13:33:37Z</time>
      </trkpt>
      <trkpt lat="44.11083" lon="7.36274">
        <ele>2269.89</ele>
        <time>2014-09-01T13:34:40Z</time>
      </trkpt>
      <trkpt lat="44.11117" lon="7.36248">
        <ele>2270.28</ele>
        <time>2014-09-01T13:35:45Z</time>
      </trkpt>
      <trkpt lat="44.11108" lon="7.36251">
        <ele>2269.65</ele>
        <time>2014-09-01T13:36:49Z</time>
      </trkpt>
      <trkpt lat="44.111" lon="7.36217">
        <ele>2270.14</ele>
        <time>2014-09-01T13:37:53Z</time>
      </trkpt>
      <trkpt lat="44.11123" lon="7.36226">
        <ele>2269.91</ele>
        <time>2014-09-01T13:38:57Z</time>
      </trkpt>
      <trkpt lat="44.11083" lon="7.36193">
        <ele>2270.67</ele>
        <time>2014-09-01T13:40:00Z</time>
      </trkpt>
      <trkpt lat="44.1108" lon="7.36197">
        <ele>2270.13</ele>
        <time>2014-09-01T13:41:03Z</time>
      </trkpt>
      <trkpt lat="44.11084" lon="7.36196">
        <ele>2270.05</ele>
        <time>2014-09-01T13:42:06Z</time>
      </trkpt>
      <trkpt lat="44.11078" lon="7.36207">
        <ele>2269.1</ele>
        <time>2014-09-01T13:43:12Z</time>
      </trkpt>
      <trkpt lat="44.11019" lon="7.36205">
        <ele>2267.86</ele>
        <time>2014-09-01T13:44:14Z</time>
      </trkpt>
      <trkpt lat="44.10968" lon="7.36192">
        <ele>2272.94</ele>
        <time>2014-09-01T13:45:17Z</time>
      </trkpt>
      <trkpt lat="44.10897" lon="7.36184">
        <ele>2274.54</ele>
        <time>2014-09-01T13:46:20Z</time>
      </trkpt>
      <trkpt lat="44.10843" lon="7.36121">
        <ele>2265.11</ele>
        <time>2014-09-01T13:47:23Z</time>
      </trkpt>
      <trkpt lat="44.10798" lon="7.3607">
        <ele>2252.51</ele>
        <time>2014-09-01T13:48:25Z</time>
      </trkpt>
      <trkpt lat="44.10756" lon="7.36025">
        <ele>2244.75</ele>
        <time>2014-09-01T13:49:28Z</time>
      </trkpt>
      <trkpt lat="44.10695" lon="7.36077">
        <ele>2230.27</ele>
        <time>2014-09-01T13:50:32Z</time>
      </trkpt>
      <trkpt lat="44.10639" lon="7.36112">
        <ele>2219.61</ele>
        <time>2014-09-01T13:51:35Z</time>
      </trkpt>
      <trkpt lat="44.10622" lon="7.36131">
        <ele>2213.24</ele>
        <time>2014-09-01T13:52:38Z</time>
      </trkpt>
      <trkpt lat="44.10556" lon="7.36182">
        <ele>2194.05</ele>
        <time>2014-09-01T13:53:42Z</time>
      </trkpt>
      <trkpt lat="44.1053" lon="7.36217">
        <ele>2185.76</ele>
        <time>2014-09-01T13:54:45Z</time>
      </trkpt>
      <trkpt lat="44.10514" lon="7.36269">
        <ele>2173.99</ele>
        <time>2014-09-01T13:55:47Z</time>
      </trkpt>
      <trkpt lat="44.10482" lon="7.362">
        <ele>2164.33</ele>
        <time>2014-09-01T13:56:50Z</time>
      </trkpt>
      <trkpt lat="44.10471" lon="7.36223">
        <ele>2156.31</ele>
        <time>2014-09-01T13:57:53Z</time>
      </trkpt>
      <trkpt lat="44.10417" lon="7.36217">
        <ele>2143.4</ele>
        <time>2014-09-01T13:58:56Z</time>
      </trkpt>
      <trkpt lat="44.104" lon="7.36156">
        <ele>2132.35</ele>
        <time>2014-09-01T13:59:59Z</time>
      </trkpt>
      <trkpt lat="44.10348" lon="7.36157">
        <ele>2121</ele>
        <time>2014-09-01T14:01:01Z</time>
      </trkpt>
      <trkpt lat="44.10329" lon="7.36138">
        <ele>2109.21</ele>
        <time>2014-09-01T14:02:04Z</time>
      </trkpt>
      <trkpt lat="44.10272" lon="7.36068">
        <ele>2099.38</ele>
        <time>2014-09-01T14:03:07Z</time>
      </trkpt>
      <trkpt lat="44.10214" lon="7.36008">
        <ele>2089.12</ele>
        <time>2014-09-01T14:04:10Z</time>
      </trkpt>
      <trkpt lat="44.10173" lon="7.36001">
        <ele>2080.07</ele>
        <time>2014-09-01T14:05:13Z</time>
      </trkpt>
      <trkpt lat="44.10113" lon="7.36012">
        <ele>2076.4</ele>
        <time>2014-09-01T14:06:15Z</time>
      </trkpt>
      <trkpt lat="44.10063" lon="7.36027">
        <ele>2063.27</ele>
        <time>2014-09-01T14:07:19Z</time>
      </trkpt>
      <trkpt lat="44.10023" lon="7.36023">
        <ele>2051.7</ele>
        <time>2014-09-01T14:08:21Z</time>
      </trkpt>
      <trkpt lat="44.09939" lon="7.36029">
        <ele>2042.44</ele>
        <time>2014-09-01T14:09:24Z</time>
      </trkpt>
      <trkpt lat="44.09883" lon="7.35981">
        <ele>2032.5</ele>
        <time>2014-09-01T14:10:26Z</time>
      </trkpt>
      <trkpt lat="44.0984" lon="7.35867">
        <ele>2024.4</ele>
        <time>2014-09-01T14:11:31Z</time>
      </trkpt>
      <trkpt lat="44.09846" lon="7.35841">
        <ele>2012.84</ele>
        <time>2014-09-01T14:12:33Z</time>
      </trkpt>
      <trkpt lat="44.09828" lon="7.35894">
        <ele>2002.68</ele>
        <time>2014-09-01T14:13:36Z</time>
      </trkpt>
      <trkpt lat="44.0979" lon="7.35833">
        <ele>1992.22</ele>
        <time>2014-09-01T14:14:38Z</time>
      </trkpt>
      <trkpt lat="44.09756" lon="7.35824">
        <ele>1980.01</ele>
        <time>2014-09-01T14:15:42Z</time>
      </trkpt>
      <trkpt lat="44.09709" lon="7.3574">
        <ele>1968.3</ele>
        <time>2014-09-01T14:16:44Z</time>
      </trkpt>
      <trkpt lat="44.09668" lon="7.35705">
        <ele>1957.25</ele>
        <time>2014-09-01T14:17:47Z</time>
      </trkpt>
      <trkpt lat="44.09622" lon="7.35705">
        <ele>1947.6</ele>
        <time>2014-09-01T14:18:51Z</time>
      </trkpt>
      <trkpt lat="44.0961" lon="7.35658">
        <ele>1936.32</ele>
        <time>2014-09-01T14:19:54Z</time>
      </trkpt>
      <trkpt lat="44.09609" lon="7.35654">
        <ele>1925.68</ele>
        <time>2014-09-01T14:20:57Z</time>
      </trkpt>
      <trkpt lat="44.09588" lon="7.35654">
        <ele>1927.14</ele>
        <time>2014-09-01T14:21:31Z</time>
      </trkpt>
      <trkpt lat="44.09567" lon="7.35607">
        <ele>1917.56</ele>
        <time>2014-09-02T05:31:27Z</time>
      </trkpt>
      <trkpt lat="44.09567" lon="7.3561">
        <ele>1916.95</ele>
        <time>2014-09-02T05:32:27Z</time>
      </trkpt>
      <trkpt lat="44.09561" lon="7.35631">
        <ele>1913.11</ele>
        <time>2014-09-02T05:33:27Z</time>
      </trkpt>
      <trkpt lat="44.0956" lon="7.35676">
        <ele>1913.31</ele>
        <time>2014-09-02T05:34:27Z</time>
      </trkpt>
      <trkpt lat="44.09581" lon="7.35746">
        <ele>1908.25</ele>
        <time>2014-09-02T05:35:27Z</time>
      </trkpt>
      <trkpt lat="44.0958" lon="7.3581">
        <ele>1897.78</ele>
        <time>2014-09-02T05:36:27Z</time>
      </trkpt>
      <trkpt lat="44.0959" lon="7.35892">
        <ele>1894.34</ele>
        <time>2014-09-02T05:37:27Z</time>
      </trkpt>
      <trkpt lat="44.09564" lon="7.35963">
        <ele>1884.67</ele>
        <time>2014-09-02T05:38:31Z</time>
      </trkpt>
      <trkpt lat="44.0954" lon="7.35995">
        <ele>1875.47</ele>
        <time>2014-09-02T05:39:33Z</time>
      </trkpt>
      <trkpt lat="44.096" lon="7.36033">
        <ele>1882.29</ele>
        <time>2014-09-02T05:40:37Z</time>
      </trkpt>
      <trkpt lat="44.09603" lon="7.36134">
        <ele>1889.84</ele>
        <time>2014-09-02T05:41:41Z</time>
      </trkpt>
      <trkpt lat="44.09632" lon="7.36155">
        <ele>1893.33</ele>
        <time>2014-09-02T05:42:43Z</time>
      </trkpt>
      <trkpt lat="44.0962" lon="7.36188">
        <ele>1901.31</ele>
        <time>2014-09-02T05:43:46Z</time>
      </trkpt>
      <trkpt lat="44.09595" lon="7.3623">
        <ele>1910.81</ele>
        <time>2014-09-02T05:44:49Z</time>
      </trkpt>
      <trkpt lat="44.09575" lon="7.36347">
        <ele>1919.5</ele>
        <time>2014-09-02T05:45:51Z</time>
      </trkpt>
      <trkpt lat="44.09534" lon="7.36412">
        <ele>1930.62</ele>
        <time>2014-09-02T05:46:56Z</time>
      </trkpt>
      <trkpt lat="44.09572" lon="7.36416">
        <ele>1939.64</ele>
        <time>2014-09-02T05:47:59Z</time>
      </trkpt>
      <trkpt lat="44.09599" lon="7.3648">
        <ele>1948.66</ele>
        <time>2014-09-02T05:49:01Z</time>
      </trkpt>
      <trkpt lat="44.09595" lon="7.36493">
        <ele>1959.26</ele>
        <time>2014-09-02T05:50:04Z</time>
      </trkpt>
      <trkpt lat="44.09563" lon="7.36505">
        <ele>1968.51</ele>
        <time>2014-09-02T05:51:08Z</time>
      </trkpt>
      <trkpt lat="44.09549" lon="7.36519">
        <ele>1977.97</ele>
        <time>2014-09-02T05:52:11Z</time>
      </trkpt>
      <trkpt lat="44.09513" lon="7.3653">
        <ele>1987.15</ele>
        <time>2014-09-02T05:53:23Z</time>
      </trkpt>
      <trkpt lat="44.09528" lon="7.36498">
        <ele>1998.21</ele>
        <time>2014-09-02T05:54:27Z</time>
      </trkpt>
      <trkpt lat="44.09522" lon="7.3656">
        <ele>2005.91</ele>
        <time>2014-09-02T05:55:39Z</time>
      </trkpt>
      <trkpt lat="44.09503" lon="7.36535">
        <ele>2005.92</ele>
        <time>2014-09-02T05:56:39Z</time>
      </trkpt>
      <trkpt lat="44.09486" lon="7.36529">
        <ele>2006.14</ele>
        <time>2014-09-02T05:57:42Z</time>
      </trkpt>
      <trkpt lat="44.09456" lon="7.36568">
        <ele>2009.5</ele>
        <time>2014-09-02T05:58:45Z</time>
      </trkpt>
      <trkpt lat="44.09412" lon="7.36574">
        <ele>2017.85</ele>
        <time>2014-09-02T05:59:49Z</time>
      </trkpt>
      <trkpt lat="44.09354" lon="7.36612">
        <ele>2028.95</ele>
        <time>2014-09-02T06:00:51Z</time>
      </trkpt>
      <trkpt lat="44.09363" lon="7.36639">
        <ele>2039.87</ele>
        <time>2014-09-02T06:01:56Z</time>
      </trkpt>
      <trkpt lat="44.09372" lon="7.36676">
        <ele>2050.76</ele>
        <time>2014-09-02T06:02:59Z</time>
      </trkpt>
      <trkpt lat="44.09368" lon="7.36644">
        <ele>2061</ele>
        <time>2014-09-02T06:04:02Z</time>
      </trkpt>
      <trkpt lat="44.09325" lon="7.36756">
        <ele>2072.19</ele>
        <time>2014-09-02T06:05:04Z</time>
      </trkpt>
      <trkpt lat="44.09302" lon="7.36794">
        <ele>2083.67</ele>
        <time>2014-09-02T06:06:08Z</time>
      </trkpt>
      <trkpt lat="44.09302" lon="7.3682">
        <ele>2094.21</ele>
        <time>2014-09-02T06:07:11Z</time>
      </trkpt>
      <trkpt lat="44.09281" lon="7.36821">
        <ele>2103.46</ele>
        <time>2014-09-02T06:08:15Z</time>
      </trkpt>
      <trkpt lat="44.09239" lon="7.3675">
        <ele>2104.66</ele>
        <time>2014-09-02T06:09:20Z</time>
      </trkpt>
      <trkpt lat="44.09207" lon="7.36785">
        <ele>2107.58</ele>
        <time>2014-09-02T06:10:20Z</time>
      </trkpt>
      <trkpt lat="44.09208" lon="7.36791">
        <ele>2108.14</ele>
        <time>2014-09-02T06:11:20Z</time>
      </trkpt>
      <trkpt lat="44.09202" lon="7.36782">
        <ele>2107.77</ele>
        <time>2014-09-02T06:12:20Z</time>
      </trkpt>
      <trkpt lat="44.09208" lon="7.36786">
        <ele>2107.93</ele>
        <time>2014-09-02T06:13:20Z</time>
      </trkpt>
      <trkpt lat="44.09209" lon="7.36786">
        <ele>2107.32</ele>
        <time>2014-09-02T06:14:20Z</time>
      </trkpt>
      <trkpt lat="44.09208" lon="7.36786">
        <ele>2107.22</ele>
        <time>2014-09-02T06:15:20Z</time>
      </trkpt>
      <trkpt lat="44.09206" lon="7.36783">
        <ele>2107.06</ele>
        <time>2014-09-02T06:16:23Z</time>
      </trkpt>
      <trkpt lat="44.09209" lon="7.36785">
        <ele>2107.27</ele>
        <time>2014-09-02T06:17:26Z</time>
      </trkpt>
      <trkpt lat="44.09213" lon="7.3681">
        <ele>2107.59</ele>
        <time>2014-09-02T06:18:28Z</time>
      </trkpt>
      <trkpt lat="44.09212" lon="7.36791">
        <ele>2107.3</ele>
        <time>2014-09-02T06:19:32Z</time>
      </trkpt>
      <trkpt lat="44.09209" lon="7.36798">
        <ele>2107.2</ele>
        <time>2014-09-02T06:20:34Z</time>
      </trkpt>
      <trkpt lat="44.09201" lon="7.36786">
        <ele>2108.26</ele>
        <time>2014-09-02T06:21:38Z</time>
      </trkpt>
      <trkpt lat="44.0918" lon="7.36864">
        <ele>2108.99</ele>
        <time>2014-09-02T06:22:41Z</time>
      </trkpt>
      <trkpt lat="44.09148" lon="7.3693">
        <ele>2111.16</ele>
        <time>2014-09-02T06:23:45Z</time>
      </trkpt>
      <trkpt lat="44.09099" lon="7.36983">
        <ele>2117.05</ele>
        <time>2014-09-02T06:24:48Z</time>
      </trkpt>
      <trkpt lat="44.09077" lon="7.37007">
        <ele>2126.39</ele>
        <time>2014-09-02T06:25:51Z</time>
      </trkpt>
      <trkpt lat="44.09089" lon="7.37065">
        <ele>2137.58</ele>
        <time>2014-09-02T06:26:54Z</time>
      </trkpt>
      <trkpt lat="44.09083" lon="7.37117">
        <ele>2147.44</ele>
        <time>2014-09-02T06:27:58Z</time>
      </trkpt>
      <trkpt lat="44.09063" lon="7.37139">
        <ele>2153.86</ele>
        <time>2014-09-02T06:29:02Z</time>
      </trkpt>
      <trkpt lat="44.09032" lon="7.3718">
        <ele>2163.55</ele>
        <time>2014-09-02T06:30:07Z</time>
      </trkpt>
      <trkpt lat="44.09043" lon="7.37237">
        <ele>2172.38</ele>
        <time>2014-09-02T06:31:10Z</time>
      </trkpt>
      <trkpt lat="44.0904" lon="7.37262">
        <ele>2181.07</ele>
        <time>2014-09-02T06:32:14Z</time>
      </trkpt>
      <trkpt lat="44.09039" lon="7.3729">
        <ele>2190.76</ele>
        <time>2014-09-02T06:33:17Z</time>
      </trkpt>
      <trkpt lat="44.09031" lon="7.37309">
        <ele>2201.02</ele>
        <time>2014-09-02T06:34:21Z</time>
      </trkpt>
      <trkpt lat="44.08998" lon="7.37319">
        <ele>2211.51</ele>
        <time>2014-09-02T06:35:25Z</time>
      </trkpt>
      <trkpt lat="44.09005" lon="7.37349">
        <ele>2220.89</ele>
        <time>2014-09-02T06:36:28Z</time>
      </trkpt>
      <trkpt lat="44.09075" lon="7.37439">
        <ele>2231.56</ele>
        <time>2014-09-02T06:37:31Z</time>
      </trkpt>
      <trkpt lat="44.09071" lon="7.37445">
        <ele>2240.77</ele>
        <time>2014-09-02T06:38:35Z</time>
      </trkpt>
      <trkpt lat="44.09091" lon="7.37476">
        <ele>2245.49</ele>
        <time>2014-09-02T06:39:38Z</time>
      </trkpt>
      <trkpt lat="44.09089" lon="7.37516">
        <ele>2252.07</ele>
        <time>2014-09-02T06:40:42Z</time>
      </trkpt>
      <trkpt lat="44.09118" lon="7.37475">
        <ele>2253.13</ele>
        <time>2014-09-02T06:41:44Z</time>
      </trkpt>
      <trkpt lat="44.09082" lon="7.3744">
        <ele>2253.33</ele>
        <time>2014-09-02T06:42:48Z</time>
      </trkpt>
      <trkpt lat="44.09103" lon="7.37457">
        <ele>2253.7</ele>
        <time>2014-09-02T06:43:51Z</time>
      </trkpt>
      <trkpt lat="44.09094" lon="7.3748">
        <ele>2253.6</ele>
        <time>2014-09-02T06:44:57Z</time>
      </trkpt>
      <trkpt lat="44.09086" lon="7.37477">
        <ele>2253.53</ele>
        <time>2014-09-02T06:46:02Z</time>
      </trkpt>
      <trkpt lat="44.09081" lon="7.3744">
        <ele>2252.88</ele>
        <time>2014-09-02T06:47:04Z</time>
      </trkpt>
      <trkpt lat="44.09102" lon="7.37434">
        <ele>2252.95</ele>
        <time>2014-09-02T06:48:08Z</time>
      </trkpt>
      <trkpt lat="44.09083" lon="7.3743">
        <ele>2252.99</ele>
        <time>2014-09-02T06:49:11Z</time>
      </trkpt>
      <trkpt lat="44.09088" lon="7.37459">
        <ele>2253.61</ele>
        <time>2014-09-02T06:50:14Z</time>
      </trkpt>
      <trkpt lat="44.09077" lon="7.37428">
        <ele>2253.74</ele>
        <time>2014-09-02T06:51:16Z</time>
      </trkpt>
      <trkpt lat="44.09082" lon="7.37461">
        <ele>2257.93</ele>
        <time>2014-09-02T06:52:20Z</time>
      </trkpt>
      <trkpt lat="44.09078" lon="7.37505">
        <ele>2265.85</ele>
        <time>2014-09-02T06:53:23Z</time>
      </trkpt>
      <trkpt lat="44.09073" lon="7.37562">
        <ele>2276.05</ele>
        <time>2014-09-02T06:54:27Z</time>
      </trkpt>
      <trkpt lat="44.09081" lon="7.37598">
        <ele>2287.04</ele>
        <time>2014-09-02T06:55:30Z</time>
      </trkpt>
      <trkpt lat="44.09074" lon="7.37664">
        <ele>2297.85</ele>
        <time>2014-09-02T06:56:35Z</time>
      </trkpt>
      <trkpt lat="44.09084" lon="7.37665">
        <ele>2309.79</ele>
        <time>2014-09-02T06:57:37Z</time>
      </trkpt>
      <trkpt lat="44.09128" lon="7.37704">
        <ele>2321.57</ele>
        <time>2014-09-02T06:58:41Z</time>
      </trkpt>
      <trkpt lat="44.09148" lon="7.37706">
        <ele>2332.64</ele>
        <time>2014-09-02T06:59:44Z</time>
      </trkpt>
      <trkpt lat="44.09165" lon="7.37753">
        <ele>2344.08</ele>
        <time>2014-09-02T07:00:46Z</time>
      </trkpt>
      <trkpt lat="44.09182" lon="7.37801">
        <ele>2357.51</ele>
        <time>2014-09-02T07:01:54Z</time>
      </trkpt>
      <trkpt lat="44.09187" lon="7.3782">
        <ele>2370.93</ele>
        <time>2014-09-02T07:02:58Z</time>
      </trkpt>
      <trkpt lat="44.0917" lon="7.37815">
        <ele>2371.73</ele>
        <time>2014-09-02T07:04:09Z</time>
      </trkpt>
      <trkpt lat="44.09156" lon="7.37781">
        <ele>2372.57</ele>
        <time>2014-09-02T07:05:13Z</time>
      </trkpt>
      <trkpt lat="44.09162" lon="7.37805">
        <ele>2372.52</ele>
        <time>2014-09-02T07:06:15Z</time>
      </trkpt>
      <trkpt lat="44.09133" lon="7.37785">
        <ele>2372.26</ele>
        <time>2014-09-02T07:07:16Z</time>
      </trkpt>
      <trkpt lat="44.09143" lon="7.37779">
        <ele>2372.33</ele>
        <time>2014-09-02T07:08:16Z</time>
      </trkpt>
      <trkpt lat="44.0914" lon="7.37783">
        <ele>2372.16</ele>
        <time>2014-09-02T07:09:19Z</time>
      </trkpt>
      <trkpt lat="44.09139" lon="7.37776">
        <ele>2371.98</ele>
        <time>2014-09-02T07:10:22Z</time>
      </trkpt>
      <trkpt lat="44.09153" lon="7.3777">
        <ele>2373.05</ele>
        <time>2014-09-02T07:11:25Z</time>
      </trkpt>
      <trkpt lat="44.09141" lon="7.37847">
        <ele>2383.49</ele>
        <time>2014-09-02T07:12:29Z</time>
      </trkpt>
      <trkpt lat="44.09191" lon="7.3788">
        <ele>2396.67</ele>
        <time>2014-09-02T07:13:32Z</time>
      </trkpt>
      <trkpt lat="44.09165" lon="7.3791">
        <ele>2400.81</ele>
        <time>2014-09-02T07:14:38Z</time>
      </trkpt>
      <trkpt lat="44.09191" lon="7.37951">
        <ele>2408.11</ele>
        <time>2014-09-02T07:15:41Z</time>
      </trkpt>
      <trkpt lat="44.09199" lon="7.37966">
        <ele>2414.16</ele>
        <time>2014-09-02T07:16:43Z</time>
      </trkpt>
      <trkpt lat="44.09185" lon="7.37983">
        <ele>2416.68</ele>
        <time>2014-09-02T07:17:43Z</time>
      </trkpt>
      <trkpt lat="44.09199" lon="7.38026">
        <ele>2426.76</ele>
        <time>2014-09-02T07:18:43Z</time>
      </trkpt>
      <trkpt lat="44.09188" lon="7.38072">
        <ele>2431.32</ele>
        <time>2014-09-02T07:19:47Z</time>
      </trkpt>
      <trkpt lat="44.09221" lon="7.38056">
        <ele>2431.09</ele>
        <time>2014-09-02T07:20:49Z</time>
      </trkpt>
      <trkpt lat="44.09236" lon="7.3813">
        <ele>2436.82</ele>
        <time>2014-09-02T07:21:54Z</time>
      </trkpt>
      <trkpt lat="44.09247" lon="7.38176">
        <ele>2441.1</ele>
        <time>2014-09-02T07:22:56Z</time>
      </trkpt>
      <trkpt lat="44.09272" lon="7.38199">
        <ele>2444.89</ele>
        <time>2014-09-02T07:23:59Z</time>
      </trkpt>
      <trkpt lat="44.09286" lon="7.38215">
        <ele>2446.91</ele>
        <time>2014-09-02T07:25:04Z</time>
      </trkpt>
      <trkpt lat="44.09303" lon="7.38257">
        <ele>2454.91</ele>
        <time>2014-09-02T07:26:08Z</time>
      </trkpt>
      <trkpt lat="44.09339" lon="7.38266">
        <ele>2465.2</ele>
        <time>2014-09-02T07:27:11Z</time>
      </trkpt>
      <trkpt lat="44.09343" lon="7.38288">
        <ele>2472.78</ele>
        <time>2014-09-02T07:28:14Z</time>
      </trkpt>
      <trkpt lat="44.09379" lon="7.38317">
        <ele>2478.58</ele>
        <time>2014-09-02T07:29:17Z</time>
      </trkpt>
      <trkpt lat="44.09376" lon="7.38347">
        <ele>2485.36</ele>
        <time>2014-09-02T07:30:19Z</time>
      </trkpt>
      <trkpt lat="44.09416" lon="7.38366">
        <ele>2493.09</ele>
        <time>2014-09-02T07:31:22Z</time>
      </trkpt>
      <trkpt lat="44.09407" lon="7.38357">
        <ele>2498.77</ele>
        <time>2014-09-02T07:32:25Z</time>
      </trkpt>
      <trkpt lat="44.09414" lon="7.3834">
        <ele>2510.43</ele>
        <time>2014-09-02T07:33:28Z</time>
      </trkpt>
      <trkpt lat="44.09472" lon="7.38373">
        <ele>2521.88</ele>
        <time>2014-09-02T07:34:30Z</time>
      </trkpt>
      <trkpt lat="44.09494" lon="7.38407">
        <ele>2530.03</ele>
        <time>2014-09-02T07:35:33Z</time>
      </trkpt>
      <trkpt lat="44.09514" lon="7.38414">
        <ele>2538.78</ele>
        <time>2014-09-02T07:36:36Z</time>
      </trkpt>
      <trkpt lat="44.09537" lon="7.38417">
        <ele>2547.15</ele>
        <time>2014-09-02T07:37:39Z</time>
      </trkpt>
      <trkpt lat="44.0959" lon="7.38451">
        <ele>2554.41</ele>
        <time>2014-09-02T07:38:41Z</time>
      </trkpt>
      <trkpt lat="44.09603" lon="7.38443">
        <ele>2562.99</ele>
        <time>2014-09-02T07:39:46Z</time>
      </trkpt>
      <trkpt lat="44.09612" lon="7.38428">
        <ele>2563.31</ele>
        <time>2014-09-02T07:40:50Z</time>
      </trkpt>
      <trkpt lat="44.09609" lon="7.38433">
        <ele>2563.22</ele>
        <time>2014-09-02T07:41:53Z</time>
      </trkpt>
      <trkpt lat="44.0961" lon="7.38434">
        <ele>2566.79</ele>
        <time>2014-09-02T07:42:57Z</time>
      </trkpt>
      <trkpt lat="44.09639" lon="7.38436">
        <ele>2575.55</ele>
        <time>2014-09-02T07:44:02Z</time>
      </trkpt>
      <trkpt lat="44.09682" lon="7.38437">
        <ele>2586.05</ele>
        <time>2014-09-02T07:45:06Z</time>
      </trkpt>
      <trkpt lat="44.09678" lon="7.3843">
        <ele>2595.46</ele>
        <time>2014-09-02T07:46:12Z</time>
      </trkpt>
      <trkpt lat="44.09681" lon="7.38416">
        <ele>2605.61</ele>
        <time>2014-09-02T07:47:16Z</time>
      </trkpt>
      <trkpt lat="44.09673" lon="7.3839">
        <ele>2618.21</ele>
        <time>2014-09-02T07:48:19Z</time>
      </trkpt>
      <trkpt lat="44.09665" lon="7.38358">
        <ele>2627.03</ele>
        <time>2014-09-02T07:49:23Z</time>
      </trkpt>
      <trkpt lat="44.09661" lon="7.38338">
        <ele>2636.1</ele>
        <time>2014-09-02T07:50:27Z</time>
      </trkpt>
      <trkpt lat="44.09648" lon="7.38324">
        <ele>2646.93</ele>
        <time>2014-09-02T07:51:32Z</time>
      </trkpt>
      <trkpt lat="44.09678" lon="7.38255">
        <ele>2652.73</ele>
        <time>2014-09-02T07:52:35Z</time>
      </trkpt>
      <trkpt lat="44.09696" lon="7.38336">
        <ele>2654.81</ele>
        <time>2014-09-02T07:53:40Z</time>
      </trkpt>
      <trkpt lat="44.09647" lon="7.3833">
        <ele>2668.72</ele>
        <time>2014-09-02T07:54:44Z</time>
      </trkpt>
      <trkpt lat="44.09729" lon="7.38302">
        <ele>2682.44</ele>
        <time>2014-09-02T07:55:48Z</time>
      </trkpt>
      <trkpt lat="44.09746" lon="7.38297">
        <ele>2695.64</ele>
        <time>2014-09-02T07:56:53Z</time>
      </trkpt>
      <trkpt lat="44.09782" lon="7.38286">
        <ele>2703.26</ele>
        <time>2014-09-02T07:57:57Z</time>
      </trkpt>
      <trkpt lat="44.09776" lon="7.38299">
        <ele>2710.14</ele>
        <time>2014-09-02T07:59:02Z</time>
      </trkpt>
      <trkpt lat="44.09795" lon="7.38279">
        <ele>2723.06</ele>
        <time>2014-09-02T08:00:06Z</time>
      </trkpt>
      <trkpt lat="44.09808" lon="7.3828">
        <ele>2733.08</ele>
        <time>2014-09-02T08:01:10Z</time>
      </trkpt>
      <trkpt lat="44.09814" lon="7.38287">
        <ele>2738.37</ele>
        <time>2014-09-02T08:02:13Z</time>
      </trkpt>
      <trkpt lat="44.09831" lon="7.38278">
        <ele>2744.19</ele>
        <time>2014-09-02T08:03:17Z</time>
      </trkpt>
      <trkpt lat="44.09835" lon="7.38265">
        <ele>2757.64</ele>
        <time>2014-09-02T08:04:22Z</time>
      </trkpt>
      <trkpt lat="44.09835" lon="7.38265">
        <ele>2767.7</ele>
        <time>2014-09-02T08:05:26Z</time>
      </trkpt>
      <trkpt lat="44.09857" lon="7.38256">
        <ele>2774.16</ele>
        <time>2014-09-02T08:06:31Z</time>
      </trkpt>
      <trkpt lat="44.09843" lon="7.38244">
        <ele>2782.71</ele>
        <time>2014-09-02T08:07:35Z</time>
      </trkpt>
      <trkpt lat="44.09854" lon="7.38216">
        <ele>2793.72</ele>
        <time>2014-09-02T08:08:39Z</time>
      </trkpt>
      <trkpt lat="44.09863" lon="7.38213">
        <ele>2798.78</ele>
        <time>2014-09-02T08:09:41Z</time>
      </trkpt>
      <trkpt lat="44.0987" lon="7.38203">
        <ele>2798.58</ele>
        <time>2014-09-02T08:10:47Z</time>
      </trkpt>
      <trkpt lat="44.09871" lon="7.38212">
        <ele>2797.89</ele>
        <time>2014-09-02T08:11:50Z</time>
      </trkpt>
      <trkpt lat="44.09866" lon="7.38218">
        <ele>2797.84</ele>
        <time>2014-09-02T08:12:54Z</time>
      </trkpt>
      <trkpt lat="44.09867" lon="7.38215">
        <ele>2797.3</ele>
        <time>2014-09-02T08:13:57Z</time>
      </trkpt>
      <trkpt lat="44.09864" lon="7.38216">
        <ele>2796.96</ele>
        <time>2014-09-02T08:15:00Z</time>
      </trkpt>
      <trkpt lat="44.09858" lon="7.3822">
        <ele>2796.82</ele>
        <time>2014-09-02T08:16:04Z</time>
      </trkpt>
      <trkpt lat="44.09859" lon="7.38218">
        <ele>2797.16</ele>
        <time>2014-09-02T08:17:07Z</time>
      </trkpt>
      <trkpt lat="44.09867" lon="7.38219">
        <ele>2797.66</ele>
        <time>2014-09-02T08:18:11Z</time>
      </trkpt>
      <trkpt lat="44.09868" lon="7.38218">
        <ele>2797.24</ele>
        <time>2014-09-02T08:19:14Z</time>
      </trkpt>
      <trkpt lat="44.09864" lon="7.38218">
        <ele>2796.91</ele>
        <time>2014-09-02T08:20:18Z</time>
      </trkpt>
      <trkpt lat="44.09869" lon="7.38213">
        <ele>2796.25</ele>
        <time>2014-09-02T08:21:21Z</time>
      </trkpt>
      <trkpt lat="44.09864" lon="7.38217">
        <ele>2797.08</ele>
        <time>2014-09-02T08:22:24Z</time>
      </trkpt>
      <trkpt lat="44.09867" lon="7.3821">
        <ele>2796.6</ele>
        <time>2014-09-02T08:23:28Z</time>
      </trkpt>
      <trkpt lat="44.09868" lon="7.38212">
        <ele>2796.31</ele>
        <time>2014-09-02T08:24:31Z</time>
      </trkpt>
      <trkpt lat="44.09857" lon="7.38216">
        <ele>2796.31</ele>
        <time>2014-09-02T08:25:36Z</time>
      </trkpt>
      <trkpt lat="44.09861" lon="7.38237">
        <ele>2796.55</ele>
        <time>2014-09-02T08:26:41Z</time>
      </trkpt>
      <trkpt lat="44.09862" lon="7.38217">
        <ele>2796.1</ele>
        <time>2014-09-02T08:27:46Z</time>
      </trkpt>
      <trkpt lat="44.09849" lon="7.38223">
        <ele>2796.19</ele>
        <time>2014-09-02T08:28:50Z</time>
      </trkpt>
      <trkpt lat="44.09876" lon="7.3822">
        <ele>2796.14</ele>
        <time>2014-09-02T08:29:53Z</time>
      </trkpt>
      <trkpt lat="44.09861" lon="7.38221">
        <ele>2795.95</ele>
        <time>2014-09-02T08:30:58Z</time>
      </trkpt>
      <trkpt lat="44.09872" lon="7.38225">
        <ele>2795.91</ele>
        <time>2014-09-02T08:32:01Z</time>
      </trkpt>
      <trkpt lat="44.09861" lon="7.38204">
        <ele>2798.6</ele>
        <time>2014-09-02T08:33:06Z</time>
      </trkpt>
      <trkpt lat="44.09869" lon="7.38213">
        <ele>2798.17</ele>
        <time>2014-09-02T08:34:13Z</time>
      </trkpt>
      <trkpt lat="44.09865" lon="7.38208">
        <ele>2797.89</ele>
        <time>2014-09-02T08:35:16Z</time>
      </trkpt>
      <trkpt lat="44.09862" lon="7.38213">
        <ele>2797.19</ele>
        <time>2014-09-02T08:36:21Z</time>
      </trkpt>
      <trkpt lat="44.09864" lon="7.38214">
        <ele>2794.75</ele>
        <time>2014-09-02T08:37:25Z</time>
      </trkpt>
      <trkpt lat="44.09868" lon="7.3823">
        <ele>2788.21</ele>
        <time>2014-09-02T08:38:29Z</time>
      </trkpt>
      <trkpt lat="44.09855" lon="7.38255">
        <ele>2783.07</ele>
        <time>2014-09-02T08:39:34Z</time>
      </trkpt>
      <trkpt lat="44.09846" lon="7.38291">
        <ele>2775.95</ele>
        <time>2014-09-02T08:40:36Z</time>
      </trkpt>
      <trkpt lat="44.09838" lon="7.38256">
        <ele>2769.41</ele>
        <time>2014-09-02T08:41:39Z</time>
      </trkpt>
      <trkpt lat="44.09832" lon="7.38302">
        <ele>2763.05</ele>
        <time>2014-09-02T08:42:43Z</time>
      </trkpt>
      <trkpt lat="44.09834" lon="7.38282">
        <ele>2755.64</ele>
        <time>2014-09-02T08:43:46Z</time>
      </trkpt>
      <trkpt lat="44.09811" lon="7.38316">
        <ele>2747.82</ele>
        <time>2014-09-02T08:44:49Z</time>
      </trkpt>
      <trkpt lat="44.09795" lon="7.38287">
        <ele>2738.37</ele>
        <time>2014-09-02T08:45:56Z</time>
      </trkpt>
      <trkpt lat="44.09803" lon="7.38303">
        <ele>2735.42</ele>
        <time>2014-09-02T08:46:56Z</time>
      </trkpt>
      <trkpt lat="44.09786" lon="7.3829">
        <ele>2728.06</ele>
        <time>2014-09-02T08:47:58Z</time>
      </trkpt>
      <trkpt lat="44.09787" lon="7.383">
        <ele>2725.86</ele>
        <time>2014-09-02T08:49:05Z</time>
      </trkpt>
      <trkpt lat="44.09797" lon="7.38285">
        <ele>2720.29</ele>
        <time>2014-09-02T08:50:07Z</time>
      </trkpt>
      <trkpt lat="44.09782" lon="7.38309">
        <ele>2706.66</ele>
        <time>2014-09-02T08:51:14Z</time>
      </trkpt>
      <trkpt lat="44.09769" lon="7.38298">
        <ele>2696.86</ele>
        <time>2014-09-02T08:52:18Z</time>
      </trkpt>
      <trkpt lat="44.09726" lon="7.38301">
        <ele>2683.42</ele>
        <time>2014-09-02T08:53:20Z</time>
      </trkpt>
      <trkpt lat="44.0968" lon="7.38321">
        <ele>2670.94</ele>
        <time>2014-09-02T08:54:24Z</time>
      </trkpt>
      <trkpt lat="44.09672" lon="7.38317">
        <ele>2657.78</ele>
        <time>2014-09-02T08:55:27Z</time>
      </trkpt>
      <trkpt lat="44.09661" lon="7.38336">
        <ele>2646.99</ele>
        <time>2014-09-02T08:56:31Z</time>
      </trkpt>
      <trkpt lat="44.09634" lon="7.38357">
        <ele>2633.24</ele>
        <time>2014-09-02T08:57:36Z</time>
      </trkpt>
      <trkpt lat="44.09642" lon="7.38429">
        <ele>2622.24</ele>
        <time>2014-09-02T08:58:41Z</time>
      </trkpt>
      <trkpt lat="44.09685" lon="7.38386">
        <ele>2608.11</ele>
        <time>2014-09-02T08:59:48Z</time>
      </trkpt>
      <trkpt lat="44.09646" lon="7.38506">
        <ele>2599.3</ele>
        <time>2014-09-02T09:00:55Z</time>
      </trkpt>
      <trkpt lat="44.09693" lon="7.38418">
        <ele>2588.24</ele>
        <time>2014-09-02T09:02:00Z</time>
      </trkpt>
      <trkpt lat="44.09648" lon="7.38439">
        <ele>2575.95</ele>
        <time>2014-09-02T09:03:08Z</time>
      </trkpt>
      <trkpt lat="44.09613" lon="7.38428">
        <ele>2562.44</ele>
        <time>2014-09-02T09:04:14Z</time>
      </trkpt>
      <trkpt lat="44.09549" lon="7.3845">
        <ele>2551.01</ele>
        <time>2014-09-02T09:05:20Z</time>
      </trkpt>
      <trkpt lat="44.09544" lon="7.38445">
        <ele>2548.31</ele>
        <time>2014-09-02T09:06:24Z</time>
      </trkpt>
      <trkpt lat="44.09534" lon="7.38415">
        <ele>2540.08</ele>
        <time>2014-09-02T09:07:30Z</time>
      </trkpt>
      <trkpt lat="44.09496" lon="7.38439">
        <ele>2532.45</ele>
        <time>2014-09-02T09:08:33Z</time>
      </trkpt>
      <trkpt lat="44.09472" lon="7.38401">
        <ele>2522.45</ele>
        <time>2014-09-02T09:09:36Z</time>
      </trkpt>
      <trkpt lat="44.09411" lon="7.38375">
        <ele>2510.59</ele>
        <time>2014-09-02T09:10:38Z</time>
      </trkpt>
      <trkpt lat="44.0939" lon="7.38281">
        <ele>2502.35</ele>
        <time>2014-09-02T09:11:41Z</time>
      </trkpt>
      <trkpt lat="44.09365" lon="7.38281">
        <ele>2493.42</ele>
        <time>2014-09-02T09:12:44Z</time>
      </trkpt>
      <trkpt lat="44.09394" lon="7.38327">
        <ele>2483.7</ele>
        <time>2014-09-02T09:13:46Z</time>
      </trkpt>
      <trkpt lat="44.09327" lon="7.38292">
        <ele>2473.6</ele>
        <time>2014-09-02T09:14:49Z</time>
      </trkpt>
      <trkpt lat="44.09349" lon="7.38254">
        <ele>2465.74</ele>
        <time>2014-09-02T09:15:52Z</time>
      </trkpt>
      <trkpt lat="44.09315" lon="7.38241">
        <ele>2455.74</ele>
        <time>2014-09-02T09:16:55Z</time>
      </trkpt>
      <trkpt lat="44.09276" lon="7.38227">
        <ele>2444.45</ele>
        <time>2014-09-02T09:17:58Z</time>
      </trkpt>
      <trkpt lat="44.09244" lon="7.38222">
        <ele>2441.48</ele>
        <time>2014-09-02T09:19:01Z</time>
      </trkpt>
      <trkpt lat="44.09247" lon="7.3817">
        <ele>2436.08</ele>
        <time>2014-09-02T09:20:03Z</time>
      </trkpt>
      <trkpt lat="44.09215" lon="7.3814">
        <ele>2429.47</ele>
        <time>2014-09-02T09:21:06Z</time>
      </trkpt>
      <trkpt lat="44.09189" lon="7.381">
        <ele>2427.28</ele>
        <time>2014-09-02T09:22:09Z</time>
      </trkpt>
      <trkpt lat="44.09155" lon="7.38037">
        <ele>2424.24</ele>
        <time>2014-09-02T09:23:11Z</time>
      </trkpt>
      <trkpt lat="44.0912" lon="7.38002">
        <ele>2413.37</ele>
        <time>2014-09-02T09:24:14Z</time>
      </trkpt>
      <trkpt lat="44.0913" lon="7.37953">
        <ele>2405.11</ele>
        <time>2014-09-02T09:25:19Z</time>
      </trkpt>
      <trkpt lat="44.09072" lon="7.37985">
        <ele>2403.91</ele>
        <time>2014-09-02T09:26:22Z</time>
      </trkpt>
      <trkpt lat="44.09133" lon="7.37954">
        <ele>2408.07</ele>
        <time>2014-09-02T09:27:24Z</time>
      </trkpt>
      <trkpt lat="44.0913" lon="7.37909">
        <ele>2401.31</ele>
        <time>2014-09-02T09:28:27Z</time>
      </trkpt>
      <trkpt lat="44.09123" lon="7.37872">
        <ele>2396.55</ele>
        <time>2014-09-02T09:29:31Z</time>
      </trkpt>
      <trkpt lat="44.09112" lon="7.37841">
        <ele>2385.71</ele>
        <time>2014-09-02T09:30:33Z</time>
      </trkpt>
      <trkpt lat="44.09104" lon="7.37785">
        <ele>2370.88</ele>
        <time>2014-09-02T09:31:36Z</time>
      </trkpt>
      <trkpt lat="44.09076" lon="7.37763">
        <ele>2361.68</ele>
        <time>2014-09-02T09:32:39Z</time>
      </trkpt>
      <trkpt lat="44.091" lon="7.3771">
        <ele>2349.03</ele>
        <time>2014-09-02T09:33:43Z</time>
      </trkpt>
      <trkpt lat="44.09085" lon="7.37676">
        <ele>2337.54</ele>
        <time>2014-09-02T09:34:46Z</time>
      </trkpt>
      <trkpt lat="44.09062" lon="7.37656">
        <ele>2324.79</ele>
        <time>2014-09-02T09:35:49Z</time>
      </trkpt>
      <trkpt lat="44.09048" lon="7.37633">
        <ele>2315.19</ele>
        <time>2014-09-02T09:36:51Z</time>
      </trkpt>
      <trkpt lat="44.09012" lon="7.37612">
        <ele>2301.52</ele>
        <time>2014-09-02T09:37:54Z</time>
      </trkpt>
      <trkpt lat="44.09012" lon="7.37579">
        <ele>2290.23</ele>
        <time>2014-09-02T09:38:57Z</time>
      </trkpt>
      <trkpt lat="44.09008" lon="7.37535">
        <ele>2284.51</ele>
        <time>2014-09-02T09:40:00Z</time>
      </trkpt>
      <trkpt lat="44.08999" lon="7.37518">
        <ele>2277.85</ele>
        <time>2014-09-02T09:41:02Z</time>
      </trkpt>
      <trkpt lat="44.08994" lon="7.3749">
        <ele>2267.56</ele>
        <time>2014-09-02T09:42:05Z</time>
      </trkpt>
      <trkpt lat="44.0899" lon="7.37428">
        <ele>2258.1</ele>
        <time>2014-09-02T09:43:08Z</time>
      </trkpt>
      <trkpt lat="44.09" lon="7.37385">
        <ele>2251.48</ele>
        <time>2014-09-02T09:44:11Z</time>
      </trkpt>
      <trkpt lat="44.08985" lon="7.37404">
        <ele>2252.21</ele>
        <time>2014-09-02T09:45:13Z</time>
      </trkpt>
      <trkpt lat="44.0901" lon="7.37388">
        <ele>2251.79</ele>
        <time>2014-09-02T09:46:16Z</time>
      </trkpt>
      <trkpt lat="44.09002" lon="7.37412">
        <ele>2250.52</ele>
        <time>2014-09-02T09:47:19Z</time>
      </trkpt>
      <trkpt lat="44.09016" lon="7.37412">
        <ele>2249.62</ele>
        <time>2014-09-02T09:48:25Z</time>
      </trkpt>
      <trkpt lat="44.09031" lon="7.37396">
        <ele>2249.53</ele>
        <time>2014-09-02T09:49:29Z</time>
      </trkpt>
      <trkpt lat="44.09009" lon="7.37428">
        <ele>2249.78</ele>
        <time>2014-09-02T09:50:32Z</time>
      </trkpt>
      <trkpt lat="44.08982" lon="7.37366">
        <ele>2250.06</ele>
        <time>2014-09-02T09:51:43Z</time>
      </trkpt>
      <trkpt lat="44.08986" lon="7.37409">
        <ele>2250.36</ele>
        <time>2014-09-02T09:52:58Z</time>
      </trkpt>
      <trkpt lat="44.09026" lon="7.37415">
        <ele>2250.05</ele>
        <time>2014-09-02T09:54:01Z</time>
      </trkpt>
      <trkpt lat="44.09028" lon="7.37415">
        <ele>2250.78</ele>
        <time>2014-09-02T09:55:11Z</time>
      </trkpt>
      <trkpt lat="44.09035" lon="7.37426">
        <ele>2250.3</ele>
        <time>2014-09-02T09:56:19Z</time>
      </trkpt>
      <trkpt lat="44.09006" lon="7.3743">
        <ele>2247.02</ele>
        <time>2014-09-02T09:57:24Z</time>
      </trkpt>
      <trkpt lat="44.08977" lon="7.37407">
        <ele>2246.78</ele>
        <time>2014-09-02T09:58:27Z</time>
      </trkpt>
      <trkpt lat="44.08983" lon="7.37419">
        <ele>2247.69</ele>
        <time>2014-09-02T09:59:39Z</time>
      </trkpt>
      <trkpt lat="44.08946" lon="7.37414">
        <ele>2251.61</ele>
        <time>2014-09-02T10:00:43Z</time>
      </trkpt>
      <trkpt lat="44.08908" lon="7.37425">
        <ele>2250.44</ele>
        <time>2014-09-02T10:01:46Z</time>
      </trkpt>
      <trkpt lat="44.08897" lon="7.37421">
        <ele>2245.07</ele>
        <time>2014-09-02T10:02:51Z</time>
      </trkpt>
      <trkpt lat="44.08852" lon="7.37403">
        <ele>2250.38</ele>
        <time>2014-09-02T10:03:54Z</time>
      </trkpt>
      <trkpt lat="44.08829" lon="7.37376">
        <ele>2258.63</ele>
        <time>2014-09-02T10:04:58Z</time>
      </trkpt>
      <trkpt lat="44.088" lon="7.37352">
        <ele>2265.1</ele>
        <time>2014-09-02T10:06:01Z</time>
      </trkpt>
      <trkpt lat="44.08764" lon="7.37345">
        <ele>2270.32</ele>
        <time>2014-09-02T10:07:04Z</time>
      </trkpt>
      <trkpt lat="44.08748" lon="7.37295">
        <ele>2272.92</ele>
        <time>2014-09-02T10:08:07Z</time>
      </trkpt>
      <trkpt lat="44.08743" lon="7.37274">
        <ele>2271.54</ele>
        <time>2014-09-02T10:09:09Z</time>
      </trkpt>
      <trkpt lat="44.08705" lon="7.37233">
        <ele>2269.19</ele>
        <time>2014-09-02T10:10:12Z</time>
      </trkpt>
      <trkpt lat="44.08681" lon="7.37246">
        <ele>2276.72</ele>
        <time>2014-09-02T10:11:15Z</time>
      </trkpt>
      <trkpt lat="44.08641" lon="7.37264">
        <ele>2276.5</ele>
        <time>2014-09-02T10:12:18Z</time>
      </trkpt>
      <trkpt lat="44.08602" lon="7.37243">
        <ele>2277.02</ele>
        <time>2014-09-02T10:13:22Z</time>
      </trkpt>
      <trkpt lat="44.08568" lon="7.37196">
        <ele>2283.68</ele>
        <time>2014-09-02T10:14:25Z</time>
      </trkpt>
      <trkpt lat="44.08545" lon="7.37184">
        <ele>2284.35</ele>
        <time>2014-09-02T10:15:28Z</time>
      </trkpt>
      <trkpt lat="44.08508" lon="7.37198">
        <ele>2298.28</ele>
        <time>2014-09-02T10:16:31Z</time>
      </trkpt>
      <trkpt lat="44.08462" lon="7.37215">
        <ele>2313.46</ele>
        <time>2014-09-02T10:17:33Z</time>
      </trkpt>
      <trkpt lat="44.084" lon="7.37273">
        <ele>2325.27</ele>
        <time>2014-09-02T10:18:36Z</time>
      </trkpt>
      <trkpt lat="44.08345" lon="7.37296">
        <ele>2325.22</ele>
        <time>2014-09-02T10:19:47Z</time>
      </trkpt>
      <trkpt lat="44.0838" lon="7.37305">
        <ele>2323.5</ele>
        <time>2014-09-02T10:20:49Z</time>
      </trkpt>
      <trkpt lat="44.08301" lon="7.37378">
        <ele>2309.43</ele>
        <time>2014-09-02T10:21:52Z</time>
      </trkpt>
      <trkpt lat="44.08285" lon="7.3744">
        <ele>2296.68</ele>
        <time>2014-09-02T10:22:55Z</time>
      </trkpt>
      <trkpt lat="44.08183" lon="7.37435">
        <ele>2272.61</ele>
        <time>2014-09-02T10:24:00Z</time>
      </trkpt>
      <trkpt lat="44.08178" lon="7.37472">
        <ele>2264.06</ele>
        <time>2014-09-02T10:25:04Z</time>
      </trkpt>
      <trkpt lat="44.08177" lon="7.37468">
        <ele>2263.27</ele>
        <time>2014-09-02T10:26:13Z</time>
      </trkpt>
      <trkpt lat="44.08187" lon="7.37451">
        <ele>2263.24</ele>
        <time>2014-09-02T10:27:23Z</time>
      </trkpt>
      <trkpt lat="44.08196" lon="7.37456">
        <ele>2263.51</ele>
        <time>2014-09-02T10:28:33Z</time>
      </trkpt>
      <trkpt lat="44.08187" lon="7.37439">
        <ele>2263.53</ele>
        <time>2014-09-02T10:29:43Z</time>
      </trkpt>
      <trkpt lat="44.08181" lon="7.37467">
        <ele>2263.32</ele>
        <time>2014-09-02T10:30:53Z</time>
      </trkpt>
      <trkpt lat="44.08188" lon="7.37464">
        <ele>2263.36</ele>
        <time>2014-09-02T10:31:56Z</time>
      </trkpt>
      <trkpt lat="44.08188" lon="7.37446">
        <ele>2263.73</ele>
        <time>2014-09-02T10:32:58Z</time>
      </trkpt>
      <trkpt lat="44.08184" lon="7.37463">
        <ele>2263.97</ele>
        <time>2014-09-02T10:34:02Z</time>
      </trkpt>
      <trkpt lat="44.08184" lon="7.37443">
        <ele>2263.95</ele>
        <time>2014-09-02T10:35:05Z</time>
      </trkpt>
      <trkpt lat="44.08164" lon="7.37441">
        <ele>2263.62</ele>
        <time>2014-09-02T10:36:07Z</time>
      </trkpt>
      <trkpt lat="44.08186" lon="7.37443">
        <ele>2263.89</ele>
        <time>2014-09-02T10:37:10Z</time>
      </trkpt>
      <trkpt lat="44.08164" lon="7.37459">
        <ele>2264.18</ele>
        <time>2014-09-02T10:38:13Z</time>
      </trkpt>
      <trkpt lat="44.0819" lon="7.37459">
        <ele>2264.39</ele>
        <time>2014-09-02T10:39:16Z</time>
      </trkpt>
      <trkpt lat="44.08186" lon="7.37425">
        <ele>2264.3</ele>
        <time>2014-09-02T10:40:18Z</time>
      </trkpt>
      <trkpt lat="44.08195" lon="7.3746">
        <ele>2263.83</ele>
        <time>2014-09-02T10:41:21Z</time>
      </trkpt>
      <trkpt lat="44.08184" lon="7.37454">
        <ele>2263.73</ele>
        <time>2014-09-02T10:42:24Z</time>
      </trkpt>
      <trkpt lat="44.08187" lon="7.37443">
        <ele>2263.89</ele>
        <time>2014-09-02T10:43:27Z</time>
      </trkpt>
      <trkpt lat="44.08185" lon="7.37449">
        <ele>2264</ele>
        <time>2014-09-02T10:44:29Z</time>
      </trkpt>
      <trkpt lat="44.08198" lon="7.37482">
        <ele>2264.42</ele>
        <time>2014-09-02T10:45:32Z</time>
      </trkpt>
      <trkpt lat="44.08198" lon="7.37426">
        <ele>2264.39</ele>
        <time>2014-09-02T10:46:35Z</time>
      </trkpt>
      <trkpt lat="44.08187" lon="7.37463">
        <ele>2264.68</ele>
        <time>2014-09-02T10:47:38Z</time>
      </trkpt>
      <trkpt lat="44.08181" lon="7.3745">
        <ele>2264.82</ele>
        <time>2014-09-02T10:48:40Z</time>
      </trkpt>
      <trkpt lat="44.08171" lon="7.3745">
        <ele>2264.75</ele>
        <time>2014-09-02T10:49:43Z</time>
      </trkpt>
      <trkpt lat="44.08181" lon="7.3744">
        <ele>2264.68</ele>
        <time>2014-09-02T10:50:46Z</time>
      </trkpt>
      <trkpt lat="44.08189" lon="7.37448">
        <ele>2264.91</ele>
        <time>2014-09-02T10:51:50Z</time>
      </trkpt>
      <trkpt lat="44.08192" lon="7.37466">
        <ele>2264.69</ele>
        <time>2014-09-02T10:52:53Z</time>
      </trkpt>
      <trkpt lat="44.08203" lon="7.37444">
        <ele>2264.59</ele>
        <time>2014-09-02T10:53:55Z</time>
      </trkpt>
      <trkpt lat="44.08182" lon="7.37456">
        <ele>2264.49</ele>
        <time>2014-09-02T10:54:59Z</time>
      </trkpt>
      <trkpt lat="44.08178" lon="7.3746">
        <ele>2264.68</ele>
        <time>2014-09-02T10:56:02Z</time>
      </trkpt>
      <trkpt lat="44.08193" lon="7.37429">
        <ele>2264.43</ele>
        <time>2014-09-02T10:57:05Z</time>
      </trkpt>
      <trkpt lat="44.08185" lon="7.37436">
        <ele>2264.16</ele>
        <time>2014-09-02T10:58:08Z</time>
      </trkpt>
      <trkpt lat="44.0818" lon="7.37448">
        <ele>2264.23</ele>
        <time>2014-09-02T10:59:10Z</time>
      </trkpt>
      <trkpt lat="44.08181" lon="7.37445">
        <ele>2264.37</ele>
        <time>2014-09-02T11:00:13Z</time>
      </trkpt>
      <trkpt lat="44.08188" lon="7.37455">
        <ele>2264.43</ele>
        <time>2014-09-02T11:01:16Z</time>
      </trkpt>
      <trkpt lat="44.0819" lon="7.37454">
        <ele>2264.23</ele>
        <time>2014-09-02T11:02:20Z</time>
      </trkpt>
      <trkpt lat="44.08197" lon="7.37454">
        <ele>2263.69</ele>
        <time>2014-09-02T11:03:23Z</time>
      </trkpt>
      <trkpt lat="44.08199" lon="7.37456">
        <ele>2264.11</ele>
        <time>2014-09-02T11:04:27Z</time>
      </trkpt>
      <trkpt lat="44.08203" lon="7.37441">
        <ele>2274.82</ele>
        <time>2014-09-02T11:05:30Z</time>
      </trkpt>
      <trkpt lat="44.08195" lon="7.37447">
        <ele>2269.44</ele>
        <time>2014-09-02T11:06:33Z</time>
      </trkpt>
      <trkpt lat="44.08206" lon="7.37441">
        <ele>2266.68</ele>
        <time>2014-09-02T11:07:36Z</time>
      </trkpt>
      <trkpt lat="44.08197" lon="7.37438">
        <ele>2265.95</ele>
        <time>2014-09-02T11:08:39Z</time>
      </trkpt>
      <trkpt lat="44.08198" lon="7.3744">
        <ele>2265.31</ele>
        <time>2014-09-02T11:09:42Z</time>
      </trkpt>
      <trkpt lat="44.08199" lon="7.37446">
        <ele>2265.28</ele>
        <time>2014-09-02T11:10:44Z</time>
      </trkpt>
      <trkpt lat="44.08199" lon="7.37454">
        <ele>2265.63</ele>
        <time>2014-09-02T11:11:47Z</time>
      </trkpt>
      <trkpt lat="44.08209" lon="7.37446">
        <ele>2265.51</ele>
        <time>2014-09-02T11:12:50Z</time>
      </trkpt>
      <trkpt lat="44.082" lon="7.37452">
        <ele>2265.78</ele>
        <time>2014-09-02T11:13:53Z</time>
      </trkpt>
      <trkpt lat="44.08195" lon="7.37446">
        <ele>2265.79</ele>
        <time>2014-09-02T11:14:56Z</time>
      </trkpt>
      <trkpt lat="44.08203" lon="7.3745">
        <ele>2265.84</ele>
        <time>2014-09-02T11:15:59Z</time>
      </trkpt>
      <trkpt lat="44.08194" lon="7.37445">
        <ele>2266.36</ele>
        <time>2014-09-02T11:17:02Z</time>
      </trkpt>
      <trkpt lat="44.08208" lon="7.37462">
        <ele>2265.87</ele>
        <time>2014-09-02T11:18:05Z</time>
      </trkpt>
      <trkpt lat="44.08199" lon="7.37447">
        <ele>2266.03</ele>
        <time>2014-09-02T11:19:09Z</time>
      </trkpt>
      <trkpt lat="44.0819" lon="7.3743">
        <ele>2267.1</ele>
        <time>2014-09-02T11:20:12Z</time>
      </trkpt>
      <trkpt lat="44.08202" lon="7.37443">
        <ele>2267.07</ele>
        <time>2014-09-02T11:21:15Z</time>
      </trkpt>
      <trkpt lat="44.08198" lon="7.3744">
        <ele>2267.96</ele>
        <time>2014-09-02T11:22:19Z</time>
      </trkpt>
      <trkpt lat="44.08197" lon="7.37444">
        <ele>2267.7</ele>
        <time>2014-09-02T11:23:22Z</time>
      </trkpt>
      <trkpt lat="44.08199" lon="7.37448">
        <ele>2267.33</ele>
        <time>2014-09-02T11:24:26Z</time>
      </trkpt>
      <trkpt lat="44.08199" lon="7.37446">
        <ele>2267.7</ele>
        <time>2014-09-02T11:25:29Z</time>
      </trkpt>
      <trkpt lat="44.08202" lon="7.37449">
        <ele>2268.3</ele>
        <time>2014-09-02T11:26:34Z</time>
      </trkpt>
      <trkpt lat="44.08202" lon="7.37444">
        <ele>2268.33</ele>
        <time>2014-09-02T11:27:37Z</time>
      </trkpt>
      <trkpt lat="44.08194" lon="7.37445">
        <ele>2267.87</ele>
        <time>2014-09-02T11:28:40Z</time>
      </trkpt>
      <trkpt lat="44.082" lon="7.37447">
        <ele>2267.53</ele>
        <time>2014-09-02T11:29:44Z</time>
      </trkpt>
      <trkpt lat="44.08191" lon="7.37444">
        <ele>2267.75</ele>
        <time>2014-09-02T11:30:47Z</time>
      </trkpt>
      <trkpt lat="44.08193" lon="7.37445">
        <ele>2268.08</ele>
        <time>2014-09-02T11:31:49Z</time>
      </trkpt>
      <trkpt lat="44.08195" lon="7.37441">
        <ele>2267.78</ele>
        <time>2014-09-02T11:32:52Z</time>
      </trkpt>
      <trkpt lat="44.08196" lon="7.37445">
        <ele>2267.56</ele>
        <time>2014-09-02T11:33:55Z</time>
      </trkpt>
      <trkpt lat="44.08195" lon="7.37454">
        <ele>2266.95</ele>
        <time>2014-09-02T11:34:58Z</time>
      </trkpt>
      <trkpt lat="44.08202" lon="7.3745">
        <ele>2267.35</ele>
        <time>2014-09-02T11:36:01Z</time>
      </trkpt>
      <trkpt lat="44.08192" lon="7.37447">
        <ele>2267.26</ele>
        <time>2014-09-02T11:37:04Z</time>
      </trkpt>
      <trkpt lat="44.08197" lon="7.3745">
        <ele>2267.43</ele>
        <time>2014-09-02T11:38:07Z</time>
      </trkpt>
      <trkpt lat="44.08198" lon="7.37441">
        <ele>2267.05</ele>
        <time>2014-09-02T11:39:10Z</time>
      </trkpt>
      <trkpt lat="44.08201" lon="7.37457">
        <ele>2267.26</ele>
        <time>2014-09-02T11:40:13Z</time>
      </trkpt>
      <trkpt lat="44.08199" lon="7.37445">
        <ele>2267.14</ele>
        <time>2014-09-02T11:41:16Z</time>
      </trkpt>
      <trkpt lat="44.08199" lon="7.37445">
        <ele>2267.2</ele>
        <time>2014-09-02T11:41:51Z</time>
      </trkpt>
      <trkpt lat="44.07752" lon="7.377">
        <ele>2260.34</ele>
        <time>2014-09-02T12:06:52Z</time>
      </trkpt>
      <trkpt lat="44.07727" lon="7.37662">
        <ele>2251.37</ele>
        <time>2014-09-02T12:07:52Z</time>
      </trkpt>
      <trkpt lat="44.07698" lon="7.37611">
        <ele>2246.01</ele>
        <time>2014-09-02T12:08:52Z</time>
      </trkpt>
      <trkpt lat="44.07657" lon="7.37551">
        <ele>2292.76</ele>
        <time>2014-09-02T12:09:55Z</time>
      </trkpt>
      <trkpt lat="44.0765" lon="7.37538">
        <ele>2240.54</ele>
        <time>2014-09-02T12:10:55Z</time>
      </trkpt>
      <trkpt lat="44.07625" lon="7.37483">
        <ele>2237.33</ele>
        <time>2014-09-02T12:11:58Z</time>
      </trkpt>
      <trkpt lat="44.0758" lon="7.37444">
        <ele>2229.29</ele>
        <time>2014-09-02T12:13:00Z</time>
      </trkpt>
      <trkpt lat="44.07528" lon="7.37444">
        <ele>2225.65</ele>
        <time>2014-09-02T12:14:05Z</time>
      </trkpt>
      <trkpt lat="44.07495" lon="7.37424">
        <ele>2236.23</ele>
        <time>2014-09-02T12:15:09Z</time>
      </trkpt>
      <trkpt lat="44.07444" lon="7.37384">
        <ele>2244.53</ele>
        <time>2014-09-02T12:16:11Z</time>
      </trkpt>
      <trkpt lat="44.07398" lon="7.37359">
        <ele>2242.81</ele>
        <time>2014-09-02T12:17:15Z</time>
      </trkpt>
      <trkpt lat="44.07327" lon="7.37353">
        <ele>2242.76</ele>
        <time>2014-09-02T12:18:20Z</time>
      </trkpt>
      <trkpt lat="44.07287" lon="7.37371">
        <ele>2251.93</ele>
        <time>2014-09-02T12:19:23Z</time>
      </trkpt>
      <trkpt lat="44.07268" lon="7.37397">
        <ele>2265.13</ele>
        <time>2014-09-02T12:20:27Z</time>
      </trkpt>
      <trkpt lat="44.07226" lon="7.37419">
        <ele>2281.18</ele>
        <time>2014-09-02T12:21:32Z</time>
      </trkpt>
      <trkpt lat="44.07234" lon="7.37451">
        <ele>2300.52</ele>
        <time>2014-09-02T12:22:39Z</time>
      </trkpt>
      <trkpt lat="44.07182" lon="7.37458">
        <ele>2320.1</ele>
        <time>2014-09-02T12:23:43Z</time>
      </trkpt>
      <trkpt lat="44.07163" lon="7.375">
        <ele>2327.61</ele>
        <time>2014-09-02T12:24:47Z</time>
      </trkpt>
      <trkpt lat="44.07159" lon="7.37503">
        <ele>2324.22</ele>
        <time>2014-09-02T12:25:51Z</time>
      </trkpt>
      <trkpt lat="44.07154" lon="7.37485">
        <ele>2322.39</ele>
        <time>2014-09-02T12:26:55Z</time>
      </trkpt>
      <trkpt lat="44.07147" lon="7.37482">
        <ele>2320.28</ele>
        <time>2014-09-02T12:27:59Z</time>
      </trkpt>
      <trkpt lat="44.0713" lon="7.37465">
        <ele>2319.98</ele>
        <time>2014-09-02T12:29:06Z</time>
      </trkpt>
      <trkpt lat="44.07146" lon="7.37492">
        <ele>2319.68</ele>
        <time>2014-09-02T12:30:09Z</time>
      </trkpt>
      <trkpt lat="44.07143" lon="7.37493">
        <ele>2319.85</ele>
        <time>2014-09-02T12:31:13Z</time>
      </trkpt>
      <trkpt lat="44.07142" lon="7.37487">
        <ele>2319.7</ele>
        <time>2014-09-02T12:32:21Z</time>
      </trkpt>
      <trkpt lat="44.07138" lon="7.37467">
        <ele>2321.53</ele>
        <time>2014-09-02T12:33:27Z</time>
      </trkpt>
      <trkpt lat="44.07149" lon="7.37493">
        <ele>2321.89</ele>
        <time>2014-09-02T12:34:32Z</time>
      </trkpt>
      <trkpt lat="44.07147" lon="7.3749">
        <ele>2322.26</ele>
        <time>2014-09-02T12:35:36Z</time>
      </trkpt>
      <trkpt lat="44.07143" lon="7.37481">
        <ele>2322.52</ele>
        <time>2014-09-02T12:36:40Z</time>
      </trkpt>
      <trkpt lat="44.07165" lon="7.37475">
        <ele>2322.96</ele>
        <time>2014-09-02T12:37:44Z</time>
      </trkpt>
      <trkpt lat="44.07128" lon="7.3747">
        <ele>2322.7</ele>
        <time>2014-09-02T12:38:50Z</time>
      </trkpt>
      <trkpt lat="44.07154" lon="7.37486">
        <ele>2323.09</ele>
        <time>2014-09-02T12:39:54Z</time>
      </trkpt>
      <trkpt lat="44.07154" lon="7.37506">
        <ele>2322.43</ele>
        <time>2014-09-02T12:41:00Z</time>
      </trkpt>
      <trkpt lat="44.07197" lon="7.37592">
        <ele>2313.17</ele>
        <time>2014-09-02T12:42:06Z</time>
      </trkpt>
      <trkpt lat="44.07147" lon="7.37638">
        <ele>2305.12</ele>
        <time>2014-09-02T12:43:12Z</time>
      </trkpt>
      <trkpt lat="44.07127" lon="7.37615">
        <ele>2298.87</ele>
        <time>2014-09-02T12:44:16Z</time>
      </trkpt>
      <trkpt lat="44.07134" lon="7.37631">
        <ele>2298.46</ele>
        <time>2014-09-02T12:45:21Z</time>
      </trkpt>
      <trkpt lat="44.07135" lon="7.37627">
        <ele>2300.18</ele>
        <time>2014-09-02T12:46:28Z</time>
      </trkpt>
      <trkpt lat="44.07136" lon="7.3763">
        <ele>2300.28</ele>
        <time>2014-09-02T12:47:32Z</time>
      </trkpt>
      <trkpt lat="44.07087" lon="7.37641">
        <ele>2288.7</ele>
        <time>2014-09-02T12:48:37Z</time>
      </trkpt>
      <trkpt lat="44.07064" lon="7.37703">
        <ele>2274.14</ele>
        <time>2014-09-02T12:49:40Z</time>
      </trkpt>
      <trkpt lat="44.06998" lon="7.37692">
        <ele>2259.89</ele>
        <time>2014-09-02T12:50:42Z</time>
      </trkpt>
      <trkpt lat="44.06978" lon="7.37614">
        <ele>2247.74</ele>
        <time>2014-09-02T12:51:45Z</time>
      </trkpt>
      <trkpt lat="44.0693" lon="7.3762">
        <ele>2235.38</ele>
        <time>2014-09-02T12:52:48Z</time>
      </trkpt>
      <trkpt lat="44.06868" lon="7.37627">
        <ele>2220.86</ele>
        <time>2014-09-02T12:53:51Z</time>
      </trkpt>
      <trkpt lat="44.06815" lon="7.37624">
        <ele>2206.02</ele>
        <time>2014-09-02T12:54:53Z</time>
      </trkpt>
      <trkpt lat="44.06753" lon="7.37664">
        <ele>2190.25</ele>
        <time>2014-09-02T12:55:59Z</time>
      </trkpt>
      <trkpt lat="44.06688" lon="7.3766">
        <ele>2176.29</ele>
        <time>2014-09-02T12:57:04Z</time>
      </trkpt>
      <trkpt lat="44.06662" lon="7.37668">
        <ele>2160.12</ele>
        <time>2014-09-02T12:58:17Z</time>
      </trkpt>
      <trkpt lat="44.06603" lon="7.37686">
        <ele>2145.8</ele>
        <time>2014-09-02T12:59:21Z</time>
      </trkpt>
      <trkpt lat="44.06599" lon="7.37591">
        <ele>2129.48</ele>
        <time>2014-09-02T13:00:29Z</time>
      </trkpt>
      <trkpt lat="44.06551" lon="7.3758">
        <ele>2112.98</ele>
        <time>2014-09-02T13:01:31Z</time>
      </trkpt>
      <trkpt lat="44.06502" lon="7.37532">
        <ele>2097.27</ele>
        <time>2014-09-02T13:02:34Z</time>
      </trkpt>
      <trkpt lat="44.06463" lon="7.3759">
        <ele>2082.35</ele>
        <time>2014-09-02T13:03:37Z</time>
      </trkpt>
      <trkpt lat="44.06441" lon="7.37612">
        <ele>2067.77</ele>
        <time>2014-09-02T13:04:40Z</time>
      </trkpt>
      <trkpt lat="44.06414" lon="7.37641">
        <ele>2056.87</ele>
        <time>2014-09-02T13:05:42Z</time>
      </trkpt>
      <trkpt lat="44.0639" lon="7.37635">
        <ele>2043.53</ele>
        <time>2014-09-02T13:06:45Z</time>
      </trkpt>
      <trkpt lat="44.06379" lon="7.37707">
        <ele>2031.38</ele>
        <time>2014-09-02T13:07:48Z</time>
      </trkpt>
      <trkpt lat="44.06372" lon="7.37701">
        <ele>2019.3</ele>
        <time>2014-09-02T13:08:51Z</time>
      </trkpt>
      <trkpt lat="44.06342" lon="7.3766">
        <ele>2006.96</ele>
        <time>2014-09-02T13:09:55Z</time>
      </trkpt>
      <trkpt lat="44.06277" lon="7.3768">
        <ele>2000.38</ele>
        <time>2014-09-02T13:10:58Z</time>
      </trkpt>
      <trkpt lat="44.06288" lon="7.37667">
        <ele>1999.61</ele>
        <time>2014-09-02T13:12:01Z</time>
      </trkpt>
      <trkpt lat="44.06288" lon="7.37664">
        <ele>1999.43</ele>
        <time>2014-09-02T13:13:04Z</time>
      </trkpt>
      <trkpt lat="44.06297" lon="7.37674">
        <ele>1998.48</ele>
        <time>2014-09-02T13:14:06Z</time>
      </trkpt>
      <trkpt lat="44.06292" lon="7.37662">
        <ele>1998.5</ele>
        <time>2014-09-02T13:15:09Z</time>
      </trkpt>
      <trkpt lat="44.06305" lon="7.37662">
        <ele>1998.51</ele>
        <time>2014-09-02T13:16:14Z</time>
      </trkpt>
      <trkpt lat="44.06296" lon="7.37656">
        <ele>1998.58</ele>
        <time>2014-09-02T13:17:18Z</time>
      </trkpt>
      <trkpt lat="44.06297" lon="7.37656">
        <ele>1998.76</ele>
        <time>2014-09-02T13:18:20Z</time>
      </trkpt>
      <trkpt lat="44.06301" lon="7.37651">
        <ele>1998.86</ele>
        <time>2014-09-02T13:19:28Z</time>
      </trkpt>
      <trkpt lat="44.06295" lon="7.3766">
        <ele>1998.82</ele>
        <time>2014-09-02T13:20:31Z</time>
      </trkpt>
      <trkpt lat="44.06301" lon="7.3766">
        <ele>1998.76</ele>
        <time>2014-09-02T13:21:36Z</time>
      </trkpt>
      <trkpt lat="44.06295" lon="7.37662">
        <ele>1999.53</ele>
        <time>2014-09-02T13:22:38Z</time>
      </trkpt>
      <trkpt lat="44.06267" lon="7.37674">
        <ele>1992.29</ele>
        <time>2014-09-02T13:23:42Z</time>
      </trkpt>
      <trkpt lat="44.06228" lon="7.37666">
        <ele>1982.78</ele>
        <time>2014-09-02T13:24:45Z</time>
      </trkpt>
      <trkpt lat="44.06205" lon="7.37699">
        <ele>1972.19</ele>
        <time>2014-09-02T13:25:48Z</time>
      </trkpt>
      <trkpt lat="44.06197" lon="7.37677">
        <ele>1964.1</ele>
        <time>2014-09-02T13:26:51Z</time>
      </trkpt>
      <trkpt lat="44.06182" lon="7.37699">
        <ele>1961.09</ele>
        <time>2014-09-02T13:27:53Z</time>
      </trkpt>
      <trkpt lat="44.06161" lon="7.37688">
        <ele>1957.85</ele>
        <time>2014-09-02T13:28:56Z</time>
      </trkpt>
      <trkpt lat="44.06143" lon="7.37731">
        <ele>1948.41</ele>
        <time>2014-09-02T13:30:01Z</time>
      </trkpt>
      <trkpt lat="44.0616" lon="7.37762">
        <ele>1935</ele>
        <time>2014-09-02T13:31:07Z</time>
      </trkpt>
      <trkpt lat="44.06149" lon="7.37802">
        <ele>1921.02</ele>
        <time>2014-09-02T13:32:09Z</time>
      </trkpt>
      <trkpt lat="44.06103" lon="7.37834">
        <ele>1906.92</ele>
        <time>2014-09-02T13:33:14Z</time>
      </trkpt>
      <trkpt lat="44.0607" lon="7.37884">
        <ele>1891.36</ele>
        <time>2014-09-02T13:34:17Z</time>
      </trkpt>
      <trkpt lat="44.06113" lon="7.3791">
        <ele>1884.86</ele>
        <time>2014-09-02T13:35:22Z</time>
      </trkpt>
      <trkpt lat="44.0613" lon="7.37942">
        <ele>1874.24</ele>
        <time>2014-09-02T13:36:27Z</time>
      </trkpt>
      <trkpt lat="44.06105" lon="7.37993">
        <ele>1863.72</ele>
        <time>2014-09-02T13:37:31Z</time>
      </trkpt>
      <trkpt lat="44.06155" lon="7.38017">
        <ele>1850.12</ele>
        <time>2014-09-02T13:38:35Z</time>
      </trkpt>
      <trkpt lat="44.0617" lon="7.38063">
        <ele>1838.39</ele>
        <time>2014-09-02T13:39:41Z</time>
      </trkpt>
      <trkpt lat="44.06141" lon="7.3811">
        <ele>1828.49</ele>
        <time>2014-09-02T13:40:45Z</time>
      </trkpt>
      <trkpt lat="44.06134" lon="7.38099">
        <ele>1819.28</ele>
        <time>2014-09-02T13:41:50Z</time>
      </trkpt>
      <trkpt lat="44.06143" lon="7.38164">
        <ele>1808.78</ele>
        <time>2014-09-02T13:42:53Z</time>
      </trkpt>
      <trkpt lat="44.06139" lon="7.38198">
        <ele>1798.33</ele>
        <time>2014-09-02T13:43:57Z</time>
      </trkpt>
      <trkpt lat="44.06116" lon="7.38232">
        <ele>1788.09</ele>
        <time>2014-09-02T13:45:01Z</time>
      </trkpt>
      <trkpt lat="44.06069" lon="7.38284">
        <ele>1775.39</ele>
        <time>2014-09-02T13:46:06Z</time>
      </trkpt>
      <trkpt lat="44.06044" lon="7.38296">
        <ele>1762.91</ele>
        <time>2014-09-02T13:47:10Z</time>
      </trkpt>
      <trkpt lat="44.06009" lon="7.3828">
        <ele>1750.95</ele>
        <time>2014-09-02T13:48:16Z</time>
      </trkpt>
      <trkpt lat="44.05992" lon="7.38256">
        <ele>1741.86</ele>
        <time>2014-09-02T13:49:18Z</time>
      </trkpt>
      <trkpt lat="44.05961" lon="7.38251">
        <ele>1732.71</ele>
        <time>2014-09-02T13:50:18Z</time>
      </trkpt>
      <trkpt lat="44.05945" lon="7.38261">
        <ele>1723.47</ele>
        <time>2014-09-02T13:51:18Z</time>
      </trkpt>
      <trkpt lat="44.05913" lon="7.38257">
        <ele>1714.99</ele>
        <time>2014-09-02T13:52:18Z</time>
      </trkpt>
      <trkpt lat="44.05876" lon="7.38242">
        <ele>1703.36</ele>
        <time>2014-09-02T13:53:20Z</time>
      </trkpt>
      <trkpt lat="44.05842" lon="7.38219">
        <ele>1691.26</ele>
        <time>2014-09-02T13:54:23Z</time>
      </trkpt>
      <trkpt lat="44.05822" lon="7.38193">
        <ele>1680.02</ele>
        <time>2014-09-02T13:55:26Z</time>
      </trkpt>
      <trkpt lat="44.05804" lon="7.38175">
        <ele>1668.6</ele>
        <time>2014-09-02T13:56:30Z</time>
      </trkpt>
      <trkpt lat="44.05795" lon="7.38247">
        <ele>1656.68</ele>
        <time>2014-09-02T13:57:34Z</time>
      </trkpt>
      <trkpt lat="44.05776" lon="7.38284">
        <ele>1644.38</ele>
        <time>2014-09-02T13:58:37Z</time>
      </trkpt>
      <trkpt lat="44.05786" lon="7.38306">
        <ele>1631.98</ele>
        <time>2014-09-02T13:59:40Z</time>
      </trkpt>
      <trkpt lat="44.05743" lon="7.38339">
        <ele>1619.5</ele>
        <time>2014-09-02T14:00:45Z</time>
      </trkpt>
      <trkpt lat="44.05723" lon="7.38389">
        <ele>1608.9</ele>
        <time>2014-09-02T14:01:49Z</time>
      </trkpt>
      <trkpt lat="44.05706" lon="7.38376">
        <ele>1602.3</ele>
        <time>2014-09-02T14:02:53Z</time>
      </trkpt>
      <trkpt lat="44.05735" lon="7.38404">
        <ele>1601.81</ele>
        <time>2014-09-02T14:03:56Z</time>
      </trkpt>
      <trkpt lat="44.05683" lon="7.3838">
        <ele>1594.9</ele>
        <time>2014-09-02T14:04:59Z</time>
      </trkpt>
      <trkpt lat="44.05643" lon="7.38398">
        <ele>1584.45</ele>
        <time>2014-09-02T14:06:01Z</time>
      </trkpt>
      <trkpt lat="44.05668" lon="7.38478">
        <ele>1579.24</ele>
        <time>2014-09-02T14:07:04Z</time>
      </trkpt>
      <trkpt lat="44.057" lon="7.38565">
        <ele>1584.44</ele>
        <time>2014-09-02T14:08:07Z</time>
      </trkpt>
      <trkpt lat="44.05763" lon="7.38594">
        <ele>1590.78</ele>
        <time>2014-09-02T14:09:09Z</time>
      </trkpt>
      <trkpt lat="44.05802" lon="7.38642">
        <ele>1593.47</ele>
        <time>2014-09-02T14:10:12Z</time>
      </trkpt>
      <trkpt lat="44.05872" lon="7.38721">
        <ele>1593.35</ele>
        <time>2014-09-02T14:11:15Z</time>
      </trkpt>
      <trkpt lat="44.05931" lon="7.38773">
        <ele>1588.21</ele>
        <time>2014-09-02T14:12:19Z</time>
      </trkpt>
      <trkpt lat="44.06002" lon="7.38818">
        <ele>1589.15</ele>
        <time>2014-09-02T14:13:21Z</time>
      </trkpt>
      <trkpt lat="44.06063" lon="7.38865">
        <ele>1587.95</ele>
        <time>2014-09-02T14:14:25Z</time>
      </trkpt>
      <trkpt lat="44.06122" lon="7.38826">
        <ele>1591.1</ele>
        <time>2014-09-02T14:15:29Z</time>
      </trkpt>
      <trkpt lat="44.06177" lon="7.38877">
        <ele>1595.39</ele>
        <time>2014-09-02T14:16:32Z</time>
      </trkpt>
      <trkpt lat="44.06224" lon="7.38956">
        <ele>1597.79</ele>
        <time>2014-09-02T14:17:36Z</time>
      </trkpt>
      <trkpt lat="44.0627" lon="7.39051">
        <ele>1599.36</ele>
        <time>2014-09-02T14:18:38Z</time>
      </trkpt>
      <trkpt lat="44.06258" lon="7.39044">
        <ele>1599.74</ele>
        <time>2014-09-02T14:19:41Z</time>
      </trkpt>
      <trkpt lat="44.0625" lon="7.39041">
        <ele>1598.58</ele>
        <time>2014-09-02T14:20:44Z</time>
      </trkpt>
      <trkpt lat="44.06268" lon="7.39042">
        <ele>1598.79</ele>
        <time>2014-09-02T14:21:47Z</time>
      </trkpt>
      <trkpt lat="44.06245" lon="7.39042">
        <ele>1599</ele>
        <time>2014-09-02T14:22:50Z</time>
      </trkpt>
      <trkpt lat="44.06253" lon="7.39037">
        <ele>1598.98</ele>
        <time>2014-09-02T14:23:53Z</time>
      </trkpt>
      <trkpt lat="44.06259" lon="7.39044">
        <ele>1598.8</ele>
        <time>2014-09-02T14:24:56Z</time>
      </trkpt>
      <trkpt lat="44.06257" lon="7.39045">
        <ele>1598.8</ele>
        <time>2014-09-02T14:25:14Z</time>
      </trkpt>
      <trkpt lat="44.06617" lon="7.3936">
        <ele>1622.73</ele>
        <time>2014-09-03T05:18:34Z</time>
      </trkpt>
      <trkpt lat="44.06653" lon="7.39399">
        <ele>1627.08</ele>
        <time>2014-09-03T05:19:34Z</time>
      </trkpt>
      <trkpt lat="44.06673" lon="7.39419">
        <ele>1627.66</ele>
        <time>2014-09-03T05:20:34Z</time>
      </trkpt>
      <trkpt lat="44.06745" lon="7.39422">
        <ele>1631.8</ele>
        <time>2014-09-03T05:21:39Z</time>
      </trkpt>
      <trkpt lat="44.06805" lon="7.39475">
        <ele>1636.07</ele>
        <time>2014-09-03T05:22:45Z</time>
      </trkpt>
      <trkpt lat="44.0684" lon="7.39544">
        <ele>1641.75</ele>
        <time>2014-09-03T05:23:49Z</time>
      </trkpt>
      <trkpt lat="44.06898" lon="7.39603">
        <ele>1647.31</ele>
        <time>2014-09-03T05:24:55Z</time>
      </trkpt>
      <trkpt lat="44.0692" lon="7.39706">
        <ele>1652.89</ele>
        <time>2014-09-03T05:26:00Z</time>
      </trkpt>
      <trkpt lat="44.06984" lon="7.39759">
        <ele>1659.48</ele>
        <time>2014-09-03T05:27:05Z</time>
      </trkpt>
      <trkpt lat="44.06996" lon="7.39849">
        <ele>1666.52</ele>
        <time>2014-09-03T05:28:11Z</time>
      </trkpt>
      <trkpt lat="44.07061" lon="7.39877">
        <ele>1672.8</ele>
        <time>2014-09-03T05:29:15Z</time>
      </trkpt>
      <trkpt lat="44.08105" lon="7.40194">
        <ele>1786.47</ele>
        <time>2014-09-03T05:59:03Z</time>
      </trkpt>
      <trkpt lat="44.08145" lon="7.4019">
        <ele>1787.88</ele>
        <time>2014-09-03T06:00:03Z</time>
      </trkpt>
      <trkpt lat="44.08154" lon="7.40212">
        <ele>1790.97</ele>
        <time>2014-09-03T06:01:03Z</time>
      </trkpt>
      <trkpt lat="44.08159" lon="7.40241">
        <ele>1790.92</ele>
        <time>2014-09-03T06:02:12Z</time>
      </trkpt>
      <trkpt lat="44.08146" lon="7.40206">
        <ele>1790.98</ele>
        <time>2014-09-03T06:03:21Z</time>
      </trkpt>
      <trkpt lat="44.08139" lon="7.40233">
        <ele>1791.04</ele>
        <time>2014-09-03T06:04:34Z</time>
      </trkpt>
      <trkpt lat="44.08139" lon="7.4022">
        <ele>1791.1</ele>
        <time>2014-09-03T06:05:45Z</time>
      </trkpt>
      <trkpt lat="44.08142" lon="7.40192">
        <ele>1790.88</ele>
        <time>2014-09-03T06:06:54Z</time>
      </trkpt>
      <trkpt lat="44.08131" lon="7.40165">
        <ele>1790.64</ele>
        <time>2014-09-03T06:08:04Z</time>
      </trkpt>
      <trkpt lat="44.08129" lon="7.40211">
        <ele>1791.35</ele>
        <time>2014-09-03T06:09:16Z</time>
      </trkpt>
      <trkpt lat="44.08146" lon="7.40099">
        <ele>1801.63</ele>
        <time>2014-09-03T06:10:26Z</time>
      </trkpt>
      <trkpt lat="44.08146" lon="7.40154">
        <ele>1814.33</ele>
        <time>2014-09-03T06:11:40Z</time>
      </trkpt>
      <trkpt lat="44.08524" lon="7.40321">
        <ele>1823.81</ele>
        <time>2014-09-03T06:12:43Z</time>
      </trkpt>
      <trkpt lat="44.08525" lon="7.40385">
        <ele>1832.45</ele>
        <time>2014-09-03T06:13:46Z</time>
      </trkpt>
      <trkpt lat="44.08482" lon="7.40368">
        <ele>1827.48</ele>
        <time>2014-09-03T06:14:49Z</time>
      </trkpt>
      <trkpt lat="44.08448" lon="7.40376">
        <ele>1831.53</ele>
        <time>2014-09-03T06:15:51Z</time>
      </trkpt>
      <trkpt lat="44.0845" lon="7.40416">
        <ele>1839.85</ele>
        <time>2014-09-03T06:16:54Z</time>
      </trkpt>
      <trkpt lat="44.08458" lon="7.40429">
        <ele>1848.2</ele>
        <time>2014-09-03T06:17:57Z</time>
      </trkpt>
      <trkpt lat="44.08458" lon="7.40468">
        <ele>1856.79</ele>
        <time>2014-09-03T06:19:00Z</time>
      </trkpt>
      <trkpt lat="44.08451" lon="7.40491">
        <ele>1863.43</ele>
        <time>2014-09-03T06:20:04Z</time>
      </trkpt>
      <trkpt lat="44.0844" lon="7.40492">
        <ele>1865.3</ele>
        <time>2014-09-03T06:21:08Z</time>
      </trkpt>
      <trkpt lat="44.08437" lon="7.40506">
        <ele>1875.88</ele>
        <time>2014-09-03T06:22:11Z</time>
      </trkpt>
      <trkpt lat="44.08424" lon="7.4056">
        <ele>1882.95</ele>
        <time>2014-09-03T06:23:14Z</time>
      </trkpt>
      <trkpt lat="44.08405" lon="7.40596">
        <ele>1895.33</ele>
        <time>2014-09-03T06:24:17Z</time>
      </trkpt>
      <trkpt lat="44.0839" lon="7.40616">
        <ele>1905.72</ele>
        <time>2014-09-03T06:25:20Z</time>
      </trkpt>
      <trkpt lat="44.08399" lon="7.40651">
        <ele>1912.61</ele>
        <time>2014-09-03T06:26:23Z</time>
      </trkpt>
      <trkpt lat="44.0837" lon="7.40716">
        <ele>1921.99</ele>
        <time>2014-09-03T06:27:25Z</time>
      </trkpt>
      <trkpt lat="44.08343" lon="7.40688">
        <ele>1929.66</ele>
        <time>2014-09-03T06:28:28Z</time>
      </trkpt>
      <trkpt lat="44.08402" lon="7.40733">
        <ele>1938.51</ele>
        <time>2014-09-03T06:29:31Z</time>
      </trkpt>
      <trkpt lat="44.08429" lon="7.40727">
        <ele>1947.56</ele>
        <time>2014-09-03T06:30:34Z</time>
      </trkpt>
      <trkpt lat="44.08438" lon="7.40746">
        <ele>1957</ele>
        <time>2014-09-03T06:31:37Z</time>
      </trkpt>
      <trkpt lat="44.08444" lon="7.40729">
        <ele>1963.58</ele>
        <time>2014-09-03T06:32:40Z</time>
      </trkpt>
      <trkpt lat="44.08464" lon="7.40766">
        <ele>1970.74</ele>
        <time>2014-09-03T06:33:44Z</time>
      </trkpt>
      <trkpt lat="44.08501" lon="7.4075">
        <ele>1973.97</ele>
        <time>2014-09-03T06:34:48Z</time>
      </trkpt>
      <trkpt lat="44.08488" lon="7.40741">
        <ele>1973.97</ele>
        <time>2014-09-03T06:35:51Z</time>
      </trkpt>
      <trkpt lat="44.08498" lon="7.40758">
        <ele>1975.39</ele>
        <time>2014-09-03T06:36:54Z</time>
      </trkpt>
      <trkpt lat="44.08529" lon="7.40745">
        <ele>1987.12</ele>
        <time>2014-09-03T06:37:57Z</time>
      </trkpt>
      <trkpt lat="44.08572" lon="7.40772">
        <ele>1996.5</ele>
        <time>2014-09-03T06:39:00Z</time>
      </trkpt>
      <trkpt lat="44.08552" lon="7.40765">
        <ele>2004.38</ele>
        <time>2014-09-03T06:40:03Z</time>
      </trkpt>
      <trkpt lat="44.08581" lon="7.408">
        <ele>2012.89</ele>
        <time>2014-09-03T06:41:05Z</time>
      </trkpt>
      <trkpt lat="44.08644" lon="7.40822">
        <ele>2019.74</ele>
        <time>2014-09-03T06:42:08Z</time>
      </trkpt>
      <trkpt lat="44.08632" lon="7.41049">
        <ele>2027.76</ele>
        <time>2014-09-03T06:43:22Z</time>
      </trkpt>
      <trkpt lat="44.08694" lon="7.40826">
        <ele>2037.14</ele>
        <time>2014-09-03T06:44:31Z</time>
      </trkpt>
      <trkpt lat="44.08742" lon="7.40965">
        <ele>2047.96</ele>
        <time>2014-09-03T06:45:46Z</time>
      </trkpt>
      <trkpt lat="44.0865" lon="7.40966">
        <ele>2057.36</ele>
        <time>2014-09-03T06:46:49Z</time>
      </trkpt>
      <trkpt lat="44.08744" lon="7.41281">
        <ele>2065.48</ele>
        <time>2014-09-03T06:48:04Z</time>
      </trkpt>
      <trkpt lat="44.08706" lon="7.40985">
        <ele>2071.59</ele>
        <time>2014-09-03T06:49:16Z</time>
      </trkpt>
      <trkpt lat="44.08707" lon="7.4103">
        <ele>2079.96</ele>
        <time>2014-09-03T06:50:19Z</time>
      </trkpt>
      <trkpt lat="44.08758" lon="7.4105">
        <ele>2088.91</ele>
        <time>2014-09-03T06:51:21Z</time>
      </trkpt>
      <trkpt lat="44.08734" lon="7.41055">
        <ele>2095.08</ele>
        <time>2014-09-03T06:52:24Z</time>
      </trkpt>
      <trkpt lat="44.08769" lon="7.41079">
        <ele>2104.14</ele>
        <time>2014-09-03T06:53:27Z</time>
      </trkpt>
      <trkpt lat="44.08752" lon="7.41063">
        <ele>2106.38</ele>
        <time>2014-09-03T06:54:27Z</time>
      </trkpt>
      <trkpt lat="44.08758" lon="7.41072">
        <ele>2106.91</ele>
        <time>2014-09-03T06:55:27Z</time>
      </trkpt>
      <trkpt lat="44.08796" lon="7.41131">
        <ele>2104.17</ele>
        <time>2014-09-03T06:56:27Z</time>
      </trkpt>
      <trkpt lat="44.08814" lon="7.41147">
        <ele>2113.07</ele>
        <time>2014-09-03T06:57:27Z</time>
      </trkpt>
      <trkpt lat="44.08831" lon="7.41183">
        <ele>2124.09</ele>
        <time>2014-09-03T06:58:33Z</time>
      </trkpt>
      <trkpt lat="44.08838" lon="7.41242">
        <ele>2134.13</ele>
        <time>2014-09-03T06:59:38Z</time>
      </trkpt>
      <trkpt lat="44.08858" lon="7.41259">
        <ele>2143.44</ele>
        <time>2014-09-03T07:00:41Z</time>
      </trkpt>
      <trkpt lat="44.08843" lon="7.41286">
        <ele>2153.23</ele>
        <time>2014-09-03T07:01:44Z</time>
      </trkpt>
      <trkpt lat="44.08885" lon="7.4132">
        <ele>2162.09</ele>
        <time>2014-09-03T07:02:47Z</time>
      </trkpt>
      <trkpt lat="44.08889" lon="7.41345">
        <ele>2167.51</ele>
        <time>2014-09-03T07:03:51Z</time>
      </trkpt>
      <trkpt lat="44.08906" lon="7.41372">
        <ele>2177.84</ele>
        <time>2014-09-03T07:04:55Z</time>
      </trkpt>
      <trkpt lat="44.08924" lon="7.41372">
        <ele>2188.3</ele>
        <time>2014-09-03T07:05:58Z</time>
      </trkpt>
      <trkpt lat="44.08939" lon="7.41393">
        <ele>2197.84</ele>
        <time>2014-09-03T07:07:01Z</time>
      </trkpt>
      <trkpt lat="44.08967" lon="7.4141">
        <ele>2208.09</ele>
        <time>2014-09-03T07:08:05Z</time>
      </trkpt>
      <trkpt lat="44.08985" lon="7.41425">
        <ele>2218.49</ele>
        <time>2014-09-03T07:09:11Z</time>
      </trkpt>
      <trkpt lat="44.08982" lon="7.41389">
        <ele>2219.32</ele>
        <time>2014-09-03T07:10:17Z</time>
      </trkpt>
      <trkpt lat="44.08994" lon="7.41393">
        <ele>2230.11</ele>
        <time>2014-09-03T07:11:20Z</time>
      </trkpt>
      <trkpt lat="44.08989" lon="7.41391">
        <ele>2240.9</ele>
        <time>2014-09-03T07:12:24Z</time>
      </trkpt>
      <trkpt lat="44.08905" lon="7.41351">
        <ele>2250.81</ele>
        <time>2014-09-03T07:13:28Z</time>
      </trkpt>
      <trkpt lat="44.0899" lon="7.41381">
        <ele>2259.71</ele>
        <time>2014-09-03T07:14:33Z</time>
      </trkpt>
      <trkpt lat="44.09018" lon="7.41473">
        <ele>2260.3</ele>
        <time>2014-09-03T07:15:36Z</time>
      </trkpt>
      <trkpt lat="44.09045" lon="7.4157">
        <ele>2258.9</ele>
        <time>2014-09-03T07:16:39Z</time>
      </trkpt>
      <trkpt lat="44.09062" lon="7.41576">
        <ele>2257.4</ele>
        <time>2014-09-03T07:17:42Z</time>
      </trkpt>
      <trkpt lat="44.09067" lon="7.41579">
        <ele>2257.37</ele>
        <time>2014-09-03T07:18:45Z</time>
      </trkpt>
      <trkpt lat="44.09041" lon="7.41559">
        <ele>2257.71</ele>
        <time>2014-09-03T07:19:47Z</time>
      </trkpt>
      <trkpt lat="44.09043" lon="7.41562">
        <ele>2257.69</ele>
        <time>2014-09-03T07:20:50Z</time>
      </trkpt>
      <trkpt lat="44.09028" lon="7.41564">
        <ele>2257.3</ele>
        <time>2014-09-03T07:21:54Z</time>
      </trkpt>
      <trkpt lat="44.09045" lon="7.41567">
        <ele>2257.29</ele>
        <time>2014-09-03T07:22:57Z</time>
      </trkpt>
      <trkpt lat="44.09065" lon="7.4157">
        <ele>2257.21</ele>
        <time>2014-09-03T07:23:59Z</time>
      </trkpt>
      <trkpt lat="44.09055" lon="7.4157">
        <ele>2256.91</ele>
        <time>2014-09-03T07:25:02Z</time>
      </trkpt>
      <trkpt lat="44.09059" lon="7.41559">
        <ele>2257.03</ele>
        <time>2014-09-03T07:26:05Z</time>
      </trkpt>
      <trkpt lat="44.09052" lon="7.41563">
        <ele>2257.18</ele>
        <time>2014-09-03T07:27:08Z</time>
      </trkpt>
      <trkpt lat="44.09042" lon="7.41554">
        <ele>2257.31</ele>
        <time>2014-09-03T07:28:10Z</time>
      </trkpt>
      <trkpt lat="44.09048" lon="7.41563">
        <ele>2257.33</ele>
        <time>2014-09-03T07:29:13Z</time>
      </trkpt>
      <trkpt lat="44.09043" lon="7.41558">
        <ele>2257.44</ele>
        <time>2014-09-03T07:30:16Z</time>
      </trkpt>
      <trkpt lat="44.09048" lon="7.4158">
        <ele>2257.43</ele>
        <time>2014-09-03T07:31:18Z</time>
      </trkpt>
      <trkpt lat="44.09056" lon="7.41558">
        <ele>2257.71</ele>
        <time>2014-09-03T07:32:21Z</time>
      </trkpt>
      <trkpt lat="44.09043" lon="7.41567">
        <ele>2257.75</ele>
        <time>2014-09-03T07:33:24Z</time>
      </trkpt>
      <trkpt lat="44.09048" lon="7.41559">
        <ele>2258.81</ele>
        <time>2014-09-03T07:34:28Z</time>
      </trkpt>
      <trkpt lat="44.0904" lon="7.41507">
        <ele>2262.42</ele>
        <time>2014-09-03T07:35:33Z</time>
      </trkpt>
      <trkpt lat="44.09086" lon="7.41517">
        <ele>2269.65</ele>
        <time>2014-09-03T07:36:37Z</time>
      </trkpt>
      <trkpt lat="44.09094" lon="7.41535">
        <ele>2273.44</ele>
        <time>2014-09-03T07:37:43Z</time>
      </trkpt>
      <trkpt lat="44.09118" lon="7.4157">
        <ele>2283.83</ele>
        <time>2014-09-03T07:38:48Z</time>
      </trkpt>
      <trkpt lat="44.09134" lon="7.41592">
        <ele>2290.76</ele>
        <time>2014-09-03T07:39:51Z</time>
      </trkpt>
      <trkpt lat="44.09134" lon="7.41662">
        <ele>2296.68</ele>
        <time>2014-09-03T07:40:56Z</time>
      </trkpt>
      <trkpt lat="44.09137" lon="7.41674">
        <ele>2297.63</ele>
        <time>2014-09-03T07:41:59Z</time>
      </trkpt>
      <trkpt lat="44.09146" lon="7.41709">
        <ele>2309.35</ele>
        <time>2014-09-03T07:43:04Z</time>
      </trkpt>
      <trkpt lat="44.09168" lon="7.41719">
        <ele>2318.81</ele>
        <time>2014-09-03T07:44:09Z</time>
      </trkpt>
      <trkpt lat="44.09193" lon="7.41712">
        <ele>2326.87</ele>
        <time>2014-09-03T07:45:13Z</time>
      </trkpt>
      <trkpt lat="44.09181" lon="7.41719">
        <ele>2327.69</ele>
        <time>2014-09-03T07:46:16Z</time>
      </trkpt>
      <trkpt lat="44.09188" lon="7.41732">
        <ele>2337.95</ele>
        <time>2014-09-03T07:47:20Z</time>
      </trkpt>
      <trkpt lat="44.09193" lon="7.41774">
        <ele>2341.1</ele>
        <time>2014-09-03T07:48:23Z</time>
      </trkpt>
      <trkpt lat="44.09168" lon="7.41834">
        <ele>2345.34</ele>
        <time>2014-09-03T07:49:28Z</time>
      </trkpt>
      <trkpt lat="44.09175" lon="7.41848">
        <ele>2356.67</ele>
        <time>2014-09-03T07:50:31Z</time>
      </trkpt>
      <trkpt lat="44.09202" lon="7.41868">
        <ele>2365.48</ele>
        <time>2014-09-03T07:51:35Z</time>
      </trkpt>
      <trkpt lat="44.09211" lon="7.41875">
        <ele>2373.52</ele>
        <time>2014-09-03T07:52:38Z</time>
      </trkpt>
      <trkpt lat="44.09215" lon="7.41882">
        <ele>2378.7</ele>
        <time>2014-09-03T07:53:43Z</time>
      </trkpt>
      <trkpt lat="44.09195" lon="7.419">
        <ele>2381.33</ele>
        <time>2014-09-03T07:54:47Z</time>
      </trkpt>
      <trkpt lat="44.0922" lon="7.41898">
        <ele>2391.23</ele>
        <time>2014-09-03T07:55:50Z</time>
      </trkpt>
      <trkpt lat="44.09219" lon="7.4193">
        <ele>2399.5</ele>
        <time>2014-09-03T07:56:53Z</time>
      </trkpt>
      <trkpt lat="44.09215" lon="7.41977">
        <ele>2408.86</ele>
        <time>2014-09-03T07:58:00Z</time>
      </trkpt>
      <trkpt lat="44.09239" lon="7.42036">
        <ele>2414.76</ele>
        <time>2014-09-03T07:59:04Z</time>
      </trkpt>
      <trkpt lat="44.09265" lon="7.42085">
        <ele>2420.54</ele>
        <time>2014-09-03T08:00:08Z</time>
      </trkpt>
      <trkpt lat="44.09314" lon="7.42103">
        <ele>2428.34</ele>
        <time>2014-09-03T08:01:10Z</time>
      </trkpt>
      <trkpt lat="44.09301" lon="7.42111">
        <ele>2434.66</ele>
        <time>2014-09-03T08:02:16Z</time>
      </trkpt>
      <trkpt lat="44.09314" lon="7.42128">
        <ele>2439.96</ele>
        <time>2014-09-03T08:03:20Z</time>
      </trkpt>
      <trkpt lat="44.09346" lon="7.42157">
        <ele>2442.22</ele>
        <time>2014-09-03T08:04:24Z</time>
      </trkpt>
      <trkpt lat="44.09367" lon="7.42175">
        <ele>2449.23</ele>
        <time>2014-09-03T08:05:28Z</time>
      </trkpt>
      <trkpt lat="44.09392" lon="7.42184">
        <ele>2458</ele>
        <time>2014-09-03T08:06:32Z</time>
      </trkpt>
      <trkpt lat="44.09373" lon="7.42218">
        <ele>2467.11</ele>
        <time>2014-09-03T08:07:37Z</time>
      </trkpt>
      <trkpt lat="44.09453" lon="7.42217">
        <ele>2474.2</ele>
        <time>2014-09-03T08:08:40Z</time>
      </trkpt>
      <trkpt lat="44.09458" lon="7.42224">
        <ele>2481.33</ele>
        <time>2014-09-03T08:09:44Z</time>
      </trkpt>
      <trkpt lat="44.09479" lon="7.4224">
        <ele>2490.43</ele>
        <time>2014-09-03T08:10:48Z</time>
      </trkpt>
      <trkpt lat="44.09527" lon="7.42275">
        <ele>2497.95</ele>
        <time>2014-09-03T08:11:51Z</time>
      </trkpt>
      <trkpt lat="44.09563" lon="7.42257">
        <ele>2509.88</ele>
        <time>2014-09-03T08:12:56Z</time>
      </trkpt>
      <trkpt lat="44.09602" lon="7.42279">
        <ele>2519.81</ele>
        <time>2014-09-03T08:14:00Z</time>
      </trkpt>
      <trkpt lat="44.0962" lon="7.42297">
        <ele>2529.5</ele>
        <time>2014-09-03T08:15:05Z</time>
      </trkpt>
      <trkpt lat="44.09651" lon="7.42297">
        <ele>2543.95</ele>
        <time>2014-09-03T08:16:10Z</time>
      </trkpt>
      <trkpt lat="44.09669" lon="7.4232">
        <ele>2546.34</ele>
        <time>2014-09-03T08:17:16Z</time>
      </trkpt>
      <trkpt lat="44.09685" lon="7.42343">
        <ele>2555.84</ele>
        <time>2014-09-03T08:18:20Z</time>
      </trkpt>
      <trkpt lat="44.09689" lon="7.42356">
        <ele>2558.2</ele>
        <time>2014-09-03T08:19:25Z</time>
      </trkpt>
      <trkpt lat="44.09698" lon="7.42355">
        <ele>2557.91</ele>
        <time>2014-09-03T08:20:29Z</time>
      </trkpt>
      <trkpt lat="44.09682" lon="7.42357">
        <ele>2557.42</ele>
        <time>2014-09-03T08:21:34Z</time>
      </trkpt>
      <trkpt lat="44.09696" lon="7.42352">
        <ele>2559.33</ele>
        <time>2014-09-03T08:22:41Z</time>
      </trkpt>
      <trkpt lat="44.09703" lon="7.4237">
        <ele>2558.83</ele>
        <time>2014-09-03T08:23:48Z</time>
      </trkpt>
      <trkpt lat="44.09692" lon="7.42373">
        <ele>2558.37</ele>
        <time>2014-09-03T08:24:55Z</time>
      </trkpt>
      <trkpt lat="44.09686" lon="7.42381">
        <ele>2558.55</ele>
        <time>2014-09-03T08:25:59Z</time>
      </trkpt>
      <trkpt lat="44.09693" lon="7.42368">
        <ele>2558.9</ele>
        <time>2014-09-03T08:27:04Z</time>
      </trkpt>
      <trkpt lat="44.09679" lon="7.4238">
        <ele>2558.98</ele>
        <time>2014-09-03T08:28:09Z</time>
      </trkpt>
      <trkpt lat="44.0972" lon="7.42356">
        <ele>2558.46</ele>
        <time>2014-09-03T08:29:15Z</time>
      </trkpt>
      <trkpt lat="44.09703" lon="7.42372">
        <ele>2559.04</ele>
        <time>2014-09-03T08:30:20Z</time>
      </trkpt>
      <trkpt lat="44.09702" lon="7.4237">
        <ele>2558.79</ele>
        <time>2014-09-03T08:31:24Z</time>
      </trkpt>
      <trkpt lat="44.09686" lon="7.42374">
        <ele>2559.67</ele>
        <time>2014-09-03T08:32:31Z</time>
      </trkpt>
      <trkpt lat="44.09695" lon="7.42421">
        <ele>2568.44</ele>
        <time>2014-09-03T08:33:39Z</time>
      </trkpt>
      <trkpt lat="44.09692" lon="7.42477">
        <ele>2572.38</ele>
        <time>2014-09-03T08:34:44Z</time>
      </trkpt>
      <trkpt lat="44.09716" lon="7.42521">
        <ele>2579.9</ele>
        <time>2014-09-03T08:35:49Z</time>
      </trkpt>
      <trkpt lat="44.09718" lon="7.42571">
        <ele>2583.36</ele>
        <time>2014-09-03T08:36:55Z</time>
      </trkpt>
      <trkpt lat="44.0972" lon="7.42609">
        <ele>2593.71</ele>
        <time>2014-09-03T08:38:00Z</time>
      </trkpt>
      <trkpt lat="44.09708" lon="7.42662">
        <ele>2599.11</ele>
        <time>2014-09-03T08:39:06Z</time>
      </trkpt>
      <trkpt lat="44.09707" lon="7.42668">
        <ele>2608.34</ele>
        <time>2014-09-03T08:40:11Z</time>
      </trkpt>
      <trkpt lat="44.09664" lon="7.42697">
        <ele>2619.1</ele>
        <time>2014-09-03T08:41:15Z</time>
      </trkpt>
      <trkpt lat="44.09649" lon="7.4272">
        <ele>2632.57</ele>
        <time>2014-09-03T08:42:21Z</time>
      </trkpt>
      <trkpt lat="44.09684" lon="7.42728">
        <ele>2648.69</ele>
        <time>2014-09-03T08:43:28Z</time>
      </trkpt>
      <trkpt lat="44.09666" lon="7.42764">
        <ele>2663.6</ele>
        <time>2014-09-03T08:44:32Z</time>
      </trkpt>
      <trkpt lat="44.09683" lon="7.42772">
        <ele>2665.81</ele>
        <time>2014-09-03T08:45:35Z</time>
      </trkpt>
      <trkpt lat="44.09664" lon="7.42778">
        <ele>2662.52</ele>
        <time>2014-09-03T08:46:39Z</time>
      </trkpt>
      <trkpt lat="44.09641" lon="7.42807">
        <ele>2663.34</ele>
        <time>2014-09-03T08:47:44Z</time>
      </trkpt>
      <trkpt lat="44.09654" lon="7.4279">
        <ele>2662.44</ele>
        <time>2014-09-03T08:48:47Z</time>
      </trkpt>
      <trkpt lat="44.09665" lon="7.42784">
        <ele>2662.33</ele>
        <time>2014-09-03T08:49:53Z</time>
      </trkpt>
      <trkpt lat="44.09667" lon="7.42781">
        <ele>2662.46</ele>
        <time>2014-09-03T08:50:57Z</time>
      </trkpt>
      <trkpt lat="44.09667" lon="7.42779">
        <ele>2663.21</ele>
        <time>2014-09-03T08:52:00Z</time>
      </trkpt>
      <trkpt lat="44.09666" lon="7.42783">
        <ele>2662.82</ele>
        <time>2014-09-03T08:53:00Z</time>
      </trkpt>
      <trkpt lat="44.09667" lon="7.42783">
        <ele>2693.01</ele>
        <time>2014-09-03T08:54:00Z</time>
      </trkpt>
      <trkpt lat="44.09667" lon="7.42782">
        <ele>2692.52</ele>
        <time>2014-09-03T08:55:00Z</time>
      </trkpt>
      <trkpt lat="44.09667" lon="7.42781">
        <ele>2692.4</ele>
        <time>2014-09-03T08:56:00Z</time>
      </trkpt>
      <trkpt lat="44.09655" lon="7.42799">
        <ele>2692.5</ele>
        <time>2014-09-03T08:57:03Z</time>
      </trkpt>
      <trkpt lat="44.09654" lon="7.42783">
        <ele>2692.47</ele>
        <time>2014-09-03T08:58:08Z</time>
      </trkpt>
      <trkpt lat="44.09673" lon="7.42791">
        <ele>2692.18</ele>
        <time>2014-09-03T08:59:11Z</time>
      </trkpt>
      <trkpt lat="44.09668" lon="7.42773">
        <ele>2692.41</ele>
        <time>2014-09-03T09:00:13Z</time>
      </trkpt>
      <trkpt lat="44.09656" lon="7.42772">
        <ele>2692.26</ele>
        <time>2014-09-03T09:01:16Z</time>
      </trkpt>
      <trkpt lat="44.09652" lon="7.42767">
        <ele>2691.92</ele>
        <time>2014-09-03T09:02:22Z</time>
      </trkpt>
      <trkpt lat="44.09664" lon="7.42789">
        <ele>2692.18</ele>
        <time>2014-09-03T09:03:25Z</time>
      </trkpt>
      <trkpt lat="44.09664" lon="7.4278">
        <ele>2692.36</ele>
        <time>2014-09-03T09:04:28Z</time>
      </trkpt>
      <trkpt lat="44.09657" lon="7.42774">
        <ele>2692.1</ele>
        <time>2014-09-03T09:05:31Z</time>
      </trkpt>
      <trkpt lat="44.09672" lon="7.42788">
        <ele>2691.95</ele>
        <time>2014-09-03T09:06:34Z</time>
      </trkpt>
      <trkpt lat="44.09653" lon="7.4278">
        <ele>2691.92</ele>
        <time>2014-09-03T09:07:40Z</time>
      </trkpt>
      <trkpt lat="44.09659" lon="7.42779">
        <ele>2696.6</ele>
        <time>2014-09-03T09:08:44Z</time>
      </trkpt>
      <trkpt lat="44.0967" lon="7.42784">
        <ele>2696.59</ele>
        <time>2014-09-03T09:09:44Z</time>
      </trkpt>
      <trkpt lat="44.09654" lon="7.42787">
        <ele>2689.56</ele>
        <time>2014-09-03T09:10:44Z</time>
      </trkpt>
      <trkpt lat="44.09626" lon="7.42765">
        <ele>2678.75</ele>
        <time>2014-09-03T09:11:44Z</time>
      </trkpt>
      <trkpt lat="44.09597" lon="7.42767">
        <ele>2671.92</ele>
        <time>2014-09-03T09:12:49Z</time>
      </trkpt>
      <trkpt lat="44.09572" lon="7.42753">
        <ele>2664.99</ele>
        <time>2014-09-03T09:13:52Z</time>
      </trkpt>
      <trkpt lat="44.09568" lon="7.4276">
        <ele>2656.9</ele>
        <time>2014-09-03T09:14:54Z</time>
      </trkpt>
      <trkpt lat="44.09585" lon="7.42789">
        <ele>2648.57</ele>
        <time>2014-09-03T09:15:57Z</time>
      </trkpt>
      <trkpt lat="44.09518" lon="7.42776">
        <ele>2639.85</ele>
        <time>2014-09-03T09:17:01Z</time>
      </trkpt>
      <trkpt lat="44.09508" lon="7.42793">
        <ele>2629.1</ele>
        <time>2014-09-03T09:18:05Z</time>
      </trkpt>
      <trkpt lat="44.09468" lon="7.42844">
        <ele>2619.52</ele>
        <time>2014-09-03T09:19:08Z</time>
      </trkpt>
      <trkpt lat="44.09437" lon="7.42855">
        <ele>2609.84</ele>
        <time>2014-09-03T09:20:18Z</time>
      </trkpt>
      <trkpt lat="44.09368" lon="7.42878">
        <ele>2603.51</ele>
        <time>2014-09-03T09:21:21Z</time>
      </trkpt>
      <trkpt lat="44.09325" lon="7.42919">
        <ele>2593.43</ele>
        <time>2014-09-03T09:22:26Z</time>
      </trkpt>
      <trkpt lat="44.09298" lon="7.42911">
        <ele>2581.87</ele>
        <time>2014-09-03T09:23:37Z</time>
      </trkpt>
      <trkpt lat="44.0925" lon="7.42955">
        <ele>2572.31</ele>
        <time>2014-09-03T09:24:44Z</time>
      </trkpt>
      <trkpt lat="44.09119" lon="7.42937">
        <ele>2562.39</ele>
        <time>2014-09-03T09:25:55Z</time>
      </trkpt>
      <trkpt lat="44.09326" lon="7.42966">
        <ele>2558.16</ele>
        <time>2014-09-03T09:27:03Z</time>
      </trkpt>
      <trkpt lat="44.09323" lon="7.43018">
        <ele>2554.95</ele>
        <time>2014-09-03T09:28:12Z</time>
      </trkpt>
      <trkpt lat="44.09298" lon="7.43039">
        <ele>2558.94</ele>
        <time>2014-09-03T09:29:16Z</time>
      </trkpt>
      <trkpt lat="44.09199" lon="7.43064">
        <ele>2553.18</ele>
        <time>2014-09-03T09:30:28Z</time>
      </trkpt>
      <trkpt lat="44.0922" lon="7.43081">
        <ele>2555.08</ele>
        <time>2014-09-03T09:31:32Z</time>
      </trkpt>
      <trkpt lat="44.09158" lon="7.43072">
        <ele>2555.32</ele>
        <time>2014-09-03T09:32:45Z</time>
      </trkpt>
      <trkpt lat="44.08768" lon="7.42935">
        <ele>2554.17</ele>
        <time>2014-09-03T09:34:26Z</time>
      </trkpt>
      <trkpt lat="44.09137" lon="7.43037">
        <ele>2553.79</ele>
        <time>2014-09-03T09:35:33Z</time>
      </trkpt>
      <trkpt lat="44.09135" lon="7.43061">
        <ele>2553.29</ele>
        <time>2014-09-03T09:36:45Z</time>
      </trkpt>
      <trkpt lat="44.09134" lon="7.43067">
        <ele>2553.22</ele>
        <time>2014-09-03T09:38:05Z</time>
      </trkpt>
      <trkpt lat="44.09131" lon="7.43063">
        <ele>2553.78</ele>
        <time>2014-09-03T09:39:11Z</time>
      </trkpt>
      <trkpt lat="44.09116" lon="7.43068">
        <ele>2553.74</ele>
        <time>2014-09-03T09:40:30Z</time>
      </trkpt>
      <trkpt lat="44.091" lon="7.43069">
        <ele>2553.94</ele>
        <time>2014-09-03T09:41:47Z</time>
      </trkpt>
      <trkpt lat="44.0896" lon="7.42986">
        <ele>2553.52</ele>
        <time>2014-09-03T09:43:05Z</time>
      </trkpt>
      <trkpt lat="44.09022" lon="7.43055">
        <ele>2553.85</ele>
        <time>2014-09-03T09:44:24Z</time>
      </trkpt>
      <trkpt lat="44.08926" lon="7.43039">
        <ele>2553.95</ele>
        <time>2014-09-03T09:45:30Z</time>
      </trkpt>
      <trkpt lat="44.09046" lon="7.43057">
        <ele>2554.44</ele>
        <time>2014-09-03T09:46:42Z</time>
      </trkpt>
      <trkpt lat="44.09075" lon="7.43068">
        <ele>2554.35</ele>
        <time>2014-09-03T09:47:49Z</time>
      </trkpt>
      <trkpt lat="44.09063" lon="7.4303">
        <ele>2554.32</ele>
        <time>2014-09-03T09:48:53Z</time>
      </trkpt>
      <trkpt lat="44.09089" lon="7.4305">
        <ele>2554.28</ele>
        <time>2014-09-03T09:49:55Z</time>
      </trkpt>
      <trkpt lat="44.09099" lon="7.43063">
        <ele>2553.79</ele>
        <time>2014-09-03T09:50:59Z</time>
      </trkpt>
      <trkpt lat="44.091" lon="7.43079">
        <ele>2553.89</ele>
        <time>2014-09-03T09:52:04Z</time>
      </trkpt>
      <trkpt lat="44.091" lon="7.43076">
        <ele>2554.3</ele>
        <time>2014-09-03T09:53:05Z</time>
      </trkpt>
      <trkpt lat="44.09172" lon="7.43086">
        <ele>2550.45</ele>
        <time>2014-09-03T11:37:29Z</time>
      </trkpt>
      <trkpt lat="44.09152" lon="7.43071">
        <ele>2548.5</ele>
        <time>2014-09-03T11:38:29Z</time>
      </trkpt>
      <trkpt lat="44.09134" lon="7.43054">
        <ele>2547.84</ele>
        <time>2014-09-03T11:39:29Z</time>
      </trkpt>
      <trkpt lat="44.09096" lon="7.43079">
        <ele>2546.36</ele>
        <time>2014-09-03T11:40:34Z</time>
      </trkpt>
      <trkpt lat="44.09072" lon="7.43122">
        <ele>2542.31</ele>
        <time>2014-09-03T11:41:37Z</time>
      </trkpt>
      <trkpt lat="44.09055" lon="7.43144">
        <ele>2534.83</ele>
        <time>2014-09-03T11:42:41Z</time>
      </trkpt>
      <trkpt lat="44.09065" lon="7.43183">
        <ele>2527.91</ele>
        <time>2014-09-03T11:43:46Z</time>
      </trkpt>
      <trkpt lat="44.0903" lon="7.43192">
        <ele>2519.15</ele>
        <time>2014-09-03T11:44:52Z</time>
      </trkpt>
      <trkpt lat="44.09007" lon="7.43212">
        <ele>2509.75</ele>
        <time>2014-09-03T11:45:59Z</time>
      </trkpt>
      <trkpt lat="44.08992" lon="7.43264">
        <ele>2499.85</ele>
        <time>2014-09-03T11:47:04Z</time>
      </trkpt>
      <trkpt lat="44.08986" lon="7.43269">
        <ele>2495.56</ele>
        <time>2014-09-03T11:48:10Z</time>
      </trkpt>
      <trkpt lat="44.08977" lon="7.43302">
        <ele>2493.37</ele>
        <time>2014-09-03T11:49:13Z</time>
      </trkpt>
      <trkpt lat="44.0887" lon="7.43281">
        <ele>2483.87</ele>
        <time>2014-09-03T11:50:49Z</time>
      </trkpt>
      <trkpt lat="44.08896" lon="7.4336">
        <ele>2478.01</ele>
        <time>2014-09-03T11:51:56Z</time>
      </trkpt>
      <trkpt lat="44.0887" lon="7.43393">
        <ele>2473.14</ele>
        <time>2014-09-03T11:53:02Z</time>
      </trkpt>
      <trkpt lat="44.0885" lon="7.43413">
        <ele>2472.87</ele>
        <time>2014-09-03T11:54:07Z</time>
      </trkpt>
      <trkpt lat="44.08814" lon="7.43421">
        <ele>2472</ele>
        <time>2014-09-03T11:55:13Z</time>
      </trkpt>
      <trkpt lat="44.08809" lon="7.43375">
        <ele>2467.35</ele>
        <time>2014-09-03T11:56:14Z</time>
      </trkpt>
      <trkpt lat="44.08772" lon="7.43471">
        <ele>2469.24</ele>
        <time>2014-09-03T11:57:19Z</time>
      </trkpt>
      <trkpt lat="44.08739" lon="7.43514">
        <ele>2472.81</ele>
        <time>2014-09-03T11:58:24Z</time>
      </trkpt>
      <trkpt lat="44.08727" lon="7.43522">
        <ele>2467.64</ele>
        <time>2014-09-03T11:59:28Z</time>
      </trkpt>
      <trkpt lat="44.08654" lon="7.43453">
        <ele>2468.45</ele>
        <time>2014-09-03T12:00:40Z</time>
      </trkpt>
      <trkpt lat="44.08725" lon="7.43495">
        <ele>2471.52</ele>
        <time>2014-09-03T12:01:43Z</time>
      </trkpt>
      <trkpt lat="44.08695" lon="7.43529">
        <ele>2468.31</ele>
        <time>2014-09-03T12:02:47Z</time>
      </trkpt>
      <trkpt lat="44.08658" lon="7.43577">
        <ele>2458.76</ele>
        <time>2014-09-03T12:03:52Z</time>
      </trkpt>
      <trkpt lat="44.08606" lon="7.43592">
        <ele>2454.95</ele>
        <time>2014-09-03T12:05:00Z</time>
      </trkpt>
      <trkpt lat="44.0856" lon="7.4363">
        <ele>2451.99</ele>
        <time>2014-09-03T12:06:05Z</time>
      </trkpt>
      <trkpt lat="44.0853" lon="7.43645">
        <ele>2446.12</ele>
        <time>2014-09-03T12:07:12Z</time>
      </trkpt>
      <trkpt lat="44.08505" lon="7.43631">
        <ele>2439.52</ele>
        <time>2014-09-03T12:08:16Z</time>
      </trkpt>
      <trkpt lat="44.08484" lon="7.43679">
        <ele>2428.66</ele>
        <time>2014-09-03T12:09:22Z</time>
      </trkpt>
      <trkpt lat="44.08461" lon="7.43721">
        <ele>2417.81</ele>
        <time>2014-09-03T12:10:26Z</time>
      </trkpt>
      <trkpt lat="44.0844" lon="7.43739">
        <ele>2416.33</ele>
        <time>2014-09-03T12:11:30Z</time>
      </trkpt>
      <trkpt lat="44.0841" lon="7.43776">
        <ele>2417.89</ele>
        <time>2014-09-03T12:12:33Z</time>
      </trkpt>
      <trkpt lat="44.08355" lon="7.43841">
        <ele>2425.93</ele>
        <time>2014-09-03T12:13:37Z</time>
      </trkpt>
      <trkpt lat="44.0847" lon="7.43866">
        <ele>2429.14</ele>
        <time>2014-09-03T12:14:51Z</time>
      </trkpt>
      <trkpt lat="44.08442" lon="7.43859">
        <ele>2441.24</ele>
        <time>2014-09-03T12:16:16Z</time>
      </trkpt>
      <trkpt lat="44.08357" lon="7.43752">
        <ele>2454.07</ele>
        <time>2014-09-03T12:17:33Z</time>
      </trkpt>
      <trkpt lat="44.08091" lon="7.43673">
        <ele>2463.93</ele>
        <time>2014-09-03T12:18:45Z</time>
      </trkpt>
      <trkpt lat="44.08203" lon="7.43848">
        <ele>2474.37</ele>
        <time>2014-09-03T12:19:59Z</time>
      </trkpt>
      <trkpt lat="44.08407" lon="7.43899">
        <ele>2486.15</ele>
        <time>2014-09-03T12:21:13Z</time>
      </trkpt>
      <trkpt lat="44.08069" lon="7.43803">
        <ele>2501.86</ele>
        <time>2014-09-03T12:22:28Z</time>
      </trkpt>
      <trkpt lat="44.08805" lon="7.4417">
        <ele>2523.18</ele>
        <time>2014-09-03T12:23:54Z</time>
      </trkpt>
      <trkpt lat="44.08101" lon="7.4392">
        <ele>2539.69</ele>
        <time>2014-09-03T12:25:03Z</time>
      </trkpt>
      <trkpt lat="44.08052" lon="7.43882">
        <ele>2553.99</ele>
        <time>2014-09-03T12:26:07Z</time>
      </trkpt>
      <trkpt lat="44.08052" lon="7.43851">
        <ele>2559.55</ele>
        <time>2014-09-03T12:27:10Z</time>
      </trkpt>
      <trkpt lat="44.08063" lon="7.4385">
        <ele>2559.51</ele>
        <time>2014-09-03T12:28:12Z</time>
      </trkpt>
      <trkpt lat="44.08043" lon="7.43856">
        <ele>2560.33</ele>
        <time>2014-09-03T12:29:14Z</time>
      </trkpt>
      <trkpt lat="44.0804" lon="7.43833">
        <ele>2561.24</ele>
        <time>2014-09-03T12:30:14Z</time>
      </trkpt>
      <trkpt lat="44.08027" lon="7.43809">
        <ele>2561.3</ele>
        <time>2014-09-03T12:31:14Z</time>
      </trkpt>
      <trkpt lat="44.08038" lon="7.43833">
        <ele>2568.11</ele>
        <time>2014-09-03T12:32:17Z</time>
      </trkpt>
      <trkpt lat="44.08028" lon="7.4383">
        <ele>2562.06</ele>
        <time>2014-09-03T12:33:18Z</time>
      </trkpt>
      <trkpt lat="44.08035" lon="7.43841">
        <ele>2561.49</ele>
        <time>2014-09-03T12:34:21Z</time>
      </trkpt>
      <trkpt lat="44.08028" lon="7.43827">
        <ele>2561.74</ele>
        <time>2014-09-03T12:35:24Z</time>
      </trkpt>
      <trkpt lat="44.08032" lon="7.43833">
        <ele>2561.26</ele>
        <time>2014-09-03T12:36:26Z</time>
      </trkpt>
      <trkpt lat="44.08036" lon="7.43834">
        <ele>2561.27</ele>
        <time>2014-09-03T12:37:29Z</time>
      </trkpt>
      <trkpt lat="44.08038" lon="7.43839">
        <ele>2561.55</ele>
        <time>2014-09-03T12:38:32Z</time>
      </trkpt>
      <trkpt lat="44.08037" lon="7.43838">
        <ele>2562.06</ele>
        <time>2014-09-03T12:39:35Z</time>
      </trkpt>
      <trkpt lat="44.08038" lon="7.43837">
        <ele>2562.77</ele>
        <time>2014-09-03T12:40:38Z</time>
      </trkpt>
      <trkpt lat="44.08034" lon="7.43836">
        <ele>2562.28</ele>
        <time>2014-09-03T12:41:40Z</time>
      </trkpt>
      <trkpt lat="44.08034" lon="7.43834">
        <ele>2561.92</ele>
        <time>2014-09-03T12:42:43Z</time>
      </trkpt>
      <trkpt lat="44.08036" lon="7.43826">
        <ele>2560.46</ele>
        <time>2014-09-03T12:43:46Z</time>
      </trkpt>
      <trkpt lat="44.08035" lon="7.43835">
        <ele>2561.53</ele>
        <time>2014-09-03T12:44:49Z</time>
      </trkpt>
      <trkpt lat="44.08042" lon="7.43833">
        <ele>2561.97</ele>
        <time>2014-09-03T12:45:52Z</time>
      </trkpt>
      <trkpt lat="44.0804" lon="7.43835">
        <ele>2562.01</ele>
        <time>2014-09-03T12:46:55Z</time>
      </trkpt>
      <trkpt lat="44.08007" lon="7.43824">
        <ele>2557.41</ele>
        <time>2014-09-03T12:47:57Z</time>
      </trkpt>
      <trkpt lat="44.08004" lon="7.4378">
        <ele>2551.29</ele>
        <time>2014-09-03T12:49:00Z</time>
      </trkpt>
      <trkpt lat="44.07993" lon="7.43759">
        <ele>2541.4</ele>
        <time>2014-09-03T12:50:03Z</time>
      </trkpt>
      <trkpt lat="44.07958" lon="7.43734">
        <ele>2530.55</ele>
        <time>2014-09-03T12:51:06Z</time>
      </trkpt>
      <trkpt lat="44.07954" lon="7.4377">
        <ele>2521.36</ele>
        <time>2014-09-03T12:52:09Z</time>
      </trkpt>
      <trkpt lat="44.07934" lon="7.4373">
        <ele>2512.81</ele>
        <time>2014-09-03T12:53:12Z</time>
      </trkpt>
      <trkpt lat="44.07916" lon="7.4374">
        <ele>2500.56</ele>
        <time>2014-09-03T12:54:14Z</time>
      </trkpt>
      <trkpt lat="44.0789" lon="7.43725">
        <ele>2489.91</ele>
        <time>2014-09-03T12:55:18Z</time>
      </trkpt>
      <trkpt lat="44.07881" lon="7.43744">
        <ele>2477.91</ele>
        <time>2014-09-03T12:56:22Z</time>
      </trkpt>
      <trkpt lat="44.0783" lon="7.43725">
        <ele>2466.14</ele>
        <time>2014-09-03T12:57:27Z</time>
      </trkpt>
      <trkpt lat="44.07845" lon="7.43776">
        <ele>2453.73</ele>
        <time>2014-09-03T12:58:36Z</time>
      </trkpt>
      <trkpt lat="44.07838" lon="7.4377">
        <ele>2445.41</ele>
        <time>2014-09-03T12:59:43Z</time>
      </trkpt>
      <trkpt lat="44.07794" lon="7.43767">
        <ele>2435.57</ele>
        <time>2014-09-03T13:00:45Z</time>
      </trkpt>
      <trkpt lat="44.0779" lon="7.43789">
        <ele>2425.23</ele>
        <time>2014-09-03T13:01:49Z</time>
      </trkpt>
      <trkpt lat="44.07766" lon="7.43762">
        <ele>2414.04</ele>
        <time>2014-09-03T13:02:52Z</time>
      </trkpt>
      <trkpt lat="44.07713" lon="7.43735">
        <ele>2403.19</ele>
        <time>2014-09-03T13:03:56Z</time>
      </trkpt>
      <trkpt lat="44.07697" lon="7.43797">
        <ele>2392.75</ele>
        <time>2014-09-03T13:05:02Z</time>
      </trkpt>
      <trkpt lat="44.07624" lon="7.43785">
        <ele>2389.79</ele>
        <time>2014-09-03T13:06:04Z</time>
      </trkpt>
      <trkpt lat="44.07537" lon="7.43878">
        <ele>2388.86</ele>
        <time>2014-09-03T13:07:07Z</time>
      </trkpt>
      <trkpt lat="44.07504" lon="7.43849">
        <ele>2384.63</ele>
        <time>2014-09-03T13:08:10Z</time>
      </trkpt>
      <trkpt lat="44.07449" lon="7.43852">
        <ele>2377.42</ele>
        <time>2014-09-03T13:09:13Z</time>
      </trkpt>
      <trkpt lat="44.07379" lon="7.43881">
        <ele>2371.25</ele>
        <time>2014-09-03T13:10:17Z</time>
      </trkpt>
      <trkpt lat="44.07331" lon="7.44005">
        <ele>2362.17</ele>
        <time>2014-09-03T13:11:20Z</time>
      </trkpt>
      <trkpt lat="44.073" lon="7.44004">
        <ele>2352.46</ele>
        <time>2014-09-03T13:12:23Z</time>
      </trkpt>
      <trkpt lat="44.07223" lon="7.43938">
        <ele>2341.85</ele>
        <time>2014-09-03T13:13:27Z</time>
      </trkpt>
      <trkpt lat="44.07233" lon="7.44012">
        <ele>2331.83</ele>
        <time>2014-09-03T13:14:31Z</time>
      </trkpt>
      <trkpt lat="44.07163" lon="7.44065">
        <ele>2323.88</ele>
        <time>2014-09-03T13:15:35Z</time>
      </trkpt>
      <trkpt lat="44.0714" lon="7.43942">
        <ele>2317.19</ele>
        <time>2014-09-03T13:16:38Z</time>
      </trkpt>
      <trkpt lat="44.07085" lon="7.44023">
        <ele>2314.61</ele>
        <time>2014-09-03T13:17:41Z</time>
      </trkpt>
      <trkpt lat="44.07009" lon="7.4401">
        <ele>2314.12</ele>
        <time>2014-09-03T13:18:44Z</time>
      </trkpt>
      <trkpt lat="44.07112" lon="7.44106">
        <ele>2314.52</ele>
        <time>2014-09-03T13:19:49Z</time>
      </trkpt>
      <trkpt lat="44.07075" lon="7.44056">
        <ele>2314.35</ele>
        <time>2014-09-03T13:20:57Z</time>
      </trkpt>
      <trkpt lat="44.07131" lon="7.44118">
        <ele>2314.46</ele>
        <time>2014-09-03T13:22:02Z</time>
      </trkpt>
      <trkpt lat="44.07168" lon="7.44077">
        <ele>2314.18</ele>
        <time>2014-09-03T13:23:10Z</time>
      </trkpt>
      <trkpt lat="44.07067" lon="7.43964">
        <ele>2313.93</ele>
        <time>2014-09-03T13:24:16Z</time>
      </trkpt>
      <trkpt lat="44.07105" lon="7.44088">
        <ele>2314.52</ele>
        <time>2014-09-03T13:25:22Z</time>
      </trkpt>
      <trkpt lat="44.07041" lon="7.4394">
        <ele>2314.64</ele>
        <time>2014-09-03T13:26:31Z</time>
      </trkpt>
      <trkpt lat="44.07128" lon="7.44082">
        <ele>2314.56</ele>
        <time>2014-09-03T13:27:35Z</time>
      </trkpt>
      <trkpt lat="44.07046" lon="7.43935">
        <ele>2314.57</ele>
        <time>2014-09-03T13:28:42Z</time>
      </trkpt>
      <trkpt lat="44.07147" lon="7.44048">
        <ele>2314.67</ele>
        <time>2014-09-03T13:29:46Z</time>
      </trkpt>
      <trkpt lat="44.07022" lon="7.44136">
        <ele>2309.58</ele>
        <time>2014-09-03T13:30:52Z</time>
      </trkpt>
      <trkpt lat="44.07073" lon="7.4414">
        <ele>2309.62</ele>
        <time>2014-09-03T13:31:56Z</time>
      </trkpt>
      <trkpt lat="44.07059" lon="7.44137">
        <ele>2309.39</ele>
        <time>2014-09-03T13:33:02Z</time>
      </trkpt>
      <trkpt lat="44.07069" lon="7.44114">
        <ele>2303.59</ele>
        <time>2014-09-03T13:34:09Z</time>
      </trkpt>
      <trkpt lat="44.06967" lon="7.44216">
        <ele>2302.89</ele>
        <time>2014-09-03T13:35:14Z</time>
      </trkpt>
      <trkpt lat="44.06888" lon="7.44265">
        <ele>2301.71</ele>
        <time>2014-09-03T13:36:18Z</time>
      </trkpt>
      <trkpt lat="44.06862" lon="7.44189">
        <ele>2303.85</ele>
        <time>2014-09-03T13:37:24Z</time>
      </trkpt>
      <trkpt lat="44.06834" lon="7.44218">
        <ele>2301.34</ele>
        <time>2014-09-03T13:38:29Z</time>
      </trkpt>
      <trkpt lat="44.06843" lon="7.44193">
        <ele>2298.37</ele>
        <time>2014-09-03T13:39:34Z</time>
      </trkpt>
      <trkpt lat="44.06769" lon="7.44284">
        <ele>2298.91</ele>
        <time>2014-09-03T13:40:39Z</time>
      </trkpt>
      <trkpt lat="44.06783" lon="7.4419">
        <ele>2298.69</ele>
        <time>2014-09-03T13:41:44Z</time>
      </trkpt>
      <trkpt lat="44.06798" lon="7.44227">
        <ele>2298.77</ele>
        <time>2014-09-03T13:42:48Z</time>
      </trkpt>
      <trkpt lat="44.06741" lon="7.44225">
        <ele>2299.03</ele>
        <time>2014-09-03T13:43:53Z</time>
      </trkpt>
      <trkpt lat="44.06759" lon="7.44246">
        <ele>2299.21</ele>
        <time>2014-09-03T13:44:58Z</time>
      </trkpt>
      <trkpt lat="44.0675" lon="7.44181">
        <ele>2299.17</ele>
        <time>2014-09-03T13:46:03Z</time>
      </trkpt>
      <trkpt lat="44.06741" lon="7.4417">
        <ele>2299.26</ele>
        <time>2014-09-03T13:47:08Z</time>
      </trkpt>
      <trkpt lat="44.06766" lon="7.44215">
        <ele>2298.93</ele>
        <time>2014-09-03T13:48:11Z</time>
      </trkpt>
      <trkpt lat="44.06771" lon="7.44214">
        <ele>2299.42</ele>
        <time>2014-09-03T13:49:14Z</time>
      </trkpt>
      <trkpt lat="44.06766" lon="7.44211">
        <ele>2299.5</ele>
        <time>2014-09-03T13:50:17Z</time>
      </trkpt>
      <trkpt lat="44.06768" lon="7.44213">
        <ele>2299.33</ele>
        <time>2014-09-03T13:51:20Z</time>
      </trkpt>
      <trkpt lat="44.06763" lon="7.442">
        <ele>2299</ele>
        <time>2014-09-03T13:52:23Z</time>
      </trkpt>
      <trkpt lat="44.06765" lon="7.44213">
        <ele>2299.07</ele>
        <time>2014-09-03T13:53:26Z</time>
      </trkpt>
      <trkpt lat="44.06763" lon="7.44199">
        <ele>2299.33</ele>
        <time>2014-09-03T13:54:30Z</time>
      </trkpt>
      <trkpt lat="44.06736" lon="7.4421">
        <ele>2297.14</ele>
        <time>2014-09-03T13:55:35Z</time>
      </trkpt>
      <trkpt lat="44.067" lon="7.44223">
        <ele>2291.57</ele>
        <time>2014-09-03T13:56:40Z</time>
      </trkpt>
      <trkpt lat="44.06675" lon="7.44231">
        <ele>2282.36</ele>
        <time>2014-09-03T13:57:45Z</time>
      </trkpt>
      <trkpt lat="44.06645" lon="7.44245">
        <ele>2274.93</ele>
        <time>2014-09-03T13:58:48Z</time>
      </trkpt>
      <trkpt lat="44.06621" lon="7.44238">
        <ele>2267.8</ele>
        <time>2014-09-03T13:59:53Z</time>
      </trkpt>
      <trkpt lat="44.06584" lon="7.44284">
        <ele>2258.48</ele>
        <time>2014-09-03T14:00:57Z</time>
      </trkpt>
      <trkpt lat="44.06606" lon="7.44299">
        <ele>2261.41</ele>
        <time>2014-09-03T14:02:00Z</time>
      </trkpt>
      <trkpt lat="44.06536" lon="7.44189">
        <ele>2252.88</ele>
        <time>2014-09-03T14:03:08Z</time>
      </trkpt>
      <trkpt lat="44.06583" lon="7.44201">
        <ele>2248.03</ele>
        <time>2014-09-03T14:04:12Z</time>
      </trkpt>
      <trkpt lat="44.06527" lon="7.44216">
        <ele>2238.52</ele>
        <time>2014-09-03T14:05:16Z</time>
      </trkpt>
      <trkpt lat="44.06481" lon="7.44301">
        <ele>2233.44</ele>
        <time>2014-09-03T14:06:18Z</time>
      </trkpt>
      <trkpt lat="44.06464" lon="7.44318">
        <ele>2228.99</ele>
        <time>2014-09-03T14:07:22Z</time>
      </trkpt>
      <trkpt lat="44.06399" lon="7.44406">
        <ele>2224.53</ele>
        <time>2014-09-03T14:08:32Z</time>
      </trkpt>
      <trkpt lat="44.06409" lon="7.44375">
        <ele>2224.7</ele>
        <time>2014-09-03T14:09:37Z</time>
      </trkpt>
      <trkpt lat="44.06404" lon="7.44362">
        <ele>2224.7</ele>
        <time>2014-09-03T14:10:44Z</time>
      </trkpt>
      <trkpt lat="44.06397" lon="7.44307">
        <ele>2226.04</ele>
        <time>2014-09-03T14:11:49Z</time>
      </trkpt>
      <trkpt lat="44.06335" lon="7.44359">
        <ele>2228.15</ele>
        <time>2014-09-03T14:12:53Z</time>
      </trkpt>
      <trkpt lat="44.06281" lon="7.44284">
        <ele>2221.33</ele>
        <time>2014-09-03T14:13:56Z</time>
      </trkpt>
      <trkpt lat="44.06239" lon="7.44258">
        <ele>2228.16</ele>
        <time>2014-09-03T14:14:59Z</time>
      </trkpt>
      <trkpt lat="44.06248" lon="7.44274">
        <ele>2228.31</ele>
        <time>2014-09-03T14:16:02Z</time>
      </trkpt>
      <trkpt lat="44.06251" lon="7.44262">
        <ele>2228.75</ele>
        <time>2014-09-03T14:17:05Z</time>
      </trkpt>
      <trkpt lat="44.06255" lon="7.4427">
        <ele>2228.91</ele>
        <time>2014-09-03T14:18:08Z</time>
      </trkpt>
      <trkpt lat="44.06256" lon="7.44242">
        <ele>2228.26</ele>
        <time>2014-09-03T14:19:11Z</time>
      </trkpt>
      <trkpt lat="44.06242" lon="7.44259">
        <ele>2228.49</ele>
        <time>2014-09-03T14:20:13Z</time>
      </trkpt>
      <trkpt lat="44.06245" lon="7.44269">
        <ele>2228.64</ele>
        <time>2014-09-03T14:21:18Z</time>
      </trkpt>
      <trkpt lat="44.06243" lon="7.44261">
        <ele>2228.37</ele>
        <time>2014-09-03T14:22:18Z</time>
      </trkpt>
      <trkpt lat="44.06225" lon="7.44268">
        <ele>2231.29</ele>
        <time>2014-09-03T14:23:18Z</time>
      </trkpt>
      <trkpt lat="44.06224" lon="7.44275">
        <ele>2231.5</ele>
        <time>2014-09-03T14:24:18Z</time>
      </trkpt>
      <trkpt lat="44.06187" lon="7.44323">
        <ele>2225.04</ele>
        <time>2014-09-03T14:25:18Z</time>
      </trkpt>
      <trkpt lat="44.06155" lon="7.44314">
        <ele>2217.34</ele>
        <time>2014-09-03T14:26:18Z</time>
      </trkpt>
      <trkpt lat="44.0611" lon="7.44327">
        <ele>2201.4</ele>
        <time>2014-09-03T14:27:18Z</time>
      </trkpt>
      <trkpt lat="44.06051" lon="7.44325">
        <ele>2189.23</ele>
        <time>2014-09-03T14:28:18Z</time>
      </trkpt>
      <trkpt lat="44.0601" lon="7.44285">
        <ele>2195.49</ele>
        <time>2014-09-03T14:29:18Z</time>
      </trkpt>
      <trkpt lat="44.05941" lon="7.44282">
        <ele>2190.82</ele>
        <time>2014-09-03T14:30:18Z</time>
      </trkpt>
      <trkpt lat="44.05886" lon="7.44248">
        <ele>2190.24</ele>
        <time>2014-09-03T14:31:18Z</time>
      </trkpt>
      <trkpt lat="44.05836" lon="7.44298">
        <ele>2184.44</ele>
        <time>2014-09-03T14:32:18Z</time>
      </trkpt>
      <trkpt lat="44.05798" lon="7.44373">
        <ele>2182.75</ele>
        <time>2014-09-03T14:33:18Z</time>
      </trkpt>
      <trkpt lat="44.05768" lon="7.44466">
        <ele>2182.14</ele>
        <time>2014-09-03T14:34:18Z</time>
      </trkpt>
      <trkpt lat="44.05744" lon="7.44566">
        <ele>2179.42</ele>
        <time>2014-09-03T14:35:18Z</time>
      </trkpt>
      <trkpt lat="44.05713" lon="7.44657">
        <ele>2177.54</ele>
        <time>2014-09-03T14:36:18Z</time>
      </trkpt>
      <trkpt lat="44.05706" lon="7.44763">
        <ele>2171.24</ele>
        <time>2014-09-03T14:37:18Z</time>
      </trkpt>
      <trkpt lat="44.05706" lon="7.44858">
        <ele>2160.48</ele>
        <time>2014-09-03T14:38:18Z</time>
      </trkpt>
      <trkpt lat="44.05704" lon="7.4495">
        <ele>2156.9</ele>
        <time>2014-09-03T14:39:18Z</time>
      </trkpt>
      <trkpt lat="44.05697" lon="7.45026">
        <ele>2148.55</ele>
        <time>2014-09-03T14:40:18Z</time>
      </trkpt>
      <trkpt lat="44.05689" lon="7.4511">
        <ele>2148.29</ele>
        <time>2014-09-03T14:41:18Z</time>
      </trkpt>
      <trkpt lat="44.05725" lon="7.45151">
        <ele>2139.1</ele>
        <time>2014-09-03T14:42:18Z</time>
      </trkpt>
      <trkpt lat="44.05741" lon="7.45173">
        <ele>2135.95</ele>
        <time>2014-09-03T14:42:41Z</time>
      </trkpt>
      <trkpt lat="44.05604" lon="7.45196">
        <ele>2141.42</ele>
        <time>2014-09-04T05:48:08Z</time>
      </trkpt>
      <trkpt lat="44.0558" lon="7.45154">
        <ele>2147.51</ele>
        <time>2014-09-04T05:49:08Z</time>
      </trkpt>
      <trkpt lat="44.05558" lon="7.45198">
        <ele>2156.11</ele>
        <time>2014-09-04T05:50:08Z</time>
      </trkpt>
      <trkpt lat="44.05553" lon="7.45165">
        <ele>2164.85</ele>
        <time>2014-09-04T05:51:11Z</time>
      </trkpt>
      <trkpt lat="44.05499" lon="7.45157">
        <ele>2164.11</ele>
        <time>2014-09-04T05:52:12Z</time>
      </trkpt>
      <trkpt lat="44.05437" lon="7.45139">
        <ele>2168.7</ele>
        <time>2014-09-04T05:53:14Z</time>
      </trkpt>
      <trkpt lat="44.05399" lon="7.45103">
        <ele>2170.93</ele>
        <time>2014-09-04T05:54:16Z</time>
      </trkpt>
      <trkpt lat="44.05345" lon="7.4503">
        <ele>2171.07</ele>
        <time>2014-09-04T05:55:18Z</time>
      </trkpt>
      <trkpt lat="44.05354" lon="7.4495">
        <ele>2175.32</ele>
        <time>2014-09-04T05:56:20Z</time>
      </trkpt>
      <trkpt lat="44.05363" lon="7.44871">
        <ele>2181.8</ele>
        <time>2014-09-04T05:57:24Z</time>
      </trkpt>
      <trkpt lat="44.05384" lon="7.44798">
        <ele>2190.34</ele>
        <time>2014-09-04T05:58:26Z</time>
      </trkpt>
      <trkpt lat="44.05357" lon="7.44801">
        <ele>2200.76</ele>
        <time>2014-09-04T05:59:29Z</time>
      </trkpt>
      <trkpt lat="44.05348" lon="7.44781">
        <ele>2204.32</ele>
        <time>2014-09-04T06:00:31Z</time>
      </trkpt>
      <trkpt lat="44.05357" lon="7.44803">
        <ele>2204.28</ele>
        <time>2014-09-04T06:01:33Z</time>
      </trkpt>
      <trkpt lat="44.05348" lon="7.44801">
        <ele>2204.59</ele>
        <time>2014-09-04T06:02:35Z</time>
      </trkpt>
      <trkpt lat="44.05296" lon="7.44771">
        <ele>2211.07</ele>
        <time>2014-09-04T06:03:37Z</time>
      </trkpt>
      <trkpt lat="44.0528" lon="7.44741">
        <ele>2222.69</ele>
        <time>2014-09-04T06:04:39Z</time>
      </trkpt>
      <trkpt lat="44.05261" lon="7.44718">
        <ele>2231.88</ele>
        <time>2014-09-04T06:05:41Z</time>
      </trkpt>
      <trkpt lat="44.0528" lon="7.44692">
        <ele>2240.09</ele>
        <time>2014-09-04T06:06:43Z</time>
      </trkpt>
      <trkpt lat="44.05274" lon="7.44653">
        <ele>2250.11</ele>
        <time>2014-09-04T06:07:44Z</time>
      </trkpt>
      <trkpt lat="44.05258" lon="7.44572">
        <ele>2256.22</ele>
        <time>2014-09-04T06:08:46Z</time>
      </trkpt>
      <trkpt lat="44.05227" lon="7.44542">
        <ele>2258.1</ele>
        <time>2014-09-04T06:09:48Z</time>
      </trkpt>
      <trkpt lat="44.0518" lon="7.44463">
        <ele>2263.93</ele>
        <time>2014-09-04T06:10:50Z</time>
      </trkpt>
      <trkpt lat="44.0519" lon="7.4442">
        <ele>2256.25</ele>
        <time>2014-09-04T06:11:52Z</time>
      </trkpt>
      <trkpt lat="44.05206" lon="7.44389">
        <ele>2247.93</ele>
        <time>2014-09-04T06:12:54Z</time>
      </trkpt>
      <trkpt lat="44.0521" lon="7.44321">
        <ele>2253.84</ele>
        <time>2014-09-04T06:13:57Z</time>
      </trkpt>
      <trkpt lat="44.05191" lon="7.44278">
        <ele>2265.17</ele>
        <time>2014-09-04T06:15:06Z</time>
      </trkpt>
      <trkpt lat="44.05192" lon="7.44228">
        <ele>2273.5</ele>
        <time>2014-09-04T06:16:09Z</time>
      </trkpt>
      <trkpt lat="44.05192" lon="7.44144">
        <ele>2276.64</ele>
        <time>2014-09-04T06:17:13Z</time>
      </trkpt>
      <trkpt lat="44.05177" lon="7.44073">
        <ele>2278.98</ele>
        <time>2014-09-04T06:18:17Z</time>
      </trkpt>
      <trkpt lat="44.05156" lon="7.43969">
        <ele>2282.39</ele>
        <time>2014-09-04T06:19:20Z</time>
      </trkpt>
      <trkpt lat="44.05118" lon="7.44035">
        <ele>2288.47</ele>
        <time>2014-09-04T06:20:24Z</time>
      </trkpt>
      <trkpt lat="44.05129" lon="7.43908">
        <ele>2284.02</ele>
        <time>2014-09-04T06:21:26Z</time>
      </trkpt>
      <trkpt lat="44.05148" lon="7.43834">
        <ele>2285.38</ele>
        <time>2014-09-04T06:22:30Z</time>
      </trkpt>
      <trkpt lat="44.05136" lon="7.43736">
        <ele>2288.25</ele>
        <time>2014-09-04T06:23:33Z</time>
      </trkpt>
      <trkpt lat="44.05127" lon="7.43703">
        <ele>2298.91</ele>
        <time>2014-09-04T06:24:36Z</time>
      </trkpt>
      <trkpt lat="44.05126" lon="7.43693">
        <ele>2308.29</ele>
        <time>2014-09-04T06:25:39Z</time>
      </trkpt>
      <trkpt lat="44.05128" lon="7.43566">
        <ele>2315.29</ele>
        <time>2014-09-04T06:26:41Z</time>
      </trkpt>
      <trkpt lat="44.05109" lon="7.43588">
        <ele>2323.06</ele>
        <time>2014-09-04T06:27:45Z</time>
      </trkpt>
      <trkpt lat="44.05019" lon="7.43602">
        <ele>2331.68</ele>
        <time>2014-09-04T06:28:49Z</time>
      </trkpt>
      <trkpt lat="44.05031" lon="7.43513">
        <ele>2341.58</ele>
        <time>2014-09-04T06:29:54Z</time>
      </trkpt>
      <trkpt lat="44.05032" lon="7.4343">
        <ele>2345.22</ele>
        <time>2014-09-04T06:30:56Z</time>
      </trkpt>
      <trkpt lat="44.05012" lon="7.43407">
        <ele>2353.04</ele>
        <time>2014-09-04T06:31:58Z</time>
      </trkpt>
      <trkpt lat="44.04992" lon="7.43341">
        <ele>2359.9</ele>
        <time>2014-09-04T06:33:00Z</time>
      </trkpt>
      <trkpt lat="44.04958" lon="7.43283">
        <ele>2367.64</ele>
        <time>2014-09-04T06:34:04Z</time>
      </trkpt>
      <trkpt lat="44.04949" lon="7.43217">
        <ele>2378.57</ele>
        <time>2014-09-04T06:35:08Z</time>
      </trkpt>
      <trkpt lat="44.04947" lon="7.43156">
        <ele>2390.88</ele>
        <time>2014-09-04T06:36:10Z</time>
      </trkpt>
      <trkpt lat="44.0493" lon="7.43064">
        <ele>2401.6</ele>
        <time>2014-09-04T06:37:12Z</time>
      </trkpt>
      <trkpt lat="44.04863" lon="7.43057">
        <ele>2409.08</ele>
        <time>2014-09-04T06:38:14Z</time>
      </trkpt>
      <trkpt lat="44.04816" lon="7.4302">
        <ele>2420.11</ele>
        <time>2014-09-04T06:39:16Z</time>
      </trkpt>
      <trkpt lat="44.04774" lon="7.43052">
        <ele>2429.32</ele>
        <time>2014-09-04T06:40:20Z</time>
      </trkpt>
      <trkpt lat="44.04733" lon="7.43065">
        <ele>2430.53</ele>
        <time>2014-09-04T06:41:24Z</time>
      </trkpt>
      <trkpt lat="44.04766" lon="7.43055">
        <ele>2429.31</ele>
        <time>2014-09-04T06:42:26Z</time>
      </trkpt>
      <trkpt lat="44.04754" lon="7.43049">
        <ele>2430.05</ele>
        <time>2014-09-04T06:43:30Z</time>
      </trkpt>
      <trkpt lat="44.04755" lon="7.43059">
        <ele>2430.24</ele>
        <time>2014-09-04T06:44:32Z</time>
      </trkpt>
      <trkpt lat="44.04749" lon="7.43048">
        <ele>2429.73</ele>
        <time>2014-09-04T06:45:35Z</time>
      </trkpt>
      <trkpt lat="44.04747" lon="7.43067">
        <ele>2429.53</ele>
        <time>2014-09-04T06:46:37Z</time>
      </trkpt>
      <trkpt lat="44.04755" lon="7.43055">
        <ele>2429.54</ele>
        <time>2014-09-04T06:47:39Z</time>
      </trkpt>
      <trkpt lat="44.0474" lon="7.43065">
        <ele>2429.2</ele>
        <time>2014-09-04T06:48:41Z</time>
      </trkpt>
      <trkpt lat="44.04758" lon="7.43062">
        <ele>2426.74</ele>
        <time>2014-09-04T06:49:43Z</time>
      </trkpt>
      <trkpt lat="44.04754" lon="7.43083">
        <ele>2426.8</ele>
        <time>2014-09-04T06:50:45Z</time>
      </trkpt>
      <trkpt lat="44.04748" lon="7.43077">
        <ele>2425.62</ele>
        <time>2014-09-04T06:51:45Z</time>
      </trkpt>
      <trkpt lat="44.0472" lon="7.43081">
        <ele>2419.74</ele>
        <time>2014-09-04T06:52:45Z</time>
      </trkpt>
      <trkpt lat="44.04735" lon="7.43066">
        <ele>2408.79</ele>
        <time>2014-09-04T06:53:48Z</time>
      </trkpt>
      <trkpt lat="44.04702" lon="7.4306">
        <ele>2400.02</ele>
        <time>2014-09-04T06:54:50Z</time>
      </trkpt>
      <trkpt lat="44.0466" lon="7.43075">
        <ele>2386.08</ele>
        <time>2014-09-04T06:55:53Z</time>
      </trkpt>
      <trkpt lat="44.04641" lon="7.43075">
        <ele>2373.54</ele>
        <time>2014-09-04T06:56:55Z</time>
      </trkpt>
      <trkpt lat="44.04611" lon="7.43069">
        <ele>2360.04</ele>
        <time>2014-09-04T06:57:57Z</time>
      </trkpt>
      <trkpt lat="44.04588" lon="7.4309">
        <ele>2355.39</ele>
        <time>2014-09-04T06:58:59Z</time>
      </trkpt>
      <trkpt lat="44.04534" lon="7.4307">
        <ele>2351.15</ele>
        <time>2014-09-04T07:00:01Z</time>
      </trkpt>
      <trkpt lat="44.04504" lon="7.43092">
        <ele>2349.01</ele>
        <time>2014-09-04T07:01:03Z</time>
      </trkpt>
      <trkpt lat="44.04459" lon="7.43085">
        <ele>2336.83</ele>
        <time>2014-09-04T07:02:05Z</time>
      </trkpt>
      <trkpt lat="44.04429" lon="7.43058">
        <ele>2324.57</ele>
        <time>2014-09-04T07:03:07Z</time>
      </trkpt>
      <trkpt lat="44.04369" lon="7.43045">
        <ele>2317.07</ele>
        <time>2014-09-04T07:04:09Z</time>
      </trkpt>
      <trkpt lat="44.04296" lon="7.43049">
        <ele>2312.22</ele>
        <time>2014-09-04T07:05:12Z</time>
      </trkpt>
      <trkpt lat="44.04267" lon="7.43029">
        <ele>2299.22</ele>
        <time>2014-09-04T07:06:12Z</time>
      </trkpt>
      <trkpt lat="44.04208" lon="7.42981">
        <ele>2286.7</ele>
        <time>2014-09-04T07:07:12Z</time>
      </trkpt>
      <trkpt lat="44.04141" lon="7.42978">
        <ele>2275.9</ele>
        <time>2014-09-04T07:08:14Z</time>
      </trkpt>
      <trkpt lat="44.04146" lon="7.42854">
        <ele>2263.44</ele>
        <time>2014-09-04T07:09:18Z</time>
      </trkpt>
      <trkpt lat="44.04171" lon="7.42841">
        <ele>2259.16</ele>
        <time>2014-09-04T07:10:23Z</time>
      </trkpt>
      <trkpt lat="44.04084" lon="7.42858">
        <ele>2246.78</ele>
        <time>2014-09-04T07:11:25Z</time>
      </trkpt>
      <trkpt lat="44.04038" lon="7.42829">
        <ele>2232.32</ele>
        <time>2014-09-04T07:12:30Z</time>
      </trkpt>
      <trkpt lat="44.04046" lon="7.42945">
        <ele>2220.55</ele>
        <time>2014-09-04T07:13:33Z</time>
      </trkpt>
      <trkpt lat="44.04002" lon="7.42913">
        <ele>2204.78</ele>
        <time>2014-09-04T07:14:35Z</time>
      </trkpt>
      <trkpt lat="44.03977" lon="7.42924">
        <ele>2188</ele>
        <time>2014-09-04T07:15:39Z</time>
      </trkpt>
      <trkpt lat="44.03935" lon="7.42894">
        <ele>2167.24</ele>
        <time>2014-09-04T07:17:05Z</time>
      </trkpt>
      <trkpt lat="44.03866" lon="7.42915">
        <ele>2153.13</ele>
        <time>2014-09-04T07:18:05Z</time>
      </trkpt>
      <trkpt lat="44.03878" lon="7.42915">
        <ele>2140.97</ele>
        <time>2014-09-04T07:19:07Z</time>
      </trkpt>
      <trkpt lat="44.03869" lon="7.42898">
        <ele>2134.58</ele>
        <time>2014-09-04T07:20:10Z</time>
      </trkpt>
      <trkpt lat="44.03838" lon="7.42871">
        <ele>2131.78</ele>
        <time>2014-09-04T07:21:10Z</time>
      </trkpt>
      <trkpt lat="44.03794" lon="7.42832">
        <ele>2118.66</ele>
        <time>2014-09-04T07:22:10Z</time>
      </trkpt>
      <trkpt lat="44.03757" lon="7.42784">
        <ele>2104.86</ele>
        <time>2014-09-04T07:23:13Z</time>
      </trkpt>
      <trkpt lat="44.03698" lon="7.42732">
        <ele>2094.66</ele>
        <time>2014-09-04T07:24:15Z</time>
      </trkpt>
      <trkpt lat="44.03681" lon="7.42708">
        <ele>2088.8</ele>
        <time>2014-09-04T07:25:17Z</time>
      </trkpt>
      <trkpt lat="44.03604" lon="7.42696">
        <ele>2071.6</ele>
        <time>2014-09-04T07:26:19Z</time>
      </trkpt>
      <trkpt lat="44.03493" lon="7.42645">
        <ele>2060.49</ele>
        <time>2014-09-04T07:27:21Z</time>
      </trkpt>
      <trkpt lat="44.03392" lon="7.42596">
        <ele>2069.1</ele>
        <time>2014-09-04T07:28:23Z</time>
      </trkpt>
      <trkpt lat="44.03264" lon="7.42609">
        <ele>2078.2</ele>
        <time>2014-09-04T07:29:25Z</time>
      </trkpt>
      <trkpt lat="44.03211" lon="7.42474">
        <ele>2082.38</ele>
        <time>2014-09-04T07:30:28Z</time>
      </trkpt>
      <trkpt lat="44.03175" lon="7.42332">
        <ele>2094.58</ele>
        <time>2014-09-04T07:31:31Z</time>
      </trkpt>
      <trkpt lat="44.03166" lon="7.42299">
        <ele>2103.43</ele>
        <time>2014-09-04T07:32:35Z</time>
      </trkpt>
      <trkpt lat="44.03165" lon="7.42285">
        <ele>2103.22</ele>
        <time>2014-09-04T07:33:38Z</time>
      </trkpt>
      <trkpt lat="44.03152" lon="7.42297">
        <ele>2103.18</ele>
        <time>2014-09-04T07:34:42Z</time>
      </trkpt>
      <trkpt lat="44.03158" lon="7.42277">
        <ele>2103.07</ele>
        <time>2014-09-04T07:35:46Z</time>
      </trkpt>
      <trkpt lat="44.03165" lon="7.42296">
        <ele>2103.32</ele>
        <time>2014-09-04T07:36:52Z</time>
      </trkpt>
      <trkpt lat="44.03165" lon="7.42292">
        <ele>2102.85</ele>
        <time>2014-09-04T07:37:56Z</time>
      </trkpt>
      <trkpt lat="44.03167" lon="7.42295">
        <ele>2102.79</ele>
        <time>2014-09-04T07:38:58Z</time>
      </trkpt>
      <trkpt lat="44.03169" lon="7.42295">
        <ele>2102.52</ele>
        <time>2014-09-04T07:40:02Z</time>
      </trkpt>
      <trkpt lat="44.03173" lon="7.42298">
        <ele>2102.42</ele>
        <time>2014-09-04T07:41:05Z</time>
      </trkpt>
      <trkpt lat="44.03156" lon="7.423">
        <ele>2102.4</ele>
        <time>2014-09-04T07:42:10Z</time>
      </trkpt>
      <trkpt lat="44.03161" lon="7.42302">
        <ele>2102.48</ele>
        <time>2014-09-04T07:43:14Z</time>
      </trkpt>
      <trkpt lat="44.03164" lon="7.42293">
        <ele>2102.86</ele>
        <time>2014-09-04T07:44:19Z</time>
      </trkpt>
      <trkpt lat="44.03162" lon="7.42289">
        <ele>2102.85</ele>
        <time>2014-09-04T07:45:22Z</time>
      </trkpt>
      <trkpt lat="44.03171" lon="7.42296">
        <ele>2102.76</ele>
        <time>2014-09-04T07:46:27Z</time>
      </trkpt>
      <trkpt lat="44.03182" lon="7.42301">
        <ele>2102.76</ele>
        <time>2014-09-04T07:46:45Z</time>
      </trkpt>
      <trkpt lat="44.0316" lon="7.42287">
        <ele>2104.47</ele>
        <time>2014-09-04T07:59:40Z</time>
      </trkpt>
      <trkpt lat="44.03156" lon="7.42268">
        <ele>2100.4</ele>
        <time>2014-09-04T08:00:41Z</time>
      </trkpt>
      <trkpt lat="44.03122" lon="7.42202">
        <ele>2098.65</ele>
        <time>2014-09-04T08:01:41Z</time>
      </trkpt>
      <trkpt lat="44.03082" lon="7.42124">
        <ele>2094.08</ele>
        <time>2014-09-04T08:02:41Z</time>
      </trkpt>
      <trkpt lat="44.03064" lon="7.42039">
        <ele>2091.97</ele>
        <time>2014-09-04T08:03:43Z</time>
      </trkpt>
      <trkpt lat="44.0303" lon="7.4194">
        <ele>2086.31</ele>
        <time>2014-09-04T08:04:48Z</time>
      </trkpt>
      <trkpt lat="44.02983" lon="7.41893">
        <ele>2075.29</ele>
        <time>2014-09-04T08:05:50Z</time>
      </trkpt>
      <trkpt lat="44.02926" lon="7.41803">
        <ele>2065.45</ele>
        <time>2014-09-04T08:06:53Z</time>
      </trkpt>
      <trkpt lat="44.02867" lon="7.41753">
        <ele>2055.34</ele>
        <time>2014-09-04T08:07:57Z</time>
      </trkpt>
      <trkpt lat="44.02837" lon="7.41674">
        <ele>2045.81</ele>
        <time>2014-09-04T08:09:03Z</time>
      </trkpt>
      <trkpt lat="44.02789" lon="7.41618">
        <ele>2034.75</ele>
        <time>2014-09-04T08:10:07Z</time>
      </trkpt>
      <trkpt lat="44.02748" lon="7.41536">
        <ele>2032.65</ele>
        <time>2014-09-04T08:11:11Z</time>
      </trkpt>
      <trkpt lat="44.02687" lon="7.4149">
        <ele>2027.46</ele>
        <time>2014-09-04T08:12:14Z</time>
      </trkpt>
      <trkpt lat="44.02634" lon="7.41459">
        <ele>2020.36</ele>
        <time>2014-09-04T08:13:17Z</time>
      </trkpt>
      <trkpt lat="44.02573" lon="7.41441">
        <ele>2007.12</ele>
        <time>2014-09-04T08:14:22Z</time>
      </trkpt>
      <trkpt lat="44.025" lon="7.41407">
        <ele>2003</ele>
        <time>2014-09-04T08:15:25Z</time>
      </trkpt>
      <trkpt lat="44.02476" lon="7.41434">
        <ele>1990.68</ele>
        <time>2014-09-04T08:16:30Z</time>
      </trkpt>
      <trkpt lat="44.0242" lon="7.41466">
        <ele>1978.01</ele>
        <time>2014-09-04T08:17:33Z</time>
      </trkpt>
      <trkpt lat="44.02346" lon="7.41506">
        <ele>1967.68</ele>
        <time>2014-09-04T08:18:37Z</time>
      </trkpt>
      <trkpt lat="44.02274" lon="7.41549">
        <ele>1959.97</ele>
        <time>2014-09-04T08:19:42Z</time>
      </trkpt>
      <trkpt lat="44.02205" lon="7.41579">
        <ele>1951.55</ele>
        <time>2014-09-04T08:20:46Z</time>
      </trkpt>
      <trkpt lat="44.02141" lon="7.4163">
        <ele>1943.97</ele>
        <time>2014-09-04T08:21:50Z</time>
      </trkpt>
      <trkpt lat="44.02077" lon="7.41688">
        <ele>1933.78</ele>
        <time>2014-09-04T08:22:54Z</time>
      </trkpt>
      <trkpt lat="44.0202" lon="7.41741">
        <ele>1925.26</ele>
        <time>2014-09-04T08:23:59Z</time>
      </trkpt>
      <trkpt lat="44.0196" lon="7.41779">
        <ele>1917.3</ele>
        <time>2014-09-04T08:25:03Z</time>
      </trkpt>
      <trkpt lat="44.01924" lon="7.4186">
        <ele>1903.63</ele>
        <time>2014-09-04T08:26:11Z</time>
      </trkpt>
      <trkpt lat="44.0189" lon="7.41916">
        <ele>1894.14</ele>
        <time>2014-09-04T08:27:16Z</time>
      </trkpt>
      <trkpt lat="44.01844" lon="7.41961">
        <ele>1878.97</ele>
        <time>2014-09-04T08:28:21Z</time>
      </trkpt>
      <trkpt lat="44.01802" lon="7.42021">
        <ele>1862.27</ele>
        <time>2014-09-04T08:29:26Z</time>
      </trkpt>
      <trkpt lat="44.01749" lon="7.42073">
        <ele>1850.18</ele>
        <time>2014-09-04T08:30:32Z</time>
      </trkpt>
      <trkpt lat="44.01692" lon="7.42165">
        <ele>1842.89</ele>
        <time>2014-09-04T08:31:39Z</time>
      </trkpt>
      <trkpt lat="44.01697" lon="7.42154">
        <ele>1841.41</ele>
        <time>2014-09-04T08:32:42Z</time>
      </trkpt>
      <trkpt lat="44.01697" lon="7.42148">
        <ele>1841.29</ele>
        <time>2014-09-04T08:33:46Z</time>
      </trkpt>
      <trkpt lat="44.01703" lon="7.42144">
        <ele>1841.16</ele>
        <time>2014-09-04T08:34:49Z</time>
      </trkpt>
      <trkpt lat="44.01701" lon="7.42146">
        <ele>1841.29</ele>
        <time>2014-09-04T08:35:52Z</time>
      </trkpt>
      <trkpt lat="44.017" lon="7.42151">
        <ele>1841.23</ele>
        <time>2014-09-04T08:36:55Z</time>
      </trkpt>
      <trkpt lat="44.01701" lon="7.42146">
        <ele>1841.14</ele>
        <time>2014-09-04T08:37:58Z</time>
      </trkpt>
      <trkpt lat="44.01701" lon="7.42146">
        <ele>1841.49</ele>
        <time>2014-09-04T08:39:01Z</time>
      </trkpt>
      <trkpt lat="44.01698" lon="7.42147">
        <ele>1841.27</ele>
        <time>2014-09-04T08:40:04Z</time>
      </trkpt>
      <trkpt lat="44.01709" lon="7.42151">
        <ele>1841.16</ele>
        <time>2014-09-04T08:41:06Z</time>
      </trkpt>
      <trkpt lat="44.01678" lon="7.42184">
        <ele>1841.96</ele>
        <time>2014-09-04T08:42:11Z</time>
      </trkpt>
      <trkpt lat="44.01609" lon="7.42226">
        <ele>1845.41</ele>
        <time>2014-09-04T08:43:14Z</time>
      </trkpt>
      <trkpt lat="44.01543" lon="7.4225">
        <ele>1853.08</ele>
        <time>2014-09-04T08:44:17Z</time>
      </trkpt>
      <trkpt lat="44.01545" lon="7.42245">
        <ele>1862.19</ele>
        <time>2014-09-04T08:45:20Z</time>
      </trkpt>
      <trkpt lat="44.01583" lon="7.42268">
        <ele>1868.55</ele>
        <time>2014-09-04T08:46:23Z</time>
      </trkpt>
      <trkpt lat="44.01549" lon="7.42352">
        <ele>1877.76</ele>
        <time>2014-09-04T08:47:26Z</time>
      </trkpt>
      <trkpt lat="44.01531" lon="7.42333">
        <ele>1887.44</ele>
        <time>2014-09-04T08:48:28Z</time>
      </trkpt>
      <trkpt lat="44.01505" lon="7.42334">
        <ele>1897.27</ele>
        <time>2014-09-04T08:49:31Z</time>
      </trkpt>
      <trkpt lat="44.01475" lon="7.42316">
        <ele>1905.89</ele>
        <time>2014-09-04T08:50:35Z</time>
      </trkpt>
      <trkpt lat="44.01384" lon="7.42346">
        <ele>1913.11</ele>
        <time>2014-09-04T08:51:38Z</time>
      </trkpt>
      <trkpt lat="44.01359" lon="7.42332">
        <ele>1920.59</ele>
        <time>2014-09-04T08:52:42Z</time>
      </trkpt>
      <trkpt lat="44.01341" lon="7.42301">
        <ele>1929.54</ele>
        <time>2014-09-04T08:53:46Z</time>
      </trkpt>
      <trkpt lat="44.01283" lon="7.42298">
        <ele>1936.78</ele>
        <time>2014-09-04T08:54:49Z</time>
      </trkpt>
      <trkpt lat="44.01249" lon="7.42324">
        <ele>1936.22</ele>
        <time>2014-09-04T08:55:52Z</time>
      </trkpt>
      <trkpt lat="44.01182" lon="7.42391">
        <ele>1939.88</ele>
        <time>2014-09-04T08:56:58Z</time>
      </trkpt>
      <trkpt lat="44.01132" lon="7.4241">
        <ele>1942.42</ele>
        <time>2014-09-04T08:58:01Z</time>
      </trkpt>
      <trkpt lat="44.01058" lon="7.42431">
        <ele>1939.78</ele>
        <time>2014-09-04T08:59:04Z</time>
      </trkpt>
      <trkpt lat="44.0102" lon="7.42526">
        <ele>1944.64</ele>
        <time>2014-09-04T09:00:07Z</time>
      </trkpt>
      <trkpt lat="44.00995" lon="7.42539">
        <ele>1951.78</ele>
        <time>2014-09-04T09:01:09Z</time>
      </trkpt>
      <trkpt lat="44.00942" lon="7.42618">
        <ele>1954.91</ele>
        <time>2014-09-04T09:02:14Z</time>
      </trkpt>
      <trkpt lat="44.00904" lon="7.42631">
        <ele>1961.04</ele>
        <time>2014-09-04T09:03:16Z</time>
      </trkpt>
      <trkpt lat="44.00862" lon="7.42718">
        <ele>1956.38</ele>
        <time>2014-09-04T09:04:17Z</time>
      </trkpt>
      <trkpt lat="44.00819" lon="7.42799">
        <ele>1956.96</ele>
        <time>2014-09-04T09:05:19Z</time>
      </trkpt>
      <trkpt lat="44.00802" lon="7.42858">
        <ele>1963.38</ele>
        <time>2014-09-04T09:06:22Z</time>
      </trkpt>
      <trkpt lat="44.00726" lon="7.42907">
        <ele>1970.13</ele>
        <time>2014-09-04T09:07:24Z</time>
      </trkpt>
      <trkpt lat="44.00671" lon="7.42963">
        <ele>1972.91</ele>
        <time>2014-09-04T09:08:28Z</time>
      </trkpt>
      <trkpt lat="44.00632" lon="7.42985">
        <ele>1973.61</ele>
        <time>2014-09-04T09:09:30Z</time>
      </trkpt>
      <trkpt lat="44.00589" lon="7.43047">
        <ele>1973.56</ele>
        <time>2014-09-04T09:10:33Z</time>
      </trkpt>
      <trkpt lat="44.00521" lon="7.43097">
        <ele>1976.14</ele>
        <time>2014-09-04T09:11:35Z</time>
      </trkpt>
      <trkpt lat="44.00467" lon="7.43105">
        <ele>1978.87</ele>
        <time>2014-09-04T09:12:37Z</time>
      </trkpt>
      <trkpt lat="44.00401" lon="7.43131">
        <ele>1982.59</ele>
        <time>2014-09-04T09:13:41Z</time>
      </trkpt>
      <trkpt lat="44.0036" lon="7.43153">
        <ele>1991.74</ele>
        <time>2014-09-04T09:14:44Z</time>
      </trkpt>
      <trkpt lat="44.00315" lon="7.43169">
        <ele>1999.71</ele>
        <time>2014-09-04T09:15:46Z</time>
      </trkpt>
      <trkpt lat="44.00273" lon="7.43179">
        <ele>2007.27</ele>
        <time>2014-09-04T09:16:49Z</time>
      </trkpt>
      <trkpt lat="44.00221" lon="7.43195">
        <ele>2015.14</ele>
        <time>2014-09-04T09:17:54Z</time>
      </trkpt>
      <trkpt lat="44.00177" lon="7.43167">
        <ele>2024.45</ele>
        <time>2014-09-04T09:18:56Z</time>
      </trkpt>
      <trkpt lat="44.00103" lon="7.43198">
        <ele>2033.19</ele>
        <time>2014-09-04T09:19:59Z</time>
      </trkpt>
      <trkpt lat="44.00117" lon="7.43217">
        <ele>2042.32</ele>
        <time>2014-09-04T09:21:04Z</time>
      </trkpt>
      <trkpt lat="44.00049" lon="7.43194">
        <ele>2049.5</ele>
        <time>2014-09-04T09:22:07Z</time>
      </trkpt>
      <trkpt lat="44.0004" lon="7.4316">
        <ele>2055.23</ele>
        <time>2014-09-04T09:23:09Z</time>
      </trkpt>
      <trkpt lat="44.00023" lon="7.43152">
        <ele>2053.94</ele>
        <time>2014-09-04T09:24:12Z</time>
      </trkpt>
      <trkpt lat="44.00018" lon="7.43155">
        <ele>2053.93</ele>
        <time>2014-09-04T09:25:14Z</time>
      </trkpt>
      <trkpt lat="44.00016" lon="7.43161">
        <ele>2053.93</ele>
        <time>2014-09-04T09:26:16Z</time>
      </trkpt>
      <trkpt lat="44.00022" lon="7.4315">
        <ele>2053.87</ele>
        <time>2014-09-04T09:27:20Z</time>
      </trkpt>
      <trkpt lat="44.00026" lon="7.43157">
        <ele>2053.93</ele>
        <time>2014-09-04T09:28:22Z</time>
      </trkpt>
      <trkpt lat="44.00042" lon="7.43158">
        <ele>2053.84</ele>
        <time>2014-09-04T09:29:24Z</time>
      </trkpt>
      <trkpt lat="44.00036" lon="7.43153">
        <ele>2054.38</ele>
        <time>2014-09-04T09:30:26Z</time>
      </trkpt>
      <trkpt lat="44.00042" lon="7.43168">
        <ele>2053.96</ele>
        <time>2014-09-04T09:31:28Z</time>
      </trkpt>
      <trkpt lat="44.0003" lon="7.43164">
        <ele>2053.93</ele>
        <time>2014-09-04T09:32:29Z</time>
      </trkpt>
      <trkpt lat="44.00028" lon="7.43155">
        <ele>2054.02</ele>
        <time>2014-09-04T09:33:31Z</time>
      </trkpt>
      <trkpt lat="44.00028" lon="7.43155">
        <ele>2054.67</ele>
        <time>2014-09-04T09:34:17Z</time>
      </trkpt>
      <trkpt lat="44.00036" lon="7.43152">
        <ele>2054.8</ele>
        <time>2014-09-04T09:40:51Z</time>
      </trkpt>
      <trkpt lat="43.99999" lon="7.4307">
        <ele>2053.42</ele>
        <time>2014-09-04T09:41:51Z</time>
      </trkpt>
      <trkpt lat="43.99952" lon="7.42997">
        <ele>2051.04</ele>
        <time>2014-09-04T09:42:51Z</time>
      </trkpt>
      <trkpt lat="43.999" lon="7.42904">
        <ele>2047.69</ele>
        <time>2014-09-04T09:43:54Z</time>
      </trkpt>
      <trkpt lat="43.99915" lon="7.428">
        <ele>2046.33</ele>
        <time>2014-09-04T09:44:57Z</time>
      </trkpt>
      <trkpt lat="43.99923" lon="7.42727">
        <ele>2047.32</ele>
        <time>2014-09-04T09:46:00Z</time>
      </trkpt>
      <trkpt lat="43.99865" lon="7.42668">
        <ele>2049.38</ele>
        <time>2014-09-04T09:47:02Z</time>
      </trkpt>
      <trkpt lat="43.99832" lon="7.42596">
        <ele>2052.48</ele>
        <time>2014-09-04T09:48:04Z</time>
      </trkpt>
      <trkpt lat="43.99778" lon="7.42525">
        <ele>2056.44</ele>
        <time>2014-09-04T09:49:07Z</time>
      </trkpt>
      <trkpt lat="43.99725" lon="7.42454">
        <ele>2057.28</ele>
        <time>2014-09-04T09:50:16Z</time>
      </trkpt>
      <trkpt lat="43.99684" lon="7.42385">
        <ele>2047.94</ele>
        <time>2014-09-04T09:51:19Z</time>
      </trkpt>
      <trkpt lat="43.99637" lon="7.42297">
        <ele>2038.82</ele>
        <time>2014-09-04T09:52:21Z</time>
      </trkpt>
      <trkpt lat="43.99598" lon="7.42193">
        <ele>2026.09</ele>
        <time>2014-09-04T09:53:23Z</time>
      </trkpt>
      <trkpt lat="43.99612" lon="7.42094">
        <ele>2011.03</ele>
        <time>2014-09-04T09:54:25Z</time>
      </trkpt>
      <trkpt lat="43.99634" lon="7.41986">
        <ele>1997.88</ele>
        <time>2014-09-04T09:55:27Z</time>
      </trkpt>
      <trkpt lat="43.99648" lon="7.41894">
        <ele>1983.98</ele>
        <time>2014-09-04T09:56:30Z</time>
      </trkpt>
      <trkpt lat="43.99632" lon="7.41831">
        <ele>1974.37</ele>
        <time>2014-09-04T09:57:35Z</time>
      </trkpt>
      <trkpt lat="43.99679" lon="7.41728">
        <ele>1964.16</ele>
        <time>2014-09-04T09:58:38Z</time>
      </trkpt>
      <trkpt lat="43.99657" lon="7.4167">
        <ele>1951.79</ele>
        <time>2014-09-04T09:59:41Z</time>
      </trkpt>
      <trkpt lat="43.9963" lon="7.41529">
        <ele>1943.29</ele>
        <time>2014-09-04T10:00:45Z</time>
      </trkpt>
      <trkpt lat="43.99611" lon="7.41444">
        <ele>1924.62</ele>
        <time>2014-09-04T10:01:50Z</time>
      </trkpt>
      <trkpt lat="43.99628" lon="7.41425">
        <ele>1908.66</ele>
        <time>2014-09-04T10:02:53Z</time>
      </trkpt>
      <trkpt lat="43.99628" lon="7.41425">
        <ele>1899.05</ele>
        <time>2014-09-04T10:03:54Z</time>
      </trkpt>
      <trkpt lat="43.99532" lon="7.41233">
        <ele>1884.8</ele>
        <time>2014-09-04T11:41:18Z</time>
      </trkpt>
      <trkpt lat="43.99484" lon="7.4115">
        <ele>1879.71</ele>
        <time>2014-09-04T11:42:18Z</time>
      </trkpt>
      <trkpt lat="43.99437" lon="7.41101">
        <ele>1874.39</ele>
        <time>2014-09-04T11:43:18Z</time>
      </trkpt>
      <trkpt lat="43.99355" lon="7.4107">
        <ele>1868.15</ele>
        <time>2014-09-04T11:44:21Z</time>
      </trkpt>
      <trkpt lat="43.99279" lon="7.41057">
        <ele>1862.78</ele>
        <time>2014-09-04T11:45:21Z</time>
      </trkpt>
      <trkpt lat="43.99227" lon="7.40979">
        <ele>1857.2</ele>
        <time>2014-09-04T11:46:21Z</time>
      </trkpt>
      <trkpt lat="43.99162" lon="7.40913">
        <ele>1851.92</ele>
        <time>2014-09-04T11:47:24Z</time>
      </trkpt>
      <trkpt lat="43.99096" lon="7.40839">
        <ele>1846.99</ele>
        <time>2014-09-04T11:48:26Z</time>
      </trkpt>
      <trkpt lat="43.9902" lon="7.408">
        <ele>1838.4</ele>
        <time>2014-09-04T11:49:29Z</time>
      </trkpt>
      <trkpt lat="43.98974" lon="7.40715">
        <ele>1829.72</ele>
        <time>2014-09-04T11:50:33Z</time>
      </trkpt>
      <trkpt lat="43.98922" lon="7.40641">
        <ele>1821.16</ele>
        <time>2014-09-04T11:51:37Z</time>
      </trkpt>
      <trkpt lat="43.98863" lon="7.40588">
        <ele>1812.74</ele>
        <time>2014-09-04T11:52:40Z</time>
      </trkpt>
      <trkpt lat="43.98839" lon="7.40495">
        <ele>1805.76</ele>
        <time>2014-09-04T11:53:42Z</time>
      </trkpt>
      <trkpt lat="43.98825" lon="7.40481">
        <ele>1805.36</ele>
        <time>2014-09-04T11:54:46Z</time>
      </trkpt>
      <trkpt lat="43.98833" lon="7.40475">
        <ele>1805.35</ele>
        <time>2014-09-04T11:55:48Z</time>
      </trkpt>
      <trkpt lat="43.9884" lon="7.40481">
        <ele>1805.48</ele>
        <time>2014-09-04T11:56:49Z</time>
      </trkpt>
      <trkpt lat="43.98829" lon="7.4057">
        <ele>1807.88</ele>
        <time>2014-09-04T11:57:52Z</time>
      </trkpt>
      <trkpt lat="43.98847" lon="7.40497">
        <ele>1805.54</ele>
        <time>2014-09-04T11:58:53Z</time>
      </trkpt>
      <trkpt lat="43.98897" lon="7.40431">
        <ele>1802.67</ele>
        <time>2014-09-04T11:59:57Z</time>
      </trkpt>
      <trkpt lat="43.98885" lon="7.40367">
        <ele>1789.42</ele>
        <time>2014-09-04T12:01:00Z</time>
      </trkpt>
      <trkpt lat="43.98904" lon="7.40312">
        <ele>1775.73</ele>
        <time>2014-09-04T12:02:04Z</time>
      </trkpt>
      <trkpt lat="43.989" lon="7.40228">
        <ele>1762.04</ele>
        <time>2014-09-04T12:03:07Z</time>
      </trkpt>
      <trkpt lat="43.98901" lon="7.40208">
        <ele>1760.57</ele>
        <time>2014-09-04T12:04:15Z</time>
      </trkpt>
      <trkpt lat="43.98891" lon="7.40173">
        <ele>1758.56</ele>
        <time>2014-09-04T12:05:19Z</time>
      </trkpt>
      <trkpt lat="43.98852" lon="7.40076">
        <ele>1751.22</ele>
        <time>2014-09-04T12:06:23Z</time>
      </trkpt>
      <trkpt lat="43.9879" lon="7.39998">
        <ele>1745.99</ele>
        <time>2014-09-04T12:07:26Z</time>
      </trkpt>
      <trkpt lat="43.98742" lon="7.39933">
        <ele>1743.65</ele>
        <time>2014-09-04T12:08:29Z</time>
      </trkpt>
      <trkpt lat="43.98734" lon="7.39926">
        <ele>1743.23</ele>
        <time>2014-09-04T12:09:35Z</time>
      </trkpt>
      <trkpt lat="43.98673" lon="7.39897">
        <ele>1729.81</ele>
        <time>2014-09-04T12:10:43Z</time>
      </trkpt>
      <trkpt lat="43.98597" lon="7.39888">
        <ele>1724.79</ele>
        <time>2014-09-04T12:11:53Z</time>
      </trkpt>
      <trkpt lat="43.98525" lon="7.39863">
        <ele>1722.73</ele>
        <time>2014-09-04T12:12:56Z</time>
      </trkpt>
      <trkpt lat="43.98454" lon="7.39905">
        <ele>1717.68</ele>
        <time>2014-09-04T12:14:01Z</time>
      </trkpt>
      <trkpt lat="43.9838" lon="7.39898">
        <ele>1713.53</ele>
        <time>2014-09-04T12:15:03Z</time>
      </trkpt>
      <trkpt lat="43.98335" lon="7.39861">
        <ele>1708.74</ele>
        <time>2014-09-04T12:16:05Z</time>
      </trkpt>
      <trkpt lat="43.98263" lon="7.39845">
        <ele>1702.26</ele>
        <time>2014-09-04T12:17:07Z</time>
      </trkpt>
      <trkpt lat="43.98258" lon="7.39787">
        <ele>1700.2</ele>
        <time>2014-09-04T12:18:09Z</time>
      </trkpt>
      <trkpt lat="43.98203" lon="7.3966">
        <ele>1701.36</ele>
        <time>2014-09-04T12:19:12Z</time>
      </trkpt>
      <trkpt lat="43.98219" lon="7.39627">
        <ele>1697.11</ele>
        <time>2014-09-04T12:20:15Z</time>
      </trkpt>
      <trkpt lat="43.98201" lon="7.39549">
        <ele>1696.46</ele>
        <time>2014-09-04T12:21:17Z</time>
      </trkpt>
      <trkpt lat="43.98151" lon="7.39543">
        <ele>1687.41</ele>
        <time>2014-09-04T12:22:23Z</time>
      </trkpt>
      <trkpt lat="43.98082" lon="7.39493">
        <ele>1681.69</ele>
        <time>2014-09-04T12:23:27Z</time>
      </trkpt>
      <trkpt lat="43.98015" lon="7.39383">
        <ele>1681.72</ele>
        <time>2014-09-04T12:24:31Z</time>
      </trkpt>
      <trkpt lat="43.97989" lon="7.39297">
        <ele>1674.02</ele>
        <time>2014-09-04T12:25:34Z</time>
      </trkpt>
      <trkpt lat="43.97962" lon="7.39279">
        <ele>1662.17</ele>
        <time>2014-09-04T12:26:37Z</time>
      </trkpt>
      <trkpt lat="43.97931" lon="7.39201">
        <ele>1652.07</ele>
        <time>2014-09-04T12:27:39Z</time>
      </trkpt>
      <trkpt lat="43.97866" lon="7.39234">
        <ele>1640.17</ele>
        <time>2014-09-04T12:28:43Z</time>
      </trkpt>
      <trkpt lat="43.97823" lon="7.39105">
        <ele>1632.63</ele>
        <time>2014-09-04T12:29:49Z</time>
      </trkpt>
      <trkpt lat="43.97764" lon="7.39168">
        <ele>1622.29</ele>
        <time>2014-09-04T12:30:53Z</time>
      </trkpt>
      <trkpt lat="43.97761" lon="7.39127">
        <ele>1617.59</ele>
        <time>2014-09-04T12:32:00Z</time>
      </trkpt>
      <trkpt lat="43.97797" lon="7.39285">
        <ele>1617.76</ele>
        <time>2014-09-04T12:33:09Z</time>
      </trkpt>
      <trkpt lat="43.97705" lon="7.39195">
        <ele>1617.51</ele>
        <time>2014-09-04T12:34:22Z</time>
      </trkpt>
      <trkpt lat="43.97711" lon="7.39202">
        <ele>1617.53</ele>
        <time>2014-09-04T12:35:34Z</time>
      </trkpt>
      <trkpt lat="43.97659" lon="7.39166">
        <ele>1618.34</ele>
        <time>2014-09-04T12:36:40Z</time>
      </trkpt>
      <trkpt lat="43.97689" lon="7.39191">
        <ele>1618.25</ele>
        <time>2014-09-04T12:37:43Z</time>
      </trkpt>
      <trkpt lat="43.97693" lon="7.39202">
        <ele>1618.66</ele>
        <time>2014-09-04T12:38:47Z</time>
      </trkpt>
      <trkpt lat="43.97685" lon="7.39186">
        <ele>1618.64</ele>
        <time>2014-09-04T12:39:49Z</time>
      </trkpt>
      <trkpt lat="43.97696" lon="7.39173">
        <ele>1618.68</ele>
        <time>2014-09-04T12:40:52Z</time>
      </trkpt>
      <trkpt lat="43.97689" lon="7.3919">
        <ele>1618.96</ele>
        <time>2014-09-04T12:41:52Z</time>
      </trkpt>
      <trkpt lat="43.97689" lon="7.39205">
        <ele>1619.23</ele>
        <time>2014-09-04T12:42:52Z</time>
      </trkpt>
      <trkpt lat="43.97655" lon="7.39213">
        <ele>1626.35</ele>
        <time>2014-09-04T12:43:55Z</time>
      </trkpt>
      <trkpt lat="43.97598" lon="7.39207">
        <ele>1635.63</ele>
        <time>2014-09-04T12:44:58Z</time>
      </trkpt>
      <trkpt lat="43.9757" lon="7.39243">
        <ele>1641.75</ele>
        <time>2014-09-04T12:46:03Z</time>
      </trkpt>
      <trkpt lat="43.97502" lon="7.3917">
        <ele>1649.17</ele>
        <time>2014-09-04T12:47:09Z</time>
      </trkpt>
      <trkpt lat="43.97442" lon="7.39099">
        <ele>1652.7</ele>
        <time>2014-09-04T12:48:14Z</time>
      </trkpt>
      <trkpt lat="43.97494" lon="7.39075">
        <ele>1657.66</ele>
        <time>2014-09-04T12:49:20Z</time>
      </trkpt>
      <trkpt lat="43.97441" lon="7.39078">
        <ele>1669.42</ele>
        <time>2014-09-04T12:50:23Z</time>
      </trkpt>
      <trkpt lat="43.97407" lon="7.3906">
        <ele>1681.75</ele>
        <time>2014-09-04T12:51:26Z</time>
      </trkpt>
      <trkpt lat="43.97366" lon="7.38986">
        <ele>1691.73</ele>
        <time>2014-09-04T12:52:28Z</time>
      </trkpt>
      <trkpt lat="43.97341" lon="7.38926">
        <ele>1701.53</ele>
        <time>2014-09-04T12:53:31Z</time>
      </trkpt>
      <trkpt lat="43.97285" lon="7.3885">
        <ele>1710.61</ele>
        <time>2014-09-04T12:54:38Z</time>
      </trkpt>
      <trkpt lat="43.9728" lon="7.38771">
        <ele>1718.88</ele>
        <time>2014-09-04T12:55:40Z</time>
      </trkpt>
      <trkpt lat="43.97234" lon="7.38719">
        <ele>1727.07</ele>
        <time>2014-09-04T12:56:42Z</time>
      </trkpt>
      <trkpt lat="43.9722" lon="7.3865">
        <ele>1728.8</ele>
        <time>2014-09-04T12:57:44Z</time>
      </trkpt>
      <trkpt lat="43.97227" lon="7.38551">
        <ele>1736.97</ele>
        <time>2014-09-04T12:58:46Z</time>
      </trkpt>
      <trkpt lat="43.97178" lon="7.38466">
        <ele>1742.65</ele>
        <time>2014-09-04T12:59:48Z</time>
      </trkpt>
      <trkpt lat="43.97125" lon="7.38402">
        <ele>1746.83</ele>
        <time>2014-09-04T13:00:50Z</time>
      </trkpt>
      <trkpt lat="43.97128" lon="7.38285">
        <ele>1748.65</ele>
        <time>2014-09-04T13:01:52Z</time>
      </trkpt>
      <trkpt lat="43.97079" lon="7.38247">
        <ele>1743.79</ele>
        <time>2014-09-04T13:02:54Z</time>
      </trkpt>
      <trkpt lat="43.97008" lon="7.38246">
        <ele>1737.37</ele>
        <time>2014-09-04T13:03:56Z</time>
      </trkpt>
      <trkpt lat="43.96931" lon="7.38223">
        <ele>1732.47</ele>
        <time>2014-09-04T13:04:59Z</time>
      </trkpt>
      <trkpt lat="43.96849" lon="7.38207">
        <ele>1727.7</ele>
        <time>2014-09-04T13:06:04Z</time>
      </trkpt>
      <trkpt lat="43.96858" lon="7.38173">
        <ele>1726.91</ele>
        <time>2014-09-04T13:07:07Z</time>
      </trkpt>
      <trkpt lat="43.96787" lon="7.38097">
        <ele>1724.92</ele>
        <time>2014-09-04T13:08:10Z</time>
      </trkpt>
      <trkpt lat="43.96757" lon="7.37999">
        <ele>1729.44</ele>
        <time>2014-09-04T13:09:12Z</time>
      </trkpt>
      <trkpt lat="43.96679" lon="7.38025">
        <ele>1722.36</ele>
        <time>2014-09-04T13:10:14Z</time>
      </trkpt>
      <trkpt lat="43.96618" lon="7.3799">
        <ele>1719.04</ele>
        <time>2014-09-04T13:11:17Z</time>
      </trkpt>
      <trkpt lat="43.96553" lon="7.37946">
        <ele>1712.68</ele>
        <time>2014-09-04T13:12:19Z</time>
      </trkpt>
      <trkpt lat="43.96478" lon="7.37922">
        <ele>1708.93</ele>
        <time>2014-09-04T13:13:22Z</time>
      </trkpt>
      <trkpt lat="43.96425" lon="7.379">
        <ele>1706.29</ele>
        <time>2014-09-04T13:14:25Z</time>
      </trkpt>
      <trkpt lat="43.96375" lon="7.37872">
        <ele>1706.7</ele>
        <time>2014-09-04T13:15:27Z</time>
      </trkpt>
      <trkpt lat="43.96317" lon="7.37831">
        <ele>1700.57</ele>
        <time>2014-09-04T13:16:33Z</time>
      </trkpt>
      <trkpt lat="43.96241" lon="7.37846">
        <ele>1697.4</ele>
        <time>2014-09-04T13:17:36Z</time>
      </trkpt>
      <trkpt lat="43.96169" lon="7.3782">
        <ele>1679.63</ele>
        <time>2014-09-04T13:18:38Z</time>
      </trkpt>
      <trkpt lat="43.96108" lon="7.37828">
        <ele>1670.47</ele>
        <time>2014-09-04T13:19:41Z</time>
      </trkpt>
      <trkpt lat="43.96068" lon="7.37791">
        <ele>1657.75</ele>
        <time>2014-09-04T13:20:44Z</time>
      </trkpt>
      <trkpt lat="43.96042" lon="7.37771">
        <ele>1647.76</ele>
        <time>2014-09-04T13:21:47Z</time>
      </trkpt>
      <trkpt lat="43.9599" lon="7.37748">
        <ele>1638.37</ele>
        <time>2014-09-04T13:22:52Z</time>
      </trkpt>
      <trkpt lat="43.95917" lon="7.37694">
        <ele>1624.78</ele>
        <time>2014-09-04T13:23:55Z</time>
      </trkpt>
      <trkpt lat="43.95842" lon="7.37745">
        <ele>1620.86</ele>
        <time>2014-09-04T13:24:59Z</time>
      </trkpt>
      <trkpt lat="43.95779" lon="7.3774">
        <ele>1616.42</ele>
        <time>2014-09-04T13:26:02Z</time>
      </trkpt>
      <trkpt lat="43.95687" lon="7.37702">
        <ele>1615.34</ele>
        <time>2014-09-04T13:27:06Z</time>
      </trkpt>
      <trkpt lat="43.95605" lon="7.37737">
        <ele>1613.36</ele>
        <time>2014-09-04T13:28:09Z</time>
      </trkpt>
      <trkpt lat="43.95527" lon="7.37764">
        <ele>1612.73</ele>
        <time>2014-09-04T13:29:12Z</time>
      </trkpt>
      <trkpt lat="43.95528" lon="7.3788">
        <ele>1606.92</ele>
        <time>2014-09-04T13:30:16Z</time>
      </trkpt>
      <trkpt lat="43.95509" lon="7.37991">
        <ele>1601.45</ele>
        <time>2014-09-04T13:31:21Z</time>
      </trkpt>
      <trkpt lat="43.95464" lon="7.38133">
        <ele>1593.99</ele>
        <time>2014-09-04T13:32:25Z</time>
      </trkpt>
      <trkpt lat="43.95425" lon="7.38209">
        <ele>1586.67</ele>
        <time>2014-09-04T13:33:29Z</time>
      </trkpt>
      <trkpt lat="43.95412" lon="7.38305">
        <ele>1581.27</ele>
        <time>2014-09-04T13:34:33Z</time>
      </trkpt>
      <trkpt lat="43.95428" lon="7.38243">
        <ele>1581.17</ele>
        <time>2014-09-04T13:35:37Z</time>
      </trkpt>
      <trkpt lat="43.95411" lon="7.38261">
        <ele>1580.68</ele>
        <time>2014-09-04T13:36:40Z</time>
      </trkpt>
      <trkpt lat="43.95434" lon="7.38261">
        <ele>1580.57</ele>
        <time>2014-09-04T13:37:43Z</time>
      </trkpt>
      <trkpt lat="43.95404" lon="7.38266">
        <ele>1580.77</ele>
        <time>2014-09-04T13:38:46Z</time>
      </trkpt>
      <trkpt lat="43.95402" lon="7.38254">
        <ele>1580.88</ele>
        <time>2014-09-04T13:39:49Z</time>
      </trkpt>
      <trkpt lat="43.95389" lon="7.38262">
        <ele>1580.78</ele>
        <time>2014-09-04T13:40:51Z</time>
      </trkpt>
      <trkpt lat="43.95406" lon="7.38266">
        <ele>1580.61</ele>
        <time>2014-09-04T13:41:54Z</time>
      </trkpt>
      <trkpt lat="43.9541" lon="7.38273">
        <ele>1580.52</ele>
        <time>2014-09-04T13:42:57Z</time>
      </trkpt>
      <trkpt lat="43.95376" lon="7.38264">
        <ele>1580.47</ele>
        <time>2014-09-04T13:44:00Z</time>
      </trkpt>
      <trkpt lat="43.95414" lon="7.38265">
        <ele>1581.68</ele>
        <time>2014-09-04T13:45:03Z</time>
      </trkpt>
      <trkpt lat="43.95431" lon="7.38234">
        <ele>1577.9</ele>
        <time>2014-09-04T13:46:06Z</time>
      </trkpt>
      <trkpt lat="43.95501" lon="7.38178">
        <ele>1564.45</ele>
        <time>2014-09-04T13:47:09Z</time>
      </trkpt>
      <trkpt lat="43.95535" lon="7.38073">
        <ele>1550.33</ele>
        <time>2014-09-04T13:48:14Z</time>
      </trkpt>
      <trkpt lat="43.95613" lon="7.3806">
        <ele>1534.39</ele>
        <time>2014-09-04T13:49:21Z</time>
      </trkpt>
      <trkpt lat="43.95668" lon="7.37934">
        <ele>1525.32</ele>
        <time>2014-09-04T13:50:24Z</time>
      </trkpt>
      <trkpt lat="43.9564" lon="7.3802">
        <ele>1512.38</ele>
        <time>2014-09-04T13:51:27Z</time>
      </trkpt>
      <trkpt lat="43.95631" lon="7.38074">
        <ele>1505.87</ele>
        <time>2014-09-04T13:52:29Z</time>
      </trkpt>
      <trkpt lat="43.95607" lon="7.38136">
        <ele>1500.5</ele>
        <time>2014-09-04T13:53:31Z</time>
      </trkpt>
      <trkpt lat="43.95606" lon="7.38223">
        <ele>1496.45</ele>
        <time>2014-09-04T13:54:34Z</time>
      </trkpt>
      <trkpt lat="43.95563" lon="7.38306">
        <ele>1487.77</ele>
        <time>2014-09-04T13:55:39Z</time>
      </trkpt>
      <trkpt lat="43.95601" lon="7.38444">
        <ele>1482.95</ele>
        <time>2014-09-04T13:56:42Z</time>
      </trkpt>
      <trkpt lat="43.95583" lon="7.38505">
        <ele>1480.1</ele>
        <time>2014-09-04T13:57:47Z</time>
      </trkpt>
      <trkpt lat="43.95495" lon="7.38553">
        <ele>1477.06</ele>
        <time>2014-09-04T13:58:52Z</time>
      </trkpt>
      <trkpt lat="43.95453" lon="7.38663">
        <ele>1469.09</ele>
        <time>2014-09-04T13:59:56Z</time>
      </trkpt>
      <trkpt lat="43.95462" lon="7.38594">
        <ele>1458.39</ele>
        <time>2014-09-04T14:00:59Z</time>
      </trkpt>
      <trkpt lat="43.95402" lon="7.38715">
        <ele>1451.09</ele>
        <time>2014-09-04T14:02:03Z</time>
      </trkpt>
      <trkpt lat="43.95367" lon="7.38825">
        <ele>1445.74</ele>
        <time>2014-09-04T14:03:07Z</time>
      </trkpt>
      <trkpt lat="43.95287" lon="7.38827">
        <ele>1434.72</ele>
        <time>2014-09-04T14:04:09Z</time>
      </trkpt>
      <trkpt lat="43.95255" lon="7.38866">
        <ele>1423.31</ele>
        <time>2014-09-04T14:05:12Z</time>
      </trkpt>
      <trkpt lat="43.95217" lon="7.38992">
        <ele>1409.75</ele>
        <time>2014-09-04T14:06:18Z</time>
      </trkpt>
      <trkpt lat="43.9521" lon="7.39017">
        <ele>1398.99</ele>
        <time>2014-09-04T14:07:21Z</time>
      </trkpt>
      <trkpt lat="43.95171" lon="7.39079">
        <ele>1385.94</ele>
        <time>2014-09-04T14:08:24Z</time>
      </trkpt>
      <trkpt lat="43.95241" lon="7.39109">
        <ele>1372.22</ele>
        <time>2014-09-04T14:09:30Z</time>
      </trkpt>
      <trkpt lat="43.95152" lon="7.39223">
        <ele>1356.99</ele>
        <time>2014-09-04T14:10:34Z</time>
      </trkpt>
      <trkpt lat="43.95067" lon="7.39275">
        <ele>1344.65</ele>
        <time>2014-09-04T14:11:40Z</time>
      </trkpt>
      <trkpt lat="43.9507" lon="7.39322">
        <ele>1332.96</ele>
        <time>2014-09-04T14:12:42Z</time>
      </trkpt>
      <trkpt lat="43.95004" lon="7.39342">
        <ele>1319.53</ele>
        <time>2014-09-04T14:13:48Z</time>
      </trkpt>
      <trkpt lat="43.94997" lon="7.39385">
        <ele>1303.78</ele>
        <time>2014-09-04T14:15:01Z</time>
      </trkpt>
      <trkpt lat="43.94951" lon="7.3947">
        <ele>1291.48</ele>
        <time>2014-09-04T14:16:04Z</time>
      </trkpt>
      <trkpt lat="43.94947" lon="7.39577">
        <ele>1284.55</ele>
        <time>2014-09-04T14:17:07Z</time>
      </trkpt>
      <trkpt lat="43.94903" lon="7.3968">
        <ele>1272.94</ele>
        <time>2014-09-04T14:18:12Z</time>
      </trkpt>
      <trkpt lat="43.94921" lon="7.39741">
        <ele>1258.29</ele>
        <time>2014-09-04T14:19:15Z</time>
      </trkpt>
      <trkpt lat="43.94952" lon="7.39777">
        <ele>1244.29</ele>
        <time>2014-09-04T14:20:18Z</time>
      </trkpt>
      <trkpt lat="43.95028" lon="7.39814">
        <ele>1228.76</ele>
        <time>2014-09-04T14:21:27Z</time>
      </trkpt>
      <trkpt lat="43.95087" lon="7.39875">
        <ele>1213.47</ele>
        <time>2014-09-04T14:22:31Z</time>
      </trkpt>
      <trkpt lat="43.95125" lon="7.39945">
        <ele>1204.69</ele>
        <time>2014-09-04T14:23:33Z</time>
      </trkpt>
      <trkpt lat="43.95096" lon="7.39937">
        <ele>1204.57</ele>
        <time>2014-09-04T14:24:37Z</time>
      </trkpt>
      <trkpt lat="43.9508" lon="7.39926">
        <ele>1203.88</ele>
        <time>2014-09-04T14:25:39Z</time>
      </trkpt>
      <trkpt lat="43.95106" lon="7.39927">
        <ele>1203.85</ele>
        <time>2014-09-04T14:26:42Z</time>
      </trkpt>
      <trkpt lat="43.95013" lon="7.39986">
        <ele>1196.69</ele>
        <time>2014-09-04T14:27:45Z</time>
      </trkpt>
      <trkpt lat="43.94944" lon="7.40032">
        <ele>1189.1</ele>
        <time>2014-09-04T14:28:49Z</time>
      </trkpt>
      <trkpt lat="43.94925" lon="7.40157">
        <ele>1182.99</ele>
        <time>2014-09-04T14:29:52Z</time>
      </trkpt>
      <trkpt lat="43.94817" lon="7.4029">
        <ele>1177.72</ele>
        <time>2014-09-04T14:30:57Z</time>
      </trkpt>
      <trkpt lat="43.94831" lon="7.40275">
        <ele>1165.66</ele>
        <time>2014-09-04T14:31:57Z</time>
      </trkpt>
      <trkpt lat="43.94818" lon="7.404">
        <ele>1157.66</ele>
        <time>2014-09-04T14:33:03Z</time>
      </trkpt>
      <trkpt lat="43.94757" lon="7.40456">
        <ele>1147.68</ele>
        <time>2014-09-04T14:34:08Z</time>
      </trkpt>
      <trkpt lat="43.94717" lon="7.40509">
        <ele>1132.06</ele>
        <time>2014-09-04T14:35:08Z</time>
      </trkpt>
      <trkpt lat="43.94693" lon="7.40616">
        <ele>1117.97</ele>
        <time>2014-09-04T14:36:08Z</time>
      </trkpt>
      <trkpt lat="43.87527" lon="7.45416">
        <ele>429.81</ele>
        <time>2014-09-05T09:11:49Z</time>
      </trkpt>
      <trkpt lat="43.87505" lon="7.45475">
        <ele>438.8</ele>
        <time>2014-09-05T09:12:49Z</time>
      </trkpt>
      <trkpt lat="43.87481" lon="7.4555">
        <ele>445.64</ele>
        <time>2014-09-05T09:13:49Z</time>
      </trkpt>
      <trkpt lat="43.87462" lon="7.45615">
        <ele>454.15</ele>
        <time>2014-09-05T09:14:53Z</time>
      </trkpt>
      <trkpt lat="43.87409" lon="7.45706">
        <ele>463.58</ele>
        <time>2014-09-05T09:15:57Z</time>
      </trkpt>
      <trkpt lat="43.87437" lon="7.45787">
        <ele>472.34</ele>
        <time>2014-09-05T09:17:02Z</time>
      </trkpt>
      <trkpt lat="43.87424" lon="7.45864">
        <ele>478.27</ele>
        <time>2014-09-05T09:18:06Z</time>
      </trkpt>
      <trkpt lat="43.87407" lon="7.45945">
        <ele>485.54</ele>
        <time>2014-09-05T09:19:12Z</time>
      </trkpt>
      <trkpt lat="43.87351" lon="7.45998">
        <ele>494.09</ele>
        <time>2014-09-05T09:20:17Z</time>
      </trkpt>
      <trkpt lat="43.87274" lon="7.46088">
        <ele>501.43</ele>
        <time>2014-09-05T09:21:22Z</time>
      </trkpt>
      <trkpt lat="43.8734" lon="7.46131">
        <ele>510.06</ele>
        <time>2014-09-05T09:22:28Z</time>
      </trkpt>
      <trkpt lat="43.87341" lon="7.45862">
        <ele>518.39</ele>
        <time>2014-09-05T09:23:40Z</time>
      </trkpt>
      <trkpt lat="43.87433" lon="7.46533">
        <ele>523.84</ele>
        <time>2014-09-05T09:24:51Z</time>
      </trkpt>
      <trkpt lat="43.87373" lon="7.46405">
        <ele>528.44</ele>
        <time>2014-09-05T09:25:56Z</time>
      </trkpt>
      <trkpt lat="43.87369" lon="7.46441">
        <ele>531.01</ele>
        <time>2014-09-05T09:27:01Z</time>
      </trkpt>
      <trkpt lat="43.87405" lon="7.46495">
        <ele>537.18</ele>
        <time>2014-09-05T09:28:05Z</time>
      </trkpt>
      <trkpt lat="43.87368" lon="7.4653">
        <ele>545.93</ele>
        <time>2014-09-05T09:29:11Z</time>
      </trkpt>
      <trkpt lat="43.87373" lon="7.46605">
        <ele>557.29</ele>
        <time>2014-09-05T09:30:16Z</time>
      </trkpt>
      <trkpt lat="43.87359" lon="7.46558">
        <ele>568.24</ele>
        <time>2014-09-05T09:31:19Z</time>
      </trkpt>
      <trkpt lat="43.87366" lon="7.46673">
        <ele>579.11</ele>
        <time>2014-09-05T09:32:35Z</time>
      </trkpt>
      <trkpt lat="43.87332" lon="7.46745">
        <ele>589.26</ele>
        <time>2014-09-05T09:33:38Z</time>
      </trkpt>
      <trkpt lat="43.87297" lon="7.46814">
        <ele>590.74</ele>
        <time>2014-09-05T09:34:42Z</time>
      </trkpt>
      <trkpt lat="43.87264" lon="7.46881">
        <ele>593.26</ele>
        <time>2014-09-05T09:35:46Z</time>
      </trkpt>
      <trkpt lat="43.87192" lon="7.46876">
        <ele>600.79</ele>
        <time>2014-09-05T09:36:50Z</time>
      </trkpt>
      <trkpt lat="43.8712" lon="7.4693">
        <ele>609.32</ele>
        <time>2014-09-05T09:37:56Z</time>
      </trkpt>
      <trkpt lat="43.87186" lon="7.47021">
        <ele>618.5</ele>
        <time>2014-09-05T09:39:03Z</time>
      </trkpt>
      <trkpt lat="43.87105" lon="7.47055">
        <ele>626.48</ele>
        <time>2014-09-05T09:40:08Z</time>
      </trkpt>
      <trkpt lat="43.87149" lon="7.47177">
        <ele>635.12</ele>
        <time>2014-09-05T09:41:12Z</time>
      </trkpt>
      <trkpt lat="43.87118" lon="7.47242">
        <ele>643.17</ele>
        <time>2014-09-05T09:42:15Z</time>
      </trkpt>
      <trkpt lat="43.87081" lon="7.47368">
        <ele>650.59</ele>
        <time>2014-09-05T09:43:20Z</time>
      </trkpt>
      <trkpt lat="43.87054" lon="7.47366">
        <ele>657.96</ele>
        <time>2014-09-05T09:44:24Z</time>
      </trkpt>
      <trkpt lat="43.87038" lon="7.47435">
        <ele>669.79</ele>
        <time>2014-09-05T09:45:28Z</time>
      </trkpt>
      <trkpt lat="43.87001" lon="7.47489">
        <ele>679.45</ele>
        <time>2014-09-05T09:46:31Z</time>
      </trkpt>
      <trkpt lat="43.86932" lon="7.47476">
        <ele>684.18</ele>
        <time>2014-09-05T09:47:34Z</time>
      </trkpt>
      <trkpt lat="43.86852" lon="7.47402">
        <ele>693.39</ele>
        <time>2014-09-05T09:48:37Z</time>
      </trkpt>
      <trkpt lat="43.86804" lon="7.47494">
        <ele>705.93</ele>
        <time>2014-09-05T09:49:41Z</time>
      </trkpt>
      <trkpt lat="43.86768" lon="7.47552">
        <ele>716.12</ele>
        <time>2014-09-05T09:50:41Z</time>
      </trkpt>
      <trkpt lat="43.86715" lon="7.47598">
        <ele>726</ele>
        <time>2014-09-05T09:51:41Z</time>
      </trkpt>
      <trkpt lat="43.86648" lon="7.47629">
        <ele>737.38</ele>
        <time>2014-09-05T09:52:41Z</time>
      </trkpt>
      <trkpt lat="43.86587" lon="7.47635">
        <ele>751.23</ele>
        <time>2014-09-05T09:53:44Z</time>
      </trkpt>
      <trkpt lat="43.86542" lon="7.47657">
        <ele>766.23</ele>
        <time>2014-09-05T09:54:46Z</time>
      </trkpt>
      <trkpt lat="43.86494" lon="7.47679">
        <ele>778.44</ele>
        <time>2014-09-05T09:55:50Z</time>
      </trkpt>
      <trkpt lat="43.8646" lon="7.47695">
        <ele>794.42</ele>
        <time>2014-09-05T09:56:55Z</time>
      </trkpt>
      <trkpt lat="43.86409" lon="7.47681">
        <ele>809.76</ele>
        <time>2014-09-05T09:58:01Z</time>
      </trkpt>
      <trkpt lat="43.86361" lon="7.47653">
        <ele>824.88</ele>
        <time>2014-09-05T09:59:05Z</time>
      </trkpt>
      <trkpt lat="43.86329" lon="7.47656">
        <ele>840.17</ele>
        <time>2014-09-05T10:00:08Z</time>
      </trkpt>
      <trkpt lat="43.86264" lon="7.47638">
        <ele>854.66</ele>
        <time>2014-09-05T10:01:13Z</time>
      </trkpt>
      <trkpt lat="43.86223" lon="7.47642">
        <ele>854.14</ele>
        <time>2014-09-05T10:02:16Z</time>
      </trkpt>
      <trkpt lat="43.86239" lon="7.47644">
        <ele>854.22</ele>
        <time>2014-09-05T10:03:18Z</time>
      </trkpt>
      <trkpt lat="43.86233" lon="7.47658">
        <ele>854.39</ele>
        <time>2014-09-05T10:04:20Z</time>
      </trkpt>
      <trkpt lat="43.86262" lon="7.47672">
        <ele>855.07</ele>
        <time>2014-09-05T10:05:22Z</time>
      </trkpt>
      <trkpt lat="43.8627" lon="7.47677">
        <ele>855.34</ele>
        <time>2014-09-05T10:06:24Z</time>
      </trkpt>
      <trkpt lat="43.86272" lon="7.47676">
        <ele>855.07</ele>
        <time>2014-09-05T10:07:26Z</time>
      </trkpt>
      <trkpt lat="43.86268" lon="7.47673">
        <ele>855.03</ele>
        <time>2014-09-05T10:08:28Z</time>
      </trkpt>
      <trkpt lat="43.86259" lon="7.47688">
        <ele>855.36</ele>
        <time>2014-09-05T10:09:30Z</time>
      </trkpt>
      <trkpt lat="43.86264" lon="7.47684">
        <ele>855.42</ele>
        <time>2014-09-05T10:10:32Z</time>
      </trkpt>
      <trkpt lat="43.86268" lon="7.47686">
        <ele>855.54</ele>
        <time>2014-09-05T10:11:34Z</time>
      </trkpt>
      <trkpt lat="43.86269" lon="7.4764">
        <ele>855.06</ele>
        <time>2014-09-05T10:12:38Z</time>
      </trkpt>
      <trkpt lat="43.86261" lon="7.47683">
        <ele>855.76</ele>
        <time>2014-09-05T10:13:41Z</time>
      </trkpt>
      <trkpt lat="43.86266" lon="7.47684">
        <ele>855.98</ele>
        <time>2014-09-05T10:14:43Z</time>
      </trkpt>
      <trkpt lat="43.86254" lon="7.47686">
        <ele>856.06</ele>
        <time>2014-09-05T10:15:46Z</time>
      </trkpt>
      <trkpt lat="43.8626" lon="7.4768">
        <ele>856.18</ele>
        <time>2014-09-05T10:16:48Z</time>
      </trkpt>
      <trkpt lat="43.86259" lon="7.4769">
        <ele>856.27</ele>
        <time>2014-09-05T10:17:50Z</time>
      </trkpt>
      <trkpt lat="43.86264" lon="7.47689">
        <ele>856.28</ele>
        <time>2014-09-05T10:18:52Z</time>
      </trkpt>
      <trkpt lat="43.86262" lon="7.47687">
        <ele>856.05</ele>
        <time>2014-09-05T10:19:54Z</time>
      </trkpt>
      <trkpt lat="43.86264" lon="7.47694">
        <ele>856.5</ele>
        <time>2014-09-05T10:20:57Z</time>
      </trkpt>
      <trkpt lat="43.86269" lon="7.47678">
        <ele>856.8</ele>
        <time>2014-09-05T10:21:59Z</time>
      </trkpt>
      <trkpt lat="43.86267" lon="7.47681">
        <ele>857.57</ele>
        <time>2014-09-05T10:23:01Z</time>
      </trkpt>
      <trkpt lat="43.86267" lon="7.47678">
        <ele>857.1</ele>
        <time>2014-09-05T10:24:03Z</time>
      </trkpt>
      <trkpt lat="43.86264" lon="7.47681">
        <ele>857.59</ele>
        <time>2014-09-05T10:25:05Z</time>
      </trkpt>
      <trkpt lat="43.86264" lon="7.47686">
        <ele>857.62</ele>
        <time>2014-09-05T10:26:07Z</time>
      </trkpt>
      <trkpt lat="43.86244" lon="7.47701">
        <ele>854.89</ele>
        <time>2014-09-05T10:27:09Z</time>
      </trkpt>
      <trkpt lat="43.86171" lon="7.47706">
        <ele>846.88</ele>
        <time>2014-09-05T10:28:11Z</time>
      </trkpt>
      <trkpt lat="43.861" lon="7.4768">
        <ele>840.99</ele>
        <time>2014-09-05T10:29:13Z</time>
      </trkpt>
      <trkpt lat="43.86017" lon="7.47612">
        <ele>829.4</ele>
        <time>2014-09-05T10:30:17Z</time>
      </trkpt>
      <trkpt lat="43.85962" lon="7.47575">
        <ele>834.14</ele>
        <time>2014-09-05T10:31:20Z</time>
      </trkpt>
      <trkpt lat="43.85943" lon="7.47575">
        <ele>838.65</ele>
        <time>2014-09-05T10:32:23Z</time>
      </trkpt>
      <trkpt lat="43.859" lon="7.47628">
        <ele>840.76</ele>
        <time>2014-09-05T10:33:26Z</time>
      </trkpt>
      <trkpt lat="43.85828" lon="7.477">
        <ele>841.68</ele>
        <time>2014-09-05T10:34:28Z</time>
      </trkpt>
      <trkpt lat="43.85772" lon="7.47736">
        <ele>850.84</ele>
        <time>2014-09-05T10:35:30Z</time>
      </trkpt>
      <trkpt lat="43.85719" lon="7.4779">
        <ele>855.1</ele>
        <time>2014-09-05T10:36:37Z</time>
      </trkpt>
      <trkpt lat="43.85657" lon="7.47816">
        <ele>856.77</ele>
        <time>2014-09-05T10:37:41Z</time>
      </trkpt>
      <trkpt lat="43.85615" lon="7.47882">
        <ele>854.01</ele>
        <time>2014-09-05T10:38:46Z</time>
      </trkpt>
      <trkpt lat="43.85614" lon="7.47921">
        <ele>863.18</ele>
        <time>2014-09-05T10:39:51Z</time>
      </trkpt>
      <trkpt lat="43.85653" lon="7.47967">
        <ele>874.85</ele>
        <time>2014-09-05T10:40:55Z</time>
      </trkpt>
      <trkpt lat="43.85643" lon="7.48007">
        <ele>885.98</ele>
        <time>2014-09-05T10:41:59Z</time>
      </trkpt>
      <trkpt lat="43.85584" lon="7.48042">
        <ele>886.39</ele>
        <time>2014-09-05T10:43:03Z</time>
      </trkpt>
      <trkpt lat="43.85517" lon="7.48075">
        <ele>885.86</ele>
        <time>2014-09-05T10:44:06Z</time>
      </trkpt>
      <trkpt lat="43.8545" lon="7.48115">
        <ele>890.75</ele>
        <time>2014-09-05T10:45:09Z</time>
      </trkpt>
      <trkpt lat="43.85391" lon="7.48128">
        <ele>903.56</ele>
        <time>2014-09-05T10:46:14Z</time>
      </trkpt>
      <trkpt lat="43.8535" lon="7.48159">
        <ele>912.11</ele>
        <time>2014-09-05T10:47:18Z</time>
      </trkpt>
      <trkpt lat="43.8526" lon="7.48241">
        <ele>919.6</ele>
        <time>2014-09-05T10:48:23Z</time>
      </trkpt>
      <trkpt lat="43.85239" lon="7.48255">
        <ele>930.05</ele>
        <time>2014-09-05T10:49:27Z</time>
      </trkpt>
      <trkpt lat="43.8519" lon="7.48287">
        <ele>941.59</ele>
        <time>2014-09-05T10:50:32Z</time>
      </trkpt>
      <trkpt lat="43.85173" lon="7.48211">
        <ele>953.36</ele>
        <time>2014-09-05T10:51:37Z</time>
      </trkpt>
      <trkpt lat="43.85126" lon="7.48293">
        <ele>966.16</ele>
        <time>2014-09-05T10:52:42Z</time>
      </trkpt>
      <trkpt lat="43.85168" lon="7.48336">
        <ele>975.36</ele>
        <time>2014-09-05T10:53:46Z</time>
      </trkpt>
      <trkpt lat="43.8517" lon="7.48413">
        <ele>986.44</ele>
        <time>2014-09-05T10:54:53Z</time>
      </trkpt>
      <trkpt lat="43.8518" lon="7.48461">
        <ele>997.42</ele>
        <time>2014-09-05T10:56:02Z</time>
      </trkpt>
      <trkpt lat="43.85189" lon="7.48464">
        <ele>1010.3</ele>
        <time>2014-09-05T10:57:12Z</time>
      </trkpt>
      <trkpt lat="43.85137" lon="7.4851">
        <ele>1022.52</ele>
        <time>2014-09-05T10:58:24Z</time>
      </trkpt>
      <trkpt lat="43.85105" lon="7.48573">
        <ele>1034.48</ele>
        <time>2014-09-05T10:59:33Z</time>
      </trkpt>
      <trkpt lat="43.85048" lon="7.4862">
        <ele>1047.71</ele>
        <time>2014-09-05T11:00:39Z</time>
      </trkpt>
      <trkpt lat="43.85026" lon="7.4865">
        <ele>1060.52</ele>
        <time>2014-09-05T11:01:42Z</time>
      </trkpt>
      <trkpt lat="43.84985" lon="7.48657">
        <ele>1070.61</ele>
        <time>2014-09-05T11:02:45Z</time>
      </trkpt>
      <trkpt lat="43.84985" lon="7.48674">
        <ele>1069.84</ele>
        <time>2014-09-05T11:03:52Z</time>
      </trkpt>
      <trkpt lat="43.84986" lon="7.48654">
        <ele>1070.14</ele>
        <time>2014-09-05T11:04:08Z</time>
      </trkpt>
      <trkpt lat="43.84992" lon="7.48651">
        <ele>1070.93</ele>
        <time>2014-09-05T12:01:17Z</time>
      </trkpt>
      <trkpt lat="43.84991" lon="7.4868">
        <ele>1032.09</ele>
        <time>2014-09-05T12:02:17Z</time>
      </trkpt>
      <trkpt lat="43.84943" lon="7.48731">
        <ele>1019.71</ele>
        <time>2014-09-05T12:03:17Z</time>
      </trkpt>
      <trkpt lat="43.84885" lon="7.4879">
        <ele>1009.96</ele>
        <time>2014-09-05T12:04:17Z</time>
      </trkpt>
      <trkpt lat="43.84798" lon="7.48873">
        <ele>1003.95</ele>
        <time>2014-09-05T12:05:21Z</time>
      </trkpt>
      <trkpt lat="43.84738" lon="7.48914">
        <ele>994.9</ele>
        <time>2014-09-05T12:06:26Z</time>
      </trkpt>
      <trkpt lat="43.84691" lon="7.48979">
        <ele>984.42</ele>
        <time>2014-09-05T12:07:31Z</time>
      </trkpt>
      <trkpt lat="43.84636" lon="7.49013">
        <ele>979.55</ele>
        <time>2014-09-05T12:08:34Z</time>
      </trkpt>
      <trkpt lat="43.84604" lon="7.49048">
        <ele>968.47</ele>
        <time>2014-09-05T12:09:39Z</time>
      </trkpt>
      <trkpt lat="43.84571" lon="7.49036">
        <ele>959.09</ele>
        <time>2014-09-05T12:10:45Z</time>
      </trkpt>
      <trkpt lat="43.84507" lon="7.4909">
        <ele>950.86</ele>
        <time>2014-09-05T12:11:49Z</time>
      </trkpt>
      <trkpt lat="43.84437" lon="7.49175">
        <ele>943.47</ele>
        <time>2014-09-05T12:12:54Z</time>
      </trkpt>
      <trkpt lat="43.84421" lon="7.49201">
        <ele>938.29</ele>
        <time>2014-09-05T12:13:58Z</time>
      </trkpt>
      <trkpt lat="43.8437" lon="7.49157">
        <ele>926.58</ele>
        <time>2014-09-05T12:15:03Z</time>
      </trkpt>
      <trkpt lat="43.84334" lon="7.49185">
        <ele>913.97</ele>
        <time>2014-09-05T12:16:08Z</time>
      </trkpt>
      <trkpt lat="43.84302" lon="7.49222">
        <ele>901.61</ele>
        <time>2014-09-05T12:17:13Z</time>
      </trkpt>
      <trkpt lat="43.84273" lon="7.49251">
        <ele>892.55</ele>
        <time>2014-09-05T12:18:16Z</time>
      </trkpt>
      <trkpt lat="43.84234" lon="7.49286">
        <ele>889.58</ele>
        <time>2014-09-05T12:19:22Z</time>
      </trkpt>
      <trkpt lat="43.84159" lon="7.49265">
        <ele>886.79</ele>
        <time>2014-09-05T12:20:26Z</time>
      </trkpt>
      <trkpt lat="43.84091" lon="7.49299">
        <ele>878.47</ele>
        <time>2014-09-05T12:21:28Z</time>
      </trkpt>
      <trkpt lat="43.84063" lon="7.49304">
        <ele>870.37</ele>
        <time>2014-09-05T12:22:35Z</time>
      </trkpt>
      <trkpt lat="43.83986" lon="7.49317">
        <ele>860.09</ele>
        <time>2014-09-05T12:23:39Z</time>
      </trkpt>
      <trkpt lat="43.83916" lon="7.49366">
        <ele>858.58</ele>
        <time>2014-09-05T12:24:44Z</time>
      </trkpt>
      <trkpt lat="43.83859" lon="7.4942">
        <ele>857.47</ele>
        <time>2014-09-05T12:25:51Z</time>
      </trkpt>
      <trkpt lat="43.838" lon="7.49449">
        <ele>847.44</ele>
        <time>2014-09-05T12:26:55Z</time>
      </trkpt>
      <trkpt lat="43.83761" lon="7.49461">
        <ele>839.34</ele>
        <time>2014-09-05T12:28:00Z</time>
      </trkpt>
      <trkpt lat="43.83742" lon="7.49467">
        <ele>837.67</ele>
        <time>2014-09-05T12:29:07Z</time>
      </trkpt>
      <trkpt lat="43.83685" lon="7.4947">
        <ele>826.49</ele>
        <time>2014-09-05T12:30:11Z</time>
      </trkpt>
      <trkpt lat="43.83662" lon="7.49464">
        <ele>817.59</ele>
        <time>2014-09-05T12:31:15Z</time>
      </trkpt>
      <trkpt lat="43.83626" lon="7.49481">
        <ele>806.29</ele>
        <time>2014-09-05T12:32:20Z</time>
      </trkpt>
      <trkpt lat="43.83585" lon="7.49545">
        <ele>792.74</ele>
        <time>2014-09-05T12:33:26Z</time>
      </trkpt>
      <trkpt lat="43.83519" lon="7.49584">
        <ele>783.65</ele>
        <time>2014-09-05T12:34:30Z</time>
      </trkpt>
      <trkpt lat="43.83497" lon="7.49665">
        <ele>771.33</ele>
        <time>2014-09-05T12:35:33Z</time>
      </trkpt>
      <trkpt lat="43.83461" lon="7.49748">
        <ele>759.13</ele>
        <time>2014-09-05T12:36:39Z</time>
      </trkpt>
      <trkpt lat="43.83388" lon="7.49775">
        <ele>752.7</ele>
        <time>2014-09-05T12:37:43Z</time>
      </trkpt>
      <trkpt lat="43.83384" lon="7.49862">
        <ele>756.83</ele>
        <time>2014-09-05T12:38:48Z</time>
      </trkpt>
      <trkpt lat="43.8332" lon="7.49837">
        <ele>765.26</ele>
        <time>2014-09-05T12:39:54Z</time>
      </trkpt>
      <trkpt lat="43.8324" lon="7.49832">
        <ele>772.59</ele>
        <time>2014-09-05T12:41:00Z</time>
      </trkpt>
      <trkpt lat="43.83151" lon="7.4978">
        <ele>773.31</ele>
        <time>2014-09-05T12:42:03Z</time>
      </trkpt>
      <trkpt lat="43.83128" lon="7.49791">
        <ele>771.81</ele>
        <time>2014-09-05T12:43:06Z</time>
      </trkpt>
      <trkpt lat="43.83132" lon="7.49789">
        <ele>771.11</ele>
        <time>2014-09-05T12:44:09Z</time>
      </trkpt>
      <trkpt lat="43.83076" lon="7.49796">
        <ele>769.23</ele>
        <time>2014-09-05T12:45:12Z</time>
      </trkpt>
      <trkpt lat="43.83017" lon="7.49797">
        <ele>771.3</ele>
        <time>2014-09-05T12:46:18Z</time>
      </trkpt>
      <trkpt lat="43.82956" lon="7.49882">
        <ele>767.22</ele>
        <time>2014-09-05T12:47:22Z</time>
      </trkpt>
      <trkpt lat="43.829" lon="7.49919">
        <ele>765.12</ele>
        <time>2014-09-05T12:48:27Z</time>
      </trkpt>
      <trkpt lat="43.82826" lon="7.49909">
        <ele>769.47</ele>
        <time>2014-09-05T12:49:32Z</time>
      </trkpt>
      <trkpt lat="43.82769" lon="7.49869">
        <ele>772.81</ele>
        <time>2014-09-05T12:50:51Z</time>
      </trkpt>
      <trkpt lat="43.82676" lon="7.49832">
        <ele>777.09</ele>
        <time>2014-09-05T12:52:01Z</time>
      </trkpt>
      <trkpt lat="43.82649" lon="7.49828">
        <ele>778.39</ele>
        <time>2014-09-05T12:53:07Z</time>
      </trkpt>
      <trkpt lat="43.82627" lon="7.49827">
        <ele>778.86</ele>
        <time>2014-09-05T12:54:11Z</time>
      </trkpt>
      <trkpt lat="43.82623" lon="7.49864">
        <ele>777.33</ele>
        <time>2014-09-05T12:55:17Z</time>
      </trkpt>
      <trkpt lat="43.82624" lon="7.49843">
        <ele>776.57</ele>
        <time>2014-09-05T12:56:20Z</time>
      </trkpt>
      <trkpt lat="43.82635" lon="7.49874">
        <ele>777.06</ele>
        <time>2014-09-05T12:57:31Z</time>
      </trkpt>
      <trkpt lat="43.82608" lon="7.49875">
        <ele>776.71</ele>
        <time>2014-09-05T12:58:37Z</time>
      </trkpt>
      <trkpt lat="43.82613" lon="7.4992">
        <ele>772.98</ele>
        <time>2014-09-05T12:59:41Z</time>
      </trkpt>
      <trkpt lat="43.82578" lon="7.50027">
        <ele>765.32</ele>
        <time>2014-09-05T13:00:45Z</time>
      </trkpt>
      <trkpt lat="43.82543" lon="7.5011">
        <ele>755.2</ele>
        <time>2014-09-05T13:01:52Z</time>
      </trkpt>
      <trkpt lat="43.8253" lon="7.50243">
        <ele>748.91</ele>
        <time>2014-09-05T13:02:57Z</time>
      </trkpt>
      <trkpt lat="43.82469" lon="7.50272">
        <ele>742.1</ele>
        <time>2014-09-05T13:04:10Z</time>
      </trkpt>
      <trkpt lat="43.82471" lon="7.50326">
        <ele>732.92</ele>
        <time>2014-09-05T13:05:15Z</time>
      </trkpt>
      <trkpt lat="43.82443" lon="7.50271">
        <ele>723.5</ele>
        <time>2014-09-05T13:06:19Z</time>
      </trkpt>
      <trkpt lat="43.8238" lon="7.50222">
        <ele>714.22</ele>
        <time>2014-09-05T13:07:24Z</time>
      </trkpt>
      <trkpt lat="43.8234" lon="7.50205">
        <ele>719.55</ele>
        <time>2014-09-05T13:08:29Z</time>
      </trkpt>
      <trkpt lat="43.82311" lon="7.50197">
        <ele>721</ele>
        <time>2014-09-05T13:09:34Z</time>
      </trkpt>
      <trkpt lat="43.82266" lon="7.50165">
        <ele>716.96</ele>
        <time>2014-09-05T13:10:37Z</time>
      </trkpt>
      <trkpt lat="43.82271" lon="7.50192">
        <ele>717.01</ele>
        <time>2014-09-05T13:11:42Z</time>
      </trkpt>
      <trkpt lat="43.82267" lon="7.50177">
        <ele>717.03</ele>
        <time>2014-09-05T13:12:46Z</time>
      </trkpt>
      <trkpt lat="43.82276" lon="7.502">
        <ele>717.07</ele>
        <time>2014-09-05T13:13:52Z</time>
      </trkpt>
      <trkpt lat="43.82269" lon="7.50189">
        <ele>717.06</ele>
        <time>2014-09-05T13:14:58Z</time>
      </trkpt>
      <trkpt lat="43.82286" lon="7.50192">
        <ele>717.25</ele>
        <time>2014-09-05T13:16:04Z</time>
      </trkpt>
      <trkpt lat="43.82269" lon="7.50206">
        <ele>717.4</ele>
        <time>2014-09-05T13:17:10Z</time>
      </trkpt>
      <trkpt lat="43.8226" lon="7.50186">
        <ele>717.47</ele>
        <time>2014-09-05T13:18:16Z</time>
      </trkpt>
      <trkpt lat="43.82267" lon="7.50201">
        <ele>717.62</ele>
        <time>2014-09-05T13:19:21Z</time>
      </trkpt>
      <trkpt lat="43.8226" lon="7.50187">
        <ele>717.77</ele>
        <time>2014-09-05T13:20:28Z</time>
      </trkpt>
      <trkpt lat="43.82256" lon="7.5018">
        <ele>717.84</ele>
        <time>2014-09-05T13:21:34Z</time>
      </trkpt>
      <trkpt lat="43.8224" lon="7.50167">
        <ele>717.94</ele>
        <time>2014-09-05T13:22:44Z</time>
      </trkpt>
      <trkpt lat="43.82244" lon="7.50165">
        <ele>718.47</ele>
        <time>2014-09-05T13:23:05Z</time>
      </trkpt>
      <trkpt lat="43.82174" lon="7.50163">
        <ele>708.57</ele>
        <time>2014-09-06T06:04:29Z</time>
      </trkpt>
      <trkpt lat="43.82173" lon="7.50183">
        <ele>708.41</ele>
        <time>2014-09-06T06:05:29Z</time>
      </trkpt>
      <trkpt lat="43.8218" lon="7.50183">
        <ele>707.9</ele>
        <time>2014-09-06T06:06:29Z</time>
      </trkpt>
      <trkpt lat="43.82176" lon="7.50184">
        <ele>708.2</ele>
        <time>2014-09-06T06:07:29Z</time>
      </trkpt>
      <trkpt lat="43.82172" lon="7.50184">
        <ele>708.02</ele>
        <time>2014-09-06T06:08:42Z</time>
      </trkpt>
      <trkpt lat="43.82173" lon="7.50176">
        <ele>708.96</ele>
        <time>2014-09-06T06:09:45Z</time>
      </trkpt>
      <trkpt lat="43.82156" lon="7.50188">
        <ele>706.06</ele>
        <time>2014-09-06T06:10:49Z</time>
      </trkpt>
      <trkpt lat="43.82115" lon="7.50133">
        <ele>692.53</ele>
        <time>2014-09-06T06:11:54Z</time>
      </trkpt>
      <trkpt lat="43.82026" lon="7.50203">
        <ele>682.25</ele>
        <time>2014-09-06T06:12:57Z</time>
      </trkpt>
      <trkpt lat="43.82003" lon="7.50155">
        <ele>674.72</ele>
        <time>2014-09-06T06:14:01Z</time>
      </trkpt>
      <trkpt lat="43.81879" lon="7.50129">
        <ele>669.28</ele>
        <time>2014-09-06T06:15:04Z</time>
      </trkpt>
      <trkpt lat="43.81821" lon="7.50172">
        <ele>664.12</ele>
        <time>2014-09-06T06:16:06Z</time>
      </trkpt>
      <trkpt lat="43.81753" lon="7.50251">
        <ele>663.41</ele>
        <time>2014-09-06T06:17:09Z</time>
      </trkpt>
      <trkpt lat="43.81801" lon="7.50299">
        <ele>659.46</ele>
        <time>2014-09-06T06:18:17Z</time>
      </trkpt>
      <trkpt lat="43.81774" lon="7.50236">
        <ele>658.22</ele>
        <time>2014-09-06T06:19:26Z</time>
      </trkpt>
      <trkpt lat="43.81785" lon="7.50251">
        <ele>658.26</ele>
        <time>2014-09-06T06:20:35Z</time>
      </trkpt>
      <trkpt lat="43.81766" lon="7.50265">
        <ele>658.33</ele>
        <time>2014-09-06T06:21:41Z</time>
      </trkpt>
      <trkpt lat="43.81798" lon="7.5029">
        <ele>658.9</ele>
        <time>2014-09-06T06:22:49Z</time>
      </trkpt>
      <trkpt lat="43.81755" lon="7.50261">
        <ele>655.98</ele>
        <time>2014-09-06T06:23:49Z</time>
      </trkpt>
      <trkpt lat="43.81723" lon="7.50208">
        <ele>645.44</ele>
        <time>2014-09-06T06:24:49Z</time>
      </trkpt>
      <trkpt lat="43.81667" lon="7.50156">
        <ele>634.46</ele>
        <time>2014-09-06T06:25:49Z</time>
      </trkpt>
      <trkpt lat="43.81629" lon="7.50101">
        <ele>620.22</ele>
        <time>2014-09-06T06:26:49Z</time>
      </trkpt>
      <trkpt lat="43.81574" lon="7.50057">
        <ele>604.73</ele>
        <time>2014-09-06T06:27:49Z</time>
      </trkpt>
      <trkpt lat="43.81524" lon="7.50078">
        <ele>594.96</ele>
        <time>2014-09-06T06:28:49Z</time>
      </trkpt>
      <trkpt lat="43.81491" lon="7.50008">
        <ele>584.57</ele>
        <time>2014-09-06T06:29:49Z</time>
      </trkpt>
      <trkpt lat="43.81458" lon="7.49934">
        <ele>581.79</ele>
        <time>2014-09-06T06:30:49Z</time>
      </trkpt>
      <trkpt lat="43.81409" lon="7.4988">
        <ele>576.06</ele>
        <time>2014-09-06T06:31:49Z</time>
      </trkpt>
      <trkpt lat="43.81382" lon="7.4982">
        <ele>560.47</ele>
        <time>2014-09-06T06:32:49Z</time>
      </trkpt>
      <trkpt lat="43.8135" lon="7.49754">
        <ele>546.38</ele>
        <time>2014-09-06T06:33:49Z</time>
      </trkpt>
      <trkpt lat="43.81328" lon="7.49722">
        <ele>542.91</ele>
        <time>2014-09-06T06:34:49Z</time>
      </trkpt>
      <trkpt lat="43.81344" lon="7.49728">
        <ele>542.93</ele>
        <time>2014-09-06T06:35:49Z</time>
      </trkpt>
      <trkpt lat="43.81294" lon="7.4975">
        <ele>534.31</ele>
        <time>2014-09-06T06:36:49Z</time>
      </trkpt>
      <trkpt lat="43.81236" lon="7.49762">
        <ele>519.41</ele>
        <time>2014-09-06T06:37:49Z</time>
      </trkpt>
      <trkpt lat="43.81193" lon="7.49826">
        <ele>506.38</ele>
        <time>2014-09-06T06:38:49Z</time>
      </trkpt>
      <trkpt lat="43.81138" lon="7.49875">
        <ele>491.48</ele>
        <time>2014-09-06T06:39:49Z</time>
      </trkpt>
      <trkpt lat="43.8108" lon="7.49873">
        <ele>476.08</ele>
        <time>2014-09-06T06:40:49Z</time>
      </trkpt>
      <trkpt lat="43.81037" lon="7.49917">
        <ele>461.98</ele>
        <time>2014-09-06T06:41:49Z</time>
      </trkpt>
      <trkpt lat="43.81017" lon="7.49998">
        <ele>451.23</ele>
        <time>2014-09-06T06:42:49Z</time>
      </trkpt>
      <trkpt lat="43.80965" lon="7.50011">
        <ele>441.44</ele>
        <time>2014-09-06T06:43:49Z</time>
      </trkpt>
      <trkpt lat="43.80914" lon="7.49948">
        <ele>428.43</ele>
        <time>2014-09-06T06:44:49Z</time>
      </trkpt>
      <trkpt lat="43.80886" lon="7.49952">
        <ele>425.21</ele>
        <time>2014-09-06T06:45:49Z</time>
      </trkpt>
      <trkpt lat="43.80862" lon="7.49949">
        <ele>421.89</ele>
        <time>2014-09-06T06:46:49Z</time>
      </trkpt>
      <trkpt lat="43.80797" lon="7.49908">
        <ele>409.05</ele>
        <time>2014-09-06T06:47:49Z</time>
      </trkpt>
      <trkpt lat="43.80764" lon="7.49894">
        <ele>402.96</ele>
        <time>2014-09-06T06:48:50Z</time>
      </trkpt>
      <trkpt lat="43.80766" lon="7.49891">
        <ele>402.71</ele>
        <time>2014-09-06T06:49:50Z</time>
      </trkpt>
      <trkpt lat="43.80767" lon="7.49891">
        <ele>402.56</ele>
        <time>2014-09-06T06:50:50Z</time>
      </trkpt>
      <trkpt lat="43.8073" lon="7.49912">
        <ele>396.92</ele>
        <time>2014-09-06T06:51:50Z</time>
      </trkpt>
      <trkpt lat="43.80724" lon="7.49892">
        <ele>391.4</ele>
        <time>2014-09-06T06:52:50Z</time>
      </trkpt>
      <trkpt lat="43.80712" lon="7.49865">
        <ele>385.55</ele>
        <time>2014-09-06T06:53:50Z</time>
      </trkpt>
      <trkpt lat="43.80655" lon="7.49824">
        <ele>377.48</ele>
        <time>2014-09-06T06:54:50Z</time>
      </trkpt>
      <trkpt lat="43.80633" lon="7.49895">
        <ele>366.25</ele>
        <time>2014-09-06T06:55:50Z</time>
      </trkpt>
      <trkpt lat="43.80595" lon="7.49981">
        <ele>366.44</ele>
        <time>2014-09-06T06:56:50Z</time>
      </trkpt>
      <trkpt lat="43.80552" lon="7.50058">
        <ele>370.35</ele>
        <time>2014-09-06T06:57:50Z</time>
      </trkpt>
      <trkpt lat="43.80521" lon="7.50068">
        <ele>364.14</ele>
        <time>2014-09-06T06:58:50Z</time>
      </trkpt>
      <trkpt lat="43.80463" lon="7.50114">
        <ele>362.34</ele>
        <time>2014-09-06T06:59:50Z</time>
      </trkpt>
      <trkpt lat="43.8043" lon="7.50175">
        <ele>361.05</ele>
        <time>2014-09-06T07:00:50Z</time>
      </trkpt>
      <trkpt lat="43.80392" lon="7.50222">
        <ele>361.1</ele>
        <time>2014-09-06T07:01:50Z</time>
      </trkpt>
      <trkpt lat="43.80363" lon="7.50291">
        <ele>358.91</ele>
        <time>2014-09-06T07:02:50Z</time>
      </trkpt>
      <trkpt lat="43.80344" lon="7.50319">
        <ele>349.37</ele>
        <time>2014-09-06T07:03:50Z</time>
      </trkpt>
      <trkpt lat="43.80304" lon="7.50322">
        <ele>352.02</ele>
        <time>2014-09-06T07:04:50Z</time>
      </trkpt>
      <trkpt lat="43.80241" lon="7.50328">
        <ele>351.41</ele>
        <time>2014-09-06T07:05:50Z</time>
      </trkpt>
      <trkpt lat="43.8018" lon="7.50285">
        <ele>343.96</ele>
        <time>2014-09-06T07:06:50Z</time>
      </trkpt>
      <trkpt lat="43.80162" lon="7.50277">
        <ele>342.77</ele>
        <time>2014-09-06T07:07:50Z</time>
      </trkpt>
      <trkpt lat="43.80105" lon="7.50264">
        <ele>338.96</ele>
        <time>2014-09-06T07:08:50Z</time>
      </trkpt>
      <trkpt lat="43.8004" lon="7.50266">
        <ele>337.46</ele>
        <time>2014-09-06T07:09:50Z</time>
      </trkpt>
      <trkpt lat="43.79991" lon="7.50255">
        <ele>332.26</ele>
        <time>2014-09-06T07:10:50Z</time>
      </trkpt>
      <trkpt lat="43.79961" lon="7.5027">
        <ele>324.35</ele>
        <time>2014-09-06T07:11:50Z</time>
      </trkpt>
      <trkpt lat="43.79906" lon="7.5032">
        <ele>321.06</ele>
        <time>2014-09-06T07:12:50Z</time>
      </trkpt>
      <trkpt lat="43.79856" lon="7.50325">
        <ele>315.6</ele>
        <time>2014-09-06T07:13:50Z</time>
      </trkpt>
      <trkpt lat="43.79799" lon="7.50308">
        <ele>309.1</ele>
        <time>2014-09-06T07:14:50Z</time>
      </trkpt>
      <trkpt lat="43.79742" lon="7.50317">
        <ele>311.5</ele>
        <time>2014-09-06T07:15:50Z</time>
      </trkpt>
      <trkpt lat="43.79691" lon="7.50345">
        <ele>312.24</ele>
        <time>2014-09-06T07:16:50Z</time>
      </trkpt>
      <trkpt lat="43.79648" lon="7.50389">
        <ele>313.86</ele>
        <time>2014-09-06T07:17:50Z</time>
      </trkpt>
      <trkpt lat="43.79623" lon="7.5046">
        <ele>314.13</ele>
        <time>2014-09-06T07:18:50Z</time>
      </trkpt>
      <trkpt lat="43.7961" lon="7.50554">
        <ele>316.87</ele>
        <time>2014-09-06T07:19:50Z</time>
      </trkpt>
      <trkpt lat="43.79635" lon="7.50584">
        <ele>321.74</ele>
        <time>2014-09-06T07:20:50Z</time>
      </trkpt>
      <trkpt lat="43.7968" lon="7.50624">
        <ele>312.81</ele>
        <time>2014-09-06T07:21:56Z</time>
      </trkpt>
      <trkpt lat="43.79695" lon="7.50669">
        <ele>307.17</ele>
        <time>2014-09-06T07:22:59Z</time>
      </trkpt>
      <trkpt lat="43.79691" lon="7.50678">
        <ele>297.6</ele>
        <time>2014-09-06T07:24:03Z</time>
      </trkpt>
      <trkpt lat="43.79659" lon="7.50734">
        <ele>287.4</ele>
        <time>2014-09-06T07:25:06Z</time>
      </trkpt>
      <trkpt lat="43.79622" lon="7.50744">
        <ele>277.96</ele>
        <time>2014-09-06T07:26:09Z</time>
      </trkpt>
      <trkpt lat="43.79579" lon="7.50771">
        <ele>266.9</ele>
        <time>2014-09-06T07:27:12Z</time>
      </trkpt>
      <trkpt lat="43.79536" lon="7.50797">
        <ele>260.8</ele>
        <time>2014-09-06T07:28:20Z</time>
      </trkpt>
      <trkpt lat="43.79463" lon="7.50787">
        <ele>255.2</ele>
        <time>2014-09-06T07:29:24Z</time>
      </trkpt>
      <trkpt lat="43.79433" lon="7.50766">
        <ele>255.16</ele>
        <time>2014-09-06T07:30:28Z</time>
      </trkpt>
      <trkpt lat="43.79433" lon="7.50768">
        <ele>255.04</ele>
        <time>2014-09-06T07:31:30Z</time>
      </trkpt>
      <trkpt lat="43.79424" lon="7.50793">
        <ele>250.73</ele>
        <time>2014-09-06T07:32:33Z</time>
      </trkpt>
      <trkpt lat="43.79388" lon="7.50796">
        <ele>240.61</ele>
        <time>2014-09-06T07:33:37Z</time>
      </trkpt>
      <trkpt lat="43.79393" lon="7.50875">
        <ele>228.68</ele>
        <time>2014-09-06T07:34:39Z</time>
      </trkpt>
      <trkpt lat="43.79345" lon="7.50927">
        <ele>218.35</ele>
        <time>2014-09-06T07:35:43Z</time>
      </trkpt>
      <trkpt lat="43.79362" lon="7.50908">
        <ele>213.96</ele>
        <time>2014-09-06T07:36:47Z</time>
      </trkpt>
      <trkpt lat="43.793" lon="7.50899">
        <ele>206.95</ele>
        <time>2014-09-06T07:38:16Z</time>
      </trkpt>
      <trkpt lat="43.79236" lon="7.5095">
        <ele>203.21</ele>
        <time>2014-09-06T07:39:22Z</time>
      </trkpt>
      <trkpt lat="43.79243" lon="7.50908">
        <ele>202.36</ele>
        <time>2014-09-06T07:40:24Z</time>
      </trkpt>
      <trkpt lat="43.79195" lon="7.50875">
        <ele>204.8</ele>
        <time>2014-09-06T07:41:26Z</time>
      </trkpt>
      <trkpt lat="43.79136" lon="7.50824">
        <ele>207.71</ele>
        <time>2014-09-06T07:42:29Z</time>
      </trkpt>
      <trkpt lat="43.79087" lon="7.50799">
        <ele>211.66</ele>
        <time>2014-09-06T07:43:33Z</time>
      </trkpt>
      <trkpt lat="43.79037" lon="7.50789">
        <ele>222.01</ele>
        <time>2014-09-06T07:44:36Z</time>
      </trkpt>
      <trkpt lat="43.78989" lon="7.50791">
        <ele>223.63</ele>
        <time>2014-09-06T07:45:40Z</time>
      </trkpt>
      <trkpt lat="43.789" lon="7.50836">
        <ele>214.58</ele>
        <time>2014-09-06T07:46:44Z</time>
      </trkpt>
      <trkpt lat="43.78817" lon="7.50829">
        <ele>203.68</ele>
        <time>2014-09-06T07:47:48Z</time>
      </trkpt>
      <trkpt lat="43.78772" lon="7.50832">
        <ele>205.56</ele>
        <time>2014-09-06T07:48:52Z</time>
      </trkpt>
      <trkpt lat="43.78751" lon="7.5081">
        <ele>206.46</ele>
        <time>2014-09-06T07:49:55Z</time>
      </trkpt>
      <trkpt lat="43.7867" lon="7.50814">
        <ele>209.18</ele>
        <time>2014-09-06T07:50:58Z</time>
      </trkpt>
      <trkpt lat="43.78597" lon="7.50773">
        <ele>202.9</ele>
        <time>2014-09-06T07:52:02Z</time>
      </trkpt>
      <trkpt lat="43.7855" lon="7.50697">
        <ele>195.34</ele>
        <time>2014-09-06T07:53:05Z</time>
      </trkpt>
      <trkpt lat="43.785" lon="7.50647">
        <ele>197.6</ele>
        <time>2014-09-06T07:54:08Z</time>
      </trkpt>
      <trkpt lat="43.78422" lon="7.50649">
        <ele>198.19</ele>
        <time>2014-09-06T07:55:11Z</time>
      </trkpt>
      <trkpt lat="43.78352" lon="7.50651">
        <ele>193.25</ele>
        <time>2014-09-06T07:56:15Z</time>
      </trkpt>
      <trkpt lat="43.78276" lon="7.50614">
        <ele>183.35</ele>
        <time>2014-09-06T07:57:17Z</time>
      </trkpt>
      <trkpt lat="43.78206" lon="7.50579">
        <ele>173.57</ele>
        <time>2014-09-06T07:58:21Z</time>
      </trkpt>
      <trkpt lat="43.78157" lon="7.50554">
        <ele>159.28</ele>
        <time>2014-09-06T07:59:26Z</time>
      </trkpt>
      <trkpt lat="43.78062" lon="7.50557">
        <ele>143.35</ele>
        <time>2014-09-06T08:00:35Z</time>
      </trkpt>
      <trkpt lat="43.78028" lon="7.50541">
        <ele>126.96</ele>
        <time>2014-09-06T08:01:41Z</time>
      </trkpt>
      <trkpt lat="43.78006" lon="7.50575">
        <ele>121.91</ele>
        <time>2014-09-06T08:02:46Z</time>
      </trkpt>
      <trkpt lat="43.78004" lon="7.50565">
        <ele>121.88</ele>
        <time>2014-09-06T08:03:53Z</time>
      </trkpt>
      <trkpt lat="43.78017" lon="7.50577">
        <ele>121.85</ele>
        <time>2014-09-06T08:05:04Z</time>
      </trkpt>
      <trkpt lat="43.78003" lon="7.50563">
        <ele>121.82</ele>
        <time>2014-09-06T08:06:09Z</time>
      </trkpt>
      <trkpt lat="43.77996" lon="7.5057">
        <ele>121.88</ele>
        <time>2014-09-06T08:07:11Z</time>
      </trkpt>
      <trkpt lat="43.77999" lon="7.50567">
        <ele>121.85</ele>
        <time>2014-09-06T08:08:13Z</time>
      </trkpt>
      <trkpt lat="43.77959" lon="7.50562">
        <ele>116.73</ele>
        <time>2014-09-06T08:09:16Z</time>
      </trkpt>
      <trkpt lat="43.77885" lon="7.50561">
        <ele>108.66</ele>
        <time>2014-09-06T08:10:20Z</time>
      </trkpt>
      <trkpt lat="43.778" lon="7.50522">
        <ele>99.76</ele>
        <time>2014-09-06T08:11:23Z</time>
      </trkpt>
      <trkpt lat="43.77748" lon="7.50612">
        <ele>87.59</ele>
        <time>2014-09-06T08:12:29Z</time>
      </trkpt>
      <trkpt lat="43.77714" lon="7.50721">
        <ele>78.58</ele>
        <time>2014-09-06T08:13:35Z</time>
      </trkpt>
      <trkpt lat="43.77708" lon="7.50752">
        <ele>75.91</ele>
        <time>2014-09-06T08:14:39Z</time>
      </trkpt>
      <trkpt lat="43.7771" lon="7.50761">
        <ele>67.3</ele>
        <time>2014-09-06T08:15:45Z</time>
      </trkpt>
      <trkpt lat="43.77748" lon="7.50736">
        <ele>62.73</ele>
        <time>2014-09-06T08:16:48Z</time>
      </trkpt>
      <trkpt lat="43.77744" lon="7.50758">
        <ele>62.66</ele>
        <time>2014-09-06T08:17:50Z</time>
      </trkpt>
      <trkpt lat="43.77631" lon="7.50754">
        <ele>57.8</ele>
        <time>2014-09-06T08:19:10Z</time>
      </trkpt>
      <trkpt lat="43.77604" lon="7.50676">
        <ele>52.32</ele>
        <time>2014-09-06T08:20:22Z</time>
      </trkpt>
      <trkpt lat="43.77556" lon="7.50674">
        <ele>49.56</ele>
        <time>2014-09-06T08:21:29Z</time>
      </trkpt>
      <trkpt lat="43.77534" lon="7.50625">
        <ele>49.23</ele>
        <time>2014-09-06T08:22:36Z</time>
      </trkpt>
      <trkpt lat="43.77499" lon="7.50631">
        <ele>48.28</ele>
        <time>2014-09-06T08:23:39Z</time>
      </trkpt>
      <trkpt lat="43.77443" lon="7.50605">
        <ele>48.23</ele>
        <time>2014-09-06T08:24:43Z</time>
      </trkpt>
      <trkpt lat="43.77436" lon="7.50539">
        <ele>46.56</ele>
        <time>2014-09-06T08:25:43Z</time>
      </trkpt>
      <trkpt lat="43.77442" lon="7.50526">
        <ele>47.22</ele>
        <time>2014-09-06T08:26:21Z</time>
      </trkpt>
    </trkseg>
  </trk>
</gpx>